<?xml version="1.0" encoding="UTF-8" standalone="no" ?>
<gpx xmlns="http://www.topografix.com/GPX/1/1" xmlns:xsi="http://www.w3.org/2001/XMLSchema-instance" xsi:schemaLocation="http://www.topografix.com/GPX/1/1 http://www.topografix.com/GPX/1/1/gpx.xsd" version="1.1" creator="VisuGPX - https://www.visugpx.com">
  <metadata>
    <name>les 47 du 47</name>
    <desc><![CDATA[Randonnée pédestre au départ de Fumel et traversant 4 villages  avant de faire un dernier arrêt sous le château de Bonaguil.]]></desc>
  </metadata>
  <trk>
    <name><![CDATA[Tracé actuel: 19 AVR 2015 07:55]]></name>
    <trkseg>
      <trkpt lat="44.50204" lon="0.9702">
        <ele>164.52</ele>
        <time>2015-04-19T05:55:40Z</time>
      </trkpt>
      <trkpt lat="44.50206" lon="0.97019">
        <ele>160.68</ele>
        <time>2015-04-19T05:55:44Z</time>
      </trkpt>
      <trkpt lat="44.50207" lon="0.97019">
        <ele>157.31</ele>
        <time>2015-04-19T05:55:48Z</time>
      </trkpt>
      <trkpt lat="44.50208" lon="0.97021">
        <ele>153.95</ele>
        <time>2015-04-19T05:55:53Z</time>
      </trkpt>
      <trkpt lat="44.50207" lon="0.9702">
        <ele>151.06</ele>
        <time>2015-04-19T05:55:59Z</time>
      </trkpt>
      <trkpt lat="44.50207" lon="0.97021">
        <ele>148.18</ele>
        <time>2015-04-19T05:56:08Z</time>
      </trkpt>
      <trkpt lat="44.50208" lon="0.97022">
        <ele>144.82</ele>
        <time>2015-04-19T05:56:21Z</time>
      </trkpt>
      <trkpt lat="44.50208" lon="0.97021">
        <ele>142.41</ele>
        <time>2015-04-19T05:56:39Z</time>
      </trkpt>
      <trkpt lat="44.50207" lon="0.97025">
        <ele>142.41</ele>
        <time>2015-04-19T05:56:52Z</time>
      </trkpt>
      <trkpt lat="44.50207" lon="0.97026">
        <ele>142.41</ele>
        <time>2015-04-19T05:57:04Z</time>
      </trkpt>
      <trkpt lat="44.50207" lon="0.97026">
        <ele>142.41</ele>
        <time>2015-04-19T05:57:24Z</time>
      </trkpt>
      <trkpt lat="44.50206" lon="0.97027">
        <ele>142.41</ele>
        <time>2015-04-19T05:57:46Z</time>
      </trkpt>
      <trkpt lat="44.50206" lon="0.97027">
        <ele>142.41</ele>
        <time>2015-04-19T05:58:07Z</time>
      </trkpt>
      <trkpt lat="44.50205" lon="0.97027">
        <ele>142.41</ele>
        <time>2015-04-19T05:58:27Z</time>
      </trkpt>
      <trkpt lat="44.50205" lon="0.97028">
        <ele>142.41</ele>
        <time>2015-04-19T05:58:43Z</time>
      </trkpt>
      <trkpt lat="44.50205" lon="0.97027">
        <ele>142.41</ele>
        <time>2015-04-19T05:58:57Z</time>
      </trkpt>
      <trkpt lat="44.50206" lon="0.97028">
        <ele>142.41</ele>
        <time>2015-04-19T05:59:12Z</time>
      </trkpt>
      <trkpt lat="44.50206" lon="0.97028">
        <ele>142.41</ele>
        <time>2015-04-19T05:59:31Z</time>
      </trkpt>
      <trkpt lat="44.50206" lon="0.97028">
        <ele>142.41</ele>
        <time>2015-04-19T05:59:48Z</time>
      </trkpt>
      <trkpt lat="44.50206" lon="0.97028">
        <ele>142.41</ele>
        <time>2015-04-19T06:00:08Z</time>
      </trkpt>
      <trkpt lat="44.50206" lon="0.97028">
        <ele>142.41</ele>
        <time>2015-04-19T06:00:20Z</time>
      </trkpt>
      <trkpt lat="44.50176" lon="0.97062">
        <ele>142.41</ele>
        <time>2015-04-19T06:00:35Z</time>
      </trkpt>
      <trkpt lat="44.50174" lon="0.97067">
        <ele>142.41</ele>
        <time>2015-04-19T06:00:37Z</time>
      </trkpt>
      <trkpt lat="44.50174" lon="0.9707">
        <ele>142.41</ele>
        <time>2015-04-19T06:00:38Z</time>
      </trkpt>
      <trkpt lat="44.50174" lon="0.97073">
        <ele>142.41</ele>
        <time>2015-04-19T06:00:39Z</time>
      </trkpt>
      <trkpt lat="44.50177" lon="0.97095">
        <ele>142.41</ele>
        <time>2015-04-19T06:00:45Z</time>
      </trkpt>
      <trkpt lat="44.50179" lon="0.97099">
        <ele>142.41</ele>
        <time>2015-04-19T06:00:46Z</time>
      </trkpt>
      <trkpt lat="44.50181" lon="0.97102">
        <ele>142.41</ele>
        <time>2015-04-19T06:00:47Z</time>
      </trkpt>
      <trkpt lat="44.50184" lon="0.97103">
        <ele>142.41</ele>
        <time>2015-04-19T06:00:48Z</time>
      </trkpt>
      <trkpt lat="44.50187" lon="0.97105">
        <ele>142.41</ele>
        <time>2015-04-19T06:00:49Z</time>
      </trkpt>
      <trkpt lat="44.50226" lon="0.97113">
        <ele>139.53</ele>
        <time>2015-04-19T06:01:03Z</time>
      </trkpt>
      <trkpt lat="44.50257" lon="0.97122">
        <ele>136.64</ele>
        <time>2015-04-19T06:01:13Z</time>
      </trkpt>
      <trkpt lat="44.50281" lon="0.97144">
        <ele>136.64</ele>
        <time>2015-04-19T06:01:22Z</time>
      </trkpt>
      <trkpt lat="44.50284" lon="0.97145">
        <ele>136.64</ele>
        <time>2015-04-19T06:01:23Z</time>
      </trkpt>
      <trkpt lat="44.50286" lon="0.97145">
        <ele>136.64</ele>
        <time>2015-04-19T06:01:24Z</time>
      </trkpt>
      <trkpt lat="44.50318" lon="0.97142">
        <ele>137.13</ele>
        <time>2015-04-19T06:01:35Z</time>
      </trkpt>
      <trkpt lat="44.50352" lon="0.97135">
        <ele>137.13</ele>
        <time>2015-04-19T06:01:46Z</time>
      </trkpt>
      <trkpt lat="44.50376" lon="0.97133">
        <ele>137.13</ele>
        <time>2015-04-19T06:01:56Z</time>
      </trkpt>
      <trkpt lat="44.50403" lon="0.97134">
        <ele>138.09</ele>
        <time>2015-04-19T06:02:07Z</time>
      </trkpt>
      <trkpt lat="44.50431" lon="0.97134">
        <ele>138.09</ele>
        <time>2015-04-19T06:02:17Z</time>
      </trkpt>
      <trkpt lat="44.50462" lon="0.97134">
        <ele>138.09</ele>
        <time>2015-04-19T06:02:28Z</time>
      </trkpt>
      <trkpt lat="44.50488" lon="0.97131">
        <ele>138.09</ele>
        <time>2015-04-19T06:02:38Z</time>
      </trkpt>
      <trkpt lat="44.50515" lon="0.97127">
        <ele>138.09</ele>
        <time>2015-04-19T06:02:49Z</time>
      </trkpt>
      <trkpt lat="44.50543" lon="0.97133">
        <ele>138.09</ele>
        <time>2015-04-19T06:03:00Z</time>
      </trkpt>
      <trkpt lat="44.50568" lon="0.97139">
        <ele>138.09</ele>
        <time>2015-04-19T06:03:10Z</time>
      </trkpt>
      <trkpt lat="44.5059" lon="0.97149">
        <ele>138.09</ele>
        <time>2015-04-19T06:03:19Z</time>
      </trkpt>
      <trkpt lat="44.50592" lon="0.9715">
        <ele>138.09</ele>
        <time>2015-04-19T06:03:20Z</time>
      </trkpt>
      <trkpt lat="44.50594" lon="0.97151">
        <ele>138.09</ele>
        <time>2015-04-19T06:03:21Z</time>
      </trkpt>
      <trkpt lat="44.50596" lon="0.97152">
        <ele>138.57</ele>
        <time>2015-04-19T06:03:22Z</time>
      </trkpt>
      <trkpt lat="44.50599" lon="0.97153">
        <ele>138.57</ele>
        <time>2015-04-19T06:03:23Z</time>
      </trkpt>
      <trkpt lat="44.50601" lon="0.97154">
        <ele>138.57</ele>
        <time>2015-04-19T06:03:24Z</time>
      </trkpt>
      <trkpt lat="44.50603" lon="0.97156">
        <ele>138.57</ele>
        <time>2015-04-19T06:03:25Z</time>
      </trkpt>
      <trkpt lat="44.50605" lon="0.97157">
        <ele>138.57</ele>
        <time>2015-04-19T06:03:26Z</time>
      </trkpt>
      <trkpt lat="44.50607" lon="0.97159">
        <ele>138.57</ele>
        <time>2015-04-19T06:03:27Z</time>
      </trkpt>
      <trkpt lat="44.50609" lon="0.9716">
        <ele>138.57</ele>
        <time>2015-04-19T06:03:28Z</time>
      </trkpt>
      <trkpt lat="44.50612" lon="0.97162">
        <ele>139.53</ele>
        <time>2015-04-19T06:03:29Z</time>
      </trkpt>
      <trkpt lat="44.50613" lon="0.97164">
        <ele>139.05</ele>
        <time>2015-04-19T06:03:30Z</time>
      </trkpt>
      <trkpt lat="44.50615" lon="0.97165">
        <ele>139.05</ele>
        <time>2015-04-19T06:03:31Z</time>
      </trkpt>
      <trkpt lat="44.50617" lon="0.97167">
        <ele>139.05</ele>
        <time>2015-04-19T06:03:32Z</time>
      </trkpt>
      <trkpt lat="44.50641" lon="0.97189">
        <ele>140.49</ele>
        <time>2015-04-19T06:03:44Z</time>
      </trkpt>
      <trkpt lat="44.50669" lon="0.97201">
        <ele>142.41</ele>
        <time>2015-04-19T06:03:57Z</time>
      </trkpt>
      <trkpt lat="44.50688" lon="0.97205">
        <ele>146.26</ele>
        <time>2015-04-19T06:04:07Z</time>
      </trkpt>
      <trkpt lat="44.5071" lon="0.97214">
        <ele>146.74</ele>
        <time>2015-04-19T06:04:23Z</time>
      </trkpt>
      <trkpt lat="44.50713" lon="0.97214">
        <ele>146.74</ele>
        <time>2015-04-19T06:04:25Z</time>
      </trkpt>
      <trkpt lat="44.50715" lon="0.97215">
        <ele>146.74</ele>
        <time>2015-04-19T06:04:26Z</time>
      </trkpt>
      <trkpt lat="44.50741" lon="0.97224">
        <ele>146.74</ele>
        <time>2015-04-19T06:04:43Z</time>
      </trkpt>
      <trkpt lat="44.50752" lon="0.97228">
        <ele>147.22</ele>
        <time>2015-04-19T06:04:50Z</time>
      </trkpt>
      <trkpt lat="44.50753" lon="0.97227">
        <ele>147.22</ele>
        <time>2015-04-19T06:04:51Z</time>
      </trkpt>
      <trkpt lat="44.50755" lon="0.97226">
        <ele>147.22</ele>
        <time>2015-04-19T06:04:52Z</time>
      </trkpt>
      <trkpt lat="44.50757" lon="0.97226">
        <ele>147.22</ele>
        <time>2015-04-19T06:04:53Z</time>
      </trkpt>
      <trkpt lat="44.50759" lon="0.97226">
        <ele>147.22</ele>
        <time>2015-04-19T06:04:54Z</time>
      </trkpt>
      <trkpt lat="44.5076" lon="0.97227">
        <ele>147.22</ele>
        <time>2015-04-19T06:04:55Z</time>
      </trkpt>
      <trkpt lat="44.50781" lon="0.97234">
        <ele>147.7</ele>
        <time>2015-04-19T06:05:08Z</time>
      </trkpt>
      <trkpt lat="44.50803" lon="0.97238">
        <ele>148.18</ele>
        <time>2015-04-19T06:05:23Z</time>
      </trkpt>
      <trkpt lat="44.50823" lon="0.9724">
        <ele>149.62</ele>
        <time>2015-04-19T06:05:36Z</time>
      </trkpt>
      <trkpt lat="44.5083" lon="0.9724">
        <ele>149.62</ele>
        <time>2015-04-19T06:05:42Z</time>
      </trkpt>
      <trkpt lat="44.50832" lon="0.9724">
        <ele>149.62</ele>
        <time>2015-04-19T06:05:43Z</time>
      </trkpt>
      <trkpt lat="44.5084" lon="0.97235">
        <ele>150.1</ele>
        <time>2015-04-19T06:05:49Z</time>
      </trkpt>
      <trkpt lat="44.50841" lon="0.97233">
        <ele>150.1</ele>
        <time>2015-04-19T06:05:50Z</time>
      </trkpt>
      <trkpt lat="44.50842" lon="0.97231">
        <ele>150.1</ele>
        <time>2015-04-19T06:05:51Z</time>
      </trkpt>
      <trkpt lat="44.50843" lon="0.9723">
        <ele>150.1</ele>
        <time>2015-04-19T06:05:52Z</time>
      </trkpt>
      <trkpt lat="44.50856" lon="0.9721">
        <ele>151.06</ele>
        <time>2015-04-19T06:06:04Z</time>
      </trkpt>
      <trkpt lat="44.50865" lon="0.972">
        <ele>151.54</ele>
        <time>2015-04-19T06:06:13Z</time>
      </trkpt>
      <trkpt lat="44.50866" lon="0.97198">
        <ele>151.54</ele>
        <time>2015-04-19T06:06:14Z</time>
      </trkpt>
      <trkpt lat="44.50874" lon="0.9719">
        <ele>152.51</ele>
        <time>2015-04-19T06:06:21Z</time>
      </trkpt>
      <trkpt lat="44.50875" lon="0.97189">
        <ele>152.51</ele>
        <time>2015-04-19T06:06:22Z</time>
      </trkpt>
      <trkpt lat="44.50882" lon="0.97181">
        <ele>153.47</ele>
        <time>2015-04-19T06:06:28Z</time>
      </trkpt>
      <trkpt lat="44.509" lon="0.97165">
        <ele>154.43</ele>
        <time>2015-04-19T06:06:41Z</time>
      </trkpt>
      <trkpt lat="44.50915" lon="0.97153">
        <ele>154.91</ele>
        <time>2015-04-19T06:06:50Z</time>
      </trkpt>
      <trkpt lat="44.5092" lon="0.97147">
        <ele>154.91</ele>
        <time>2015-04-19T06:06:54Z</time>
      </trkpt>
      <trkpt lat="44.50921" lon="0.97146">
        <ele>154.91</ele>
        <time>2015-04-19T06:06:55Z</time>
      </trkpt>
      <trkpt lat="44.50923" lon="0.97143">
        <ele>154.91</ele>
        <time>2015-04-19T06:06:57Z</time>
      </trkpt>
      <trkpt lat="44.50924" lon="0.97141">
        <ele>154.91</ele>
        <time>2015-04-19T06:06:58Z</time>
      </trkpt>
      <trkpt lat="44.50925" lon="0.9714">
        <ele>154.91</ele>
        <time>2015-04-19T06:06:59Z</time>
      </trkpt>
      <trkpt lat="44.50929" lon="0.97134">
        <ele>154.91</ele>
        <time>2015-04-19T06:07:04Z</time>
      </trkpt>
      <trkpt lat="44.50945" lon="0.97126">
        <ele>152.99</ele>
        <time>2015-04-19T06:07:17Z</time>
      </trkpt>
      <trkpt lat="44.50956" lon="0.9711">
        <ele>152.03</ele>
        <time>2015-04-19T06:07:29Z</time>
      </trkpt>
      <trkpt lat="44.50959" lon="0.97106">
        <ele>152.03</ele>
        <time>2015-04-19T06:07:32Z</time>
      </trkpt>
      <trkpt lat="44.5096" lon="0.97105">
        <ele>151.54</ele>
        <time>2015-04-19T06:07:33Z</time>
      </trkpt>
      <trkpt lat="44.50962" lon="0.97104">
        <ele>151.54</ele>
        <time>2015-04-19T06:07:34Z</time>
      </trkpt>
      <trkpt lat="44.50963" lon="0.97103">
        <ele>151.54</ele>
        <time>2015-04-19T06:07:35Z</time>
      </trkpt>
      <trkpt lat="44.50964" lon="0.97102">
        <ele>151.54</ele>
        <time>2015-04-19T06:07:36Z</time>
      </trkpt>
      <trkpt lat="44.50965" lon="0.971">
        <ele>151.54</ele>
        <time>2015-04-19T06:07:37Z</time>
      </trkpt>
      <trkpt lat="44.5099" lon="0.97078">
        <ele>149.14</ele>
        <time>2015-04-19T06:07:49Z</time>
      </trkpt>
      <trkpt lat="44.51015" lon="0.97056">
        <ele>145.78</ele>
        <time>2015-04-19T06:08:00Z</time>
      </trkpt>
      <trkpt lat="44.51035" lon="0.97043">
        <ele>142.89</ele>
        <time>2015-04-19T06:08:10Z</time>
      </trkpt>
      <trkpt lat="44.51058" lon="0.97026">
        <ele>142.41</ele>
        <time>2015-04-19T06:08:20Z</time>
      </trkpt>
      <trkpt lat="44.51061" lon="0.97024">
        <ele>142.41</ele>
        <time>2015-04-19T06:08:21Z</time>
      </trkpt>
      <trkpt lat="44.51063" lon="0.97022">
        <ele>142.41</ele>
        <time>2015-04-19T06:08:22Z</time>
      </trkpt>
      <trkpt lat="44.51065" lon="0.97021">
        <ele>142.41</ele>
        <time>2015-04-19T06:08:23Z</time>
      </trkpt>
      <trkpt lat="44.51068" lon="0.97019">
        <ele>142.41</ele>
        <time>2015-04-19T06:08:24Z</time>
      </trkpt>
      <trkpt lat="44.5107" lon="0.97018">
        <ele>141.93</ele>
        <time>2015-04-19T06:08:25Z</time>
      </trkpt>
      <trkpt lat="44.51072" lon="0.97016">
        <ele>141.93</ele>
        <time>2015-04-19T06:08:26Z</time>
      </trkpt>
      <trkpt lat="44.51083" lon="0.97006">
        <ele>140.97</ele>
        <time>2015-04-19T06:08:31Z</time>
      </trkpt>
      <trkpt lat="44.51085" lon="0.97003">
        <ele>140.97</ele>
        <time>2015-04-19T06:08:32Z</time>
      </trkpt>
      <trkpt lat="44.51101" lon="0.96979">
        <ele>137.13</ele>
        <time>2015-04-19T06:08:41Z</time>
      </trkpt>
      <trkpt lat="44.51126" lon="0.96964">
        <ele>134.72</ele>
        <time>2015-04-19T06:08:52Z</time>
      </trkpt>
      <trkpt lat="44.51147" lon="0.96946">
        <ele>134.72</ele>
        <time>2015-04-19T06:09:02Z</time>
      </trkpt>
      <trkpt lat="44.51151" lon="0.96942">
        <ele>134.72</ele>
        <time>2015-04-19T06:09:04Z</time>
      </trkpt>
      <trkpt lat="44.51151" lon="0.9694">
        <ele>134.24</ele>
        <time>2015-04-19T06:09:05Z</time>
      </trkpt>
      <trkpt lat="44.51152" lon="0.96937">
        <ele>134.24</ele>
        <time>2015-04-19T06:09:06Z</time>
      </trkpt>
      <trkpt lat="44.51152" lon="0.96934">
        <ele>134.24</ele>
        <time>2015-04-19T06:09:07Z</time>
      </trkpt>
      <trkpt lat="44.51153" lon="0.96931">
        <ele>134.24</ele>
        <time>2015-04-19T06:09:08Z</time>
      </trkpt>
      <trkpt lat="44.51152" lon="0.96929">
        <ele>134.24</ele>
        <time>2015-04-19T06:09:09Z</time>
      </trkpt>
      <trkpt lat="44.51146" lon="0.96903">
        <ele>133.28</ele>
        <time>2015-04-19T06:09:18Z</time>
      </trkpt>
      <trkpt lat="44.51145" lon="0.96893">
        <ele>132.8</ele>
        <time>2015-04-19T06:09:21Z</time>
      </trkpt>
      <trkpt lat="44.51144" lon="0.9689">
        <ele>132.8</ele>
        <time>2015-04-19T06:09:22Z</time>
      </trkpt>
      <trkpt lat="44.51144" lon="0.96887">
        <ele>132.8</ele>
        <time>2015-04-19T06:09:23Z</time>
      </trkpt>
      <trkpt lat="44.51143" lon="0.96883">
        <ele>132.8</ele>
        <time>2015-04-19T06:09:24Z</time>
      </trkpt>
      <trkpt lat="44.51143" lon="0.9688">
        <ele>132.8</ele>
        <time>2015-04-19T06:09:25Z</time>
      </trkpt>
      <trkpt lat="44.51144" lon="0.96867">
        <ele>132.8</ele>
        <time>2015-04-19T06:09:29Z</time>
      </trkpt>
      <trkpt lat="44.51145" lon="0.96864">
        <ele>132.8</ele>
        <time>2015-04-19T06:09:30Z</time>
      </trkpt>
      <trkpt lat="44.51145" lon="0.96861">
        <ele>132.8</ele>
        <time>2015-04-19T06:09:31Z</time>
      </trkpt>
      <trkpt lat="44.51146" lon="0.96858">
        <ele>132.8</ele>
        <time>2015-04-19T06:09:32Z</time>
      </trkpt>
      <trkpt lat="44.51148" lon="0.96857">
        <ele>132.8</ele>
        <time>2015-04-19T06:09:33Z</time>
      </trkpt>
      <trkpt lat="44.51149" lon="0.96855">
        <ele>132.8</ele>
        <time>2015-04-19T06:09:34Z</time>
      </trkpt>
      <trkpt lat="44.5115" lon="0.96853">
        <ele>132.8</ele>
        <time>2015-04-19T06:09:35Z</time>
      </trkpt>
      <trkpt lat="44.5115" lon="0.9685">
        <ele>132.8</ele>
        <time>2015-04-19T06:09:36Z</time>
      </trkpt>
      <trkpt lat="44.51152" lon="0.96848">
        <ele>132.8</ele>
        <time>2015-04-19T06:09:37Z</time>
      </trkpt>
      <trkpt lat="44.51154" lon="0.96846">
        <ele>132.8</ele>
        <time>2015-04-19T06:09:38Z</time>
      </trkpt>
      <trkpt lat="44.51156" lon="0.96844">
        <ele>132.32</ele>
        <time>2015-04-19T06:09:39Z</time>
      </trkpt>
      <trkpt lat="44.51172" lon="0.96816">
        <ele>131.84</ele>
        <time>2015-04-19T06:09:50Z</time>
      </trkpt>
      <trkpt lat="44.51184" lon="0.96796">
        <ele>131.36</ele>
        <time>2015-04-19T06:09:57Z</time>
      </trkpt>
      <trkpt lat="44.51186" lon="0.96793">
        <ele>131.36</ele>
        <time>2015-04-19T06:09:58Z</time>
      </trkpt>
      <trkpt lat="44.51188" lon="0.9679">
        <ele>131.36</ele>
        <time>2015-04-19T06:09:59Z</time>
      </trkpt>
      <trkpt lat="44.51189" lon="0.96786">
        <ele>131.36</ele>
        <time>2015-04-19T06:10:00Z</time>
      </trkpt>
      <trkpt lat="44.51191" lon="0.96784">
        <ele>131.36</ele>
        <time>2015-04-19T06:10:01Z</time>
      </trkpt>
      <trkpt lat="44.51192" lon="0.96782">
        <ele>131.36</ele>
        <time>2015-04-19T06:10:02Z</time>
      </trkpt>
      <trkpt lat="44.51193" lon="0.96779">
        <ele>131.36</ele>
        <time>2015-04-19T06:10:03Z</time>
      </trkpt>
      <trkpt lat="44.51194" lon="0.96777">
        <ele>130.88</ele>
        <time>2015-04-19T06:10:04Z</time>
      </trkpt>
      <trkpt lat="44.51196" lon="0.96775">
        <ele>130.88</ele>
        <time>2015-04-19T06:10:05Z</time>
      </trkpt>
      <trkpt lat="44.51198" lon="0.96773">
        <ele>130.88</ele>
        <time>2015-04-19T06:10:06Z</time>
      </trkpt>
      <trkpt lat="44.51203" lon="0.96759">
        <ele>130.4</ele>
        <time>2015-04-19T06:10:11Z</time>
      </trkpt>
      <trkpt lat="44.51205" lon="0.96757">
        <ele>130.4</ele>
        <time>2015-04-19T06:10:12Z</time>
      </trkpt>
      <trkpt lat="44.51207" lon="0.96752">
        <ele>129.92</ele>
        <time>2015-04-19T06:10:14Z</time>
      </trkpt>
      <trkpt lat="44.51209" lon="0.96751">
        <ele>129.43</ele>
        <time>2015-04-19T06:10:15Z</time>
      </trkpt>
      <trkpt lat="44.5121" lon="0.96748">
        <ele>129.43</ele>
        <time>2015-04-19T06:10:16Z</time>
      </trkpt>
      <trkpt lat="44.51216" lon="0.96736">
        <ele>128.95</ele>
        <time>2015-04-19T06:10:20Z</time>
      </trkpt>
      <trkpt lat="44.51228" lon="0.96709">
        <ele>128.47</ele>
        <time>2015-04-19T06:10:28Z</time>
      </trkpt>
      <trkpt lat="44.5123" lon="0.96707">
        <ele>128.47</ele>
        <time>2015-04-19T06:10:29Z</time>
      </trkpt>
      <trkpt lat="44.51231" lon="0.96704">
        <ele>128.47</ele>
        <time>2015-04-19T06:10:30Z</time>
      </trkpt>
      <trkpt lat="44.51232" lon="0.96701">
        <ele>128.47</ele>
        <time>2015-04-19T06:10:31Z</time>
      </trkpt>
      <trkpt lat="44.51245" lon="0.9667">
        <ele>127.99</ele>
        <time>2015-04-19T06:10:41Z</time>
      </trkpt>
      <trkpt lat="44.51262" lon="0.96639">
        <ele>126.07</ele>
        <time>2015-04-19T06:10:52Z</time>
      </trkpt>
      <trkpt lat="44.51263" lon="0.96636">
        <ele>126.07</ele>
        <time>2015-04-19T06:10:53Z</time>
      </trkpt>
      <trkpt lat="44.51281" lon="0.96604">
        <ele>124.63</ele>
        <time>2015-04-19T06:11:03Z</time>
      </trkpt>
      <trkpt lat="44.5129" lon="0.9659">
        <ele>124.15</ele>
        <time>2015-04-19T06:11:08Z</time>
      </trkpt>
      <trkpt lat="44.51303" lon="0.9657">
        <ele>122.71</ele>
        <time>2015-04-19T06:11:16Z</time>
      </trkpt>
      <trkpt lat="44.51309" lon="0.96558">
        <ele>122.22</ele>
        <time>2015-04-19T06:11:20Z</time>
      </trkpt>
      <trkpt lat="44.51314" lon="0.96547">
        <ele>121.74</ele>
        <time>2015-04-19T06:11:24Z</time>
      </trkpt>
      <trkpt lat="44.51318" lon="0.9654">
        <ele>121.26</ele>
        <time>2015-04-19T06:11:27Z</time>
      </trkpt>
      <trkpt lat="44.51328" lon="0.96524">
        <ele>118.38</ele>
        <time>2015-04-19T06:11:33Z</time>
      </trkpt>
      <trkpt lat="44.51335" lon="0.96509">
        <ele>117.9</ele>
        <time>2015-04-19T06:11:38Z</time>
      </trkpt>
      <trkpt lat="44.51345" lon="0.96498">
        <ele>118.38</ele>
        <time>2015-04-19T06:11:44Z</time>
      </trkpt>
      <trkpt lat="44.51351" lon="0.96487">
        <ele>118.38</ele>
        <time>2015-04-19T06:11:48Z</time>
      </trkpt>
      <trkpt lat="44.51358" lon="0.96478">
        <ele>118.38</ele>
        <time>2015-04-19T06:11:52Z</time>
      </trkpt>
      <trkpt lat="44.51362" lon="0.96467">
        <ele>118.38</ele>
        <time>2015-04-19T06:11:56Z</time>
      </trkpt>
      <trkpt lat="44.51368" lon="0.96455">
        <ele>118.38</ele>
        <time>2015-04-19T06:12:01Z</time>
      </trkpt>
      <trkpt lat="44.51389" lon="0.9642">
        <ele>118.38</ele>
        <time>2015-04-19T06:12:15Z</time>
      </trkpt>
      <trkpt lat="44.51394" lon="0.96412">
        <ele>118.38</ele>
        <time>2015-04-19T06:12:20Z</time>
      </trkpt>
      <trkpt lat="44.51411" lon="0.96389">
        <ele>118.38</ele>
        <time>2015-04-19T06:12:31Z</time>
      </trkpt>
      <trkpt lat="44.51417" lon="0.96375">
        <ele>117.9</ele>
        <time>2015-04-19T06:12:37Z</time>
      </trkpt>
      <trkpt lat="44.51424" lon="0.96363">
        <ele>117.42</ele>
        <time>2015-04-19T06:12:42Z</time>
      </trkpt>
      <trkpt lat="44.5144" lon="0.96343">
        <ele>116.94</ele>
        <time>2015-04-19T06:12:48Z</time>
      </trkpt>
      <trkpt lat="44.51457" lon="0.96311">
        <ele>115.98</ele>
        <time>2015-04-19T06:12:54Z</time>
      </trkpt>
      <trkpt lat="44.51462" lon="0.96298">
        <ele>115.5</ele>
        <time>2015-04-19T06:12:58Z</time>
      </trkpt>
      <trkpt lat="44.51475" lon="0.96286">
        <ele>115.01</ele>
        <time>2015-04-19T06:13:03Z</time>
      </trkpt>
      <trkpt lat="44.51479" lon="0.96279">
        <ele>115.01</ele>
        <time>2015-04-19T06:13:06Z</time>
      </trkpt>
      <trkpt lat="44.51495" lon="0.96264">
        <ele>115.01</ele>
        <time>2015-04-19T06:13:14Z</time>
      </trkpt>
      <trkpt lat="44.51508" lon="0.96244">
        <ele>114.53</ele>
        <time>2015-04-19T06:13:19Z</time>
      </trkpt>
      <trkpt lat="44.51512" lon="0.96235">
        <ele>114.53</ele>
        <time>2015-04-19T06:13:22Z</time>
      </trkpt>
      <trkpt lat="44.5152" lon="0.96224">
        <ele>113.57</ele>
        <time>2015-04-19T06:13:29Z</time>
      </trkpt>
      <trkpt lat="44.51524" lon="0.96211">
        <ele>112.13</ele>
        <time>2015-04-19T06:13:35Z</time>
      </trkpt>
      <trkpt lat="44.51525" lon="0.9617">
        <ele>113.09</ele>
        <time>2015-04-19T06:13:46Z</time>
      </trkpt>
      <trkpt lat="44.51524" lon="0.96164">
        <ele>113.57</ele>
        <time>2015-04-19T06:13:48Z</time>
      </trkpt>
      <trkpt lat="44.51519" lon="0.96134">
        <ele>115.5</ele>
        <time>2015-04-19T06:13:59Z</time>
      </trkpt>
      <trkpt lat="44.51517" lon="0.96123">
        <ele>115.98</ele>
        <time>2015-04-19T06:14:03Z</time>
      </trkpt>
      <trkpt lat="44.51515" lon="0.96114">
        <ele>116.46</ele>
        <time>2015-04-19T06:14:07Z</time>
      </trkpt>
      <trkpt lat="44.51511" lon="0.96083">
        <ele>117.42</ele>
        <time>2015-04-19T06:14:20Z</time>
      </trkpt>
      <trkpt lat="44.51511" lon="0.96051">
        <ele>117.42</ele>
        <time>2015-04-19T06:14:32Z</time>
      </trkpt>
      <trkpt lat="44.51515" lon="0.96024">
        <ele>117.42</ele>
        <time>2015-04-19T06:14:43Z</time>
      </trkpt>
      <trkpt lat="44.51516" lon="0.96021">
        <ele>117.42</ele>
        <time>2015-04-19T06:14:44Z</time>
      </trkpt>
      <trkpt lat="44.51536" lon="0.95991">
        <ele>117.42</ele>
        <time>2015-04-19T06:14:55Z</time>
      </trkpt>
      <trkpt lat="44.51538" lon="0.9599">
        <ele>116.46</ele>
        <time>2015-04-19T06:14:56Z</time>
      </trkpt>
      <trkpt lat="44.51559" lon="0.95975">
        <ele>115.01</ele>
        <time>2015-04-19T06:15:07Z</time>
      </trkpt>
      <trkpt lat="44.51561" lon="0.95975">
        <ele>114.53</ele>
        <time>2015-04-19T06:15:08Z</time>
      </trkpt>
      <trkpt lat="44.51569" lon="0.95969">
        <ele>113.57</ele>
        <time>2015-04-19T06:15:12Z</time>
      </trkpt>
      <trkpt lat="44.51576" lon="0.95968">
        <ele>113.09</ele>
        <time>2015-04-19T06:15:16Z</time>
      </trkpt>
      <trkpt lat="44.51588" lon="0.95961">
        <ele>109.25</ele>
        <time>2015-04-19T06:15:23Z</time>
      </trkpt>
      <trkpt lat="44.5159" lon="0.95961">
        <ele>109.25</ele>
        <time>2015-04-19T06:15:24Z</time>
      </trkpt>
      <trkpt lat="44.51608" lon="0.95939">
        <ele>108.29</ele>
        <time>2015-04-19T06:15:32Z</time>
      </trkpt>
      <trkpt lat="44.51619" lon="0.95932">
        <ele>108.77</ele>
        <time>2015-04-19T06:15:36Z</time>
      </trkpt>
      <trkpt lat="44.5163" lon="0.95924">
        <ele>108.77</ele>
        <time>2015-04-19T06:15:41Z</time>
      </trkpt>
      <trkpt lat="44.5164" lon="0.95909">
        <ele>108.77</ele>
        <time>2015-04-19T06:15:47Z</time>
      </trkpt>
      <trkpt lat="44.51643" lon="0.95901">
        <ele>108.77</ele>
        <time>2015-04-19T06:15:51Z</time>
      </trkpt>
      <trkpt lat="44.51644" lon="0.95896">
        <ele>110.21</ele>
        <time>2015-04-19T06:15:56Z</time>
      </trkpt>
      <trkpt lat="44.51642" lon="0.95881">
        <ele>110.21</ele>
        <time>2015-04-19T06:16:01Z</time>
      </trkpt>
      <trkpt lat="44.51637" lon="0.9586">
        <ele>110.69</ele>
        <time>2015-04-19T06:16:13Z</time>
      </trkpt>
      <trkpt lat="44.51634" lon="0.95841">
        <ele>110.69</ele>
        <time>2015-04-19T06:16:21Z</time>
      </trkpt>
      <trkpt lat="44.51632" lon="0.95836">
        <ele>110.69</ele>
        <time>2015-04-19T06:16:24Z</time>
      </trkpt>
      <trkpt lat="44.51629" lon="0.9582">
        <ele>111.17</ele>
        <time>2015-04-19T06:16:31Z</time>
      </trkpt>
      <trkpt lat="44.51623" lon="0.95801">
        <ele>112.13</ele>
        <time>2015-04-19T06:16:42Z</time>
      </trkpt>
      <trkpt lat="44.51624" lon="0.95786">
        <ele>112.13</ele>
        <time>2015-04-19T06:16:45Z</time>
      </trkpt>
      <trkpt lat="44.5163" lon="0.95768">
        <ele>112.13</ele>
        <time>2015-04-19T06:16:49Z</time>
      </trkpt>
      <trkpt lat="44.51645" lon="0.95732">
        <ele>113.09</ele>
        <time>2015-04-19T06:17:02Z</time>
      </trkpt>
      <trkpt lat="44.51653" lon="0.95719">
        <ele>113.09</ele>
        <time>2015-04-19T06:17:09Z</time>
      </trkpt>
      <trkpt lat="44.51663" lon="0.95682">
        <ele>114.05</ele>
        <time>2015-04-19T06:17:23Z</time>
      </trkpt>
      <trkpt lat="44.51669" lon="0.9566">
        <ele>114.05</ele>
        <time>2015-04-19T06:17:33Z</time>
      </trkpt>
      <trkpt lat="44.5167" lon="0.95658">
        <ele>114.05</ele>
        <time>2015-04-19T06:17:34Z</time>
      </trkpt>
      <trkpt lat="44.51671" lon="0.95655">
        <ele>112.61</ele>
        <time>2015-04-19T06:17:35Z</time>
      </trkpt>
      <trkpt lat="44.51672" lon="0.95652">
        <ele>112.61</ele>
        <time>2015-04-19T06:17:36Z</time>
      </trkpt>
      <trkpt lat="44.51673" lon="0.95648">
        <ele>112.61</ele>
        <time>2015-04-19T06:17:37Z</time>
      </trkpt>
      <trkpt lat="44.51674" lon="0.95645">
        <ele>113.09</ele>
        <time>2015-04-19T06:17:38Z</time>
      </trkpt>
      <trkpt lat="44.51675" lon="0.95642">
        <ele>113.09</ele>
        <time>2015-04-19T06:17:39Z</time>
      </trkpt>
      <trkpt lat="44.51676" lon="0.95639">
        <ele>113.09</ele>
        <time>2015-04-19T06:17:40Z</time>
      </trkpt>
      <trkpt lat="44.51689" lon="0.95609">
        <ele>112.61</ele>
        <time>2015-04-19T06:17:53Z</time>
      </trkpt>
      <trkpt lat="44.51694" lon="0.95602">
        <ele>112.61</ele>
        <time>2015-04-19T06:17:57Z</time>
      </trkpt>
      <trkpt lat="44.51694" lon="0.95599">
        <ele>112.61</ele>
        <time>2015-04-19T06:17:58Z</time>
      </trkpt>
      <trkpt lat="44.51695" lon="0.95597">
        <ele>112.61</ele>
        <time>2015-04-19T06:17:59Z</time>
      </trkpt>
      <trkpt lat="44.51696" lon="0.95595">
        <ele>112.61</ele>
        <time>2015-04-19T06:18:00Z</time>
      </trkpt>
      <trkpt lat="44.51697" lon="0.95593">
        <ele>112.61</ele>
        <time>2015-04-19T06:18:01Z</time>
      </trkpt>
      <trkpt lat="44.51698" lon="0.95591">
        <ele>112.61</ele>
        <time>2015-04-19T06:18:02Z</time>
      </trkpt>
      <trkpt lat="44.5171" lon="0.95562">
        <ele>112.61</ele>
        <time>2015-04-19T06:18:15Z</time>
      </trkpt>
      <trkpt lat="44.51726" lon="0.95538">
        <ele>112.13</ele>
        <time>2015-04-19T06:18:28Z</time>
      </trkpt>
      <trkpt lat="44.51738" lon="0.95519">
        <ele>111.65</ele>
        <time>2015-04-19T06:18:37Z</time>
      </trkpt>
      <trkpt lat="44.51741" lon="0.95519">
        <ele>111.65</ele>
        <time>2015-04-19T06:18:38Z</time>
      </trkpt>
      <trkpt lat="44.51743" lon="0.9552">
        <ele>111.65</ele>
        <time>2015-04-19T06:18:39Z</time>
      </trkpt>
      <trkpt lat="44.51745" lon="0.95522">
        <ele>111.65</ele>
        <time>2015-04-19T06:18:40Z</time>
      </trkpt>
      <trkpt lat="44.51747" lon="0.95525">
        <ele>111.65</ele>
        <time>2015-04-19T06:18:41Z</time>
      </trkpt>
      <trkpt lat="44.51748" lon="0.95527">
        <ele>111.65</ele>
        <time>2015-04-19T06:18:42Z</time>
      </trkpt>
      <trkpt lat="44.51749" lon="0.95529">
        <ele>111.65</ele>
        <time>2015-04-19T06:18:43Z</time>
      </trkpt>
      <trkpt lat="44.5175" lon="0.95531">
        <ele>111.65</ele>
        <time>2015-04-19T06:18:44Z</time>
      </trkpt>
      <trkpt lat="44.51757" lon="0.95544">
        <ele>108.77</ele>
        <time>2015-04-19T06:18:50Z</time>
      </trkpt>
      <trkpt lat="44.51759" lon="0.95546">
        <ele>109.25</ele>
        <time>2015-04-19T06:18:51Z</time>
      </trkpt>
      <trkpt lat="44.51761" lon="0.95551">
        <ele>107.81</ele>
        <time>2015-04-19T06:18:53Z</time>
      </trkpt>
      <trkpt lat="44.51762" lon="0.95554">
        <ele>107.81</ele>
        <time>2015-04-19T06:18:54Z</time>
      </trkpt>
      <trkpt lat="44.51764" lon="0.95556">
        <ele>106.84</ele>
        <time>2015-04-19T06:18:55Z</time>
      </trkpt>
      <trkpt lat="44.51766" lon="0.95562">
        <ele>106.36</ele>
        <time>2015-04-19T06:18:57Z</time>
      </trkpt>
      <trkpt lat="44.51767" lon="0.95565">
        <ele>105.88</ele>
        <time>2015-04-19T06:18:58Z</time>
      </trkpt>
      <trkpt lat="44.51768" lon="0.95568">
        <ele>105.88</ele>
        <time>2015-04-19T06:18:59Z</time>
      </trkpt>
      <trkpt lat="44.51769" lon="0.95571">
        <ele>105.88</ele>
        <time>2015-04-19T06:19:00Z</time>
      </trkpt>
      <trkpt lat="44.51771" lon="0.95575">
        <ele>105.88</ele>
        <time>2015-04-19T06:19:01Z</time>
      </trkpt>
      <trkpt lat="44.51772" lon="0.95578">
        <ele>105.88</ele>
        <time>2015-04-19T06:19:02Z</time>
      </trkpt>
      <trkpt lat="44.51773" lon="0.95581">
        <ele>105.88</ele>
        <time>2015-04-19T06:19:03Z</time>
      </trkpt>
      <trkpt lat="44.51774" lon="0.95585">
        <ele>105.88</ele>
        <time>2015-04-19T06:19:04Z</time>
      </trkpt>
      <trkpt lat="44.51779" lon="0.95598">
        <ele>105.88</ele>
        <time>2015-04-19T06:19:08Z</time>
      </trkpt>
      <trkpt lat="44.51782" lon="0.95601">
        <ele>105.4</ele>
        <time>2015-04-19T06:19:09Z</time>
      </trkpt>
      <trkpt lat="44.51795" lon="0.95629">
        <ele>104.44</ele>
        <time>2015-04-19T06:19:18Z</time>
      </trkpt>
      <trkpt lat="44.51799" lon="0.95635">
        <ele>103.96</ele>
        <time>2015-04-19T06:19:21Z</time>
      </trkpt>
      <trkpt lat="44.51801" lon="0.95638">
        <ele>103.96</ele>
        <time>2015-04-19T06:19:22Z</time>
      </trkpt>
      <trkpt lat="44.51803" lon="0.9564">
        <ele>103.96</ele>
        <time>2015-04-19T06:19:23Z</time>
      </trkpt>
      <trkpt lat="44.51805" lon="0.95642">
        <ele>103.96</ele>
        <time>2015-04-19T06:19:24Z</time>
      </trkpt>
      <trkpt lat="44.51807" lon="0.95644">
        <ele>103.96</ele>
        <time>2015-04-19T06:19:25Z</time>
      </trkpt>
      <trkpt lat="44.51809" lon="0.95646">
        <ele>103.48</ele>
        <time>2015-04-19T06:19:26Z</time>
      </trkpt>
      <trkpt lat="44.5181" lon="0.95649">
        <ele>103.48</ele>
        <time>2015-04-19T06:19:27Z</time>
      </trkpt>
      <trkpt lat="44.51811" lon="0.95651">
        <ele>102.52</ele>
        <time>2015-04-19T06:19:28Z</time>
      </trkpt>
      <trkpt lat="44.51813" lon="0.95653">
        <ele>103</ele>
        <time>2015-04-19T06:19:29Z</time>
      </trkpt>
      <trkpt lat="44.51814" lon="0.95656">
        <ele>102.04</ele>
        <time>2015-04-19T06:19:30Z</time>
      </trkpt>
      <trkpt lat="44.51825" lon="0.95681">
        <ele>100.6</ele>
        <time>2015-04-19T06:19:40Z</time>
      </trkpt>
      <trkpt lat="44.51842" lon="0.95701">
        <ele>100.6</ele>
        <time>2015-04-19T06:19:50Z</time>
      </trkpt>
      <trkpt lat="44.5185" lon="0.95708">
        <ele>100.6</ele>
        <time>2015-04-19T06:19:53Z</time>
      </trkpt>
      <trkpt lat="44.51852" lon="0.95711">
        <ele>100.6</ele>
        <time>2015-04-19T06:19:54Z</time>
      </trkpt>
      <trkpt lat="44.51855" lon="0.95714">
        <ele>100.6</ele>
        <time>2015-04-19T06:19:55Z</time>
      </trkpt>
      <trkpt lat="44.51874" lon="0.95723">
        <ele>100.6</ele>
        <time>2015-04-19T06:20:06Z</time>
      </trkpt>
      <trkpt lat="44.51877" lon="0.95724">
        <ele>100.6</ele>
        <time>2015-04-19T06:20:07Z</time>
      </trkpt>
      <trkpt lat="44.5188" lon="0.95725">
        <ele>100.6</ele>
        <time>2015-04-19T06:20:08Z</time>
      </trkpt>
      <trkpt lat="44.51882" lon="0.95726">
        <ele>100.6</ele>
        <time>2015-04-19T06:20:09Z</time>
      </trkpt>
      <trkpt lat="44.51884" lon="0.95727">
        <ele>100.6</ele>
        <time>2015-04-19T06:20:10Z</time>
      </trkpt>
      <trkpt lat="44.51887" lon="0.95727">
        <ele>100.6</ele>
        <time>2015-04-19T06:20:11Z</time>
      </trkpt>
      <trkpt lat="44.51889" lon="0.95726">
        <ele>100.6</ele>
        <time>2015-04-19T06:20:12Z</time>
      </trkpt>
      <trkpt lat="44.51891" lon="0.95727">
        <ele>100.6</ele>
        <time>2015-04-19T06:20:13Z</time>
      </trkpt>
      <trkpt lat="44.51892" lon="0.95727">
        <ele>100.6</ele>
        <time>2015-04-19T06:20:14Z</time>
      </trkpt>
      <trkpt lat="44.51894" lon="0.95726">
        <ele>100.6</ele>
        <time>2015-04-19T06:20:15Z</time>
      </trkpt>
      <trkpt lat="44.51896" lon="0.95726">
        <ele>100.6</ele>
        <time>2015-04-19T06:20:16Z</time>
      </trkpt>
      <trkpt lat="44.51898" lon="0.95727">
        <ele>100.6</ele>
        <time>2015-04-19T06:20:17Z</time>
      </trkpt>
      <trkpt lat="44.519" lon="0.95727">
        <ele>100.6</ele>
        <time>2015-04-19T06:20:18Z</time>
      </trkpt>
      <trkpt lat="44.51902" lon="0.95728">
        <ele>101.56</ele>
        <time>2015-04-19T06:20:19Z</time>
      </trkpt>
      <trkpt lat="44.51904" lon="0.95728">
        <ele>101.56</ele>
        <time>2015-04-19T06:20:20Z</time>
      </trkpt>
      <trkpt lat="44.51905" lon="0.95728">
        <ele>101.56</ele>
        <time>2015-04-19T06:20:21Z</time>
      </trkpt>
      <trkpt lat="44.51907" lon="0.95727">
        <ele>101.56</ele>
        <time>2015-04-19T06:20:22Z</time>
      </trkpt>
      <trkpt lat="44.51907" lon="0.95724">
        <ele>101.56</ele>
        <time>2015-04-19T06:20:23Z</time>
      </trkpt>
      <trkpt lat="44.51908" lon="0.95721">
        <ele>101.56</ele>
        <time>2015-04-19T06:20:24Z</time>
      </trkpt>
      <trkpt lat="44.51908" lon="0.95717">
        <ele>101.56</ele>
        <time>2015-04-19T06:20:26Z</time>
      </trkpt>
      <trkpt lat="44.5191" lon="0.95716">
        <ele>101.56</ele>
        <time>2015-04-19T06:20:27Z</time>
      </trkpt>
      <trkpt lat="44.51911" lon="0.95715">
        <ele>101.56</ele>
        <time>2015-04-19T06:20:28Z</time>
      </trkpt>
      <trkpt lat="44.51912" lon="0.95712">
        <ele>101.56</ele>
        <time>2015-04-19T06:20:29Z</time>
      </trkpt>
      <trkpt lat="44.51912" lon="0.95709">
        <ele>101.56</ele>
        <time>2015-04-19T06:20:30Z</time>
      </trkpt>
      <trkpt lat="44.51927" lon="0.95695">
        <ele>101.56</ele>
        <time>2015-04-19T06:20:42Z</time>
      </trkpt>
      <trkpt lat="44.51929" lon="0.95695">
        <ele>101.56</ele>
        <time>2015-04-19T06:20:43Z</time>
      </trkpt>
      <trkpt lat="44.51934" lon="0.95692">
        <ele>101.56</ele>
        <time>2015-04-19T06:20:46Z</time>
      </trkpt>
      <trkpt lat="44.51936" lon="0.95692">
        <ele>101.56</ele>
        <time>2015-04-19T06:20:47Z</time>
      </trkpt>
      <trkpt lat="44.51937" lon="0.95692">
        <ele>101.56</ele>
        <time>2015-04-19T06:20:48Z</time>
      </trkpt>
      <trkpt lat="44.51939" lon="0.95692">
        <ele>101.56</ele>
        <time>2015-04-19T06:20:49Z</time>
      </trkpt>
      <trkpt lat="44.51941" lon="0.95692">
        <ele>102.04</ele>
        <time>2015-04-19T06:20:50Z</time>
      </trkpt>
      <trkpt lat="44.51943" lon="0.95691">
        <ele>102.04</ele>
        <time>2015-04-19T06:20:51Z</time>
      </trkpt>
      <trkpt lat="44.51969" lon="0.95679">
        <ele>102.04</ele>
        <time>2015-04-19T06:21:07Z</time>
      </trkpt>
      <trkpt lat="44.5197" lon="0.95677">
        <ele>102.04</ele>
        <time>2015-04-19T06:21:08Z</time>
      </trkpt>
      <trkpt lat="44.51972" lon="0.95675">
        <ele>102.04</ele>
        <time>2015-04-19T06:21:09Z</time>
      </trkpt>
      <trkpt lat="44.51974" lon="0.95675">
        <ele>102.04</ele>
        <time>2015-04-19T06:21:10Z</time>
      </trkpt>
      <trkpt lat="44.51976" lon="0.95675">
        <ele>102.04</ele>
        <time>2015-04-19T06:21:11Z</time>
      </trkpt>
      <trkpt lat="44.51978" lon="0.95675">
        <ele>102.04</ele>
        <time>2015-04-19T06:21:12Z</time>
      </trkpt>
      <trkpt lat="44.5198" lon="0.95675">
        <ele>102.04</ele>
        <time>2015-04-19T06:21:13Z</time>
      </trkpt>
      <trkpt lat="44.51981" lon="0.95675">
        <ele>102.04</ele>
        <time>2015-04-19T06:21:14Z</time>
      </trkpt>
      <trkpt lat="44.51994" lon="0.95674">
        <ele>102.52</ele>
        <time>2015-04-19T06:21:28Z</time>
      </trkpt>
      <trkpt lat="44.51996" lon="0.95679">
        <ele>102.52</ele>
        <time>2015-04-19T06:21:32Z</time>
      </trkpt>
      <trkpt lat="44.51996" lon="0.95681">
        <ele>102.52</ele>
        <time>2015-04-19T06:21:33Z</time>
      </trkpt>
      <trkpt lat="44.51997" lon="0.95683">
        <ele>102.52</ele>
        <time>2015-04-19T06:21:34Z</time>
      </trkpt>
      <trkpt lat="44.51998" lon="0.95688">
        <ele>102.52</ele>
        <time>2015-04-19T06:21:36Z</time>
      </trkpt>
      <trkpt lat="44.51999" lon="0.9569">
        <ele>102.52</ele>
        <time>2015-04-19T06:21:37Z</time>
      </trkpt>
      <trkpt lat="44.52" lon="0.95692">
        <ele>103.48</ele>
        <time>2015-04-19T06:21:38Z</time>
      </trkpt>
      <trkpt lat="44.52" lon="0.95694">
        <ele>103.48</ele>
        <time>2015-04-19T06:21:39Z</time>
      </trkpt>
      <trkpt lat="44.52001" lon="0.95696">
        <ele>103.48</ele>
        <time>2015-04-19T06:21:40Z</time>
      </trkpt>
      <trkpt lat="44.52009" lon="0.95721">
        <ele>103.96</ele>
        <time>2015-04-19T06:21:53Z</time>
      </trkpt>
      <trkpt lat="44.52009" lon="0.95722">
        <ele>103.96</ele>
        <time>2015-04-19T06:21:54Z</time>
      </trkpt>
      <trkpt lat="44.5201" lon="0.95724">
        <ele>103.96</ele>
        <time>2015-04-19T06:21:55Z</time>
      </trkpt>
      <trkpt lat="44.52011" lon="0.95725">
        <ele>103.96</ele>
        <time>2015-04-19T06:21:56Z</time>
      </trkpt>
      <trkpt lat="44.52012" lon="0.95727">
        <ele>103.96</ele>
        <time>2015-04-19T06:21:57Z</time>
      </trkpt>
      <trkpt lat="44.52013" lon="0.95729">
        <ele>103.96</ele>
        <time>2015-04-19T06:21:58Z</time>
      </trkpt>
      <trkpt lat="44.52014" lon="0.95731">
        <ele>103.96</ele>
        <time>2015-04-19T06:21:59Z</time>
      </trkpt>
      <trkpt lat="44.52021" lon="0.9575">
        <ele>104.44</ele>
        <time>2015-04-19T06:22:10Z</time>
      </trkpt>
      <trkpt lat="44.52023" lon="0.95763">
        <ele>104.92</ele>
        <time>2015-04-19T06:22:19Z</time>
      </trkpt>
      <trkpt lat="44.52024" lon="0.95765">
        <ele>104.92</ele>
        <time>2015-04-19T06:22:20Z</time>
      </trkpt>
      <trkpt lat="44.52026" lon="0.95768">
        <ele>104.92</ele>
        <time>2015-04-19T06:22:21Z</time>
      </trkpt>
      <trkpt lat="44.52026" lon="0.95771">
        <ele>104.92</ele>
        <time>2015-04-19T06:22:22Z</time>
      </trkpt>
      <trkpt lat="44.52035" lon="0.95796">
        <ele>105.4</ele>
        <time>2015-04-19T06:22:34Z</time>
      </trkpt>
      <trkpt lat="44.52044" lon="0.9582">
        <ele>106.36</ele>
        <time>2015-04-19T06:22:44Z</time>
      </trkpt>
      <trkpt lat="44.52048" lon="0.95828">
        <ele>106.36</ele>
        <time>2015-04-19T06:22:48Z</time>
      </trkpt>
      <trkpt lat="44.5205" lon="0.9583">
        <ele>106.36</ele>
        <time>2015-04-19T06:22:49Z</time>
      </trkpt>
      <trkpt lat="44.52063" lon="0.95852">
        <ele>106.84</ele>
        <time>2015-04-19T06:23:00Z</time>
      </trkpt>
      <trkpt lat="44.52075" lon="0.95877">
        <ele>107.32</ele>
        <time>2015-04-19T06:23:12Z</time>
      </trkpt>
      <trkpt lat="44.52082" lon="0.95889">
        <ele>108.29</ele>
        <time>2015-04-19T06:23:19Z</time>
      </trkpt>
      <trkpt lat="44.52097" lon="0.95907">
        <ele>110.21</ele>
        <time>2015-04-19T06:23:32Z</time>
      </trkpt>
      <trkpt lat="44.52105" lon="0.95916">
        <ele>111.17</ele>
        <time>2015-04-19T06:23:42Z</time>
      </trkpt>
      <trkpt lat="44.52116" lon="0.95925">
        <ele>111.65</ele>
        <time>2015-04-19T06:23:53Z</time>
      </trkpt>
      <trkpt lat="44.52118" lon="0.95926">
        <ele>111.65</ele>
        <time>2015-04-19T06:23:54Z</time>
      </trkpt>
      <trkpt lat="44.52119" lon="0.95927">
        <ele>111.65</ele>
        <time>2015-04-19T06:23:55Z</time>
      </trkpt>
      <trkpt lat="44.52121" lon="0.9593">
        <ele>111.65</ele>
        <time>2015-04-19T06:23:56Z</time>
      </trkpt>
      <trkpt lat="44.52143" lon="0.95965">
        <ele>111.65</ele>
        <time>2015-04-19T06:24:09Z</time>
      </trkpt>
      <trkpt lat="44.52152" lon="0.95973">
        <ele>111.65</ele>
        <time>2015-04-19T06:24:15Z</time>
      </trkpt>
      <trkpt lat="44.52153" lon="0.95975">
        <ele>111.65</ele>
        <time>2015-04-19T06:24:16Z</time>
      </trkpt>
      <trkpt lat="44.52167" lon="0.95986">
        <ele>112.13</ele>
        <time>2015-04-19T06:24:27Z</time>
      </trkpt>
      <trkpt lat="44.52174" lon="0.95993">
        <ele>112.61</ele>
        <time>2015-04-19T06:24:33Z</time>
      </trkpt>
      <trkpt lat="44.52176" lon="0.95995">
        <ele>112.61</ele>
        <time>2015-04-19T06:24:34Z</time>
      </trkpt>
      <trkpt lat="44.52178" lon="0.95997">
        <ele>112.61</ele>
        <time>2015-04-19T06:24:35Z</time>
      </trkpt>
      <trkpt lat="44.52179" lon="0.95998">
        <ele>112.61</ele>
        <time>2015-04-19T06:24:36Z</time>
      </trkpt>
      <trkpt lat="44.52181" lon="0.95999">
        <ele>112.61</ele>
        <time>2015-04-19T06:24:37Z</time>
      </trkpt>
      <trkpt lat="44.52182" lon="0.96">
        <ele>112.61</ele>
        <time>2015-04-19T06:24:38Z</time>
      </trkpt>
      <trkpt lat="44.52197" lon="0.96008">
        <ele>113.09</ele>
        <time>2015-04-19T06:24:49Z</time>
      </trkpt>
      <trkpt lat="44.52213" lon="0.96015">
        <ele>114.53</ele>
        <time>2015-04-19T06:25:01Z</time>
      </trkpt>
      <trkpt lat="44.52217" lon="0.96018">
        <ele>115.01</ele>
        <time>2015-04-19T06:25:04Z</time>
      </trkpt>
      <trkpt lat="44.52218" lon="0.96019">
        <ele>115.01</ele>
        <time>2015-04-19T06:25:05Z</time>
      </trkpt>
      <trkpt lat="44.52232" lon="0.96025">
        <ele>116.46</ele>
        <time>2015-04-19T06:25:16Z</time>
      </trkpt>
      <trkpt lat="44.52238" lon="0.96027">
        <ele>117.42</ele>
        <time>2015-04-19T06:25:20Z</time>
      </trkpt>
      <trkpt lat="44.5224" lon="0.96028">
        <ele>117.42</ele>
        <time>2015-04-19T06:25:21Z</time>
      </trkpt>
      <trkpt lat="44.52241" lon="0.96028">
        <ele>117.9</ele>
        <time>2015-04-19T06:25:22Z</time>
      </trkpt>
      <trkpt lat="44.52243" lon="0.96029">
        <ele>117.9</ele>
        <time>2015-04-19T06:25:23Z</time>
      </trkpt>
      <trkpt lat="44.52244" lon="0.96029">
        <ele>117.9</ele>
        <time>2015-04-19T06:25:24Z</time>
      </trkpt>
      <trkpt lat="44.52246" lon="0.96029">
        <ele>117.9</ele>
        <time>2015-04-19T06:25:25Z</time>
      </trkpt>
      <trkpt lat="44.52247" lon="0.9603">
        <ele>117.9</ele>
        <time>2015-04-19T06:25:26Z</time>
      </trkpt>
      <trkpt lat="44.52249" lon="0.96031">
        <ele>117.9</ele>
        <time>2015-04-19T06:25:27Z</time>
      </trkpt>
      <trkpt lat="44.52266" lon="0.96035">
        <ele>118.38</ele>
        <time>2015-04-19T06:25:37Z</time>
      </trkpt>
      <trkpt lat="44.52283" lon="0.96042">
        <ele>119.34</ele>
        <time>2015-04-19T06:25:48Z</time>
      </trkpt>
      <trkpt lat="44.52284" lon="0.96043">
        <ele>119.34</ele>
        <time>2015-04-19T06:25:49Z</time>
      </trkpt>
      <trkpt lat="44.52285" lon="0.96045">
        <ele>119.34</ele>
        <time>2015-04-19T06:25:50Z</time>
      </trkpt>
      <trkpt lat="44.52287" lon="0.96046">
        <ele>119.34</ele>
        <time>2015-04-19T06:25:51Z</time>
      </trkpt>
      <trkpt lat="44.52288" lon="0.96048">
        <ele>119.34</ele>
        <time>2015-04-19T06:25:52Z</time>
      </trkpt>
      <trkpt lat="44.5229" lon="0.9605">
        <ele>119.34</ele>
        <time>2015-04-19T06:25:53Z</time>
      </trkpt>
      <trkpt lat="44.52313" lon="0.96067">
        <ele>120.3</ele>
        <time>2015-04-19T06:26:06Z</time>
      </trkpt>
      <trkpt lat="44.52327" lon="0.96078">
        <ele>120.78</ele>
        <time>2015-04-19T06:26:16Z</time>
      </trkpt>
      <trkpt lat="44.5234" lon="0.961">
        <ele>121.26</ele>
        <time>2015-04-19T06:26:29Z</time>
      </trkpt>
      <trkpt lat="44.52349" lon="0.96124">
        <ele>122.22</ele>
        <time>2015-04-19T06:26:40Z</time>
      </trkpt>
      <trkpt lat="44.5235" lon="0.96143">
        <ele>122.22</ele>
        <time>2015-04-19T06:26:48Z</time>
      </trkpt>
      <trkpt lat="44.52351" lon="0.96148">
        <ele>122.71</ele>
        <time>2015-04-19T06:26:49Z</time>
      </trkpt>
      <trkpt lat="44.52351" lon="0.96151">
        <ele>122.71</ele>
        <time>2015-04-19T06:26:50Z</time>
      </trkpt>
      <trkpt lat="44.52351" lon="0.96153">
        <ele>122.71</ele>
        <time>2015-04-19T06:26:51Z</time>
      </trkpt>
      <trkpt lat="44.52351" lon="0.96156">
        <ele>122.71</ele>
        <time>2015-04-19T06:26:52Z</time>
      </trkpt>
      <trkpt lat="44.52352" lon="0.96158">
        <ele>122.71</ele>
        <time>2015-04-19T06:26:53Z</time>
      </trkpt>
      <trkpt lat="44.52352" lon="0.9616">
        <ele>122.71</ele>
        <time>2015-04-19T06:26:54Z</time>
      </trkpt>
      <trkpt lat="44.52353" lon="0.96162">
        <ele>122.71</ele>
        <time>2015-04-19T06:26:55Z</time>
      </trkpt>
      <trkpt lat="44.52352" lon="0.96164">
        <ele>122.71</ele>
        <time>2015-04-19T06:26:56Z</time>
      </trkpt>
      <trkpt lat="44.52352" lon="0.96166">
        <ele>122.71</ele>
        <time>2015-04-19T06:26:57Z</time>
      </trkpt>
      <trkpt lat="44.52353" lon="0.9617">
        <ele>122.71</ele>
        <time>2015-04-19T06:26:58Z</time>
      </trkpt>
      <trkpt lat="44.52354" lon="0.96173">
        <ele>122.71</ele>
        <time>2015-04-19T06:26:59Z</time>
      </trkpt>
      <trkpt lat="44.52354" lon="0.9618">
        <ele>122.71</ele>
        <time>2015-04-19T06:27:02Z</time>
      </trkpt>
      <trkpt lat="44.52354" lon="0.96186">
        <ele>122.71</ele>
        <time>2015-04-19T06:27:05Z</time>
      </trkpt>
      <trkpt lat="44.52354" lon="0.96188">
        <ele>122.71</ele>
        <time>2015-04-19T06:27:06Z</time>
      </trkpt>
      <trkpt lat="44.52354" lon="0.96195">
        <ele>122.71</ele>
        <time>2015-04-19T06:27:09Z</time>
      </trkpt>
      <trkpt lat="44.52354" lon="0.96198">
        <ele>122.71</ele>
        <time>2015-04-19T06:27:10Z</time>
      </trkpt>
      <trkpt lat="44.52354" lon="0.962">
        <ele>122.71</ele>
        <time>2015-04-19T06:27:11Z</time>
      </trkpt>
      <trkpt lat="44.52353" lon="0.96202">
        <ele>123.19</ele>
        <time>2015-04-19T06:27:12Z</time>
      </trkpt>
      <trkpt lat="44.52353" lon="0.96209">
        <ele>123.19</ele>
        <time>2015-04-19T06:27:17Z</time>
      </trkpt>
      <trkpt lat="44.52357" lon="0.9622">
        <ele>124.15</ele>
        <time>2015-04-19T06:27:26Z</time>
      </trkpt>
      <trkpt lat="44.52358" lon="0.96222">
        <ele>124.15</ele>
        <time>2015-04-19T06:27:27Z</time>
      </trkpt>
      <trkpt lat="44.52369" lon="0.96243">
        <ele>126.07</ele>
        <time>2015-04-19T06:27:40Z</time>
      </trkpt>
      <trkpt lat="44.52381" lon="0.96268">
        <ele>127.99</ele>
        <time>2015-04-19T06:27:54Z</time>
      </trkpt>
      <trkpt lat="44.52385" lon="0.96285">
        <ele>129.43</ele>
        <time>2015-04-19T06:28:05Z</time>
      </trkpt>
      <trkpt lat="44.52395" lon="0.96308">
        <ele>130.88</ele>
        <time>2015-04-19T06:28:17Z</time>
      </trkpt>
      <trkpt lat="44.52399" lon="0.96335">
        <ele>131.36</ele>
        <time>2015-04-19T06:28:29Z</time>
      </trkpt>
      <trkpt lat="44.52412" lon="0.96367">
        <ele>131.36</ele>
        <time>2015-04-19T06:28:41Z</time>
      </trkpt>
      <trkpt lat="44.5242" lon="0.96409">
        <ele>132.32</ele>
        <time>2015-04-19T06:28:57Z</time>
      </trkpt>
      <trkpt lat="44.52423" lon="0.96419">
        <ele>132.8</ele>
        <time>2015-04-19T06:29:02Z</time>
      </trkpt>
      <trkpt lat="44.52423" lon="0.96421">
        <ele>132.8</ele>
        <time>2015-04-19T06:29:03Z</time>
      </trkpt>
      <trkpt lat="44.52425" lon="0.96441">
        <ele>132.8</ele>
        <time>2015-04-19T06:29:13Z</time>
      </trkpt>
      <trkpt lat="44.52425" lon="0.96445">
        <ele>132.8</ele>
        <time>2015-04-19T06:29:15Z</time>
      </trkpt>
      <trkpt lat="44.52429" lon="0.96478">
        <ele>133.28</ele>
        <time>2015-04-19T06:29:29Z</time>
      </trkpt>
      <trkpt lat="44.52434" lon="0.96503">
        <ele>133.76</ele>
        <time>2015-04-19T06:29:39Z</time>
      </trkpt>
      <trkpt lat="44.52435" lon="0.96505">
        <ele>133.76</ele>
        <time>2015-04-19T06:29:40Z</time>
      </trkpt>
      <trkpt lat="44.52445" lon="0.9654">
        <ele>134.72</ele>
        <time>2015-04-19T06:29:55Z</time>
      </trkpt>
      <trkpt lat="44.52451" lon="0.96563">
        <ele>135.68</ele>
        <time>2015-04-19T06:30:07Z</time>
      </trkpt>
      <trkpt lat="44.52452" lon="0.96565">
        <ele>135.68</ele>
        <time>2015-04-19T06:30:08Z</time>
      </trkpt>
      <trkpt lat="44.52454" lon="0.96571">
        <ele>135.68</ele>
        <time>2015-04-19T06:30:11Z</time>
      </trkpt>
      <trkpt lat="44.52462" lon="0.96592">
        <ele>136.64</ele>
        <time>2015-04-19T06:30:23Z</time>
      </trkpt>
      <trkpt lat="44.52467" lon="0.96603">
        <ele>138.09</ele>
        <time>2015-04-19T06:30:29Z</time>
      </trkpt>
      <trkpt lat="44.52467" lon="0.96605">
        <ele>137.61</ele>
        <time>2015-04-19T06:30:30Z</time>
      </trkpt>
      <trkpt lat="44.52468" lon="0.96607">
        <ele>137.61</ele>
        <time>2015-04-19T06:30:31Z</time>
      </trkpt>
      <trkpt lat="44.52469" lon="0.96608">
        <ele>138.09</ele>
        <time>2015-04-19T06:30:32Z</time>
      </trkpt>
      <trkpt lat="44.5247" lon="0.9661">
        <ele>137.61</ele>
        <time>2015-04-19T06:30:33Z</time>
      </trkpt>
      <trkpt lat="44.5247" lon="0.96612">
        <ele>137.61</ele>
        <time>2015-04-19T06:30:34Z</time>
      </trkpt>
      <trkpt lat="44.52477" lon="0.96636">
        <ele>139.05</ele>
        <time>2015-04-19T06:30:46Z</time>
      </trkpt>
      <trkpt lat="44.52487" lon="0.96657">
        <ele>140.01</ele>
        <time>2015-04-19T06:30:59Z</time>
      </trkpt>
      <trkpt lat="44.52489" lon="0.96664">
        <ele>140.01</ele>
        <time>2015-04-19T06:31:02Z</time>
      </trkpt>
      <trkpt lat="44.52492" lon="0.96672">
        <ele>140.01</ele>
        <time>2015-04-19T06:31:06Z</time>
      </trkpt>
      <trkpt lat="44.52493" lon="0.96675">
        <ele>140.49</ele>
        <time>2015-04-19T06:31:08Z</time>
      </trkpt>
      <trkpt lat="44.52494" lon="0.96677">
        <ele>140.49</ele>
        <time>2015-04-19T06:31:09Z</time>
      </trkpt>
      <trkpt lat="44.52495" lon="0.96679">
        <ele>140.49</ele>
        <time>2015-04-19T06:31:10Z</time>
      </trkpt>
      <trkpt lat="44.52496" lon="0.96681">
        <ele>140.49</ele>
        <time>2015-04-19T06:31:11Z</time>
      </trkpt>
      <trkpt lat="44.52498" lon="0.96688">
        <ele>140.97</ele>
        <time>2015-04-19T06:31:15Z</time>
      </trkpt>
      <trkpt lat="44.52498" lon="0.9669">
        <ele>140.97</ele>
        <time>2015-04-19T06:31:16Z</time>
      </trkpt>
      <trkpt lat="44.52499" lon="0.96693">
        <ele>140.97</ele>
        <time>2015-04-19T06:31:17Z</time>
      </trkpt>
      <trkpt lat="44.52501" lon="0.96696">
        <ele>140.97</ele>
        <time>2015-04-19T06:31:18Z</time>
      </trkpt>
      <trkpt lat="44.52501" lon="0.96698">
        <ele>140.97</ele>
        <time>2015-04-19T06:31:19Z</time>
      </trkpt>
      <trkpt lat="44.52503" lon="0.967">
        <ele>140.97</ele>
        <time>2015-04-19T06:31:20Z</time>
      </trkpt>
      <trkpt lat="44.52503" lon="0.96702">
        <ele>140.97</ele>
        <time>2015-04-19T06:31:21Z</time>
      </trkpt>
      <trkpt lat="44.52504" lon="0.96705">
        <ele>140.97</ele>
        <time>2015-04-19T06:31:22Z</time>
      </trkpt>
      <trkpt lat="44.52505" lon="0.96707">
        <ele>140.97</ele>
        <time>2015-04-19T06:31:23Z</time>
      </trkpt>
      <trkpt lat="44.52506" lon="0.96709">
        <ele>140.97</ele>
        <time>2015-04-19T06:31:24Z</time>
      </trkpt>
      <trkpt lat="44.52507" lon="0.96711">
        <ele>140.97</ele>
        <time>2015-04-19T06:31:25Z</time>
      </trkpt>
      <trkpt lat="44.52508" lon="0.96714">
        <ele>140.97</ele>
        <time>2015-04-19T06:31:26Z</time>
      </trkpt>
      <trkpt lat="44.52508" lon="0.96716">
        <ele>140.97</ele>
        <time>2015-04-19T06:31:27Z</time>
      </trkpt>
      <trkpt lat="44.52509" lon="0.96718">
        <ele>141.93</ele>
        <time>2015-04-19T06:31:28Z</time>
      </trkpt>
      <trkpt lat="44.52509" lon="0.9672">
        <ele>141.93</ele>
        <time>2015-04-19T06:31:29Z</time>
      </trkpt>
      <trkpt lat="44.5251" lon="0.96722">
        <ele>141.93</ele>
        <time>2015-04-19T06:31:30Z</time>
      </trkpt>
      <trkpt lat="44.52511" lon="0.96729">
        <ele>141.93</ele>
        <time>2015-04-19T06:31:34Z</time>
      </trkpt>
      <trkpt lat="44.52516" lon="0.96748">
        <ele>142.41</ele>
        <time>2015-04-19T06:31:44Z</time>
      </trkpt>
      <trkpt lat="44.52522" lon="0.96761">
        <ele>142.89</ele>
        <time>2015-04-19T06:31:50Z</time>
      </trkpt>
      <trkpt lat="44.52523" lon="0.96763">
        <ele>142.89</ele>
        <time>2015-04-19T06:31:51Z</time>
      </trkpt>
      <trkpt lat="44.52524" lon="0.96766">
        <ele>142.89</ele>
        <time>2015-04-19T06:31:52Z</time>
      </trkpt>
      <trkpt lat="44.52524" lon="0.96769">
        <ele>142.89</ele>
        <time>2015-04-19T06:31:53Z</time>
      </trkpt>
      <trkpt lat="44.52525" lon="0.96771">
        <ele>143.37</ele>
        <time>2015-04-19T06:31:54Z</time>
      </trkpt>
      <trkpt lat="44.52534" lon="0.9679">
        <ele>143.85</ele>
        <time>2015-04-19T06:32:04Z</time>
      </trkpt>
      <trkpt lat="44.52535" lon="0.9679">
        <ele>144.82</ele>
        <time>2015-04-19T06:32:06Z</time>
      </trkpt>
      <trkpt lat="44.52536" lon="0.9679">
        <ele>144.34</ele>
        <time>2015-04-19T06:32:07Z</time>
      </trkpt>
      <trkpt lat="44.52537" lon="0.9679">
        <ele>144.82</ele>
        <time>2015-04-19T06:32:08Z</time>
      </trkpt>
      <trkpt lat="44.52538" lon="0.9679">
        <ele>144.82</ele>
        <time>2015-04-19T06:32:09Z</time>
      </trkpt>
      <trkpt lat="44.52539" lon="0.96791">
        <ele>144.82</ele>
        <time>2015-04-19T06:32:10Z</time>
      </trkpt>
      <trkpt lat="44.5254" lon="0.9679">
        <ele>145.3</ele>
        <time>2015-04-19T06:32:11Z</time>
      </trkpt>
      <trkpt lat="44.52542" lon="0.9679">
        <ele>145.3</ele>
        <time>2015-04-19T06:32:12Z</time>
      </trkpt>
      <trkpt lat="44.52543" lon="0.9679">
        <ele>145.3</ele>
        <time>2015-04-19T06:32:13Z</time>
      </trkpt>
      <trkpt lat="44.52551" lon="0.96789">
        <ele>146.26</ele>
        <time>2015-04-19T06:32:22Z</time>
      </trkpt>
      <trkpt lat="44.52552" lon="0.96788">
        <ele>146.74</ele>
        <time>2015-04-19T06:32:23Z</time>
      </trkpt>
      <trkpt lat="44.52553" lon="0.96786">
        <ele>146.74</ele>
        <time>2015-04-19T06:32:24Z</time>
      </trkpt>
      <trkpt lat="44.5256" lon="0.96781">
        <ele>148.18</ele>
        <time>2015-04-19T06:32:32Z</time>
      </trkpt>
      <trkpt lat="44.52562" lon="0.96779">
        <ele>148.66</ele>
        <time>2015-04-19T06:32:34Z</time>
      </trkpt>
      <trkpt lat="44.52563" lon="0.96779">
        <ele>148.66</ele>
        <time>2015-04-19T06:32:35Z</time>
      </trkpt>
      <trkpt lat="44.52565" lon="0.96778">
        <ele>149.14</ele>
        <time>2015-04-19T06:32:37Z</time>
      </trkpt>
      <trkpt lat="44.52573" lon="0.96768">
        <ele>151.06</ele>
        <time>2015-04-19T06:32:43Z</time>
      </trkpt>
      <trkpt lat="44.52579" lon="0.96761">
        <ele>154.91</ele>
        <time>2015-04-19T06:32:48Z</time>
      </trkpt>
      <trkpt lat="44.52592" lon="0.96751">
        <ele>157.31</ele>
        <time>2015-04-19T06:32:57Z</time>
      </trkpt>
      <trkpt lat="44.52596" lon="0.96746">
        <ele>157.31</ele>
        <time>2015-04-19T06:33:01Z</time>
      </trkpt>
      <trkpt lat="44.52597" lon="0.96744">
        <ele>157.31</ele>
        <time>2015-04-19T06:33:02Z</time>
      </trkpt>
      <trkpt lat="44.526" lon="0.96742">
        <ele>157.79</ele>
        <time>2015-04-19T06:33:04Z</time>
      </trkpt>
      <trkpt lat="44.52606" lon="0.96736">
        <ele>158.27</ele>
        <time>2015-04-19T06:33:10Z</time>
      </trkpt>
      <trkpt lat="44.52608" lon="0.96735">
        <ele>158.27</ele>
        <time>2015-04-19T06:33:11Z</time>
      </trkpt>
      <trkpt lat="44.52609" lon="0.96734">
        <ele>158.75</ele>
        <time>2015-04-19T06:33:12Z</time>
      </trkpt>
      <trkpt lat="44.5261" lon="0.96732">
        <ele>158.75</ele>
        <time>2015-04-19T06:33:13Z</time>
      </trkpt>
      <trkpt lat="44.52611" lon="0.96731">
        <ele>159.24</ele>
        <time>2015-04-19T06:33:14Z</time>
      </trkpt>
      <trkpt lat="44.52622" lon="0.96718">
        <ele>162.12</ele>
        <time>2015-04-19T06:33:27Z</time>
      </trkpt>
      <trkpt lat="44.52628" lon="0.9671">
        <ele>164.52</ele>
        <time>2015-04-19T06:33:33Z</time>
      </trkpt>
      <trkpt lat="44.52632" lon="0.96705">
        <ele>167.89</ele>
        <time>2015-04-19T06:33:38Z</time>
      </trkpt>
      <trkpt lat="44.52643" lon="0.96695">
        <ele>168.37</ele>
        <time>2015-04-19T06:33:49Z</time>
      </trkpt>
      <trkpt lat="44.52653" lon="0.9668">
        <ele>170.29</ele>
        <time>2015-04-19T06:34:01Z</time>
      </trkpt>
      <trkpt lat="44.52661" lon="0.9667">
        <ele>171.25</ele>
        <time>2015-04-19T06:34:07Z</time>
      </trkpt>
      <trkpt lat="44.52662" lon="0.96668">
        <ele>171.25</ele>
        <time>2015-04-19T06:34:08Z</time>
      </trkpt>
      <trkpt lat="44.52666" lon="0.96663">
        <ele>173.17</ele>
        <time>2015-04-19T06:34:11Z</time>
      </trkpt>
      <trkpt lat="44.5267" lon="0.96658">
        <ele>175.58</ele>
        <time>2015-04-19T06:34:14Z</time>
      </trkpt>
      <trkpt lat="44.52671" lon="0.96656">
        <ele>176.06</ele>
        <time>2015-04-19T06:34:15Z</time>
      </trkpt>
      <trkpt lat="44.52672" lon="0.96655">
        <ele>176.54</ele>
        <time>2015-04-19T06:34:16Z</time>
      </trkpt>
      <trkpt lat="44.52674" lon="0.96651">
        <ele>177.5</ele>
        <time>2015-04-19T06:34:18Z</time>
      </trkpt>
      <trkpt lat="44.52676" lon="0.9665">
        <ele>177.98</ele>
        <time>2015-04-19T06:34:19Z</time>
      </trkpt>
      <trkpt lat="44.52688" lon="0.9664">
        <ele>178.46</ele>
        <time>2015-04-19T06:34:30Z</time>
      </trkpt>
      <trkpt lat="44.52696" lon="0.96635">
        <ele>178.94</ele>
        <time>2015-04-19T06:34:37Z</time>
      </trkpt>
      <trkpt lat="44.52697" lon="0.96635">
        <ele>178.94</ele>
        <time>2015-04-19T06:34:38Z</time>
      </trkpt>
      <trkpt lat="44.52699" lon="0.96634">
        <ele>178.94</ele>
        <time>2015-04-19T06:34:39Z</time>
      </trkpt>
      <trkpt lat="44.52701" lon="0.96634">
        <ele>178.94</ele>
        <time>2015-04-19T06:34:40Z</time>
      </trkpt>
      <trkpt lat="44.52703" lon="0.96633">
        <ele>178.94</ele>
        <time>2015-04-19T06:34:41Z</time>
      </trkpt>
      <trkpt lat="44.52704" lon="0.96632">
        <ele>178.94</ele>
        <time>2015-04-19T06:34:42Z</time>
      </trkpt>
      <trkpt lat="44.52706" lon="0.96632">
        <ele>178.94</ele>
        <time>2015-04-19T06:34:43Z</time>
      </trkpt>
      <trkpt lat="44.52707" lon="0.96632">
        <ele>178.94</ele>
        <time>2015-04-19T06:34:44Z</time>
      </trkpt>
      <trkpt lat="44.52709" lon="0.96633">
        <ele>178.94</ele>
        <time>2015-04-19T06:34:45Z</time>
      </trkpt>
      <trkpt lat="44.52711" lon="0.96633">
        <ele>179.42</ele>
        <time>2015-04-19T06:34:46Z</time>
      </trkpt>
      <trkpt lat="44.52713" lon="0.96633">
        <ele>179.42</ele>
        <time>2015-04-19T06:34:47Z</time>
      </trkpt>
      <trkpt lat="44.52722" lon="0.96634">
        <ele>179.42</ele>
        <time>2015-04-19T06:34:53Z</time>
      </trkpt>
      <trkpt lat="44.52723" lon="0.96634">
        <ele>179.9</ele>
        <time>2015-04-19T06:34:54Z</time>
      </trkpt>
      <trkpt lat="44.52724" lon="0.96635">
        <ele>179.9</ele>
        <time>2015-04-19T06:34:55Z</time>
      </trkpt>
      <trkpt lat="44.52726" lon="0.96635">
        <ele>179.9</ele>
        <time>2015-04-19T06:34:56Z</time>
      </trkpt>
      <trkpt lat="44.52727" lon="0.96635">
        <ele>179.9</ele>
        <time>2015-04-19T06:34:57Z</time>
      </trkpt>
      <trkpt lat="44.52729" lon="0.96636">
        <ele>179.9</ele>
        <time>2015-04-19T06:34:58Z</time>
      </trkpt>
      <trkpt lat="44.5275" lon="0.96643">
        <ele>180.87</ele>
        <time>2015-04-19T06:35:10Z</time>
      </trkpt>
      <trkpt lat="44.52753" lon="0.96644">
        <ele>181.35</ele>
        <time>2015-04-19T06:35:12Z</time>
      </trkpt>
      <trkpt lat="44.52771" lon="0.96655">
        <ele>181.83</ele>
        <time>2015-04-19T06:35:22Z</time>
      </trkpt>
      <trkpt lat="44.52785" lon="0.96661">
        <ele>181.83</ele>
        <time>2015-04-19T06:35:29Z</time>
      </trkpt>
      <trkpt lat="44.52795" lon="0.96665">
        <ele>181.83</ele>
        <time>2015-04-19T06:35:34Z</time>
      </trkpt>
      <trkpt lat="44.52813" lon="0.96672">
        <ele>179.9</ele>
        <time>2015-04-19T06:35:46Z</time>
      </trkpt>
      <trkpt lat="44.52825" lon="0.96677">
        <ele>179.42</ele>
        <time>2015-04-19T06:35:54Z</time>
      </trkpt>
      <trkpt lat="44.52832" lon="0.96679">
        <ele>179.42</ele>
        <time>2015-04-19T06:35:57Z</time>
      </trkpt>
      <trkpt lat="44.52842" lon="0.96683">
        <ele>178.94</ele>
        <time>2015-04-19T06:36:01Z</time>
      </trkpt>
      <trkpt lat="44.52865" lon="0.96687">
        <ele>178.94</ele>
        <time>2015-04-19T06:36:11Z</time>
      </trkpt>
      <trkpt lat="44.52882" lon="0.96691">
        <ele>178.94</ele>
        <time>2015-04-19T06:36:16Z</time>
      </trkpt>
      <trkpt lat="44.52888" lon="0.96689">
        <ele>178.94</ele>
        <time>2015-04-19T06:36:19Z</time>
      </trkpt>
      <trkpt lat="44.52915" lon="0.9671">
        <ele>177.5</ele>
        <time>2015-04-19T06:36:27Z</time>
      </trkpt>
      <trkpt lat="44.52928" lon="0.96728">
        <ele>174.62</ele>
        <time>2015-04-19T06:36:32Z</time>
      </trkpt>
      <trkpt lat="44.52934" lon="0.96731">
        <ele>171.73</ele>
        <time>2015-04-19T06:36:36Z</time>
      </trkpt>
      <trkpt lat="44.52937" lon="0.96733">
        <ele>170.77</ele>
        <time>2015-04-19T06:36:37Z</time>
      </trkpt>
      <trkpt lat="44.5295" lon="0.96741">
        <ele>168.85</ele>
        <time>2015-04-19T06:36:42Z</time>
      </trkpt>
      <trkpt lat="44.52959" lon="0.96746">
        <ele>167.89</ele>
        <time>2015-04-19T06:36:46Z</time>
      </trkpt>
      <trkpt lat="44.5298" lon="0.96754">
        <ele>167.89</ele>
        <time>2015-04-19T06:36:55Z</time>
      </trkpt>
      <trkpt lat="44.5299" lon="0.96755">
        <ele>165.96</ele>
        <time>2015-04-19T06:37:01Z</time>
      </trkpt>
      <trkpt lat="44.53008" lon="0.9675">
        <ele>165.96</ele>
        <time>2015-04-19T06:37:09Z</time>
      </trkpt>
      <trkpt lat="44.53015" lon="0.96748">
        <ele>165.96</ele>
        <time>2015-04-19T06:37:13Z</time>
      </trkpt>
      <trkpt lat="44.53023" lon="0.96754">
        <ele>165.96</ele>
        <time>2015-04-19T06:37:17Z</time>
      </trkpt>
      <trkpt lat="44.53033" lon="0.96753">
        <ele>165.96</ele>
        <time>2015-04-19T06:37:21Z</time>
      </trkpt>
      <trkpt lat="44.53044" lon="0.96752">
        <ele>165.96</ele>
        <time>2015-04-19T06:37:25Z</time>
      </trkpt>
      <trkpt lat="44.53048" lon="0.96749">
        <ele>165.96</ele>
        <time>2015-04-19T06:37:27Z</time>
      </trkpt>
      <trkpt lat="44.53052" lon="0.96746">
        <ele>165.96</ele>
        <time>2015-04-19T06:37:29Z</time>
      </trkpt>
      <trkpt lat="44.53062" lon="0.96738">
        <ele>165.96</ele>
        <time>2015-04-19T06:37:35Z</time>
      </trkpt>
      <trkpt lat="44.53066" lon="0.96738">
        <ele>165.96</ele>
        <time>2015-04-19T06:37:37Z</time>
      </trkpt>
      <trkpt lat="44.53075" lon="0.96731">
        <ele>165.96</ele>
        <time>2015-04-19T06:37:43Z</time>
      </trkpt>
      <trkpt lat="44.5308" lon="0.96721">
        <ele>167.41</ele>
        <time>2015-04-19T06:37:55Z</time>
      </trkpt>
      <trkpt lat="44.53093" lon="0.96702">
        <ele>167.89</ele>
        <time>2015-04-19T06:38:07Z</time>
      </trkpt>
      <trkpt lat="44.53108" lon="0.96683">
        <ele>169.33</ele>
        <time>2015-04-19T06:38:18Z</time>
      </trkpt>
      <trkpt lat="44.53127" lon="0.9667">
        <ele>170.29</ele>
        <time>2015-04-19T06:38:29Z</time>
      </trkpt>
      <trkpt lat="44.53141" lon="0.96652">
        <ele>170.77</ele>
        <time>2015-04-19T06:38:39Z</time>
      </trkpt>
      <trkpt lat="44.53151" lon="0.96645">
        <ele>171.25</ele>
        <time>2015-04-19T06:38:46Z</time>
      </trkpt>
      <trkpt lat="44.53158" lon="0.96636">
        <ele>171.25</ele>
        <time>2015-04-19T06:38:51Z</time>
      </trkpt>
      <trkpt lat="44.53165" lon="0.96635">
        <ele>171.73</ele>
        <time>2015-04-19T06:38:56Z</time>
      </trkpt>
      <trkpt lat="44.53184" lon="0.96623">
        <ele>172.21</ele>
        <time>2015-04-19T06:39:06Z</time>
      </trkpt>
      <trkpt lat="44.53211" lon="0.96614">
        <ele>172.21</ele>
        <time>2015-04-19T06:39:21Z</time>
      </trkpt>
      <trkpt lat="44.53214" lon="0.96615">
        <ele>172.21</ele>
        <time>2015-04-19T06:39:23Z</time>
      </trkpt>
      <trkpt lat="44.53217" lon="0.96615">
        <ele>172.21</ele>
        <time>2015-04-19T06:39:25Z</time>
      </trkpt>
      <trkpt lat="44.53238" lon="0.96618">
        <ele>172.21</ele>
        <time>2015-04-19T06:39:38Z</time>
      </trkpt>
      <trkpt lat="44.53248" lon="0.96615">
        <ele>172.21</ele>
        <time>2015-04-19T06:39:46Z</time>
      </trkpt>
      <trkpt lat="44.5325" lon="0.96614">
        <ele>172.21</ele>
        <time>2015-04-19T06:39:47Z</time>
      </trkpt>
      <trkpt lat="44.53252" lon="0.96613">
        <ele>172.21</ele>
        <time>2015-04-19T06:39:49Z</time>
      </trkpt>
      <trkpt lat="44.53257" lon="0.9661">
        <ele>172.21</ele>
        <time>2015-04-19T06:39:52Z</time>
      </trkpt>
      <trkpt lat="44.53258" lon="0.9661">
        <ele>172.21</ele>
        <time>2015-04-19T06:39:53Z</time>
      </trkpt>
      <trkpt lat="44.5326" lon="0.9661">
        <ele>172.21</ele>
        <time>2015-04-19T06:39:54Z</time>
      </trkpt>
      <trkpt lat="44.53263" lon="0.96609">
        <ele>172.21</ele>
        <time>2015-04-19T06:39:56Z</time>
      </trkpt>
      <trkpt lat="44.53264" lon="0.96608">
        <ele>172.21</ele>
        <time>2015-04-19T06:39:57Z</time>
      </trkpt>
      <trkpt lat="44.53266" lon="0.96608">
        <ele>172.21</ele>
        <time>2015-04-19T06:39:58Z</time>
      </trkpt>
      <trkpt lat="44.53276" lon="0.96603">
        <ele>172.21</ele>
        <time>2015-04-19T06:40:06Z</time>
      </trkpt>
      <trkpt lat="44.53287" lon="0.96597">
        <ele>172.69</ele>
        <time>2015-04-19T06:40:16Z</time>
      </trkpt>
      <trkpt lat="44.53298" lon="0.96592">
        <ele>173.66</ele>
        <time>2015-04-19T06:40:25Z</time>
      </trkpt>
      <trkpt lat="44.53305" lon="0.96588">
        <ele>174.62</ele>
        <time>2015-04-19T06:40:29Z</time>
      </trkpt>
      <trkpt lat="44.53311" lon="0.96581">
        <ele>175.1</ele>
        <time>2015-04-19T06:40:34Z</time>
      </trkpt>
      <trkpt lat="44.53312" lon="0.96579">
        <ele>175.1</ele>
        <time>2015-04-19T06:40:35Z</time>
      </trkpt>
      <trkpt lat="44.53314" lon="0.96578">
        <ele>175.58</ele>
        <time>2015-04-19T06:40:36Z</time>
      </trkpt>
      <trkpt lat="44.53316" lon="0.96577">
        <ele>175.58</ele>
        <time>2015-04-19T06:40:37Z</time>
      </trkpt>
      <trkpt lat="44.53317" lon="0.96576">
        <ele>175.58</ele>
        <time>2015-04-19T06:40:38Z</time>
      </trkpt>
      <trkpt lat="44.53318" lon="0.96574">
        <ele>175.58</ele>
        <time>2015-04-19T06:40:39Z</time>
      </trkpt>
      <trkpt lat="44.5332" lon="0.96572">
        <ele>175.58</ele>
        <time>2015-04-19T06:40:40Z</time>
      </trkpt>
      <trkpt lat="44.53321" lon="0.9657">
        <ele>176.06</ele>
        <time>2015-04-19T06:40:41Z</time>
      </trkpt>
      <trkpt lat="44.53322" lon="0.96569">
        <ele>176.06</ele>
        <time>2015-04-19T06:40:42Z</time>
      </trkpt>
      <trkpt lat="44.53331" lon="0.96559">
        <ele>176.06</ele>
        <time>2015-04-19T06:40:50Z</time>
      </trkpt>
      <trkpt lat="44.53332" lon="0.96558">
        <ele>176.06</ele>
        <time>2015-04-19T06:40:51Z</time>
      </trkpt>
      <trkpt lat="44.53336" lon="0.96551">
        <ele>176.06</ele>
        <time>2015-04-19T06:40:55Z</time>
      </trkpt>
      <trkpt lat="44.53338" lon="0.96549">
        <ele>176.06</ele>
        <time>2015-04-19T06:40:56Z</time>
      </trkpt>
      <trkpt lat="44.53339" lon="0.96548">
        <ele>176.06</ele>
        <time>2015-04-19T06:40:57Z</time>
      </trkpt>
      <trkpt lat="44.53342" lon="0.96545">
        <ele>176.06</ele>
        <time>2015-04-19T06:40:59Z</time>
      </trkpt>
      <trkpt lat="44.53344" lon="0.96544">
        <ele>175.1</ele>
        <time>2015-04-19T06:41:00Z</time>
      </trkpt>
      <trkpt lat="44.53346" lon="0.96542">
        <ele>174.62</ele>
        <time>2015-04-19T06:41:01Z</time>
      </trkpt>
      <trkpt lat="44.53348" lon="0.9654">
        <ele>174.62</ele>
        <time>2015-04-19T06:41:02Z</time>
      </trkpt>
      <trkpt lat="44.5335" lon="0.96538">
        <ele>174.62</ele>
        <time>2015-04-19T06:41:03Z</time>
      </trkpt>
      <trkpt lat="44.53351" lon="0.96536">
        <ele>175.1</ele>
        <time>2015-04-19T06:41:04Z</time>
      </trkpt>
      <trkpt lat="44.53357" lon="0.96532">
        <ele>174.14</ele>
        <time>2015-04-19T06:41:08Z</time>
      </trkpt>
      <trkpt lat="44.53358" lon="0.9653">
        <ele>173.66</ele>
        <time>2015-04-19T06:41:09Z</time>
      </trkpt>
      <trkpt lat="44.53376" lon="0.96517">
        <ele>172.69</ele>
        <time>2015-04-19T06:41:20Z</time>
      </trkpt>
      <trkpt lat="44.53398" lon="0.96508">
        <ele>172.21</ele>
        <time>2015-04-19T06:41:32Z</time>
      </trkpt>
      <trkpt lat="44.53401" lon="0.96502">
        <ele>172.21</ele>
        <time>2015-04-19T06:41:35Z</time>
      </trkpt>
      <trkpt lat="44.53401" lon="0.96501">
        <ele>172.21</ele>
        <time>2015-04-19T06:41:36Z</time>
      </trkpt>
      <trkpt lat="44.53403" lon="0.96497">
        <ele>172.21</ele>
        <time>2015-04-19T06:41:39Z</time>
      </trkpt>
      <trkpt lat="44.53405" lon="0.96496">
        <ele>172.21</ele>
        <time>2015-04-19T06:41:40Z</time>
      </trkpt>
      <trkpt lat="44.53415" lon="0.96485">
        <ele>171.73</ele>
        <time>2015-04-19T06:41:51Z</time>
      </trkpt>
      <trkpt lat="44.53418" lon="0.9648">
        <ele>171.73</ele>
        <time>2015-04-19T06:41:55Z</time>
      </trkpt>
      <trkpt lat="44.53425" lon="0.96464">
        <ele>171.73</ele>
        <time>2015-04-19T06:42:04Z</time>
      </trkpt>
      <trkpt lat="44.53428" lon="0.96454">
        <ele>171.25</ele>
        <time>2015-04-19T06:42:10Z</time>
      </trkpt>
      <trkpt lat="44.53433" lon="0.9644">
        <ele>171.25</ele>
        <time>2015-04-19T06:42:17Z</time>
      </trkpt>
      <trkpt lat="44.53443" lon="0.96415">
        <ele>170.29</ele>
        <time>2015-04-19T06:42:29Z</time>
      </trkpt>
      <trkpt lat="44.53455" lon="0.96392">
        <ele>169.81</ele>
        <time>2015-04-19T06:42:39Z</time>
      </trkpt>
      <trkpt lat="44.53466" lon="0.96366">
        <ele>169.33</ele>
        <time>2015-04-19T06:42:51Z</time>
      </trkpt>
      <trkpt lat="44.53472" lon="0.96357">
        <ele>169.33</ele>
        <time>2015-04-19T06:42:55Z</time>
      </trkpt>
      <trkpt lat="44.53475" lon="0.96334">
        <ele>168.85</ele>
        <time>2015-04-19T06:43:06Z</time>
      </trkpt>
      <trkpt lat="44.53471" lon="0.96316">
        <ele>168.85</ele>
        <time>2015-04-19T06:43:18Z</time>
      </trkpt>
      <trkpt lat="44.53468" lon="0.96307">
        <ele>168.37</ele>
        <time>2015-04-19T06:43:23Z</time>
      </trkpt>
      <trkpt lat="44.53469" lon="0.96278">
        <ele>167.89</ele>
        <time>2015-04-19T06:43:33Z</time>
      </trkpt>
      <trkpt lat="44.53465" lon="0.96247">
        <ele>167.89</ele>
        <time>2015-04-19T06:43:44Z</time>
      </trkpt>
      <trkpt lat="44.53466" lon="0.96239">
        <ele>168.37</ele>
        <time>2015-04-19T06:43:50Z</time>
      </trkpt>
      <trkpt lat="44.53471" lon="0.96216">
        <ele>168.37</ele>
        <time>2015-04-19T06:43:58Z</time>
      </trkpt>
      <trkpt lat="44.53476" lon="0.96198">
        <ele>168.37</ele>
        <time>2015-04-19T06:44:05Z</time>
      </trkpt>
      <trkpt lat="44.53478" lon="0.96187">
        <ele>168.37</ele>
        <time>2015-04-19T06:44:09Z</time>
      </trkpt>
      <trkpt lat="44.53481" lon="0.96175">
        <ele>168.37</ele>
        <time>2015-04-19T06:44:13Z</time>
      </trkpt>
      <trkpt lat="44.53485" lon="0.96166">
        <ele>168.37</ele>
        <time>2015-04-19T06:44:16Z</time>
      </trkpt>
      <trkpt lat="44.53488" lon="0.96156">
        <ele>168.37</ele>
        <time>2015-04-19T06:44:20Z</time>
      </trkpt>
      <trkpt lat="44.5349" lon="0.96151">
        <ele>168.37</ele>
        <time>2015-04-19T06:44:22Z</time>
      </trkpt>
      <trkpt lat="44.53492" lon="0.96139">
        <ele>167.89</ele>
        <time>2015-04-19T06:44:26Z</time>
      </trkpt>
      <trkpt lat="44.53495" lon="0.96132">
        <ele>166.93</ele>
        <time>2015-04-19T06:44:28Z</time>
      </trkpt>
      <trkpt lat="44.535" lon="0.96119">
        <ele>164.52</ele>
        <time>2015-04-19T06:44:32Z</time>
      </trkpt>
      <trkpt lat="44.53512" lon="0.96092">
        <ele>160.2</ele>
        <time>2015-04-19T06:44:40Z</time>
      </trkpt>
      <trkpt lat="44.53513" lon="0.96088">
        <ele>160.68</ele>
        <time>2015-04-19T06:44:41Z</time>
      </trkpt>
      <trkpt lat="44.5352" lon="0.96061">
        <ele>161.16</ele>
        <time>2015-04-19T06:44:50Z</time>
      </trkpt>
      <trkpt lat="44.53523" lon="0.96047">
        <ele>161.16</ele>
        <time>2015-04-19T06:44:54Z</time>
      </trkpt>
      <trkpt lat="44.53526" lon="0.96044">
        <ele>161.16</ele>
        <time>2015-04-19T06:44:55Z</time>
      </trkpt>
      <trkpt lat="44.53528" lon="0.96041">
        <ele>160.2</ele>
        <time>2015-04-19T06:44:56Z</time>
      </trkpt>
      <trkpt lat="44.53529" lon="0.96037">
        <ele>160.68</ele>
        <time>2015-04-19T06:44:57Z</time>
      </trkpt>
      <trkpt lat="44.5353" lon="0.96035">
        <ele>160.68</ele>
        <time>2015-04-19T06:44:58Z</time>
      </trkpt>
      <trkpt lat="44.53531" lon="0.96032">
        <ele>160.68</ele>
        <time>2015-04-19T06:44:59Z</time>
      </trkpt>
      <trkpt lat="44.53546" lon="0.95989">
        <ele>159.24</ele>
        <time>2015-04-19T06:45:10Z</time>
      </trkpt>
      <trkpt lat="44.53547" lon="0.95986">
        <ele>159.72</ele>
        <time>2015-04-19T06:45:11Z</time>
      </trkpt>
      <trkpt lat="44.53549" lon="0.95982">
        <ele>159.72</ele>
        <time>2015-04-19T06:45:12Z</time>
      </trkpt>
      <trkpt lat="44.53551" lon="0.95978">
        <ele>159.72</ele>
        <time>2015-04-19T06:45:13Z</time>
      </trkpt>
      <trkpt lat="44.53552" lon="0.95974">
        <ele>158.75</ele>
        <time>2015-04-19T06:45:14Z</time>
      </trkpt>
      <trkpt lat="44.53554" lon="0.95971">
        <ele>158.75</ele>
        <time>2015-04-19T06:45:15Z</time>
      </trkpt>
      <trkpt lat="44.53555" lon="0.95967">
        <ele>158.75</ele>
        <time>2015-04-19T06:45:16Z</time>
      </trkpt>
      <trkpt lat="44.5356" lon="0.95945">
        <ele>157.79</ele>
        <time>2015-04-19T06:45:23Z</time>
      </trkpt>
      <trkpt lat="44.53561" lon="0.95941">
        <ele>157.79</ele>
        <time>2015-04-19T06:45:24Z</time>
      </trkpt>
      <trkpt lat="44.53563" lon="0.95938">
        <ele>156.83</ele>
        <time>2015-04-19T06:45:25Z</time>
      </trkpt>
      <trkpt lat="44.53563" lon="0.95935">
        <ele>157.31</ele>
        <time>2015-04-19T06:45:26Z</time>
      </trkpt>
      <trkpt lat="44.53566" lon="0.95927">
        <ele>154.43</ele>
        <time>2015-04-19T06:45:29Z</time>
      </trkpt>
      <trkpt lat="44.53567" lon="0.95923">
        <ele>152.99</ele>
        <time>2015-04-19T06:45:30Z</time>
      </trkpt>
      <trkpt lat="44.53567" lon="0.95921">
        <ele>152.51</ele>
        <time>2015-04-19T06:45:31Z</time>
      </trkpt>
      <trkpt lat="44.53569" lon="0.95917">
        <ele>152.03</ele>
        <time>2015-04-19T06:45:32Z</time>
      </trkpt>
      <trkpt lat="44.5357" lon="0.95913">
        <ele>151.54</ele>
        <time>2015-04-19T06:45:33Z</time>
      </trkpt>
      <trkpt lat="44.53571" lon="0.95909">
        <ele>151.06</ele>
        <time>2015-04-19T06:45:34Z</time>
      </trkpt>
      <trkpt lat="44.53571" lon="0.95905">
        <ele>150.58</ele>
        <time>2015-04-19T06:45:35Z</time>
      </trkpt>
      <trkpt lat="44.53572" lon="0.95901">
        <ele>150.58</ele>
        <time>2015-04-19T06:45:36Z</time>
      </trkpt>
      <trkpt lat="44.53572" lon="0.95898">
        <ele>150.1</ele>
        <time>2015-04-19T06:45:37Z</time>
      </trkpt>
      <trkpt lat="44.53572" lon="0.95895">
        <ele>150.1</ele>
        <time>2015-04-19T06:45:38Z</time>
      </trkpt>
      <trkpt lat="44.53573" lon="0.95892">
        <ele>150.1</ele>
        <time>2015-04-19T06:45:39Z</time>
      </trkpt>
      <trkpt lat="44.53573" lon="0.95889">
        <ele>150.1</ele>
        <time>2015-04-19T06:45:40Z</time>
      </trkpt>
      <trkpt lat="44.53574" lon="0.95885">
        <ele>150.1</ele>
        <time>2015-04-19T06:45:41Z</time>
      </trkpt>
      <trkpt lat="44.53574" lon="0.95881">
        <ele>150.1</ele>
        <time>2015-04-19T06:45:42Z</time>
      </trkpt>
      <trkpt lat="44.53575" lon="0.95878">
        <ele>150.1</ele>
        <time>2015-04-19T06:45:43Z</time>
      </trkpt>
      <trkpt lat="44.53576" lon="0.95874">
        <ele>150.1</ele>
        <time>2015-04-19T06:45:44Z</time>
      </trkpt>
      <trkpt lat="44.5358" lon="0.95859">
        <ele>149.62</ele>
        <time>2015-04-19T06:45:48Z</time>
      </trkpt>
      <trkpt lat="44.5358" lon="0.95856">
        <ele>149.62</ele>
        <time>2015-04-19T06:45:49Z</time>
      </trkpt>
      <trkpt lat="44.53581" lon="0.95853">
        <ele>149.62</ele>
        <time>2015-04-19T06:45:50Z</time>
      </trkpt>
      <trkpt lat="44.53581" lon="0.9585">
        <ele>149.62</ele>
        <time>2015-04-19T06:45:51Z</time>
      </trkpt>
      <trkpt lat="44.53581" lon="0.95845">
        <ele>149.14</ele>
        <time>2015-04-19T06:45:53Z</time>
      </trkpt>
      <trkpt lat="44.53581" lon="0.95842">
        <ele>149.14</ele>
        <time>2015-04-19T06:45:54Z</time>
      </trkpt>
      <trkpt lat="44.53582" lon="0.95839">
        <ele>149.14</ele>
        <time>2015-04-19T06:45:55Z</time>
      </trkpt>
      <trkpt lat="44.53583" lon="0.95836">
        <ele>149.14</ele>
        <time>2015-04-19T06:45:56Z</time>
      </trkpt>
      <trkpt lat="44.53585" lon="0.95831">
        <ele>149.14</ele>
        <time>2015-04-19T06:45:58Z</time>
      </trkpt>
      <trkpt lat="44.53588" lon="0.95829">
        <ele>148.18</ele>
        <time>2015-04-19T06:45:59Z</time>
      </trkpt>
      <trkpt lat="44.53594" lon="0.95826">
        <ele>148.66</ele>
        <time>2015-04-19T06:46:01Z</time>
      </trkpt>
      <trkpt lat="44.53597" lon="0.95826">
        <ele>148.66</ele>
        <time>2015-04-19T06:46:02Z</time>
      </trkpt>
      <trkpt lat="44.53599" lon="0.95826">
        <ele>147.7</ele>
        <time>2015-04-19T06:46:03Z</time>
      </trkpt>
      <trkpt lat="44.53602" lon="0.95826">
        <ele>148.18</ele>
        <time>2015-04-19T06:46:04Z</time>
      </trkpt>
      <trkpt lat="44.53604" lon="0.95827">
        <ele>148.18</ele>
        <time>2015-04-19T06:46:05Z</time>
      </trkpt>
      <trkpt lat="44.53606" lon="0.95828">
        <ele>148.18</ele>
        <time>2015-04-19T06:46:06Z</time>
      </trkpt>
      <trkpt lat="44.53608" lon="0.95828">
        <ele>148.18</ele>
        <time>2015-04-19T06:46:07Z</time>
      </trkpt>
      <trkpt lat="44.53611" lon="0.95827">
        <ele>147.22</ele>
        <time>2015-04-19T06:46:08Z</time>
      </trkpt>
      <trkpt lat="44.53613" lon="0.95828">
        <ele>147.22</ele>
        <time>2015-04-19T06:46:09Z</time>
      </trkpt>
      <trkpt lat="44.53615" lon="0.95829">
        <ele>147.22</ele>
        <time>2015-04-19T06:46:10Z</time>
      </trkpt>
      <trkpt lat="44.53618" lon="0.95829">
        <ele>147.22</ele>
        <time>2015-04-19T06:46:11Z</time>
      </trkpt>
      <trkpt lat="44.5362" lon="0.95829">
        <ele>146.74</ele>
        <time>2015-04-19T06:46:12Z</time>
      </trkpt>
      <trkpt lat="44.53622" lon="0.95829">
        <ele>146.74</ele>
        <time>2015-04-19T06:46:13Z</time>
      </trkpt>
      <trkpt lat="44.53624" lon="0.95829">
        <ele>146.74</ele>
        <time>2015-04-19T06:46:14Z</time>
      </trkpt>
      <trkpt lat="44.53645" lon="0.95826">
        <ele>145.3</ele>
        <time>2015-04-19T06:46:24Z</time>
      </trkpt>
      <trkpt lat="44.53649" lon="0.95826">
        <ele>145.3</ele>
        <time>2015-04-19T06:46:26Z</time>
      </trkpt>
      <trkpt lat="44.53651" lon="0.95825">
        <ele>144.82</ele>
        <time>2015-04-19T06:46:27Z</time>
      </trkpt>
      <trkpt lat="44.53652" lon="0.95825">
        <ele>144.82</ele>
        <time>2015-04-19T06:46:28Z</time>
      </trkpt>
      <trkpt lat="44.53673" lon="0.95823">
        <ele>142.41</ele>
        <time>2015-04-19T06:46:41Z</time>
      </trkpt>
      <trkpt lat="44.53686" lon="0.95829">
        <ele>138.57</ele>
        <time>2015-04-19T06:46:48Z</time>
      </trkpt>
      <trkpt lat="44.53712" lon="0.95844">
        <ele>136.64</ele>
        <time>2015-04-19T06:47:00Z</time>
      </trkpt>
      <trkpt lat="44.53735" lon="0.95852">
        <ele>135.2</ele>
        <time>2015-04-19T06:47:11Z</time>
      </trkpt>
      <trkpt lat="44.53755" lon="0.9585">
        <ele>133.28</ele>
        <time>2015-04-19T06:47:24Z</time>
      </trkpt>
      <trkpt lat="44.53769" lon="0.95842">
        <ele>131.84</ele>
        <time>2015-04-19T06:47:35Z</time>
      </trkpt>
      <trkpt lat="44.53772" lon="0.95842">
        <ele>131.84</ele>
        <time>2015-04-19T06:47:36Z</time>
      </trkpt>
      <trkpt lat="44.53773" lon="0.95842">
        <ele>131.84</ele>
        <time>2015-04-19T06:47:37Z</time>
      </trkpt>
      <trkpt lat="44.53794" lon="0.9583">
        <ele>131.36</ele>
        <time>2015-04-19T06:47:50Z</time>
      </trkpt>
      <trkpt lat="44.53796" lon="0.9583">
        <ele>131.36</ele>
        <time>2015-04-19T06:47:51Z</time>
      </trkpt>
      <trkpt lat="44.53799" lon="0.9583">
        <ele>131.36</ele>
        <time>2015-04-19T06:47:52Z</time>
      </trkpt>
      <trkpt lat="44.53801" lon="0.95829">
        <ele>131.36</ele>
        <time>2015-04-19T06:47:53Z</time>
      </trkpt>
      <trkpt lat="44.53803" lon="0.95829">
        <ele>131.36</ele>
        <time>2015-04-19T06:47:54Z</time>
      </trkpt>
      <trkpt lat="44.53804" lon="0.95827">
        <ele>131.36</ele>
        <time>2015-04-19T06:47:55Z</time>
      </trkpt>
      <trkpt lat="44.53806" lon="0.95826">
        <ele>131.36</ele>
        <time>2015-04-19T06:47:56Z</time>
      </trkpt>
      <trkpt lat="44.53807" lon="0.95825">
        <ele>131.36</ele>
        <time>2015-04-19T06:47:57Z</time>
      </trkpt>
      <trkpt lat="44.53809" lon="0.95824">
        <ele>131.36</ele>
        <time>2015-04-19T06:47:58Z</time>
      </trkpt>
      <trkpt lat="44.53811" lon="0.95823">
        <ele>131.36</ele>
        <time>2015-04-19T06:47:59Z</time>
      </trkpt>
      <trkpt lat="44.53812" lon="0.95822">
        <ele>131.36</ele>
        <time>2015-04-19T06:48:00Z</time>
      </trkpt>
      <trkpt lat="44.53832" lon="0.95812">
        <ele>131.36</ele>
        <time>2015-04-19T06:48:12Z</time>
      </trkpt>
      <trkpt lat="44.53856" lon="0.958">
        <ele>132.32</ele>
        <time>2015-04-19T06:48:27Z</time>
      </trkpt>
      <trkpt lat="44.53879" lon="0.95786">
        <ele>134.24</ele>
        <time>2015-04-19T06:48:43Z</time>
      </trkpt>
      <trkpt lat="44.53894" lon="0.95767">
        <ele>134.72</ele>
        <time>2015-04-19T06:48:56Z</time>
      </trkpt>
      <trkpt lat="44.53908" lon="0.95749">
        <ele>135.2</ele>
        <time>2015-04-19T06:49:10Z</time>
      </trkpt>
      <trkpt lat="44.53909" lon="0.95747">
        <ele>135.68</ele>
        <time>2015-04-19T06:49:11Z</time>
      </trkpt>
      <trkpt lat="44.5391" lon="0.95746">
        <ele>135.68</ele>
        <time>2015-04-19T06:49:12Z</time>
      </trkpt>
      <trkpt lat="44.53912" lon="0.95741">
        <ele>135.68</ele>
        <time>2015-04-19T06:49:15Z</time>
      </trkpt>
      <trkpt lat="44.53913" lon="0.95739">
        <ele>135.68</ele>
        <time>2015-04-19T06:49:16Z</time>
      </trkpt>
      <trkpt lat="44.53914" lon="0.95737">
        <ele>136.16</ele>
        <time>2015-04-19T06:49:17Z</time>
      </trkpt>
      <trkpt lat="44.53926" lon="0.95714">
        <ele>137.61</ele>
        <time>2015-04-19T06:49:30Z</time>
      </trkpt>
      <trkpt lat="44.53936" lon="0.95693">
        <ele>139.53</ele>
        <time>2015-04-19T06:49:42Z</time>
      </trkpt>
      <trkpt lat="44.53942" lon="0.95684">
        <ele>140.01</ele>
        <time>2015-04-19T06:49:48Z</time>
      </trkpt>
      <trkpt lat="44.53943" lon="0.95682">
        <ele>140.01</ele>
        <time>2015-04-19T06:49:49Z</time>
      </trkpt>
      <trkpt lat="44.53946" lon="0.95676">
        <ele>140.49</ele>
        <time>2015-04-19T06:49:53Z</time>
      </trkpt>
      <trkpt lat="44.53947" lon="0.95674">
        <ele>140.97</ele>
        <time>2015-04-19T06:49:54Z</time>
      </trkpt>
      <trkpt lat="44.53959" lon="0.95658">
        <ele>142.41</ele>
        <time>2015-04-19T06:50:06Z</time>
      </trkpt>
      <trkpt lat="44.53964" lon="0.95651">
        <ele>143.85</ele>
        <time>2015-04-19T06:50:11Z</time>
      </trkpt>
      <trkpt lat="44.53969" lon="0.95637">
        <ele>144.82</ele>
        <time>2015-04-19T06:50:18Z</time>
      </trkpt>
      <trkpt lat="44.53972" lon="0.95636">
        <ele>145.78</ele>
        <time>2015-04-19T06:50:20Z</time>
      </trkpt>
      <trkpt lat="44.53973" lon="0.95635">
        <ele>145.78</ele>
        <time>2015-04-19T06:50:21Z</time>
      </trkpt>
      <trkpt lat="44.53974" lon="0.95634">
        <ele>146.26</ele>
        <time>2015-04-19T06:50:22Z</time>
      </trkpt>
      <trkpt lat="44.53982" lon="0.95626">
        <ele>147.22</ele>
        <time>2015-04-19T06:50:28Z</time>
      </trkpt>
      <trkpt lat="44.53983" lon="0.95624">
        <ele>147.22</ele>
        <time>2015-04-19T06:50:29Z</time>
      </trkpt>
      <trkpt lat="44.53986" lon="0.9562">
        <ele>147.7</ele>
        <time>2015-04-19T06:50:32Z</time>
      </trkpt>
      <trkpt lat="44.54" lon="0.95593">
        <ele>149.14</ele>
        <time>2015-04-19T06:50:45Z</time>
      </trkpt>
      <trkpt lat="44.54001" lon="0.95591">
        <ele>150.1</ele>
        <time>2015-04-19T06:50:46Z</time>
      </trkpt>
      <trkpt lat="44.54006" lon="0.95585">
        <ele>150.1</ele>
        <time>2015-04-19T06:50:50Z</time>
      </trkpt>
      <trkpt lat="44.54008" lon="0.95584">
        <ele>150.1</ele>
        <time>2015-04-19T06:50:51Z</time>
      </trkpt>
      <trkpt lat="44.54022" lon="0.95576">
        <ele>150.58</ele>
        <time>2015-04-19T06:51:01Z</time>
      </trkpt>
      <trkpt lat="44.54023" lon="0.95574">
        <ele>150.58</ele>
        <time>2015-04-19T06:51:02Z</time>
      </trkpt>
      <trkpt lat="44.54024" lon="0.95573">
        <ele>150.58</ele>
        <time>2015-04-19T06:51:03Z</time>
      </trkpt>
      <trkpt lat="44.54035" lon="0.95556">
        <ele>150.58</ele>
        <time>2015-04-19T06:51:15Z</time>
      </trkpt>
      <trkpt lat="44.54036" lon="0.95554">
        <ele>150.58</ele>
        <time>2015-04-19T06:51:16Z</time>
      </trkpt>
      <trkpt lat="44.54037" lon="0.95553">
        <ele>150.58</ele>
        <time>2015-04-19T06:51:17Z</time>
      </trkpt>
      <trkpt lat="44.54037" lon="0.95551">
        <ele>150.58</ele>
        <time>2015-04-19T06:51:18Z</time>
      </trkpt>
      <trkpt lat="44.54038" lon="0.95548">
        <ele>151.06</ele>
        <time>2015-04-19T06:51:19Z</time>
      </trkpt>
      <trkpt lat="44.54043" lon="0.95526">
        <ele>151.54</ele>
        <time>2015-04-19T06:51:30Z</time>
      </trkpt>
      <trkpt lat="44.54043" lon="0.95524">
        <ele>151.54</ele>
        <time>2015-04-19T06:51:31Z</time>
      </trkpt>
      <trkpt lat="44.54052" lon="0.95496">
        <ele>152.99</ele>
        <time>2015-04-19T06:51:44Z</time>
      </trkpt>
      <trkpt lat="44.54071" lon="0.95477">
        <ele>155.39</ele>
        <time>2015-04-19T06:51:57Z</time>
      </trkpt>
      <trkpt lat="44.54081" lon="0.9547">
        <ele>156.83</ele>
        <time>2015-04-19T06:52:02Z</time>
      </trkpt>
      <trkpt lat="44.54083" lon="0.9547">
        <ele>156.83</ele>
        <time>2015-04-19T06:52:03Z</time>
      </trkpt>
      <trkpt lat="44.54085" lon="0.9547">
        <ele>156.35</ele>
        <time>2015-04-19T06:52:04Z</time>
      </trkpt>
      <trkpt lat="44.54086" lon="0.95471">
        <ele>156.83</ele>
        <time>2015-04-19T06:52:05Z</time>
      </trkpt>
      <trkpt lat="44.54088" lon="0.95471">
        <ele>156.35</ele>
        <time>2015-04-19T06:52:06Z</time>
      </trkpt>
      <trkpt lat="44.5409" lon="0.95472">
        <ele>157.31</ele>
        <time>2015-04-19T06:52:07Z</time>
      </trkpt>
      <trkpt lat="44.54092" lon="0.95473">
        <ele>156.83</ele>
        <time>2015-04-19T06:52:08Z</time>
      </trkpt>
      <trkpt lat="44.54107" lon="0.95487">
        <ele>157.31</ele>
        <time>2015-04-19T06:52:19Z</time>
      </trkpt>
      <trkpt lat="44.54108" lon="0.95488">
        <ele>157.31</ele>
        <time>2015-04-19T06:52:20Z</time>
      </trkpt>
      <trkpt lat="44.5411" lon="0.95489">
        <ele>157.31</ele>
        <time>2015-04-19T06:52:22Z</time>
      </trkpt>
      <trkpt lat="44.54128" lon="0.95504">
        <ele>158.75</ele>
        <time>2015-04-19T06:52:36Z</time>
      </trkpt>
      <trkpt lat="44.54131" lon="0.95506">
        <ele>158.75</ele>
        <time>2015-04-19T06:52:38Z</time>
      </trkpt>
      <trkpt lat="44.54133" lon="0.95506">
        <ele>158.75</ele>
        <time>2015-04-19T06:52:39Z</time>
      </trkpt>
      <trkpt lat="44.54134" lon="0.95507">
        <ele>158.75</ele>
        <time>2015-04-19T06:52:40Z</time>
      </trkpt>
      <trkpt lat="44.54136" lon="0.95507">
        <ele>158.75</ele>
        <time>2015-04-19T06:52:41Z</time>
      </trkpt>
      <trkpt lat="44.54137" lon="0.95507">
        <ele>159.24</ele>
        <time>2015-04-19T06:52:42Z</time>
      </trkpt>
      <trkpt lat="44.54139" lon="0.95508">
        <ele>159.24</ele>
        <time>2015-04-19T06:52:43Z</time>
      </trkpt>
      <trkpt lat="44.54141" lon="0.95509">
        <ele>159.24</ele>
        <time>2015-04-19T06:52:44Z</time>
      </trkpt>
      <trkpt lat="44.54142" lon="0.95508">
        <ele>159.24</ele>
        <time>2015-04-19T06:52:45Z</time>
      </trkpt>
      <trkpt lat="44.54159" lon="0.95507">
        <ele>159.72</ele>
        <time>2015-04-19T06:52:57Z</time>
      </trkpt>
      <trkpt lat="44.54166" lon="0.955">
        <ele>159.72</ele>
        <time>2015-04-19T06:53:03Z</time>
      </trkpt>
      <trkpt lat="44.54175" lon="0.95493">
        <ele>159.72</ele>
        <time>2015-04-19T06:53:10Z</time>
      </trkpt>
      <trkpt lat="44.54176" lon="0.95492">
        <ele>159.72</ele>
        <time>2015-04-19T06:53:11Z</time>
      </trkpt>
      <trkpt lat="44.54179" lon="0.95491">
        <ele>159.72</ele>
        <time>2015-04-19T06:53:13Z</time>
      </trkpt>
      <trkpt lat="44.5418" lon="0.95491">
        <ele>159.72</ele>
        <time>2015-04-19T06:53:14Z</time>
      </trkpt>
      <trkpt lat="44.54198" lon="0.95478">
        <ele>158.75</ele>
        <time>2015-04-19T06:53:26Z</time>
      </trkpt>
      <trkpt lat="44.54205" lon="0.95475">
        <ele>158.75</ele>
        <time>2015-04-19T06:53:30Z</time>
      </trkpt>
      <trkpt lat="44.54221" lon="0.95464">
        <ele>158.27</ele>
        <time>2015-04-19T06:53:42Z</time>
      </trkpt>
      <trkpt lat="44.54222" lon="0.95463">
        <ele>158.27</ele>
        <time>2015-04-19T06:53:43Z</time>
      </trkpt>
      <trkpt lat="44.54223" lon="0.95461">
        <ele>158.27</ele>
        <time>2015-04-19T06:53:44Z</time>
      </trkpt>
      <trkpt lat="44.54224" lon="0.95459">
        <ele>158.27</ele>
        <time>2015-04-19T06:53:45Z</time>
      </trkpt>
      <trkpt lat="44.54225" lon="0.95458">
        <ele>158.27</ele>
        <time>2015-04-19T06:53:46Z</time>
      </trkpt>
      <trkpt lat="44.54226" lon="0.95457">
        <ele>158.27</ele>
        <time>2015-04-19T06:53:47Z</time>
      </trkpt>
      <trkpt lat="44.54228" lon="0.95456">
        <ele>158.27</ele>
        <time>2015-04-19T06:53:48Z</time>
      </trkpt>
      <trkpt lat="44.54229" lon="0.95456">
        <ele>158.27</ele>
        <time>2015-04-19T06:53:49Z</time>
      </trkpt>
      <trkpt lat="44.5423" lon="0.95455">
        <ele>158.27</ele>
        <time>2015-04-19T06:53:50Z</time>
      </trkpt>
      <trkpt lat="44.54231" lon="0.95453">
        <ele>158.27</ele>
        <time>2015-04-19T06:53:51Z</time>
      </trkpt>
      <trkpt lat="44.54232" lon="0.95452">
        <ele>158.27</ele>
        <time>2015-04-19T06:53:52Z</time>
      </trkpt>
      <trkpt lat="44.54233" lon="0.95452">
        <ele>158.27</ele>
        <time>2015-04-19T06:53:53Z</time>
      </trkpt>
      <trkpt lat="44.5424" lon="0.95449">
        <ele>158.27</ele>
        <time>2015-04-19T06:53:59Z</time>
      </trkpt>
      <trkpt lat="44.54241" lon="0.95448">
        <ele>158.27</ele>
        <time>2015-04-19T06:54:00Z</time>
      </trkpt>
      <trkpt lat="44.54242" lon="0.95447">
        <ele>159.24</ele>
        <time>2015-04-19T06:54:01Z</time>
      </trkpt>
      <trkpt lat="44.54243" lon="0.95446">
        <ele>159.24</ele>
        <time>2015-04-19T06:54:02Z</time>
      </trkpt>
      <trkpt lat="44.54244" lon="0.95445">
        <ele>159.24</ele>
        <time>2015-04-19T06:54:03Z</time>
      </trkpt>
      <trkpt lat="44.54245" lon="0.95443">
        <ele>159.24</ele>
        <time>2015-04-19T06:54:04Z</time>
      </trkpt>
      <trkpt lat="44.54246" lon="0.95442">
        <ele>159.72</ele>
        <time>2015-04-19T06:54:05Z</time>
      </trkpt>
      <trkpt lat="44.54247" lon="0.95441">
        <ele>159.72</ele>
        <time>2015-04-19T06:54:06Z</time>
      </trkpt>
      <trkpt lat="44.54249" lon="0.95439">
        <ele>159.72</ele>
        <time>2015-04-19T06:54:08Z</time>
      </trkpt>
      <trkpt lat="44.54249" lon="0.95437">
        <ele>159.72</ele>
        <time>2015-04-19T06:54:09Z</time>
      </trkpt>
      <trkpt lat="44.5425" lon="0.95436">
        <ele>160.68</ele>
        <time>2015-04-19T06:54:10Z</time>
      </trkpt>
      <trkpt lat="44.54263" lon="0.95431">
        <ele>161.16</ele>
        <time>2015-04-19T06:54:18Z</time>
      </trkpt>
      <trkpt lat="44.54264" lon="0.9543">
        <ele>161.16</ele>
        <time>2015-04-19T06:54:19Z</time>
      </trkpt>
      <trkpt lat="44.54266" lon="0.9543">
        <ele>161.64</ele>
        <time>2015-04-19T06:54:20Z</time>
      </trkpt>
      <trkpt lat="44.54267" lon="0.95429">
        <ele>161.64</ele>
        <time>2015-04-19T06:54:21Z</time>
      </trkpt>
      <trkpt lat="44.54269" lon="0.95428">
        <ele>161.64</ele>
        <time>2015-04-19T06:54:22Z</time>
      </trkpt>
      <trkpt lat="44.54271" lon="0.95428">
        <ele>161.64</ele>
        <time>2015-04-19T06:54:23Z</time>
      </trkpt>
      <trkpt lat="44.54273" lon="0.95427">
        <ele>162.12</ele>
        <time>2015-04-19T06:54:24Z</time>
      </trkpt>
      <trkpt lat="44.54274" lon="0.95426">
        <ele>162.6</ele>
        <time>2015-04-19T06:54:25Z</time>
      </trkpt>
      <trkpt lat="44.54278" lon="0.95424">
        <ele>163.08</ele>
        <time>2015-04-19T06:54:28Z</time>
      </trkpt>
      <trkpt lat="44.5428" lon="0.95424">
        <ele>162.6</ele>
        <time>2015-04-19T06:54:29Z</time>
      </trkpt>
      <trkpt lat="44.54281" lon="0.95424">
        <ele>162.6</ele>
        <time>2015-04-19T06:54:30Z</time>
      </trkpt>
      <trkpt lat="44.54297" lon="0.95427">
        <ele>164.04</ele>
        <time>2015-04-19T06:54:40Z</time>
      </trkpt>
      <trkpt lat="44.54299" lon="0.95426">
        <ele>164.04</ele>
        <time>2015-04-19T06:54:42Z</time>
      </trkpt>
      <trkpt lat="44.54302" lon="0.95425">
        <ele>164.52</ele>
        <time>2015-04-19T06:54:44Z</time>
      </trkpt>
      <trkpt lat="44.54303" lon="0.95426">
        <ele>164.52</ele>
        <time>2015-04-19T06:54:45Z</time>
      </trkpt>
      <trkpt lat="44.54306" lon="0.95426">
        <ele>164.52</ele>
        <time>2015-04-19T06:54:47Z</time>
      </trkpt>
      <trkpt lat="44.54308" lon="0.95425">
        <ele>164.52</ele>
        <time>2015-04-19T06:54:48Z</time>
      </trkpt>
      <trkpt lat="44.54309" lon="0.95424">
        <ele>164.52</ele>
        <time>2015-04-19T06:54:49Z</time>
      </trkpt>
      <trkpt lat="44.54314" lon="0.95422">
        <ele>164.52</ele>
        <time>2015-04-19T06:54:52Z</time>
      </trkpt>
      <trkpt lat="44.54319" lon="0.9542">
        <ele>165</ele>
        <time>2015-04-19T06:54:56Z</time>
      </trkpt>
      <trkpt lat="44.54326" lon="0.95416">
        <ele>163.56</ele>
        <time>2015-04-19T06:55:00Z</time>
      </trkpt>
      <trkpt lat="44.54338" lon="0.95411">
        <ele>160.2</ele>
        <time>2015-04-19T06:55:05Z</time>
      </trkpt>
      <trkpt lat="44.54348" lon="0.95407">
        <ele>156.83</ele>
        <time>2015-04-19T06:55:09Z</time>
      </trkpt>
      <trkpt lat="44.54355" lon="0.95404">
        <ele>155.39</ele>
        <time>2015-04-19T06:55:11Z</time>
      </trkpt>
      <trkpt lat="44.54357" lon="0.95402">
        <ele>154.91</ele>
        <time>2015-04-19T06:55:12Z</time>
      </trkpt>
      <trkpt lat="44.54359" lon="0.954">
        <ele>154.43</ele>
        <time>2015-04-19T06:55:13Z</time>
      </trkpt>
      <trkpt lat="44.54362" lon="0.95399">
        <ele>155.39</ele>
        <time>2015-04-19T06:55:14Z</time>
      </trkpt>
      <trkpt lat="44.54364" lon="0.95397">
        <ele>154.43</ele>
        <time>2015-04-19T06:55:15Z</time>
      </trkpt>
      <trkpt lat="44.54366" lon="0.95394">
        <ele>154.91</ele>
        <time>2015-04-19T06:55:16Z</time>
      </trkpt>
      <trkpt lat="44.54367" lon="0.95391">
        <ele>154.91</ele>
        <time>2015-04-19T06:55:17Z</time>
      </trkpt>
      <trkpt lat="44.54368" lon="0.95389">
        <ele>154.91</ele>
        <time>2015-04-19T06:55:18Z</time>
      </trkpt>
      <trkpt lat="44.54368" lon="0.95388">
        <ele>154.91</ele>
        <time>2015-04-19T06:55:19Z</time>
      </trkpt>
      <trkpt lat="44.54373" lon="0.95364">
        <ele>154.91</ele>
        <time>2015-04-19T06:55:26Z</time>
      </trkpt>
      <trkpt lat="44.54373" lon="0.95362">
        <ele>154.91</ele>
        <time>2015-04-19T06:55:27Z</time>
      </trkpt>
      <trkpt lat="44.54374" lon="0.95348">
        <ele>154.91</ele>
        <time>2015-04-19T06:55:32Z</time>
      </trkpt>
      <trkpt lat="44.54374" lon="0.95345">
        <ele>155.39</ele>
        <time>2015-04-19T06:55:33Z</time>
      </trkpt>
      <trkpt lat="44.54379" lon="0.95331">
        <ele>155.39</ele>
        <time>2015-04-19T06:55:40Z</time>
      </trkpt>
      <trkpt lat="44.54379" lon="0.95327">
        <ele>155.39</ele>
        <time>2015-04-19T06:55:41Z</time>
      </trkpt>
      <trkpt lat="44.54383" lon="0.95313">
        <ele>155.39</ele>
        <time>2015-04-19T06:55:47Z</time>
      </trkpt>
      <trkpt lat="44.54384" lon="0.95307">
        <ele>155.39</ele>
        <time>2015-04-19T06:55:50Z</time>
      </trkpt>
      <trkpt lat="44.54385" lon="0.95305">
        <ele>154.91</ele>
        <time>2015-04-19T06:55:51Z</time>
      </trkpt>
      <trkpt lat="44.54386" lon="0.95297">
        <ele>154.91</ele>
        <time>2015-04-19T06:55:53Z</time>
      </trkpt>
      <trkpt lat="44.54387" lon="0.95294">
        <ele>154.91</ele>
        <time>2015-04-19T06:55:54Z</time>
      </trkpt>
      <trkpt lat="44.54387" lon="0.95289">
        <ele>154.91</ele>
        <time>2015-04-19T06:55:56Z</time>
      </trkpt>
      <trkpt lat="44.54387" lon="0.95285">
        <ele>154.91</ele>
        <time>2015-04-19T06:55:57Z</time>
      </trkpt>
      <trkpt lat="44.54388" lon="0.95281">
        <ele>154.43</ele>
        <time>2015-04-19T06:55:58Z</time>
      </trkpt>
      <trkpt lat="44.54388" lon="0.95277">
        <ele>154.43</ele>
        <time>2015-04-19T06:55:59Z</time>
      </trkpt>
      <trkpt lat="44.54388" lon="0.95274">
        <ele>154.91</ele>
        <time>2015-04-19T06:56:00Z</time>
      </trkpt>
      <trkpt lat="44.54389" lon="0.95272">
        <ele>154.91</ele>
        <time>2015-04-19T06:56:01Z</time>
      </trkpt>
      <trkpt lat="44.5439" lon="0.95267">
        <ele>154.91</ele>
        <time>2015-04-19T06:56:02Z</time>
      </trkpt>
      <trkpt lat="44.54391" lon="0.95263">
        <ele>154.91</ele>
        <time>2015-04-19T06:56:03Z</time>
      </trkpt>
      <trkpt lat="44.54392" lon="0.9526">
        <ele>153.95</ele>
        <time>2015-04-19T06:56:04Z</time>
      </trkpt>
      <trkpt lat="44.54397" lon="0.95236">
        <ele>153.47</ele>
        <time>2015-04-19T06:56:09Z</time>
      </trkpt>
      <trkpt lat="44.54399" lon="0.95231">
        <ele>153.95</ele>
        <time>2015-04-19T06:56:10Z</time>
      </trkpt>
      <trkpt lat="44.54401" lon="0.95225">
        <ele>152.99</ele>
        <time>2015-04-19T06:56:11Z</time>
      </trkpt>
      <trkpt lat="44.544" lon="0.95222">
        <ele>153.47</ele>
        <time>2015-04-19T06:56:12Z</time>
      </trkpt>
      <trkpt lat="44.54401" lon="0.95217">
        <ele>153.47</ele>
        <time>2015-04-19T06:56:13Z</time>
      </trkpt>
      <trkpt lat="44.54402" lon="0.95213">
        <ele>153.47</ele>
        <time>2015-04-19T06:56:14Z</time>
      </trkpt>
      <trkpt lat="44.54403" lon="0.95209">
        <ele>152.51</ele>
        <time>2015-04-19T06:56:15Z</time>
      </trkpt>
      <trkpt lat="44.54405" lon="0.95205">
        <ele>152.51</ele>
        <time>2015-04-19T06:56:16Z</time>
      </trkpt>
      <trkpt lat="44.54407" lon="0.95201">
        <ele>152.99</ele>
        <time>2015-04-19T06:56:17Z</time>
      </trkpt>
      <trkpt lat="44.54408" lon="0.95197">
        <ele>151.54</ele>
        <time>2015-04-19T06:56:18Z</time>
      </trkpt>
      <trkpt lat="44.54409" lon="0.95193">
        <ele>151.06</ele>
        <time>2015-04-19T06:56:19Z</time>
      </trkpt>
      <trkpt lat="44.54409" lon="0.9519">
        <ele>150.58</ele>
        <time>2015-04-19T06:56:20Z</time>
      </trkpt>
      <trkpt lat="44.5441" lon="0.95186">
        <ele>149.62</ele>
        <time>2015-04-19T06:56:21Z</time>
      </trkpt>
      <trkpt lat="44.54411" lon="0.95182">
        <ele>148.66</ele>
        <time>2015-04-19T06:56:22Z</time>
      </trkpt>
      <trkpt lat="44.54417" lon="0.95166">
        <ele>145.78</ele>
        <time>2015-04-19T06:56:26Z</time>
      </trkpt>
      <trkpt lat="44.54425" lon="0.95136">
        <ele>145.3</ele>
        <time>2015-04-19T06:56:34Z</time>
      </trkpt>
      <trkpt lat="44.54426" lon="0.95132">
        <ele>145.3</ele>
        <time>2015-04-19T06:56:35Z</time>
      </trkpt>
      <trkpt lat="44.54428" lon="0.95129">
        <ele>145.3</ele>
        <time>2015-04-19T06:56:36Z</time>
      </trkpt>
      <trkpt lat="44.5443" lon="0.95128">
        <ele>145.3</ele>
        <time>2015-04-19T06:56:37Z</time>
      </trkpt>
      <trkpt lat="44.54436" lon="0.95122">
        <ele>145.3</ele>
        <time>2015-04-19T06:56:38Z</time>
      </trkpt>
      <trkpt lat="44.5444" lon="0.9512">
        <ele>145.3</ele>
        <time>2015-04-19T06:56:39Z</time>
      </trkpt>
      <trkpt lat="44.54444" lon="0.95117">
        <ele>145.3</ele>
        <time>2015-04-19T06:56:40Z</time>
      </trkpt>
      <trkpt lat="44.54447" lon="0.95117">
        <ele>145.3</ele>
        <time>2015-04-19T06:56:41Z</time>
      </trkpt>
      <trkpt lat="44.54451" lon="0.95117">
        <ele>145.3</ele>
        <time>2015-04-19T06:56:42Z</time>
      </trkpt>
      <trkpt lat="44.54453" lon="0.95117">
        <ele>145.3</ele>
        <time>2015-04-19T06:56:43Z</time>
      </trkpt>
      <trkpt lat="44.54455" lon="0.95118">
        <ele>145.3</ele>
        <time>2015-04-19T06:56:44Z</time>
      </trkpt>
      <trkpt lat="44.54481" lon="0.95118">
        <ele>144.82</ele>
        <time>2015-04-19T06:56:56Z</time>
      </trkpt>
      <trkpt lat="44.54491" lon="0.95114">
        <ele>144.82</ele>
        <time>2015-04-19T06:57:00Z</time>
      </trkpt>
      <trkpt lat="44.54493" lon="0.95114">
        <ele>144.82</ele>
        <time>2015-04-19T06:57:01Z</time>
      </trkpt>
      <trkpt lat="44.54495" lon="0.95112">
        <ele>144.82</ele>
        <time>2015-04-19T06:57:02Z</time>
      </trkpt>
      <trkpt lat="44.54496" lon="0.9511">
        <ele>144.82</ele>
        <time>2015-04-19T06:57:03Z</time>
      </trkpt>
      <trkpt lat="44.54497" lon="0.95108">
        <ele>144.82</ele>
        <time>2015-04-19T06:57:04Z</time>
      </trkpt>
      <trkpt lat="44.54497" lon="0.95105">
        <ele>144.82</ele>
        <time>2015-04-19T06:57:05Z</time>
      </trkpt>
      <trkpt lat="44.54499" lon="0.9509">
        <ele>144.82</ele>
        <time>2015-04-19T06:57:10Z</time>
      </trkpt>
      <trkpt lat="44.54497" lon="0.95078">
        <ele>143.37</ele>
        <time>2015-04-19T06:57:17Z</time>
      </trkpt>
      <trkpt lat="44.54502" lon="0.95069">
        <ele>138.09</ele>
        <time>2015-04-19T06:57:22Z</time>
      </trkpt>
      <trkpt lat="44.54509" lon="0.95066">
        <ele>134.72</ele>
        <time>2015-04-19T06:57:25Z</time>
      </trkpt>
      <trkpt lat="44.54525" lon="0.95059">
        <ele>134.24</ele>
        <time>2015-04-19T06:57:33Z</time>
      </trkpt>
      <trkpt lat="44.54532" lon="0.95056">
        <ele>135.2</ele>
        <time>2015-04-19T06:57:44Z</time>
      </trkpt>
      <trkpt lat="44.54528" lon="0.95051">
        <ele>132.32</ele>
        <time>2015-04-19T06:57:49Z</time>
      </trkpt>
      <trkpt lat="44.54522" lon="0.95047">
        <ele>129.43</ele>
        <time>2015-04-19T06:57:52Z</time>
      </trkpt>
      <trkpt lat="44.54517" lon="0.95039">
        <ele>126.07</ele>
        <time>2015-04-19T06:57:57Z</time>
      </trkpt>
      <trkpt lat="44.54497" lon="0.95023">
        <ele>124.63</ele>
        <time>2015-04-19T06:58:09Z</time>
      </trkpt>
      <trkpt lat="44.5449" lon="0.95019">
        <ele>120.78</ele>
        <time>2015-04-19T06:58:16Z</time>
      </trkpt>
      <trkpt lat="44.54483" lon="0.95019">
        <ele>116.94</ele>
        <time>2015-04-19T06:58:20Z</time>
      </trkpt>
      <trkpt lat="44.54475" lon="0.95012">
        <ele>114.05</ele>
        <time>2015-04-19T06:58:26Z</time>
      </trkpt>
      <trkpt lat="44.54473" lon="0.9501">
        <ele>114.05</ele>
        <time>2015-04-19T06:58:27Z</time>
      </trkpt>
      <trkpt lat="44.54472" lon="0.94991">
        <ele>113.57</ele>
        <time>2015-04-19T06:58:35Z</time>
      </trkpt>
      <trkpt lat="44.54482" lon="0.94994">
        <ele>112.61</ele>
        <time>2015-04-19T06:58:43Z</time>
      </trkpt>
      <trkpt lat="44.54484" lon="0.94993">
        <ele>112.61</ele>
        <time>2015-04-19T06:58:44Z</time>
      </trkpt>
      <trkpt lat="44.54506" lon="0.94987">
        <ele>112.13</ele>
        <time>2015-04-19T06:58:53Z</time>
      </trkpt>
      <trkpt lat="44.54508" lon="0.94985">
        <ele>112.13</ele>
        <time>2015-04-19T06:58:54Z</time>
      </trkpt>
      <trkpt lat="44.5451" lon="0.94984">
        <ele>111.65</ele>
        <time>2015-04-19T06:58:55Z</time>
      </trkpt>
      <trkpt lat="44.54511" lon="0.94983">
        <ele>111.65</ele>
        <time>2015-04-19T06:58:56Z</time>
      </trkpt>
      <trkpt lat="44.54513" lon="0.94981">
        <ele>111.65</ele>
        <time>2015-04-19T06:58:57Z</time>
      </trkpt>
      <trkpt lat="44.54519" lon="0.94976">
        <ele>111.17</ele>
        <time>2015-04-19T06:59:01Z</time>
      </trkpt>
      <trkpt lat="44.5452" lon="0.94974">
        <ele>111.17</ele>
        <time>2015-04-19T06:59:02Z</time>
      </trkpt>
      <trkpt lat="44.54521" lon="0.94971">
        <ele>111.17</ele>
        <time>2015-04-19T06:59:03Z</time>
      </trkpt>
      <trkpt lat="44.54523" lon="0.94968">
        <ele>111.17</ele>
        <time>2015-04-19T06:59:04Z</time>
      </trkpt>
      <trkpt lat="44.54524" lon="0.94966">
        <ele>111.17</ele>
        <time>2015-04-19T06:59:05Z</time>
      </trkpt>
      <trkpt lat="44.54527" lon="0.94964">
        <ele>111.17</ele>
        <time>2015-04-19T06:59:06Z</time>
      </trkpt>
      <trkpt lat="44.5453" lon="0.94965">
        <ele>110.21</ele>
        <time>2015-04-19T06:59:20Z</time>
      </trkpt>
      <trkpt lat="44.54531" lon="0.94965">
        <ele>111.65</ele>
        <time>2015-04-19T06:59:27Z</time>
      </trkpt>
      <trkpt lat="44.54533" lon="0.94963">
        <ele>111.65</ele>
        <time>2015-04-19T06:59:43Z</time>
      </trkpt>
      <trkpt lat="44.5453" lon="0.94966">
        <ele>110.21</ele>
        <time>2015-04-19T07:00:05Z</time>
      </trkpt>
      <trkpt lat="44.54533" lon="0.94968">
        <ele>110.21</ele>
        <time>2015-04-19T07:00:27Z</time>
      </trkpt>
      <trkpt lat="44.54556" lon="0.94983">
        <ele>110.69</ele>
        <time>2015-04-19T07:00:41Z</time>
      </trkpt>
      <trkpt lat="44.54565" lon="0.94969">
        <ele>109.73</ele>
        <time>2015-04-19T07:00:48Z</time>
      </trkpt>
      <trkpt lat="44.54573" lon="0.94954">
        <ele>109.73</ele>
        <time>2015-04-19T07:00:51Z</time>
      </trkpt>
      <trkpt lat="44.54582" lon="0.94958">
        <ele>109.25</ele>
        <time>2015-04-19T07:01:00Z</time>
      </trkpt>
      <trkpt lat="44.54588" lon="0.9496">
        <ele>109.25</ele>
        <time>2015-04-19T07:01:05Z</time>
      </trkpt>
      <trkpt lat="44.54598" lon="0.94963">
        <ele>109.25</ele>
        <time>2015-04-19T07:01:10Z</time>
      </trkpt>
      <trkpt lat="44.546" lon="0.94965">
        <ele>109.25</ele>
        <time>2015-04-19T07:01:11Z</time>
      </trkpt>
      <trkpt lat="44.54602" lon="0.94968">
        <ele>109.25</ele>
        <time>2015-04-19T07:01:12Z</time>
      </trkpt>
      <trkpt lat="44.546" lon="0.94983">
        <ele>109.25</ele>
        <time>2015-04-19T07:01:16Z</time>
      </trkpt>
      <trkpt lat="44.546" lon="0.9499">
        <ele>109.25</ele>
        <time>2015-04-19T07:01:20Z</time>
      </trkpt>
      <trkpt lat="44.54611" lon="0.94984">
        <ele>109.25</ele>
        <time>2015-04-19T07:01:26Z</time>
      </trkpt>
      <trkpt lat="44.54617" lon="0.94982">
        <ele>109.25</ele>
        <time>2015-04-19T07:01:29Z</time>
      </trkpt>
      <trkpt lat="44.54619" lon="0.94981">
        <ele>109.25</ele>
        <time>2015-04-19T07:01:30Z</time>
      </trkpt>
      <trkpt lat="44.54621" lon="0.9498">
        <ele>109.25</ele>
        <time>2015-04-19T07:01:31Z</time>
      </trkpt>
      <trkpt lat="44.54623" lon="0.9498">
        <ele>110.21</ele>
        <time>2015-04-19T07:01:32Z</time>
      </trkpt>
      <trkpt lat="44.54625" lon="0.9498">
        <ele>110.21</ele>
        <time>2015-04-19T07:01:33Z</time>
      </trkpt>
      <trkpt lat="44.54627" lon="0.94979">
        <ele>110.21</ele>
        <time>2015-04-19T07:01:34Z</time>
      </trkpt>
      <trkpt lat="44.54648" lon="0.94973">
        <ele>110.21</ele>
        <time>2015-04-19T07:01:44Z</time>
      </trkpt>
      <trkpt lat="44.5465" lon="0.94973">
        <ele>110.21</ele>
        <time>2015-04-19T07:01:45Z</time>
      </trkpt>
      <trkpt lat="44.54652" lon="0.94973">
        <ele>110.21</ele>
        <time>2015-04-19T07:01:46Z</time>
      </trkpt>
      <trkpt lat="44.54674" lon="0.94967">
        <ele>110.21</ele>
        <time>2015-04-19T07:01:58Z</time>
      </trkpt>
      <trkpt lat="44.5469" lon="0.94967">
        <ele>111.17</ele>
        <time>2015-04-19T07:02:08Z</time>
      </trkpt>
      <trkpt lat="44.54715" lon="0.94974">
        <ele>111.65</ele>
        <time>2015-04-19T07:02:22Z</time>
      </trkpt>
      <trkpt lat="44.54719" lon="0.94973">
        <ele>112.13</ele>
        <time>2015-04-19T07:02:25Z</time>
      </trkpt>
      <trkpt lat="44.54725" lon="0.94974">
        <ele>112.61</ele>
        <time>2015-04-19T07:02:29Z</time>
      </trkpt>
      <trkpt lat="44.54732" lon="0.9497">
        <ele>113.57</ele>
        <time>2015-04-19T07:02:36Z</time>
      </trkpt>
      <trkpt lat="44.54739" lon="0.94969">
        <ele>114.05</ele>
        <time>2015-04-19T07:02:42Z</time>
      </trkpt>
      <trkpt lat="44.54743" lon="0.94967">
        <ele>114.53</ele>
        <time>2015-04-19T07:02:45Z</time>
      </trkpt>
      <trkpt lat="44.54764" lon="0.94964">
        <ele>116.94</ele>
        <time>2015-04-19T07:02:58Z</time>
      </trkpt>
      <trkpt lat="44.54781" lon="0.94964">
        <ele>120.3</ele>
        <time>2015-04-19T07:03:10Z</time>
      </trkpt>
      <trkpt lat="44.54787" lon="0.94966">
        <ele>123.67</ele>
        <time>2015-04-19T07:03:15Z</time>
      </trkpt>
      <trkpt lat="44.54797" lon="0.94968">
        <ele>125.11</ele>
        <time>2015-04-19T07:03:22Z</time>
      </trkpt>
      <trkpt lat="44.54815" lon="0.94969">
        <ele>126.07</ele>
        <time>2015-04-19T07:03:36Z</time>
      </trkpt>
      <trkpt lat="44.54824" lon="0.9497">
        <ele>127.03</ele>
        <time>2015-04-19T07:03:44Z</time>
      </trkpt>
      <trkpt lat="44.54829" lon="0.9497">
        <ele>127.51</ele>
        <time>2015-04-19T07:03:48Z</time>
      </trkpt>
      <trkpt lat="44.54837" lon="0.94971">
        <ele>127.99</ele>
        <time>2015-04-19T07:03:52Z</time>
      </trkpt>
      <trkpt lat="44.54851" lon="0.94979">
        <ele>129.43</ele>
        <time>2015-04-19T07:04:04Z</time>
      </trkpt>
      <trkpt lat="44.54866" lon="0.94983">
        <ele>131.36</ele>
        <time>2015-04-19T07:04:15Z</time>
      </trkpt>
      <trkpt lat="44.54883" lon="0.94993">
        <ele>132.8</ele>
        <time>2015-04-19T07:04:29Z</time>
      </trkpt>
      <trkpt lat="44.54898" lon="0.94997">
        <ele>134.72</ele>
        <time>2015-04-19T07:04:39Z</time>
      </trkpt>
      <trkpt lat="44.54914" lon="0.95004">
        <ele>136.16</ele>
        <time>2015-04-19T07:04:50Z</time>
      </trkpt>
      <trkpt lat="44.54931" lon="0.95013">
        <ele>138.09</ele>
        <time>2015-04-19T07:05:02Z</time>
      </trkpt>
      <trkpt lat="44.54933" lon="0.95013">
        <ele>138.09</ele>
        <time>2015-04-19T07:05:03Z</time>
      </trkpt>
      <trkpt lat="44.5494" lon="0.95016">
        <ele>138.09</ele>
        <time>2015-04-19T07:05:08Z</time>
      </trkpt>
      <trkpt lat="44.54965" lon="0.95024">
        <ele>138.57</ele>
        <time>2015-04-19T07:05:22Z</time>
      </trkpt>
      <trkpt lat="44.54971" lon="0.95025">
        <ele>138.57</ele>
        <time>2015-04-19T07:05:26Z</time>
      </trkpt>
      <trkpt lat="44.5498" lon="0.9503">
        <ele>138.57</ele>
        <time>2015-04-19T07:05:31Z</time>
      </trkpt>
      <trkpt lat="44.54982" lon="0.95031">
        <ele>138.57</ele>
        <time>2015-04-19T07:05:32Z</time>
      </trkpt>
      <trkpt lat="44.55" lon="0.95032">
        <ele>138.57</ele>
        <time>2015-04-19T07:05:40Z</time>
      </trkpt>
      <trkpt lat="44.55002" lon="0.95031">
        <ele>138.57</ele>
        <time>2015-04-19T07:05:41Z</time>
      </trkpt>
      <trkpt lat="44.55005" lon="0.95031">
        <ele>138.57</ele>
        <time>2015-04-19T07:05:42Z</time>
      </trkpt>
      <trkpt lat="44.55008" lon="0.95031">
        <ele>137.61</ele>
        <time>2015-04-19T07:05:43Z</time>
      </trkpt>
      <trkpt lat="44.55011" lon="0.95031">
        <ele>137.13</ele>
        <time>2015-04-19T07:05:44Z</time>
      </trkpt>
      <trkpt lat="44.55013" lon="0.95032">
        <ele>137.13</ele>
        <time>2015-04-19T07:05:45Z</time>
      </trkpt>
      <trkpt lat="44.55016" lon="0.95032">
        <ele>136.64</ele>
        <time>2015-04-19T07:05:46Z</time>
      </trkpt>
      <trkpt lat="44.55018" lon="0.95032">
        <ele>136.64</ele>
        <time>2015-04-19T07:05:47Z</time>
      </trkpt>
      <trkpt lat="44.55021" lon="0.95032">
        <ele>136.16</ele>
        <time>2015-04-19T07:05:48Z</time>
      </trkpt>
      <trkpt lat="44.55023" lon="0.95032">
        <ele>136.16</ele>
        <time>2015-04-19T07:05:49Z</time>
      </trkpt>
      <trkpt lat="44.55025" lon="0.95032">
        <ele>136.16</ele>
        <time>2015-04-19T07:05:50Z</time>
      </trkpt>
      <trkpt lat="44.55027" lon="0.95031">
        <ele>136.16</ele>
        <time>2015-04-19T07:05:51Z</time>
      </trkpt>
      <trkpt lat="44.5503" lon="0.95031">
        <ele>136.16</ele>
        <time>2015-04-19T07:05:52Z</time>
      </trkpt>
      <trkpt lat="44.55032" lon="0.95032">
        <ele>136.16</ele>
        <time>2015-04-19T07:05:53Z</time>
      </trkpt>
      <trkpt lat="44.55034" lon="0.95032">
        <ele>136.16</ele>
        <time>2015-04-19T07:05:54Z</time>
      </trkpt>
      <trkpt lat="44.55037" lon="0.95032">
        <ele>136.16</ele>
        <time>2015-04-19T07:05:55Z</time>
      </trkpt>
      <trkpt lat="44.5504" lon="0.95032">
        <ele>136.16</ele>
        <time>2015-04-19T07:05:56Z</time>
      </trkpt>
      <trkpt lat="44.55042" lon="0.95032">
        <ele>136.16</ele>
        <time>2015-04-19T07:05:57Z</time>
      </trkpt>
      <trkpt lat="44.55044" lon="0.95032">
        <ele>136.16</ele>
        <time>2015-04-19T07:05:58Z</time>
      </trkpt>
      <trkpt lat="44.55047" lon="0.95031">
        <ele>136.16</ele>
        <time>2015-04-19T07:05:59Z</time>
      </trkpt>
      <trkpt lat="44.55049" lon="0.95031">
        <ele>136.16</ele>
        <time>2015-04-19T07:06:00Z</time>
      </trkpt>
      <trkpt lat="44.55052" lon="0.95031">
        <ele>135.68</ele>
        <time>2015-04-19T07:06:01Z</time>
      </trkpt>
      <trkpt lat="44.55054" lon="0.95032">
        <ele>135.68</ele>
        <time>2015-04-19T07:06:02Z</time>
      </trkpt>
      <trkpt lat="44.55057" lon="0.95032">
        <ele>135.68</ele>
        <time>2015-04-19T07:06:03Z</time>
      </trkpt>
      <trkpt lat="44.5506" lon="0.95032">
        <ele>135.68</ele>
        <time>2015-04-19T07:06:04Z</time>
      </trkpt>
      <trkpt lat="44.55062" lon="0.95031">
        <ele>135.68</ele>
        <time>2015-04-19T07:06:05Z</time>
      </trkpt>
      <trkpt lat="44.55064" lon="0.9503">
        <ele>135.68</ele>
        <time>2015-04-19T07:06:06Z</time>
      </trkpt>
      <trkpt lat="44.55066" lon="0.9503">
        <ele>135.2</ele>
        <time>2015-04-19T07:06:07Z</time>
      </trkpt>
      <trkpt lat="44.55068" lon="0.95029">
        <ele>135.2</ele>
        <time>2015-04-19T07:06:08Z</time>
      </trkpt>
      <trkpt lat="44.55069" lon="0.95028">
        <ele>135.2</ele>
        <time>2015-04-19T07:06:09Z</time>
      </trkpt>
      <trkpt lat="44.5507" lon="0.95027">
        <ele>135.2</ele>
        <time>2015-04-19T07:06:10Z</time>
      </trkpt>
      <trkpt lat="44.55082" lon="0.95018">
        <ele>133.76</ele>
        <time>2015-04-19T07:06:16Z</time>
      </trkpt>
      <trkpt lat="44.55084" lon="0.95018">
        <ele>133.28</ele>
        <time>2015-04-19T07:06:17Z</time>
      </trkpt>
      <trkpt lat="44.55095" lon="0.95015">
        <ele>130.4</ele>
        <time>2015-04-19T07:06:23Z</time>
      </trkpt>
      <trkpt lat="44.55098" lon="0.95015">
        <ele>130.4</ele>
        <time>2015-04-19T07:06:24Z</time>
      </trkpt>
      <trkpt lat="44.551" lon="0.95015">
        <ele>130.4</ele>
        <time>2015-04-19T07:06:25Z</time>
      </trkpt>
      <trkpt lat="44.55103" lon="0.95016">
        <ele>129.92</ele>
        <time>2015-04-19T07:06:26Z</time>
      </trkpt>
      <trkpt lat="44.55105" lon="0.95017">
        <ele>129.92</ele>
        <time>2015-04-19T07:06:27Z</time>
      </trkpt>
      <trkpt lat="44.55106" lon="0.95017">
        <ele>129.92</ele>
        <time>2015-04-19T07:06:28Z</time>
      </trkpt>
      <trkpt lat="44.55109" lon="0.95016">
        <ele>129.92</ele>
        <time>2015-04-19T07:06:29Z</time>
      </trkpt>
      <trkpt lat="44.55112" lon="0.95016">
        <ele>129.92</ele>
        <time>2015-04-19T07:06:30Z</time>
      </trkpt>
      <trkpt lat="44.55115" lon="0.95015">
        <ele>129.92</ele>
        <time>2015-04-19T07:06:31Z</time>
      </trkpt>
      <trkpt lat="44.55118" lon="0.95014">
        <ele>129.92</ele>
        <time>2015-04-19T07:06:32Z</time>
      </trkpt>
      <trkpt lat="44.55121" lon="0.95013">
        <ele>129.92</ele>
        <time>2015-04-19T07:06:33Z</time>
      </trkpt>
      <trkpt lat="44.55124" lon="0.95012">
        <ele>129.92</ele>
        <time>2015-04-19T07:06:34Z</time>
      </trkpt>
      <trkpt lat="44.55126" lon="0.95012">
        <ele>129.92</ele>
        <time>2015-04-19T07:06:35Z</time>
      </trkpt>
      <trkpt lat="44.55128" lon="0.95012">
        <ele>129.43</ele>
        <time>2015-04-19T07:06:36Z</time>
      </trkpt>
      <trkpt lat="44.5513" lon="0.95012">
        <ele>129.43</ele>
        <time>2015-04-19T07:06:37Z</time>
      </trkpt>
      <trkpt lat="44.55131" lon="0.95013">
        <ele>129.43</ele>
        <time>2015-04-19T07:06:38Z</time>
      </trkpt>
      <trkpt lat="44.55134" lon="0.95013">
        <ele>129.43</ele>
        <time>2015-04-19T07:06:39Z</time>
      </trkpt>
      <trkpt lat="44.55137" lon="0.95013">
        <ele>129.43</ele>
        <time>2015-04-19T07:06:40Z</time>
      </trkpt>
      <trkpt lat="44.55139" lon="0.95012">
        <ele>128.95</ele>
        <time>2015-04-19T07:06:41Z</time>
      </trkpt>
      <trkpt lat="44.55141" lon="0.95012">
        <ele>128.95</ele>
        <time>2015-04-19T07:06:42Z</time>
      </trkpt>
      <trkpt lat="44.55144" lon="0.95012">
        <ele>128.95</ele>
        <time>2015-04-19T07:06:43Z</time>
      </trkpt>
      <trkpt lat="44.55146" lon="0.95012">
        <ele>128.95</ele>
        <time>2015-04-19T07:06:44Z</time>
      </trkpt>
      <trkpt lat="44.55148" lon="0.95013">
        <ele>128.47</ele>
        <time>2015-04-19T07:06:45Z</time>
      </trkpt>
      <trkpt lat="44.55161" lon="0.95015">
        <ele>127.99</ele>
        <time>2015-04-19T07:06:50Z</time>
      </trkpt>
      <trkpt lat="44.55176" lon="0.95017">
        <ele>124.63</ele>
        <time>2015-04-19T07:06:56Z</time>
      </trkpt>
      <trkpt lat="44.55177" lon="0.95017">
        <ele>123.67</ele>
        <time>2015-04-19T07:06:57Z</time>
      </trkpt>
      <trkpt lat="44.55179" lon="0.95017">
        <ele>123.19</ele>
        <time>2015-04-19T07:06:58Z</time>
      </trkpt>
      <trkpt lat="44.55182" lon="0.95017">
        <ele>123.67</ele>
        <time>2015-04-19T07:06:59Z</time>
      </trkpt>
      <trkpt lat="44.55206" lon="0.95018">
        <ele>122.22</ele>
        <time>2015-04-19T07:07:08Z</time>
      </trkpt>
      <trkpt lat="44.55209" lon="0.95018">
        <ele>122.22</ele>
        <time>2015-04-19T07:07:09Z</time>
      </trkpt>
      <trkpt lat="44.55212" lon="0.95018">
        <ele>122.22</ele>
        <time>2015-04-19T07:07:10Z</time>
      </trkpt>
      <trkpt lat="44.55215" lon="0.95019">
        <ele>122.22</ele>
        <time>2015-04-19T07:07:11Z</time>
      </trkpt>
      <trkpt lat="44.55217" lon="0.95019">
        <ele>122.22</ele>
        <time>2015-04-19T07:07:12Z</time>
      </trkpt>
      <trkpt lat="44.5522" lon="0.9502">
        <ele>121.74</ele>
        <time>2015-04-19T07:07:13Z</time>
      </trkpt>
      <trkpt lat="44.55224" lon="0.95021">
        <ele>121.74</ele>
        <time>2015-04-19T07:07:14Z</time>
      </trkpt>
      <trkpt lat="44.55227" lon="0.95022">
        <ele>121.74</ele>
        <time>2015-04-19T07:07:15Z</time>
      </trkpt>
      <trkpt lat="44.55231" lon="0.95023">
        <ele>121.26</ele>
        <time>2015-04-19T07:07:17Z</time>
      </trkpt>
      <trkpt lat="44.55234" lon="0.95024">
        <ele>121.26</ele>
        <time>2015-04-19T07:07:18Z</time>
      </trkpt>
      <trkpt lat="44.55237" lon="0.95024">
        <ele>121.26</ele>
        <time>2015-04-19T07:07:19Z</time>
      </trkpt>
      <trkpt lat="44.55239" lon="0.95024">
        <ele>120.3</ele>
        <time>2015-04-19T07:07:20Z</time>
      </trkpt>
      <trkpt lat="44.55242" lon="0.95025">
        <ele>120.78</ele>
        <time>2015-04-19T07:07:21Z</time>
      </trkpt>
      <trkpt lat="44.55244" lon="0.95026">
        <ele>119.82</ele>
        <time>2015-04-19T07:07:22Z</time>
      </trkpt>
      <trkpt lat="44.55246" lon="0.95025">
        <ele>119.34</ele>
        <time>2015-04-19T07:07:23Z</time>
      </trkpt>
      <trkpt lat="44.55249" lon="0.95025">
        <ele>119.34</ele>
        <time>2015-04-19T07:07:24Z</time>
      </trkpt>
      <trkpt lat="44.55251" lon="0.95025">
        <ele>118.38</ele>
        <time>2015-04-19T07:07:25Z</time>
      </trkpt>
      <trkpt lat="44.55256" lon="0.95026">
        <ele>117.42</ele>
        <time>2015-04-19T07:07:27Z</time>
      </trkpt>
      <trkpt lat="44.55258" lon="0.95029">
        <ele>117.42</ele>
        <time>2015-04-19T07:07:28Z</time>
      </trkpt>
      <trkpt lat="44.5526" lon="0.95031">
        <ele>116.46</ele>
        <time>2015-04-19T07:07:29Z</time>
      </trkpt>
      <trkpt lat="44.5527" lon="0.95043">
        <ele>115.98</ele>
        <time>2015-04-19T07:07:34Z</time>
      </trkpt>
      <trkpt lat="44.55276" lon="0.95052">
        <ele>117.42</ele>
        <time>2015-04-19T07:07:38Z</time>
      </trkpt>
      <trkpt lat="44.55278" lon="0.95056">
        <ele>118.38</ele>
        <time>2015-04-19T07:07:40Z</time>
      </trkpt>
      <trkpt lat="44.55283" lon="0.95065">
        <ele>119.82</ele>
        <time>2015-04-19T07:07:45Z</time>
      </trkpt>
      <trkpt lat="44.55295" lon="0.95084">
        <ele>120.3</ele>
        <time>2015-04-19T07:07:57Z</time>
      </trkpt>
      <trkpt lat="44.55305" lon="0.951">
        <ele>120.3</ele>
        <time>2015-04-19T07:08:06Z</time>
      </trkpt>
      <trkpt lat="44.55316" lon="0.95129">
        <ele>120.3</ele>
        <time>2015-04-19T07:08:20Z</time>
      </trkpt>
      <trkpt lat="44.55318" lon="0.95149">
        <ele>120.3</ele>
        <time>2015-04-19T07:08:30Z</time>
      </trkpt>
      <trkpt lat="44.55319" lon="0.95158">
        <ele>120.3</ele>
        <time>2015-04-19T07:08:35Z</time>
      </trkpt>
      <trkpt lat="44.55324" lon="0.95184">
        <ele>120.3</ele>
        <time>2015-04-19T07:08:48Z</time>
      </trkpt>
      <trkpt lat="44.55329" lon="0.95209">
        <ele>120.78</ele>
        <time>2015-04-19T07:09:01Z</time>
      </trkpt>
      <trkpt lat="44.55329" lon="0.95229">
        <ele>121.26</ele>
        <time>2015-04-19T07:09:13Z</time>
      </trkpt>
      <trkpt lat="44.55334" lon="0.95253">
        <ele>121.26</ele>
        <time>2015-04-19T07:09:23Z</time>
      </trkpt>
      <trkpt lat="44.55333" lon="0.95256">
        <ele>121.26</ele>
        <time>2015-04-19T07:09:25Z</time>
      </trkpt>
      <trkpt lat="44.55327" lon="0.95281">
        <ele>121.74</ele>
        <time>2015-04-19T07:09:35Z</time>
      </trkpt>
      <trkpt lat="44.55327" lon="0.95284">
        <ele>121.74</ele>
        <time>2015-04-19T07:09:36Z</time>
      </trkpt>
      <trkpt lat="44.55326" lon="0.95311">
        <ele>122.71</ele>
        <time>2015-04-19T07:09:45Z</time>
      </trkpt>
      <trkpt lat="44.55328" lon="0.95321">
        <ele>122.71</ele>
        <time>2015-04-19T07:09:47Z</time>
      </trkpt>
      <trkpt lat="44.5533" lon="0.95335">
        <ele>122.71</ele>
        <time>2015-04-19T07:09:51Z</time>
      </trkpt>
      <trkpt lat="44.55326" lon="0.95363">
        <ele>124.15</ele>
        <time>2015-04-19T07:10:03Z</time>
      </trkpt>
      <trkpt lat="44.55324" lon="0.95378">
        <ele>124.63</ele>
        <time>2015-04-19T07:10:14Z</time>
      </trkpt>
      <trkpt lat="44.55323" lon="0.9538">
        <ele>125.11</ele>
        <time>2015-04-19T07:10:15Z</time>
      </trkpt>
      <trkpt lat="44.55325" lon="0.95403">
        <ele>126.07</ele>
        <time>2015-04-19T07:10:28Z</time>
      </trkpt>
      <trkpt lat="44.55324" lon="0.95418">
        <ele>127.99</ele>
        <time>2015-04-19T07:10:38Z</time>
      </trkpt>
      <trkpt lat="44.55324" lon="0.9544">
        <ele>129.92</ele>
        <time>2015-04-19T07:10:48Z</time>
      </trkpt>
      <trkpt lat="44.55322" lon="0.95466">
        <ele>131.36</ele>
        <time>2015-04-19T07:11:00Z</time>
      </trkpt>
      <trkpt lat="44.55318" lon="0.9549">
        <ele>133.28</ele>
        <time>2015-04-19T07:11:10Z</time>
      </trkpt>
      <trkpt lat="44.55316" lon="0.95494">
        <ele>134.24</ele>
        <time>2015-04-19T07:11:15Z</time>
      </trkpt>
      <trkpt lat="44.55302" lon="0.95497">
        <ele>136.16</ele>
        <time>2015-04-19T07:11:28Z</time>
      </trkpt>
      <trkpt lat="44.55295" lon="0.95483">
        <ele>137.61</ele>
        <time>2015-04-19T07:11:41Z</time>
      </trkpt>
      <trkpt lat="44.55283" lon="0.9547">
        <ele>139.05</ele>
        <time>2015-04-19T07:11:53Z</time>
      </trkpt>
      <trkpt lat="44.55282" lon="0.95469">
        <ele>140.01</ele>
        <time>2015-04-19T07:11:55Z</time>
      </trkpt>
      <trkpt lat="44.55283" lon="0.95462">
        <ele>141.45</ele>
        <time>2015-04-19T07:12:07Z</time>
      </trkpt>
      <trkpt lat="44.55282" lon="0.95475">
        <ele>143.85</ele>
        <time>2015-04-19T07:12:19Z</time>
      </trkpt>
      <trkpt lat="44.55273" lon="0.95479">
        <ele>146.74</ele>
        <time>2015-04-19T07:12:32Z</time>
      </trkpt>
      <trkpt lat="44.55267" lon="0.95468">
        <ele>148.18</ele>
        <time>2015-04-19T07:12:41Z</time>
      </trkpt>
      <trkpt lat="44.55261" lon="0.95462">
        <ele>149.62</ele>
        <time>2015-04-19T07:12:53Z</time>
      </trkpt>
      <trkpt lat="44.55254" lon="0.9546">
        <ele>152.99</ele>
        <time>2015-04-19T07:13:02Z</time>
      </trkpt>
      <trkpt lat="44.55244" lon="0.95458">
        <ele>156.83</ele>
        <time>2015-04-19T07:13:09Z</time>
      </trkpt>
      <trkpt lat="44.55219" lon="0.95457">
        <ele>156.83</ele>
        <time>2015-04-19T07:13:18Z</time>
      </trkpt>
      <trkpt lat="44.55207" lon="0.95464">
        <ele>157.31</ele>
        <time>2015-04-19T07:13:31Z</time>
      </trkpt>
      <trkpt lat="44.55208" lon="0.95469">
        <ele>158.27</ele>
        <time>2015-04-19T07:13:35Z</time>
      </trkpt>
      <trkpt lat="44.55199" lon="0.95488">
        <ele>159.24</ele>
        <time>2015-04-19T07:13:46Z</time>
      </trkpt>
      <trkpt lat="44.55197" lon="0.95493">
        <ele>159.72</ele>
        <time>2015-04-19T07:13:49Z</time>
      </trkpt>
      <trkpt lat="44.55191" lon="0.95505">
        <ele>160.2</ele>
        <time>2015-04-19T07:13:56Z</time>
      </trkpt>
      <trkpt lat="44.5518" lon="0.95529">
        <ele>161.64</ele>
        <time>2015-04-19T07:14:10Z</time>
      </trkpt>
      <trkpt lat="44.55176" lon="0.9554">
        <ele>162.12</ele>
        <time>2015-04-19T07:14:16Z</time>
      </trkpt>
      <trkpt lat="44.55149" lon="0.95566">
        <ele>163.56</ele>
        <time>2015-04-19T07:14:31Z</time>
      </trkpt>
      <trkpt lat="44.55157" lon="0.9559">
        <ele>165</ele>
        <time>2015-04-19T07:14:44Z</time>
      </trkpt>
      <trkpt lat="44.55155" lon="0.95622">
        <ele>165</ele>
        <time>2015-04-19T07:14:55Z</time>
      </trkpt>
      <trkpt lat="44.55147" lon="0.95647">
        <ele>165</ele>
        <time>2015-04-19T07:15:04Z</time>
      </trkpt>
      <trkpt lat="44.55147" lon="0.95652">
        <ele>163.56</ele>
        <time>2015-04-19T07:15:06Z</time>
      </trkpt>
      <trkpt lat="44.55149" lon="0.95685">
        <ele>160.68</ele>
        <time>2015-04-19T07:15:16Z</time>
      </trkpt>
      <trkpt lat="44.55149" lon="0.95697">
        <ele>159.24</ele>
        <time>2015-04-19T07:15:20Z</time>
      </trkpt>
      <trkpt lat="44.55147" lon="0.95722">
        <ele>158.75</ele>
        <time>2015-04-19T07:15:28Z</time>
      </trkpt>
      <trkpt lat="44.55148" lon="0.95725">
        <ele>158.75</ele>
        <time>2015-04-19T07:15:29Z</time>
      </trkpt>
      <trkpt lat="44.55148" lon="0.9573">
        <ele>158.75</ele>
        <time>2015-04-19T07:15:31Z</time>
      </trkpt>
      <trkpt lat="44.5515" lon="0.95757">
        <ele>158.27</ele>
        <time>2015-04-19T07:15:40Z</time>
      </trkpt>
      <trkpt lat="44.55156" lon="0.95784">
        <ele>154.91</ele>
        <time>2015-04-19T07:15:48Z</time>
      </trkpt>
      <trkpt lat="44.55156" lon="0.95788">
        <ele>154.43</ele>
        <time>2015-04-19T07:15:49Z</time>
      </trkpt>
      <trkpt lat="44.55155" lon="0.95791">
        <ele>153.47</ele>
        <time>2015-04-19T07:15:50Z</time>
      </trkpt>
      <trkpt lat="44.55147" lon="0.95806">
        <ele>150.58</ele>
        <time>2015-04-19T07:15:55Z</time>
      </trkpt>
      <trkpt lat="44.55131" lon="0.95833">
        <ele>147.22</ele>
        <time>2015-04-19T07:16:05Z</time>
      </trkpt>
      <trkpt lat="44.55126" lon="0.95839">
        <ele>145.3</ele>
        <time>2015-04-19T07:16:09Z</time>
      </trkpt>
      <trkpt lat="44.55128" lon="0.95855">
        <ele>143.37</ele>
        <time>2015-04-19T07:16:14Z</time>
      </trkpt>
      <trkpt lat="44.55124" lon="0.95869">
        <ele>140.49</ele>
        <time>2015-04-19T07:16:19Z</time>
      </trkpt>
      <trkpt lat="44.55123" lon="0.95882">
        <ele>139.05</ele>
        <time>2015-04-19T07:16:24Z</time>
      </trkpt>
      <trkpt lat="44.55124" lon="0.95901">
        <ele>136.64</ele>
        <time>2015-04-19T07:16:31Z</time>
      </trkpt>
      <trkpt lat="44.55128" lon="0.95919">
        <ele>134.72</ele>
        <time>2015-04-19T07:16:36Z</time>
      </trkpt>
      <trkpt lat="44.55136" lon="0.95945">
        <ele>134.72</ele>
        <time>2015-04-19T07:16:44Z</time>
      </trkpt>
      <trkpt lat="44.5514" lon="0.95953">
        <ele>134.72</ele>
        <time>2015-04-19T07:16:48Z</time>
      </trkpt>
      <trkpt lat="44.5515" lon="0.95972">
        <ele>132.8</ele>
        <time>2015-04-19T07:16:56Z</time>
      </trkpt>
      <trkpt lat="44.55156" lon="0.95983">
        <ele>133.28</ele>
        <time>2015-04-19T07:17:01Z</time>
      </trkpt>
      <trkpt lat="44.55174" lon="0.95999">
        <ele>133.28</ele>
        <time>2015-04-19T07:17:14Z</time>
      </trkpt>
      <trkpt lat="44.55183" lon="0.96006">
        <ele>132.8</ele>
        <time>2015-04-19T07:17:22Z</time>
      </trkpt>
      <trkpt lat="44.55202" lon="0.96028">
        <ele>132.32</ele>
        <time>2015-04-19T07:17:34Z</time>
      </trkpt>
      <trkpt lat="44.55212" lon="0.96047">
        <ele>133.76</ele>
        <time>2015-04-19T07:17:43Z</time>
      </trkpt>
      <trkpt lat="44.55221" lon="0.96072">
        <ele>134.72</ele>
        <time>2015-04-19T07:17:56Z</time>
      </trkpt>
      <trkpt lat="44.55231" lon="0.96093">
        <ele>135.2</ele>
        <time>2015-04-19T07:18:08Z</time>
      </trkpt>
      <trkpt lat="44.55241" lon="0.96108">
        <ele>135.68</ele>
        <time>2015-04-19T07:18:21Z</time>
      </trkpt>
      <trkpt lat="44.55242" lon="0.9611">
        <ele>136.16</ele>
        <time>2015-04-19T07:18:22Z</time>
      </trkpt>
      <trkpt lat="44.55252" lon="0.96127">
        <ele>136.16</ele>
        <time>2015-04-19T07:18:35Z</time>
      </trkpt>
      <trkpt lat="44.55264" lon="0.96152">
        <ele>136.64</ele>
        <time>2015-04-19T07:18:48Z</time>
      </trkpt>
      <trkpt lat="44.5528" lon="0.96184">
        <ele>138.09</ele>
        <time>2015-04-19T07:19:03Z</time>
      </trkpt>
      <trkpt lat="44.55282" lon="0.96188">
        <ele>138.09</ele>
        <time>2015-04-19T07:19:05Z</time>
      </trkpt>
      <trkpt lat="44.5529" lon="0.96208">
        <ele>138.57</ele>
        <time>2015-04-19T07:19:14Z</time>
      </trkpt>
      <trkpt lat="44.5529" lon="0.9621">
        <ele>138.57</ele>
        <time>2015-04-19T07:19:15Z</time>
      </trkpt>
      <trkpt lat="44.55291" lon="0.96212">
        <ele>138.57</ele>
        <time>2015-04-19T07:19:16Z</time>
      </trkpt>
      <trkpt lat="44.55292" lon="0.96219">
        <ele>138.57</ele>
        <time>2015-04-19T07:19:21Z</time>
      </trkpt>
      <trkpt lat="44.55293" lon="0.96221">
        <ele>138.57</ele>
        <time>2015-04-19T07:19:22Z</time>
      </trkpt>
      <trkpt lat="44.55294" lon="0.96223">
        <ele>138.57</ele>
        <time>2015-04-19T07:19:23Z</time>
      </trkpt>
      <trkpt lat="44.55294" lon="0.96224">
        <ele>139.05</ele>
        <time>2015-04-19T07:19:24Z</time>
      </trkpt>
      <trkpt lat="44.55294" lon="0.96226">
        <ele>139.05</ele>
        <time>2015-04-19T07:19:25Z</time>
      </trkpt>
      <trkpt lat="44.55291" lon="0.96239">
        <ele>140.01</ele>
        <time>2015-04-19T07:19:36Z</time>
      </trkpt>
      <trkpt lat="44.55293" lon="0.96261">
        <ele>140.97</ele>
        <time>2015-04-19T07:19:50Z</time>
      </trkpt>
      <trkpt lat="44.55289" lon="0.96274">
        <ele>142.89</ele>
        <time>2015-04-19T07:20:00Z</time>
      </trkpt>
      <trkpt lat="44.55289" lon="0.96292">
        <ele>144.34</ele>
        <time>2015-04-19T07:20:07Z</time>
      </trkpt>
      <trkpt lat="44.5529" lon="0.96296">
        <ele>144.34</ele>
        <time>2015-04-19T07:20:08Z</time>
      </trkpt>
      <trkpt lat="44.55291" lon="0.96311">
        <ele>145.3</ele>
        <time>2015-04-19T07:20:17Z</time>
      </trkpt>
      <trkpt lat="44.55296" lon="0.96331">
        <ele>145.78</ele>
        <time>2015-04-19T07:20:27Z</time>
      </trkpt>
      <trkpt lat="44.55304" lon="0.96358">
        <ele>147.22</ele>
        <time>2015-04-19T07:20:38Z</time>
      </trkpt>
      <trkpt lat="44.55314" lon="0.96382">
        <ele>149.62</ele>
        <time>2015-04-19T07:20:50Z</time>
      </trkpt>
      <trkpt lat="44.55319" lon="0.96389">
        <ele>151.06</ele>
        <time>2015-04-19T07:20:58Z</time>
      </trkpt>
      <trkpt lat="44.55323" lon="0.96393">
        <ele>153.95</ele>
        <time>2015-04-19T07:21:02Z</time>
      </trkpt>
      <trkpt lat="44.55328" lon="0.96396">
        <ele>156.35</ele>
        <time>2015-04-19T07:21:06Z</time>
      </trkpt>
      <trkpt lat="44.55338" lon="0.96398">
        <ele>156.35</ele>
        <time>2015-04-19T07:21:18Z</time>
      </trkpt>
      <trkpt lat="44.55349" lon="0.96403">
        <ele>158.27</ele>
        <time>2015-04-19T07:21:29Z</time>
      </trkpt>
      <trkpt lat="44.55355" lon="0.96407">
        <ele>158.75</ele>
        <time>2015-04-19T07:21:35Z</time>
      </trkpt>
      <trkpt lat="44.55358" lon="0.9641">
        <ele>159.24</ele>
        <time>2015-04-19T07:21:37Z</time>
      </trkpt>
      <trkpt lat="44.55367" lon="0.96422">
        <ele>160.2</ele>
        <time>2015-04-19T07:21:41Z</time>
      </trkpt>
      <trkpt lat="44.55387" lon="0.96438">
        <ele>163.08</ele>
        <time>2015-04-19T07:21:55Z</time>
      </trkpt>
      <trkpt lat="44.55396" lon="0.96447">
        <ele>166.45</ele>
        <time>2015-04-19T07:22:04Z</time>
      </trkpt>
      <trkpt lat="44.55402" lon="0.96452">
        <ele>169.33</ele>
        <time>2015-04-19T07:22:09Z</time>
      </trkpt>
      <trkpt lat="44.55403" lon="0.96453">
        <ele>169.33</ele>
        <time>2015-04-19T07:22:10Z</time>
      </trkpt>
      <trkpt lat="44.55409" lon="0.9646">
        <ele>169.81</ele>
        <time>2015-04-19T07:22:16Z</time>
      </trkpt>
      <trkpt lat="44.55414" lon="0.96467">
        <ele>169.81</ele>
        <time>2015-04-19T07:22:21Z</time>
      </trkpt>
      <trkpt lat="44.55418" lon="0.9647">
        <ele>170.29</ele>
        <time>2015-04-19T07:22:24Z</time>
      </trkpt>
      <trkpt lat="44.55423" lon="0.96471">
        <ele>170.29</ele>
        <time>2015-04-19T07:22:28Z</time>
      </trkpt>
      <trkpt lat="44.55436" lon="0.96462">
        <ele>171.73</ele>
        <time>2015-04-19T07:22:41Z</time>
      </trkpt>
      <trkpt lat="44.5544" lon="0.96457">
        <ele>171.73</ele>
        <time>2015-04-19T07:22:46Z</time>
      </trkpt>
      <trkpt lat="44.55447" lon="0.96446">
        <ele>171.73</ele>
        <time>2015-04-19T07:22:57Z</time>
      </trkpt>
      <trkpt lat="44.55448" lon="0.96445">
        <ele>171.73</ele>
        <time>2015-04-19T07:22:58Z</time>
      </trkpt>
      <trkpt lat="44.55463" lon="0.96431">
        <ele>172.21</ele>
        <time>2015-04-19T07:23:10Z</time>
      </trkpt>
      <trkpt lat="44.5547" lon="0.96416">
        <ele>173.66</ele>
        <time>2015-04-19T07:23:23Z</time>
      </trkpt>
      <trkpt lat="44.5547" lon="0.96414">
        <ele>173.66</ele>
        <time>2015-04-19T07:23:25Z</time>
      </trkpt>
      <trkpt lat="44.55467" lon="0.96403">
        <ele>176.06</ele>
        <time>2015-04-19T07:23:39Z</time>
      </trkpt>
      <trkpt lat="44.55465" lon="0.96402">
        <ele>176.54</ele>
        <time>2015-04-19T07:23:40Z</time>
      </trkpt>
      <trkpt lat="44.5546" lon="0.96389">
        <ele>179.9</ele>
        <time>2015-04-19T07:23:49Z</time>
      </trkpt>
      <trkpt lat="44.55458" lon="0.96382">
        <ele>182.31</ele>
        <time>2015-04-19T07:23:53Z</time>
      </trkpt>
      <trkpt lat="44.55457" lon="0.96359">
        <ele>184.23</ele>
        <time>2015-04-19T07:24:02Z</time>
      </trkpt>
      <trkpt lat="44.5546" lon="0.96327">
        <ele>185.19</ele>
        <time>2015-04-19T07:24:15Z</time>
      </trkpt>
      <trkpt lat="44.5546" lon="0.96318">
        <ele>185.67</ele>
        <time>2015-04-19T07:24:20Z</time>
      </trkpt>
      <trkpt lat="44.55471" lon="0.96295">
        <ele>188.08</ele>
        <time>2015-04-19T07:24:31Z</time>
      </trkpt>
      <trkpt lat="44.55472" lon="0.96293">
        <ele>188.08</ele>
        <time>2015-04-19T07:24:32Z</time>
      </trkpt>
      <trkpt lat="44.55477" lon="0.96287">
        <ele>188.56</ele>
        <time>2015-04-19T07:24:36Z</time>
      </trkpt>
      <trkpt lat="44.55496" lon="0.96265">
        <ele>190.48</ele>
        <time>2015-04-19T07:24:52Z</time>
      </trkpt>
      <trkpt lat="44.55511" lon="0.96243">
        <ele>191.92</ele>
        <time>2015-04-19T07:25:06Z</time>
      </trkpt>
      <trkpt lat="44.55529" lon="0.96227">
        <ele>193.36</ele>
        <time>2015-04-19T07:25:21Z</time>
      </trkpt>
      <trkpt lat="44.55546" lon="0.96233">
        <ele>193.84</ele>
        <time>2015-04-19T07:25:34Z</time>
      </trkpt>
      <trkpt lat="44.55558" lon="0.96253">
        <ele>194.8</ele>
        <time>2015-04-19T07:25:46Z</time>
      </trkpt>
      <trkpt lat="44.55561" lon="0.96259">
        <ele>195.28</ele>
        <time>2015-04-19T07:25:50Z</time>
      </trkpt>
      <trkpt lat="44.55576" lon="0.96276">
        <ele>194.8</ele>
        <time>2015-04-19T07:26:03Z</time>
      </trkpt>
      <trkpt lat="44.55598" lon="0.96285">
        <ele>194.8</ele>
        <time>2015-04-19T07:26:17Z</time>
      </trkpt>
      <trkpt lat="44.55627" lon="0.96291">
        <ele>195.28</ele>
        <time>2015-04-19T07:26:35Z</time>
      </trkpt>
      <trkpt lat="44.55651" lon="0.96293">
        <ele>195.77</ele>
        <time>2015-04-19T07:26:51Z</time>
      </trkpt>
      <trkpt lat="44.55657" lon="0.96293">
        <ele>196.25</ele>
        <time>2015-04-19T07:26:56Z</time>
      </trkpt>
      <trkpt lat="44.55664" lon="0.96295">
        <ele>196.73</ele>
        <time>2015-04-19T07:27:01Z</time>
      </trkpt>
      <trkpt lat="44.55683" lon="0.96303">
        <ele>197.21</ele>
        <time>2015-04-19T07:27:14Z</time>
      </trkpt>
      <trkpt lat="44.55693" lon="0.96307">
        <ele>197.21</ele>
        <time>2015-04-19T07:27:21Z</time>
      </trkpt>
      <trkpt lat="44.55712" lon="0.96312">
        <ele>197.21</ele>
        <time>2015-04-19T07:27:33Z</time>
      </trkpt>
      <trkpt lat="44.55714" lon="0.96313">
        <ele>197.21</ele>
        <time>2015-04-19T07:27:34Z</time>
      </trkpt>
      <trkpt lat="44.55722" lon="0.96339">
        <ele>198.17</ele>
        <time>2015-04-19T07:27:48Z</time>
      </trkpt>
      <trkpt lat="44.55735" lon="0.96362">
        <ele>200.09</ele>
        <time>2015-04-19T07:28:03Z</time>
      </trkpt>
      <trkpt lat="44.55743" lon="0.96374">
        <ele>201.05</ele>
        <time>2015-04-19T07:28:11Z</time>
      </trkpt>
      <trkpt lat="44.55756" lon="0.96397">
        <ele>202.98</ele>
        <time>2015-04-19T07:28:25Z</time>
      </trkpt>
      <trkpt lat="44.55766" lon="0.96418">
        <ele>204.9</ele>
        <time>2015-04-19T07:28:38Z</time>
      </trkpt>
      <trkpt lat="44.55767" lon="0.96425">
        <ele>205.86</ele>
        <time>2015-04-19T07:28:42Z</time>
      </trkpt>
      <trkpt lat="44.55775" lon="0.96444">
        <ele>207.78</ele>
        <time>2015-04-19T07:28:54Z</time>
      </trkpt>
      <trkpt lat="44.55787" lon="0.96464">
        <ele>209.7</ele>
        <time>2015-04-19T07:29:08Z</time>
      </trkpt>
      <trkpt lat="44.55791" lon="0.96477">
        <ele>210.67</ele>
        <time>2015-04-19T07:29:16Z</time>
      </trkpt>
      <trkpt lat="44.55787" lon="0.9649">
        <ele>211.63</ele>
        <time>2015-04-19T07:29:24Z</time>
      </trkpt>
      <trkpt lat="44.55786" lon="0.96497">
        <ele>211.63</ele>
        <time>2015-04-19T07:29:27Z</time>
      </trkpt>
      <trkpt lat="44.55786" lon="0.96511">
        <ele>211.63</ele>
        <time>2015-04-19T07:29:36Z</time>
      </trkpt>
      <trkpt lat="44.55789" lon="0.96518">
        <ele>211.63</ele>
        <time>2015-04-19T07:29:40Z</time>
      </trkpt>
      <trkpt lat="44.55797" lon="0.9654">
        <ele>211.63</ele>
        <time>2015-04-19T07:29:50Z</time>
      </trkpt>
      <trkpt lat="44.55804" lon="0.96565">
        <ele>210.19</ele>
        <time>2015-04-19T07:29:59Z</time>
      </trkpt>
      <trkpt lat="44.55805" lon="0.96591">
        <ele>209.7</ele>
        <time>2015-04-19T07:30:07Z</time>
      </trkpt>
      <trkpt lat="44.55803" lon="0.96612">
        <ele>209.22</ele>
        <time>2015-04-19T07:30:13Z</time>
      </trkpt>
      <trkpt lat="44.55811" lon="0.96634">
        <ele>208.74</ele>
        <time>2015-04-19T07:30:20Z</time>
      </trkpt>
      <trkpt lat="44.55813" lon="0.96639">
        <ele>208.26</ele>
        <time>2015-04-19T07:30:22Z</time>
      </trkpt>
      <trkpt lat="44.55827" lon="0.96663">
        <ele>206.82</ele>
        <time>2015-04-19T07:30:33Z</time>
      </trkpt>
      <trkpt lat="44.55836" lon="0.96677">
        <ele>206.34</ele>
        <time>2015-04-19T07:30:42Z</time>
      </trkpt>
      <trkpt lat="44.55837" lon="0.96677">
        <ele>205.38</ele>
        <time>2015-04-19T07:30:43Z</time>
      </trkpt>
      <trkpt lat="44.55838" lon="0.96681">
        <ele>205.86</ele>
        <time>2015-04-19T07:30:45Z</time>
      </trkpt>
      <trkpt lat="44.55841" lon="0.96687">
        <ele>205.86</ele>
        <time>2015-04-19T07:30:48Z</time>
      </trkpt>
      <trkpt lat="44.55844" lon="0.96702">
        <ele>205.86</ele>
        <time>2015-04-19T07:30:53Z</time>
      </trkpt>
      <trkpt lat="44.55853" lon="0.96737">
        <ele>205.86</ele>
        <time>2015-04-19T07:31:07Z</time>
      </trkpt>
      <trkpt lat="44.55864" lon="0.96772">
        <ele>202.49</ele>
        <time>2015-04-19T07:31:18Z</time>
      </trkpt>
      <trkpt lat="44.5587" lon="0.96782">
        <ele>198.17</ele>
        <time>2015-04-19T07:31:22Z</time>
      </trkpt>
      <trkpt lat="44.55876" lon="0.96789">
        <ele>195.28</ele>
        <time>2015-04-19T07:31:26Z</time>
      </trkpt>
      <trkpt lat="44.55878" lon="0.9679">
        <ele>194.8</ele>
        <time>2015-04-19T07:31:27Z</time>
      </trkpt>
      <trkpt lat="44.55892" lon="0.96817">
        <ele>194.8</ele>
        <time>2015-04-19T07:31:37Z</time>
      </trkpt>
      <trkpt lat="44.55903" lon="0.96843">
        <ele>195.28</ele>
        <time>2015-04-19T07:31:46Z</time>
      </trkpt>
      <trkpt lat="44.55923" lon="0.96867">
        <ele>195.28</ele>
        <time>2015-04-19T07:31:57Z</time>
      </trkpt>
      <trkpt lat="44.55939" lon="0.96887">
        <ele>195.28</ele>
        <time>2015-04-19T07:32:06Z</time>
      </trkpt>
      <trkpt lat="44.55953" lon="0.96906">
        <ele>195.28</ele>
        <time>2015-04-19T07:32:16Z</time>
      </trkpt>
      <trkpt lat="44.55962" lon="0.96928">
        <ele>195.77</ele>
        <time>2015-04-19T07:32:30Z</time>
      </trkpt>
      <trkpt lat="44.5596" lon="0.96944">
        <ele>195.77</ele>
        <time>2015-04-19T07:32:40Z</time>
      </trkpt>
      <trkpt lat="44.55962" lon="0.96961">
        <ele>195.77</ele>
        <time>2015-04-19T07:32:47Z</time>
      </trkpt>
      <trkpt lat="44.55956" lon="0.97002">
        <ele>195.77</ele>
        <time>2015-04-19T07:33:05Z</time>
      </trkpt>
      <trkpt lat="44.55955" lon="0.97034">
        <ele>196.25</ele>
        <time>2015-04-19T07:33:13Z</time>
      </trkpt>
      <trkpt lat="44.55959" lon="0.9705">
        <ele>195.77</ele>
        <time>2015-04-19T07:33:24Z</time>
      </trkpt>
      <trkpt lat="44.55971" lon="0.97072">
        <ele>198.17</ele>
        <time>2015-04-19T07:33:41Z</time>
      </trkpt>
      <trkpt lat="44.55985" lon="0.97095">
        <ele>200.09</ele>
        <time>2015-04-19T07:33:56Z</time>
      </trkpt>
      <trkpt lat="44.55997" lon="0.97118">
        <ele>202.01</ele>
        <time>2015-04-19T07:34:10Z</time>
      </trkpt>
      <trkpt lat="44.56011" lon="0.97142">
        <ele>204.9</ele>
        <time>2015-04-19T07:34:27Z</time>
      </trkpt>
      <trkpt lat="44.56012" lon="0.97145">
        <ele>205.38</ele>
        <time>2015-04-19T07:34:29Z</time>
      </trkpt>
      <trkpt lat="44.56016" lon="0.97153">
        <ele>209.22</ele>
        <time>2015-04-19T07:34:36Z</time>
      </trkpt>
      <trkpt lat="44.56029" lon="0.97173">
        <ele>210.19</ele>
        <time>2015-04-19T07:34:50Z</time>
      </trkpt>
      <trkpt lat="44.56031" lon="0.97175">
        <ele>210.19</ele>
        <time>2015-04-19T07:34:52Z</time>
      </trkpt>
      <trkpt lat="44.56042" lon="0.97196">
        <ele>213.07</ele>
        <time>2015-04-19T07:35:07Z</time>
      </trkpt>
      <trkpt lat="44.56051" lon="0.97213">
        <ele>214.99</ele>
        <time>2015-04-19T07:35:20Z</time>
      </trkpt>
      <trkpt lat="44.56053" lon="0.97218">
        <ele>215.47</ele>
        <time>2015-04-19T07:35:24Z</time>
      </trkpt>
      <trkpt lat="44.56052" lon="0.97225">
        <ele>215.95</ele>
        <time>2015-04-19T07:35:28Z</time>
      </trkpt>
      <trkpt lat="44.56045" lon="0.97246">
        <ele>216.43</ele>
        <time>2015-04-19T07:35:38Z</time>
      </trkpt>
      <trkpt lat="44.56028" lon="0.97271">
        <ele>216.43</ele>
        <time>2015-04-19T07:35:48Z</time>
      </trkpt>
      <trkpt lat="44.56007" lon="0.97297">
        <ele>216.43</ele>
        <time>2015-04-19T07:35:59Z</time>
      </trkpt>
      <trkpt lat="44.55991" lon="0.9732">
        <ele>214.99</ele>
        <time>2015-04-19T07:36:10Z</time>
      </trkpt>
      <trkpt lat="44.55973" lon="0.97344">
        <ele>214.51</ele>
        <time>2015-04-19T07:36:26Z</time>
      </trkpt>
      <trkpt lat="44.55957" lon="0.97368">
        <ele>214.51</ele>
        <time>2015-04-19T07:36:41Z</time>
      </trkpt>
      <trkpt lat="44.55948" lon="0.9739">
        <ele>214.51</ele>
        <time>2015-04-19T07:36:55Z</time>
      </trkpt>
      <trkpt lat="44.55952" lon="0.97408">
        <ele>214.51</ele>
        <time>2015-04-19T07:37:05Z</time>
      </trkpt>
      <trkpt lat="44.55952" lon="0.9741">
        <ele>214.51</ele>
        <time>2015-04-19T07:37:06Z</time>
      </trkpt>
      <trkpt lat="44.55952" lon="0.97412">
        <ele>214.51</ele>
        <time>2015-04-19T07:37:07Z</time>
      </trkpt>
      <trkpt lat="44.55952" lon="0.97414">
        <ele>214.51</ele>
        <time>2015-04-19T07:37:08Z</time>
      </trkpt>
      <trkpt lat="44.55952" lon="0.97416">
        <ele>214.51</ele>
        <time>2015-04-19T07:37:09Z</time>
      </trkpt>
      <trkpt lat="44.55952" lon="0.97418">
        <ele>214.51</ele>
        <time>2015-04-19T07:37:10Z</time>
      </trkpt>
      <trkpt lat="44.55953" lon="0.9742">
        <ele>214.51</ele>
        <time>2015-04-19T07:37:11Z</time>
      </trkpt>
      <trkpt lat="44.55953" lon="0.97422">
        <ele>214.51</ele>
        <time>2015-04-19T07:37:12Z</time>
      </trkpt>
      <trkpt lat="44.55953" lon="0.97425">
        <ele>214.51</ele>
        <time>2015-04-19T07:37:13Z</time>
      </trkpt>
      <trkpt lat="44.55957" lon="0.97458">
        <ele>214.51</ele>
        <time>2015-04-19T07:37:28Z</time>
      </trkpt>
      <trkpt lat="44.5597" lon="0.97489">
        <ele>214.51</ele>
        <time>2015-04-19T07:37:43Z</time>
      </trkpt>
      <trkpt lat="44.55984" lon="0.97513">
        <ele>214.03</ele>
        <time>2015-04-19T07:37:55Z</time>
      </trkpt>
      <trkpt lat="44.56" lon="0.9754">
        <ele>214.03</ele>
        <time>2015-04-19T07:38:10Z</time>
      </trkpt>
      <trkpt lat="44.56018" lon="0.97567">
        <ele>214.03</ele>
        <time>2015-04-19T07:38:26Z</time>
      </trkpt>
      <trkpt lat="44.56033" lon="0.97594">
        <ele>214.03</ele>
        <time>2015-04-19T07:38:41Z</time>
      </trkpt>
      <trkpt lat="44.56043" lon="0.9761">
        <ele>214.99</ele>
        <time>2015-04-19T07:38:54Z</time>
      </trkpt>
      <trkpt lat="44.56056" lon="0.97634">
        <ele>215.47</ele>
        <time>2015-04-19T07:39:07Z</time>
      </trkpt>
      <trkpt lat="44.5607" lon="0.97661">
        <ele>215.95</ele>
        <time>2015-04-19T07:39:21Z</time>
      </trkpt>
      <trkpt lat="44.56088" lon="0.97696">
        <ele>216.91</ele>
        <time>2015-04-19T07:39:37Z</time>
      </trkpt>
      <trkpt lat="44.56105" lon="0.97727">
        <ele>218.36</ele>
        <time>2015-04-19T07:39:53Z</time>
      </trkpt>
      <trkpt lat="44.56118" lon="0.97756">
        <ele>219.32</ele>
        <time>2015-04-19T07:40:08Z</time>
      </trkpt>
      <trkpt lat="44.56131" lon="0.97785">
        <ele>220.76</ele>
        <time>2015-04-19T07:40:25Z</time>
      </trkpt>
      <trkpt lat="44.56146" lon="0.97825">
        <ele>223.16</ele>
        <time>2015-04-19T07:40:45Z</time>
      </trkpt>
      <trkpt lat="44.56157" lon="0.97851">
        <ele>225.09</ele>
        <time>2015-04-19T07:41:00Z</time>
      </trkpt>
      <trkpt lat="44.56171" lon="0.97877">
        <ele>226.53</ele>
        <time>2015-04-19T07:41:15Z</time>
      </trkpt>
      <trkpt lat="44.56182" lon="0.97893">
        <ele>228.93</ele>
        <time>2015-04-19T07:41:29Z</time>
      </trkpt>
      <trkpt lat="44.56194" lon="0.97909">
        <ele>230.37</ele>
        <time>2015-04-19T07:41:43Z</time>
      </trkpt>
      <trkpt lat="44.56201" lon="0.97913">
        <ele>230.85</ele>
        <time>2015-04-19T07:41:49Z</time>
      </trkpt>
      <trkpt lat="44.56202" lon="0.97913">
        <ele>230.85</ele>
        <time>2015-04-19T07:41:50Z</time>
      </trkpt>
      <trkpt lat="44.56211" lon="0.9792">
        <ele>231.33</ele>
        <time>2015-04-19T07:41:57Z</time>
      </trkpt>
      <trkpt lat="44.56212" lon="0.97922">
        <ele>231.33</ele>
        <time>2015-04-19T07:41:58Z</time>
      </trkpt>
      <trkpt lat="44.56215" lon="0.97928">
        <ele>231.33</ele>
        <time>2015-04-19T07:42:00Z</time>
      </trkpt>
      <trkpt lat="44.56216" lon="0.9793">
        <ele>231.33</ele>
        <time>2015-04-19T07:42:01Z</time>
      </trkpt>
      <trkpt lat="44.56217" lon="0.97932">
        <ele>231.33</ele>
        <time>2015-04-19T07:42:02Z</time>
      </trkpt>
      <trkpt lat="44.56218" lon="0.97935">
        <ele>231.33</ele>
        <time>2015-04-19T07:42:03Z</time>
      </trkpt>
      <trkpt lat="44.5622" lon="0.97937">
        <ele>231.33</ele>
        <time>2015-04-19T07:42:04Z</time>
      </trkpt>
      <trkpt lat="44.5622" lon="0.9794">
        <ele>231.33</ele>
        <time>2015-04-19T07:42:05Z</time>
      </trkpt>
      <trkpt lat="44.56221" lon="0.97943">
        <ele>231.33</ele>
        <time>2015-04-19T07:42:06Z</time>
      </trkpt>
      <trkpt lat="44.56224" lon="0.97957">
        <ele>231.33</ele>
        <time>2015-04-19T07:42:11Z</time>
      </trkpt>
      <trkpt lat="44.56224" lon="0.97959">
        <ele>231.33</ele>
        <time>2015-04-19T07:42:12Z</time>
      </trkpt>
      <trkpt lat="44.56225" lon="0.9796">
        <ele>231.33</ele>
        <time>2015-04-19T07:42:13Z</time>
      </trkpt>
      <trkpt lat="44.56225" lon="0.97963">
        <ele>231.33</ele>
        <time>2015-04-19T07:42:14Z</time>
      </trkpt>
      <trkpt lat="44.56226" lon="0.97965">
        <ele>231.33</ele>
        <time>2015-04-19T07:42:15Z</time>
      </trkpt>
      <trkpt lat="44.56227" lon="0.97967">
        <ele>231.33</ele>
        <time>2015-04-19T07:42:16Z</time>
      </trkpt>
      <trkpt lat="44.56229" lon="0.97969">
        <ele>231.33</ele>
        <time>2015-04-19T07:42:17Z</time>
      </trkpt>
      <trkpt lat="44.56243" lon="0.97988">
        <ele>231.33</ele>
        <time>2015-04-19T07:42:27Z</time>
      </trkpt>
      <trkpt lat="44.56244" lon="0.97991">
        <ele>231.33</ele>
        <time>2015-04-19T07:42:28Z</time>
      </trkpt>
      <trkpt lat="44.56254" lon="0.98004">
        <ele>231.33</ele>
        <time>2015-04-19T07:42:34Z</time>
      </trkpt>
      <trkpt lat="44.56255" lon="0.98007">
        <ele>231.33</ele>
        <time>2015-04-19T07:42:35Z</time>
      </trkpt>
      <trkpt lat="44.56256" lon="0.98009">
        <ele>231.33</ele>
        <time>2015-04-19T07:42:36Z</time>
      </trkpt>
      <trkpt lat="44.56258" lon="0.98012">
        <ele>231.33</ele>
        <time>2015-04-19T07:42:37Z</time>
      </trkpt>
      <trkpt lat="44.56259" lon="0.98015">
        <ele>231.33</ele>
        <time>2015-04-19T07:42:38Z</time>
      </trkpt>
      <trkpt lat="44.5626" lon="0.98018">
        <ele>231.33</ele>
        <time>2015-04-19T07:42:39Z</time>
      </trkpt>
      <trkpt lat="44.56262" lon="0.98022">
        <ele>231.33</ele>
        <time>2015-04-19T07:42:40Z</time>
      </trkpt>
      <trkpt lat="44.56269" lon="0.98043">
        <ele>232.78</ele>
        <time>2015-04-19T07:42:48Z</time>
      </trkpt>
      <trkpt lat="44.56272" lon="0.98047">
        <ele>232.3</ele>
        <time>2015-04-19T07:42:50Z</time>
      </trkpt>
      <trkpt lat="44.56275" lon="0.98051">
        <ele>233.26</ele>
        <time>2015-04-19T07:42:53Z</time>
      </trkpt>
      <trkpt lat="44.56276" lon="0.98058">
        <ele>233.74</ele>
        <time>2015-04-19T07:42:56Z</time>
      </trkpt>
      <trkpt lat="44.56277" lon="0.9806">
        <ele>233.74</ele>
        <time>2015-04-19T07:42:57Z</time>
      </trkpt>
      <trkpt lat="44.5628" lon="0.98073">
        <ele>233.74</ele>
        <time>2015-04-19T07:43:01Z</time>
      </trkpt>
      <trkpt lat="44.56284" lon="0.98099">
        <ele>234.22</ele>
        <time>2015-04-19T07:43:09Z</time>
      </trkpt>
      <trkpt lat="44.56285" lon="0.98103">
        <ele>234.22</ele>
        <time>2015-04-19T07:43:10Z</time>
      </trkpt>
      <trkpt lat="44.56286" lon="0.98107">
        <ele>234.22</ele>
        <time>2015-04-19T07:43:11Z</time>
      </trkpt>
      <trkpt lat="44.56287" lon="0.98111">
        <ele>234.22</ele>
        <time>2015-04-19T07:43:12Z</time>
      </trkpt>
      <trkpt lat="44.56287" lon="0.98115">
        <ele>234.22</ele>
        <time>2015-04-19T07:43:13Z</time>
      </trkpt>
      <trkpt lat="44.56288" lon="0.9812">
        <ele>234.22</ele>
        <time>2015-04-19T07:43:14Z</time>
      </trkpt>
      <trkpt lat="44.56289" lon="0.98123">
        <ele>234.22</ele>
        <time>2015-04-19T07:43:15Z</time>
      </trkpt>
      <trkpt lat="44.56289" lon="0.98127">
        <ele>234.22</ele>
        <time>2015-04-19T07:43:16Z</time>
      </trkpt>
      <trkpt lat="44.56291" lon="0.98132">
        <ele>234.22</ele>
        <time>2015-04-19T07:43:17Z</time>
      </trkpt>
      <trkpt lat="44.56292" lon="0.98137">
        <ele>233.26</ele>
        <time>2015-04-19T07:43:18Z</time>
      </trkpt>
      <trkpt lat="44.56292" lon="0.9814">
        <ele>233.26</ele>
        <time>2015-04-19T07:43:19Z</time>
      </trkpt>
      <trkpt lat="44.56293" lon="0.98143">
        <ele>233.26</ele>
        <time>2015-04-19T07:43:20Z</time>
      </trkpt>
      <trkpt lat="44.56294" lon="0.98156">
        <ele>233.26</ele>
        <time>2015-04-19T07:43:25Z</time>
      </trkpt>
      <trkpt lat="44.56296" lon="0.98163">
        <ele>232.78</ele>
        <time>2015-04-19T07:43:28Z</time>
      </trkpt>
      <trkpt lat="44.56297" lon="0.98165">
        <ele>232.78</ele>
        <time>2015-04-19T07:43:29Z</time>
      </trkpt>
      <trkpt lat="44.56298" lon="0.98167">
        <ele>232.78</ele>
        <time>2015-04-19T07:43:30Z</time>
      </trkpt>
      <trkpt lat="44.56303" lon="0.98174">
        <ele>232.3</ele>
        <time>2015-04-19T07:43:34Z</time>
      </trkpt>
      <trkpt lat="44.56305" lon="0.98176">
        <ele>232.3</ele>
        <time>2015-04-19T07:43:35Z</time>
      </trkpt>
      <trkpt lat="44.56306" lon="0.98178">
        <ele>231.81</ele>
        <time>2015-04-19T07:43:36Z</time>
      </trkpt>
      <trkpt lat="44.56308" lon="0.9818">
        <ele>231.81</ele>
        <time>2015-04-19T07:43:37Z</time>
      </trkpt>
      <trkpt lat="44.56309" lon="0.98182">
        <ele>231.81</ele>
        <time>2015-04-19T07:43:38Z</time>
      </trkpt>
      <trkpt lat="44.56311" lon="0.98184">
        <ele>231.81</ele>
        <time>2015-04-19T07:43:39Z</time>
      </trkpt>
      <trkpt lat="44.56312" lon="0.98186">
        <ele>231.33</ele>
        <time>2015-04-19T07:43:40Z</time>
      </trkpt>
      <trkpt lat="44.56321" lon="0.98194">
        <ele>231.33</ele>
        <time>2015-04-19T07:43:45Z</time>
      </trkpt>
      <trkpt lat="44.56323" lon="0.98195">
        <ele>231.33</ele>
        <time>2015-04-19T07:43:46Z</time>
      </trkpt>
      <trkpt lat="44.56337" lon="0.98198">
        <ele>230.85</ele>
        <time>2015-04-19T07:43:53Z</time>
      </trkpt>
      <trkpt lat="44.56339" lon="0.98199">
        <ele>230.85</ele>
        <time>2015-04-19T07:43:54Z</time>
      </trkpt>
      <trkpt lat="44.56345" lon="0.98202">
        <ele>230.85</ele>
        <time>2015-04-19T07:43:57Z</time>
      </trkpt>
      <trkpt lat="44.56349" lon="0.98204">
        <ele>230.85</ele>
        <time>2015-04-19T07:43:59Z</time>
      </trkpt>
      <trkpt lat="44.56369" lon="0.98211">
        <ele>231.33</ele>
        <time>2015-04-19T07:44:08Z</time>
      </trkpt>
      <trkpt lat="44.56371" lon="0.98212">
        <ele>231.33</ele>
        <time>2015-04-19T07:44:09Z</time>
      </trkpt>
      <trkpt lat="44.564" lon="0.98226">
        <ele>230.37</ele>
        <time>2015-04-19T07:44:21Z</time>
      </trkpt>
      <trkpt lat="44.5642" lon="0.98238">
        <ele>229.89</ele>
        <time>2015-04-19T07:44:29Z</time>
      </trkpt>
      <trkpt lat="44.56426" lon="0.9824">
        <ele>229.89</ele>
        <time>2015-04-19T07:44:32Z</time>
      </trkpt>
      <trkpt lat="44.56428" lon="0.9824">
        <ele>229.89</ele>
        <time>2015-04-19T07:44:33Z</time>
      </trkpt>
      <trkpt lat="44.56435" lon="0.98232">
        <ele>229.41</ele>
        <time>2015-04-19T07:44:38Z</time>
      </trkpt>
      <trkpt lat="44.56436" lon="0.98229">
        <ele>228.93</ele>
        <time>2015-04-19T07:44:39Z</time>
      </trkpt>
      <trkpt lat="44.56438" lon="0.98227">
        <ele>228.93</ele>
        <time>2015-04-19T07:44:40Z</time>
      </trkpt>
      <trkpt lat="44.56441" lon="0.98228">
        <ele>228.93</ele>
        <time>2015-04-19T07:44:41Z</time>
      </trkpt>
      <trkpt lat="44.56444" lon="0.98228">
        <ele>228.93</ele>
        <time>2015-04-19T07:44:42Z</time>
      </trkpt>
      <trkpt lat="44.56446" lon="0.98227">
        <ele>228.93</ele>
        <time>2015-04-19T07:44:43Z</time>
      </trkpt>
      <trkpt lat="44.56448" lon="0.98226">
        <ele>228.93</ele>
        <time>2015-04-19T07:44:44Z</time>
      </trkpt>
      <trkpt lat="44.5645" lon="0.98225">
        <ele>228.45</ele>
        <time>2015-04-19T07:44:45Z</time>
      </trkpt>
      <trkpt lat="44.5647" lon="0.98208">
        <ele>227.97</ele>
        <time>2015-04-19T07:44:55Z</time>
      </trkpt>
      <trkpt lat="44.56486" lon="0.98197">
        <ele>227.97</ele>
        <time>2015-04-19T07:45:03Z</time>
      </trkpt>
      <trkpt lat="44.56507" lon="0.98183">
        <ele>228.93</ele>
        <time>2015-04-19T07:45:18Z</time>
      </trkpt>
      <trkpt lat="44.56523" lon="0.98164">
        <ele>230.37</ele>
        <time>2015-04-19T07:45:32Z</time>
      </trkpt>
      <trkpt lat="44.56528" lon="0.98154">
        <ele>230.85</ele>
        <time>2015-04-19T07:45:38Z</time>
      </trkpt>
      <trkpt lat="44.56529" lon="0.98153">
        <ele>230.85</ele>
        <time>2015-04-19T07:45:39Z</time>
      </trkpt>
      <trkpt lat="44.56545" lon="0.98138">
        <ele>230.85</ele>
        <time>2015-04-19T07:45:50Z</time>
      </trkpt>
      <trkpt lat="44.56546" lon="0.98138">
        <ele>230.85</ele>
        <time>2015-04-19T07:45:51Z</time>
      </trkpt>
      <trkpt lat="44.5656" lon="0.98144">
        <ele>230.85</ele>
        <time>2015-04-19T07:45:57Z</time>
      </trkpt>
      <trkpt lat="44.56563" lon="0.98142">
        <ele>230.85</ele>
        <time>2015-04-19T07:45:58Z</time>
      </trkpt>
      <trkpt lat="44.56565" lon="0.98141">
        <ele>230.85</ele>
        <time>2015-04-19T07:45:59Z</time>
      </trkpt>
      <trkpt lat="44.56567" lon="0.98141">
        <ele>230.85</ele>
        <time>2015-04-19T07:46:00Z</time>
      </trkpt>
      <trkpt lat="44.56569" lon="0.98141">
        <ele>230.85</ele>
        <time>2015-04-19T07:46:01Z</time>
      </trkpt>
      <trkpt lat="44.56571" lon="0.98139">
        <ele>230.85</ele>
        <time>2015-04-19T07:46:02Z</time>
      </trkpt>
      <trkpt lat="44.56573" lon="0.98138">
        <ele>230.85</ele>
        <time>2015-04-19T07:46:03Z</time>
      </trkpt>
      <trkpt lat="44.56574" lon="0.98136">
        <ele>229.41</ele>
        <time>2015-04-19T07:46:04Z</time>
      </trkpt>
      <trkpt lat="44.5659" lon="0.98109">
        <ele>227.97</ele>
        <time>2015-04-19T07:46:14Z</time>
      </trkpt>
      <trkpt lat="44.566" lon="0.98103">
        <ele>224.61</ele>
        <time>2015-04-19T07:46:18Z</time>
      </trkpt>
      <trkpt lat="44.5662" lon="0.9809">
        <ele>223.16</ele>
        <time>2015-04-19T07:46:28Z</time>
      </trkpt>
      <trkpt lat="44.56643" lon="0.98079">
        <ele>221.24</ele>
        <time>2015-04-19T07:46:39Z</time>
      </trkpt>
      <trkpt lat="44.56645" lon="0.98079">
        <ele>221.72</ele>
        <time>2015-04-19T07:46:40Z</time>
      </trkpt>
      <trkpt lat="44.56646" lon="0.9808">
        <ele>221.72</ele>
        <time>2015-04-19T07:46:41Z</time>
      </trkpt>
      <trkpt lat="44.56647" lon="0.98082">
        <ele>220.76</ele>
        <time>2015-04-19T07:46:42Z</time>
      </trkpt>
      <trkpt lat="44.56649" lon="0.98082">
        <ele>220.76</ele>
        <time>2015-04-19T07:46:43Z</time>
      </trkpt>
      <trkpt lat="44.5665" lon="0.98083">
        <ele>219.32</ele>
        <time>2015-04-19T07:46:44Z</time>
      </trkpt>
      <trkpt lat="44.56652" lon="0.98086">
        <ele>218.84</ele>
        <time>2015-04-19T07:46:45Z</time>
      </trkpt>
      <trkpt lat="44.56653" lon="0.98088">
        <ele>218.36</ele>
        <time>2015-04-19T07:46:46Z</time>
      </trkpt>
      <trkpt lat="44.56653" lon="0.98091">
        <ele>218.84</ele>
        <time>2015-04-19T07:46:47Z</time>
      </trkpt>
      <trkpt lat="44.56654" lon="0.98094">
        <ele>217.4</ele>
        <time>2015-04-19T07:46:48Z</time>
      </trkpt>
      <trkpt lat="44.56654" lon="0.98096">
        <ele>217.88</ele>
        <time>2015-04-19T07:46:49Z</time>
      </trkpt>
      <trkpt lat="44.56655" lon="0.98099">
        <ele>217.4</ele>
        <time>2015-04-19T07:46:50Z</time>
      </trkpt>
      <trkpt lat="44.56656" lon="0.98101">
        <ele>217.4</ele>
        <time>2015-04-19T07:46:51Z</time>
      </trkpt>
      <trkpt lat="44.56658" lon="0.98103">
        <ele>217.4</ele>
        <time>2015-04-19T07:46:52Z</time>
      </trkpt>
      <trkpt lat="44.56658" lon="0.98106">
        <ele>217.88</ele>
        <time>2015-04-19T07:46:53Z</time>
      </trkpt>
      <trkpt lat="44.56659" lon="0.98109">
        <ele>217.4</ele>
        <time>2015-04-19T07:46:54Z</time>
      </trkpt>
      <trkpt lat="44.56661" lon="0.98113">
        <ele>217.4</ele>
        <time>2015-04-19T07:46:56Z</time>
      </trkpt>
      <trkpt lat="44.56663" lon="0.98114">
        <ele>217.4</ele>
        <time>2015-04-19T07:46:57Z</time>
      </trkpt>
      <trkpt lat="44.56665" lon="0.98114">
        <ele>217.4</ele>
        <time>2015-04-19T07:46:58Z</time>
      </trkpt>
      <trkpt lat="44.56682" lon="0.98104">
        <ele>216.43</ele>
        <time>2015-04-19T07:47:09Z</time>
      </trkpt>
      <trkpt lat="44.56685" lon="0.98101">
        <ele>215.95</ele>
        <time>2015-04-19T07:47:12Z</time>
      </trkpt>
      <trkpt lat="44.56687" lon="0.981">
        <ele>215.95</ele>
        <time>2015-04-19T07:47:13Z</time>
      </trkpt>
      <trkpt lat="44.56688" lon="0.98098">
        <ele>214.99</ele>
        <time>2015-04-19T07:47:14Z</time>
      </trkpt>
      <trkpt lat="44.56699" lon="0.98086">
        <ele>211.63</ele>
        <time>2015-04-19T07:47:21Z</time>
      </trkpt>
      <trkpt lat="44.56706" lon="0.9808">
        <ele>208.26</ele>
        <time>2015-04-19T07:47:25Z</time>
      </trkpt>
      <trkpt lat="44.56717" lon="0.98068">
        <ele>205.38</ele>
        <time>2015-04-19T07:47:31Z</time>
      </trkpt>
      <trkpt lat="44.56736" lon="0.98052">
        <ele>205.38</ele>
        <time>2015-04-19T07:47:42Z</time>
      </trkpt>
      <trkpt lat="44.56744" lon="0.98046">
        <ele>204.42</ele>
        <time>2015-04-19T07:47:47Z</time>
      </trkpt>
      <trkpt lat="44.56744" lon="0.98045">
        <ele>203.94</ele>
        <time>2015-04-19T07:47:48Z</time>
      </trkpt>
      <trkpt lat="44.56745" lon="0.98042">
        <ele>202.01</ele>
        <time>2015-04-19T07:47:51Z</time>
      </trkpt>
      <trkpt lat="44.56746" lon="0.98038">
        <ele>198.65</ele>
        <time>2015-04-19T07:47:54Z</time>
      </trkpt>
      <trkpt lat="44.56753" lon="0.98026">
        <ele>195.28</ele>
        <time>2015-04-19T07:47:59Z</time>
      </trkpt>
      <trkpt lat="44.56779" lon="0.97991">
        <ele>192.4</ele>
        <time>2015-04-19T07:48:07Z</time>
      </trkpt>
      <trkpt lat="44.56793" lon="0.97975">
        <ele>189.04</ele>
        <time>2015-04-19T07:48:13Z</time>
      </trkpt>
      <trkpt lat="44.56794" lon="0.97973">
        <ele>189.52</ele>
        <time>2015-04-19T07:48:14Z</time>
      </trkpt>
      <trkpt lat="44.56803" lon="0.97962">
        <ele>186.15</ele>
        <time>2015-04-19T07:48:19Z</time>
      </trkpt>
      <trkpt lat="44.56818" lon="0.97941">
        <ele>182.31</ele>
        <time>2015-04-19T07:48:26Z</time>
      </trkpt>
      <trkpt lat="44.56823" lon="0.97936">
        <ele>181.35</ele>
        <time>2015-04-19T07:48:28Z</time>
      </trkpt>
      <trkpt lat="44.56825" lon="0.97935">
        <ele>181.35</ele>
        <time>2015-04-19T07:48:29Z</time>
      </trkpt>
      <trkpt lat="44.56827" lon="0.97933">
        <ele>180.38</ele>
        <time>2015-04-19T07:48:30Z</time>
      </trkpt>
      <trkpt lat="44.56829" lon="0.97931">
        <ele>179.9</ele>
        <time>2015-04-19T07:48:31Z</time>
      </trkpt>
      <trkpt lat="44.5683" lon="0.97929">
        <ele>179.9</ele>
        <time>2015-04-19T07:48:32Z</time>
      </trkpt>
      <trkpt lat="44.56832" lon="0.97927">
        <ele>179.42</ele>
        <time>2015-04-19T07:48:33Z</time>
      </trkpt>
      <trkpt lat="44.56834" lon="0.97925">
        <ele>179.42</ele>
        <time>2015-04-19T07:48:34Z</time>
      </trkpt>
      <trkpt lat="44.56836" lon="0.97922">
        <ele>178.94</ele>
        <time>2015-04-19T07:48:35Z</time>
      </trkpt>
      <trkpt lat="44.56838" lon="0.97921">
        <ele>178.94</ele>
        <time>2015-04-19T07:48:36Z</time>
      </trkpt>
      <trkpt lat="44.56839" lon="0.9792">
        <ele>178.46</ele>
        <time>2015-04-19T07:48:37Z</time>
      </trkpt>
      <trkpt lat="44.56841" lon="0.97918">
        <ele>178.46</ele>
        <time>2015-04-19T07:48:38Z</time>
      </trkpt>
      <trkpt lat="44.56843" lon="0.97915">
        <ele>177.5</ele>
        <time>2015-04-19T07:48:39Z</time>
      </trkpt>
      <trkpt lat="44.56846" lon="0.97911">
        <ele>177.02</ele>
        <time>2015-04-19T07:48:40Z</time>
      </trkpt>
      <trkpt lat="44.56848" lon="0.97907">
        <ele>176.54</ele>
        <time>2015-04-19T07:48:41Z</time>
      </trkpt>
      <trkpt lat="44.56851" lon="0.97904">
        <ele>175.58</ele>
        <time>2015-04-19T07:48:42Z</time>
      </trkpt>
      <trkpt lat="44.56854" lon="0.97901">
        <ele>175.1</ele>
        <time>2015-04-19T07:48:43Z</time>
      </trkpt>
      <trkpt lat="44.56857" lon="0.979">
        <ele>174.62</ele>
        <time>2015-04-19T07:48:44Z</time>
      </trkpt>
      <trkpt lat="44.5686" lon="0.97899">
        <ele>174.14</ele>
        <time>2015-04-19T07:48:45Z</time>
      </trkpt>
      <trkpt lat="44.56888" lon="0.97903">
        <ele>173.17</ele>
        <time>2015-04-19T07:48:56Z</time>
      </trkpt>
      <trkpt lat="44.569" lon="0.97904">
        <ele>173.17</ele>
        <time>2015-04-19T07:49:02Z</time>
      </trkpt>
      <trkpt lat="44.56901" lon="0.97906">
        <ele>173.17</ele>
        <time>2015-04-19T07:49:03Z</time>
      </trkpt>
      <trkpt lat="44.56904" lon="0.9791">
        <ele>174.62</ele>
        <time>2015-04-19T07:49:05Z</time>
      </trkpt>
      <trkpt lat="44.56912" lon="0.97924">
        <ele>177.98</ele>
        <time>2015-04-19T07:49:13Z</time>
      </trkpt>
      <trkpt lat="44.56914" lon="0.97927">
        <ele>178.94</ele>
        <time>2015-04-19T07:49:14Z</time>
      </trkpt>
      <trkpt lat="44.56916" lon="0.97929">
        <ele>179.42</ele>
        <time>2015-04-19T07:49:15Z</time>
      </trkpt>
      <trkpt lat="44.56917" lon="0.9793">
        <ele>179.9</ele>
        <time>2015-04-19T07:49:16Z</time>
      </trkpt>
      <trkpt lat="44.56918" lon="0.97932">
        <ele>180.38</ele>
        <time>2015-04-19T07:49:17Z</time>
      </trkpt>
      <trkpt lat="44.56919" lon="0.97934">
        <ele>180.38</ele>
        <time>2015-04-19T07:49:18Z</time>
      </trkpt>
      <trkpt lat="44.56921" lon="0.97936">
        <ele>181.35</ele>
        <time>2015-04-19T07:49:19Z</time>
      </trkpt>
      <trkpt lat="44.56923" lon="0.97937">
        <ele>181.35</ele>
        <time>2015-04-19T07:49:20Z</time>
      </trkpt>
      <trkpt lat="44.56924" lon="0.9794">
        <ele>181.35</ele>
        <time>2015-04-19T07:49:21Z</time>
      </trkpt>
      <trkpt lat="44.56925" lon="0.97942">
        <ele>181.35</ele>
        <time>2015-04-19T07:49:22Z</time>
      </trkpt>
      <trkpt lat="44.56926" lon="0.97943">
        <ele>181.35</ele>
        <time>2015-04-19T07:49:23Z</time>
      </trkpt>
      <trkpt lat="44.56928" lon="0.97945">
        <ele>181.35</ele>
        <time>2015-04-19T07:49:24Z</time>
      </trkpt>
      <trkpt lat="44.56935" lon="0.97953">
        <ele>181.83</ele>
        <time>2015-04-19T07:49:29Z</time>
      </trkpt>
      <trkpt lat="44.56936" lon="0.97954">
        <ele>181.83</ele>
        <time>2015-04-19T07:49:30Z</time>
      </trkpt>
      <trkpt lat="44.56938" lon="0.97955">
        <ele>181.83</ele>
        <time>2015-04-19T07:49:31Z</time>
      </trkpt>
      <trkpt lat="44.56939" lon="0.97957">
        <ele>181.83</ele>
        <time>2015-04-19T07:49:32Z</time>
      </trkpt>
      <trkpt lat="44.5694" lon="0.97959">
        <ele>181.83</ele>
        <time>2015-04-19T07:49:33Z</time>
      </trkpt>
      <trkpt lat="44.56945" lon="0.97963">
        <ele>182.31</ele>
        <time>2015-04-19T07:49:36Z</time>
      </trkpt>
      <trkpt lat="44.56946" lon="0.97964">
        <ele>182.31</ele>
        <time>2015-04-19T07:49:37Z</time>
      </trkpt>
      <trkpt lat="44.56948" lon="0.97966">
        <ele>182.31</ele>
        <time>2015-04-19T07:49:38Z</time>
      </trkpt>
      <trkpt lat="44.5695" lon="0.97968">
        <ele>182.79</ele>
        <time>2015-04-19T07:49:39Z</time>
      </trkpt>
      <trkpt lat="44.56951" lon="0.9797">
        <ele>182.79</ele>
        <time>2015-04-19T07:49:40Z</time>
      </trkpt>
      <trkpt lat="44.56952" lon="0.97971">
        <ele>182.79</ele>
        <time>2015-04-19T07:49:41Z</time>
      </trkpt>
      <trkpt lat="44.56962" lon="0.97977">
        <ele>183.27</ele>
        <time>2015-04-19T07:49:48Z</time>
      </trkpt>
      <trkpt lat="44.56969" lon="0.9799">
        <ele>183.27</ele>
        <time>2015-04-19T07:49:59Z</time>
      </trkpt>
      <trkpt lat="44.56971" lon="0.97995">
        <ele>183.27</ele>
        <time>2015-04-19T07:50:03Z</time>
      </trkpt>
      <trkpt lat="44.56979" lon="0.98015">
        <ele>185.19</ele>
        <time>2015-04-19T07:50:14Z</time>
      </trkpt>
      <trkpt lat="44.56985" lon="0.98027">
        <ele>188.56</ele>
        <time>2015-04-19T07:50:20Z</time>
      </trkpt>
      <trkpt lat="44.56986" lon="0.98029">
        <ele>189.52</ele>
        <time>2015-04-19T07:50:21Z</time>
      </trkpt>
      <trkpt lat="44.56986" lon="0.98032">
        <ele>190</ele>
        <time>2015-04-19T07:50:22Z</time>
      </trkpt>
      <trkpt lat="44.56987" lon="0.98035">
        <ele>190</ele>
        <time>2015-04-19T07:50:23Z</time>
      </trkpt>
      <trkpt lat="44.56995" lon="0.98067">
        <ele>190.48</ele>
        <time>2015-04-19T07:50:35Z</time>
      </trkpt>
      <trkpt lat="44.56998" lon="0.98088">
        <ele>190.48</ele>
        <time>2015-04-19T07:50:42Z</time>
      </trkpt>
      <trkpt lat="44.56999" lon="0.98093">
        <ele>190.48</ele>
        <time>2015-04-19T07:50:44Z</time>
      </trkpt>
      <trkpt lat="44.56999" lon="0.98095">
        <ele>190.48</ele>
        <time>2015-04-19T07:50:45Z</time>
      </trkpt>
      <trkpt lat="44.57003" lon="0.98136">
        <ele>191.92</ele>
        <time>2015-04-19T07:51:02Z</time>
      </trkpt>
      <trkpt lat="44.57008" lon="0.98162">
        <ele>194.32</ele>
        <time>2015-04-19T07:51:15Z</time>
      </trkpt>
      <trkpt lat="44.57013" lon="0.98179">
        <ele>197.21</ele>
        <time>2015-04-19T07:51:25Z</time>
      </trkpt>
      <trkpt lat="44.57014" lon="0.98185">
        <ele>199.61</ele>
        <time>2015-04-19T07:51:28Z</time>
      </trkpt>
      <trkpt lat="44.57032" lon="0.98202">
        <ele>202.01</ele>
        <time>2015-04-19T07:51:43Z</time>
      </trkpt>
      <trkpt lat="44.57046" lon="0.98212">
        <ele>202.01</ele>
        <time>2015-04-19T07:51:52Z</time>
      </trkpt>
      <trkpt lat="44.57048" lon="0.9821">
        <ele>202.01</ele>
        <time>2015-04-19T07:51:53Z</time>
      </trkpt>
      <trkpt lat="44.57049" lon="0.98207">
        <ele>202.01</ele>
        <time>2015-04-19T07:51:54Z</time>
      </trkpt>
      <trkpt lat="44.57051" lon="0.98204">
        <ele>202.01</ele>
        <time>2015-04-19T07:51:55Z</time>
      </trkpt>
      <trkpt lat="44.57053" lon="0.98203">
        <ele>202.01</ele>
        <time>2015-04-19T07:51:56Z</time>
      </trkpt>
      <trkpt lat="44.57056" lon="0.98202">
        <ele>202.01</ele>
        <time>2015-04-19T07:51:57Z</time>
      </trkpt>
      <trkpt lat="44.57077" lon="0.98203">
        <ele>198.17</ele>
        <time>2015-04-19T07:52:05Z</time>
      </trkpt>
      <trkpt lat="44.57091" lon="0.98205">
        <ele>195.28</ele>
        <time>2015-04-19T07:52:10Z</time>
      </trkpt>
      <trkpt lat="44.57115" lon="0.98208">
        <ele>192.88</ele>
        <time>2015-04-19T07:52:19Z</time>
      </trkpt>
      <trkpt lat="44.57138" lon="0.98208">
        <ele>192.4</ele>
        <time>2015-04-19T07:52:28Z</time>
      </trkpt>
      <trkpt lat="44.57159" lon="0.98212">
        <ele>189.52</ele>
        <time>2015-04-19T07:52:37Z</time>
      </trkpt>
      <trkpt lat="44.57169" lon="0.98213">
        <ele>186.15</ele>
        <time>2015-04-19T07:52:41Z</time>
      </trkpt>
      <trkpt lat="44.57178" lon="0.98213">
        <ele>182.79</ele>
        <time>2015-04-19T07:52:45Z</time>
      </trkpt>
      <trkpt lat="44.57201" lon="0.98221">
        <ele>181.83</ele>
        <time>2015-04-19T07:52:55Z</time>
      </trkpt>
      <trkpt lat="44.57203" lon="0.98222">
        <ele>181.83</ele>
        <time>2015-04-19T07:52:56Z</time>
      </trkpt>
      <trkpt lat="44.57233" lon="0.98225">
        <ele>178.94</ele>
        <time>2015-04-19T07:53:08Z</time>
      </trkpt>
      <trkpt lat="44.57245" lon="0.98229">
        <ele>175.58</ele>
        <time>2015-04-19T07:53:13Z</time>
      </trkpt>
      <trkpt lat="44.57265" lon="0.98237">
        <ele>171.73</ele>
        <time>2015-04-19T07:53:23Z</time>
      </trkpt>
      <trkpt lat="44.57282" lon="0.98231">
        <ele>168.85</ele>
        <time>2015-04-19T07:53:32Z</time>
      </trkpt>
      <trkpt lat="44.57286" lon="0.98229">
        <ele>168.37</ele>
        <time>2015-04-19T07:53:34Z</time>
      </trkpt>
      <trkpt lat="44.5729" lon="0.98217">
        <ele>166.45</ele>
        <time>2015-04-19T07:53:38Z</time>
      </trkpt>
      <trkpt lat="44.57291" lon="0.98211">
        <ele>166.93</ele>
        <time>2015-04-19T07:53:40Z</time>
      </trkpt>
      <trkpt lat="44.57295" lon="0.98196">
        <ele>166.93</ele>
        <time>2015-04-19T07:53:45Z</time>
      </trkpt>
      <trkpt lat="44.57298" lon="0.9819">
        <ele>166.93</ele>
        <time>2015-04-19T07:53:47Z</time>
      </trkpt>
      <trkpt lat="44.57305" lon="0.98166">
        <ele>165.48</ele>
        <time>2015-04-19T07:53:55Z</time>
      </trkpt>
      <trkpt lat="44.57311" lon="0.98153">
        <ele>164.52</ele>
        <time>2015-04-19T07:54:00Z</time>
      </trkpt>
      <trkpt lat="44.57307" lon="0.98132">
        <ele>161.64</ele>
        <time>2015-04-19T07:54:11Z</time>
      </trkpt>
      <trkpt lat="44.57309" lon="0.98121">
        <ele>161.64</ele>
        <time>2015-04-19T07:54:17Z</time>
      </trkpt>
      <trkpt lat="44.57311" lon="0.98098">
        <ele>160.68</ele>
        <time>2015-04-19T07:54:25Z</time>
      </trkpt>
      <trkpt lat="44.57313" lon="0.98083">
        <ele>157.79</ele>
        <time>2015-04-19T07:54:30Z</time>
      </trkpt>
      <trkpt lat="44.57315" lon="0.98068">
        <ele>153.95</ele>
        <time>2015-04-19T07:54:36Z</time>
      </trkpt>
      <trkpt lat="44.57317" lon="0.98059">
        <ele>152.51</ele>
        <time>2015-04-19T07:54:40Z</time>
      </trkpt>
      <trkpt lat="44.57317" lon="0.98054">
        <ele>152.51</ele>
        <time>2015-04-19T07:54:43Z</time>
      </trkpt>
      <trkpt lat="44.57322" lon="0.98027">
        <ele>150.1</ele>
        <time>2015-04-19T07:54:51Z</time>
      </trkpt>
      <trkpt lat="44.57325" lon="0.98016">
        <ele>148.66</ele>
        <time>2015-04-19T07:54:54Z</time>
      </trkpt>
      <trkpt lat="44.57335" lon="0.97967">
        <ele>145.3</ele>
        <time>2015-04-19T07:55:03Z</time>
      </trkpt>
      <trkpt lat="44.57339" lon="0.97949">
        <ele>144.34</ele>
        <time>2015-04-19T07:55:06Z</time>
      </trkpt>
      <trkpt lat="44.5734" lon="0.97943">
        <ele>144.34</ele>
        <time>2015-04-19T07:55:07Z</time>
      </trkpt>
      <trkpt lat="44.57347" lon="0.97917">
        <ele>143.85</ele>
        <time>2015-04-19T07:55:14Z</time>
      </trkpt>
      <trkpt lat="44.57357" lon="0.97898">
        <ele>143.37</ele>
        <time>2015-04-19T07:55:19Z</time>
      </trkpt>
      <trkpt lat="44.57361" lon="0.97895">
        <ele>143.37</ele>
        <time>2015-04-19T07:55:20Z</time>
      </trkpt>
      <trkpt lat="44.57364" lon="0.97891">
        <ele>143.37</ele>
        <time>2015-04-19T07:55:21Z</time>
      </trkpt>
      <trkpt lat="44.5738" lon="0.97881">
        <ele>141.45</ele>
        <time>2015-04-19T07:55:28Z</time>
      </trkpt>
      <trkpt lat="44.57381" lon="0.97878">
        <ele>140.49</ele>
        <time>2015-04-19T07:55:29Z</time>
      </trkpt>
      <trkpt lat="44.57381" lon="0.97875">
        <ele>140.01</ele>
        <time>2015-04-19T07:55:30Z</time>
      </trkpt>
      <trkpt lat="44.5738" lon="0.97856">
        <ele>137.61</ele>
        <time>2015-04-19T07:55:37Z</time>
      </trkpt>
      <trkpt lat="44.5738" lon="0.97853">
        <ele>137.61</ele>
        <time>2015-04-19T07:55:38Z</time>
      </trkpt>
      <trkpt lat="44.5738" lon="0.9785">
        <ele>137.61</ele>
        <time>2015-04-19T07:55:39Z</time>
      </trkpt>
      <trkpt lat="44.5738" lon="0.97847">
        <ele>137.61</ele>
        <time>2015-04-19T07:55:40Z</time>
      </trkpt>
      <trkpt lat="44.57379" lon="0.97843">
        <ele>137.61</ele>
        <time>2015-04-19T07:55:41Z</time>
      </trkpt>
      <trkpt lat="44.57379" lon="0.97834">
        <ele>137.61</ele>
        <time>2015-04-19T07:55:44Z</time>
      </trkpt>
      <trkpt lat="44.57379" lon="0.97831">
        <ele>137.61</ele>
        <time>2015-04-19T07:55:45Z</time>
      </trkpt>
      <trkpt lat="44.57378" lon="0.97828">
        <ele>137.61</ele>
        <time>2015-04-19T07:55:46Z</time>
      </trkpt>
      <trkpt lat="44.57378" lon="0.97817">
        <ele>137.61</ele>
        <time>2015-04-19T07:55:50Z</time>
      </trkpt>
      <trkpt lat="44.57379" lon="0.97814">
        <ele>136.64</ele>
        <time>2015-04-19T07:55:51Z</time>
      </trkpt>
      <trkpt lat="44.57379" lon="0.97811">
        <ele>136.64</ele>
        <time>2015-04-19T07:55:52Z</time>
      </trkpt>
      <trkpt lat="44.57386" lon="0.97778">
        <ele>136.16</ele>
        <time>2015-04-19T07:56:02Z</time>
      </trkpt>
      <trkpt lat="44.57395" lon="0.97749">
        <ele>135.2</ele>
        <time>2015-04-19T07:56:12Z</time>
      </trkpt>
      <trkpt lat="44.57405" lon="0.97726">
        <ele>133.28</ele>
        <time>2015-04-19T07:56:21Z</time>
      </trkpt>
      <trkpt lat="44.57418" lon="0.97698">
        <ele>129.92</ele>
        <time>2015-04-19T07:56:32Z</time>
      </trkpt>
      <trkpt lat="44.57429" lon="0.97669">
        <ele>128.47</ele>
        <time>2015-04-19T07:56:42Z</time>
      </trkpt>
      <trkpt lat="44.5743" lon="0.9766">
        <ele>128.47</ele>
        <time>2015-04-19T07:56:45Z</time>
      </trkpt>
      <trkpt lat="44.57431" lon="0.97657">
        <ele>128.47</ele>
        <time>2015-04-19T07:56:46Z</time>
      </trkpt>
      <trkpt lat="44.57431" lon="0.97655">
        <ele>128.47</ele>
        <time>2015-04-19T07:56:47Z</time>
      </trkpt>
      <trkpt lat="44.57432" lon="0.97652">
        <ele>128.47</ele>
        <time>2015-04-19T07:56:48Z</time>
      </trkpt>
      <trkpt lat="44.57432" lon="0.97648">
        <ele>128.47</ele>
        <time>2015-04-19T07:56:49Z</time>
      </trkpt>
      <trkpt lat="44.57433" lon="0.97645">
        <ele>128.47</ele>
        <time>2015-04-19T07:56:50Z</time>
      </trkpt>
      <trkpt lat="44.57433" lon="0.97642">
        <ele>128.47</ele>
        <time>2015-04-19T07:56:51Z</time>
      </trkpt>
      <trkpt lat="44.57434" lon="0.97639">
        <ele>128.47</ele>
        <time>2015-04-19T07:56:52Z</time>
      </trkpt>
      <trkpt lat="44.57434" lon="0.97635">
        <ele>127.99</ele>
        <time>2015-04-19T07:56:53Z</time>
      </trkpt>
      <trkpt lat="44.57435" lon="0.97632">
        <ele>127.99</ele>
        <time>2015-04-19T07:56:54Z</time>
      </trkpt>
      <trkpt lat="44.57435" lon="0.97629">
        <ele>127.99</ele>
        <time>2015-04-19T07:56:55Z</time>
      </trkpt>
      <trkpt lat="44.57436" lon="0.97626">
        <ele>127.99</ele>
        <time>2015-04-19T07:56:56Z</time>
      </trkpt>
      <trkpt lat="44.57437" lon="0.97622">
        <ele>127.03</ele>
        <time>2015-04-19T07:56:57Z</time>
      </trkpt>
      <trkpt lat="44.57437" lon="0.97619">
        <ele>127.03</ele>
        <time>2015-04-19T07:56:58Z</time>
      </trkpt>
      <trkpt lat="44.57437" lon="0.97616">
        <ele>127.03</ele>
        <time>2015-04-19T07:56:59Z</time>
      </trkpt>
      <trkpt lat="44.57438" lon="0.97613">
        <ele>127.03</ele>
        <time>2015-04-19T07:57:00Z</time>
      </trkpt>
      <trkpt lat="44.57438" lon="0.9761">
        <ele>127.03</ele>
        <time>2015-04-19T07:57:01Z</time>
      </trkpt>
      <trkpt lat="44.57438" lon="0.97607">
        <ele>126.55</ele>
        <time>2015-04-19T07:57:02Z</time>
      </trkpt>
      <trkpt lat="44.57438" lon="0.97605">
        <ele>126.55</ele>
        <time>2015-04-19T07:57:03Z</time>
      </trkpt>
      <trkpt lat="44.57439" lon="0.97602">
        <ele>126.55</ele>
        <time>2015-04-19T07:57:04Z</time>
      </trkpt>
      <trkpt lat="44.5744" lon="0.97588">
        <ele>126.07</ele>
        <time>2015-04-19T07:57:10Z</time>
      </trkpt>
      <trkpt lat="44.57442" lon="0.97569">
        <ele>125.11</ele>
        <time>2015-04-19T07:57:18Z</time>
      </trkpt>
      <trkpt lat="44.57443" lon="0.97567">
        <ele>125.11</ele>
        <time>2015-04-19T07:57:19Z</time>
      </trkpt>
      <trkpt lat="44.57443" lon="0.97564">
        <ele>124.63</ele>
        <time>2015-04-19T07:57:20Z</time>
      </trkpt>
      <trkpt lat="44.57444" lon="0.97561">
        <ele>124.63</ele>
        <time>2015-04-19T07:57:21Z</time>
      </trkpt>
      <trkpt lat="44.57444" lon="0.97559">
        <ele>124.63</ele>
        <time>2015-04-19T07:57:22Z</time>
      </trkpt>
      <trkpt lat="44.57444" lon="0.97556">
        <ele>124.63</ele>
        <time>2015-04-19T07:57:23Z</time>
      </trkpt>
      <trkpt lat="44.57443" lon="0.97555">
        <ele>124.63</ele>
        <time>2015-04-19T07:57:24Z</time>
      </trkpt>
      <trkpt lat="44.57439" lon="0.97529">
        <ele>122.71</ele>
        <time>2015-04-19T07:57:37Z</time>
      </trkpt>
      <trkpt lat="44.57437" lon="0.97518">
        <ele>122.22</ele>
        <time>2015-04-19T07:57:42Z</time>
      </trkpt>
      <trkpt lat="44.57436" lon="0.97515">
        <ele>121.74</ele>
        <time>2015-04-19T07:57:43Z</time>
      </trkpt>
      <trkpt lat="44.57434" lon="0.97492">
        <ele>120.3</ele>
        <time>2015-04-19T07:57:54Z</time>
      </trkpt>
      <trkpt lat="44.57433" lon="0.97483">
        <ele>119.82</ele>
        <time>2015-04-19T07:57:59Z</time>
      </trkpt>
      <trkpt lat="44.57432" lon="0.97475">
        <ele>119.34</ele>
        <time>2015-04-19T07:58:02Z</time>
      </trkpt>
      <trkpt lat="44.57432" lon="0.97473">
        <ele>119.34</ele>
        <time>2015-04-19T07:58:03Z</time>
      </trkpt>
      <trkpt lat="44.57432" lon="0.97471">
        <ele>119.34</ele>
        <time>2015-04-19T07:58:04Z</time>
      </trkpt>
      <trkpt lat="44.57431" lon="0.97469">
        <ele>119.34</ele>
        <time>2015-04-19T07:58:05Z</time>
      </trkpt>
      <trkpt lat="44.57431" lon="0.97467">
        <ele>119.34</ele>
        <time>2015-04-19T07:58:06Z</time>
      </trkpt>
      <trkpt lat="44.57431" lon="0.97464">
        <ele>118.86</ele>
        <time>2015-04-19T07:58:07Z</time>
      </trkpt>
      <trkpt lat="44.57431" lon="0.97457">
        <ele>118.86</ele>
        <time>2015-04-19T07:58:10Z</time>
      </trkpt>
      <trkpt lat="44.57429" lon="0.97456">
        <ele>118.86</ele>
        <time>2015-04-19T07:58:11Z</time>
      </trkpt>
      <trkpt lat="44.57426" lon="0.97451">
        <ele>118.38</ele>
        <time>2015-04-19T07:58:14Z</time>
      </trkpt>
      <trkpt lat="44.57426" lon="0.97449">
        <ele>118.38</ele>
        <time>2015-04-19T07:58:15Z</time>
      </trkpt>
      <trkpt lat="44.57426" lon="0.97447">
        <ele>118.38</ele>
        <time>2015-04-19T07:58:16Z</time>
      </trkpt>
      <trkpt lat="44.57425" lon="0.97445">
        <ele>117.9</ele>
        <time>2015-04-19T07:58:17Z</time>
      </trkpt>
      <trkpt lat="44.57425" lon="0.97443">
        <ele>117.9</ele>
        <time>2015-04-19T07:58:18Z</time>
      </trkpt>
      <trkpt lat="44.57424" lon="0.9744">
        <ele>117.9</ele>
        <time>2015-04-19T07:58:19Z</time>
      </trkpt>
      <trkpt lat="44.57425" lon="0.97437">
        <ele>117.9</ele>
        <time>2015-04-19T07:58:20Z</time>
      </trkpt>
      <trkpt lat="44.57424" lon="0.97423">
        <ele>116.94</ele>
        <time>2015-04-19T07:58:26Z</time>
      </trkpt>
      <trkpt lat="44.57423" lon="0.9742">
        <ele>116.94</ele>
        <time>2015-04-19T07:58:27Z</time>
      </trkpt>
      <trkpt lat="44.57423" lon="0.97417">
        <ele>116.94</ele>
        <time>2015-04-19T07:58:28Z</time>
      </trkpt>
      <trkpt lat="44.57424" lon="0.97413">
        <ele>116.94</ele>
        <time>2015-04-19T07:58:29Z</time>
      </trkpt>
      <trkpt lat="44.57424" lon="0.97409">
        <ele>116.94</ele>
        <time>2015-04-19T07:58:30Z</time>
      </trkpt>
      <trkpt lat="44.57424" lon="0.97405">
        <ele>116.46</ele>
        <time>2015-04-19T07:58:31Z</time>
      </trkpt>
      <trkpt lat="44.57423" lon="0.97403">
        <ele>116.46</ele>
        <time>2015-04-19T07:58:32Z</time>
      </trkpt>
      <trkpt lat="44.57422" lon="0.974">
        <ele>116.46</ele>
        <time>2015-04-19T07:58:33Z</time>
      </trkpt>
      <trkpt lat="44.57421" lon="0.97397">
        <ele>116.46</ele>
        <time>2015-04-19T07:58:34Z</time>
      </trkpt>
      <trkpt lat="44.5742" lon="0.97394">
        <ele>116.46</ele>
        <time>2015-04-19T07:58:35Z</time>
      </trkpt>
      <trkpt lat="44.57419" lon="0.97388">
        <ele>116.46</ele>
        <time>2015-04-19T07:58:37Z</time>
      </trkpt>
      <trkpt lat="44.57418" lon="0.97385">
        <ele>116.46</ele>
        <time>2015-04-19T07:58:38Z</time>
      </trkpt>
      <trkpt lat="44.57417" lon="0.97382">
        <ele>116.46</ele>
        <time>2015-04-19T07:58:39Z</time>
      </trkpt>
      <trkpt lat="44.57417" lon="0.97379">
        <ele>115.98</ele>
        <time>2015-04-19T07:58:40Z</time>
      </trkpt>
      <trkpt lat="44.57416" lon="0.97376">
        <ele>115.98</ele>
        <time>2015-04-19T07:58:41Z</time>
      </trkpt>
      <trkpt lat="44.57414" lon="0.97373">
        <ele>115.98</ele>
        <time>2015-04-19T07:58:42Z</time>
      </trkpt>
      <trkpt lat="44.57413" lon="0.97371">
        <ele>115.98</ele>
        <time>2015-04-19T07:58:43Z</time>
      </trkpt>
      <trkpt lat="44.57412" lon="0.97369">
        <ele>115.98</ele>
        <time>2015-04-19T07:58:44Z</time>
      </trkpt>
      <trkpt lat="44.57405" lon="0.97341">
        <ele>115.01</ele>
        <time>2015-04-19T07:58:54Z</time>
      </trkpt>
      <trkpt lat="44.574" lon="0.97326">
        <ele>115.01</ele>
        <time>2015-04-19T07:59:04Z</time>
      </trkpt>
      <trkpt lat="44.57401" lon="0.97318">
        <ele>115.01</ele>
        <time>2015-04-19T07:59:08Z</time>
      </trkpt>
      <trkpt lat="44.57404" lon="0.97311">
        <ele>115.01</ele>
        <time>2015-04-19T07:59:09Z</time>
      </trkpt>
      <trkpt lat="44.57405" lon="0.97308">
        <ele>115.01</ele>
        <time>2015-04-19T07:59:10Z</time>
      </trkpt>
      <trkpt lat="44.57434" lon="0.9728">
        <ele>115.01</ele>
        <time>2015-04-19T07:59:26Z</time>
      </trkpt>
      <trkpt lat="44.57452" lon="0.97255">
        <ele>115.01</ele>
        <time>2015-04-19T07:59:41Z</time>
      </trkpt>
      <trkpt lat="44.57469" lon="0.97234">
        <ele>115.01</ele>
        <time>2015-04-19T07:59:56Z</time>
      </trkpt>
      <trkpt lat="44.5748" lon="0.97211">
        <ele>113.57</ele>
        <time>2015-04-19T08:00:08Z</time>
      </trkpt>
      <trkpt lat="44.57484" lon="0.97206">
        <ele>113.57</ele>
        <time>2015-04-19T08:00:12Z</time>
      </trkpt>
      <trkpt lat="44.57486" lon="0.97205">
        <ele>113.57</ele>
        <time>2015-04-19T08:00:13Z</time>
      </trkpt>
      <trkpt lat="44.57487" lon="0.97204">
        <ele>113.57</ele>
        <time>2015-04-19T08:00:14Z</time>
      </trkpt>
      <trkpt lat="44.57493" lon="0.97201">
        <ele>113.57</ele>
        <time>2015-04-19T08:00:20Z</time>
      </trkpt>
      <trkpt lat="44.57494" lon="0.97202">
        <ele>113.57</ele>
        <time>2015-04-19T08:00:21Z</time>
      </trkpt>
      <trkpt lat="44.57509" lon="0.97206">
        <ele>113.57</ele>
        <time>2015-04-19T08:00:36Z</time>
      </trkpt>
      <trkpt lat="44.5751" lon="0.97206">
        <ele>113.09</ele>
        <time>2015-04-19T08:00:52Z</time>
      </trkpt>
      <trkpt lat="44.57511" lon="0.97206">
        <ele>113.09</ele>
        <time>2015-04-19T08:01:13Z</time>
      </trkpt>
      <trkpt lat="44.57512" lon="0.97206">
        <ele>112.61</ele>
        <time>2015-04-19T08:01:37Z</time>
      </trkpt>
      <trkpt lat="44.57513" lon="0.97205">
        <ele>112.61</ele>
        <time>2015-04-19T08:02:00Z</time>
      </trkpt>
      <trkpt lat="44.57513" lon="0.97207">
        <ele>112.61</ele>
        <time>2015-04-19T08:02:06Z</time>
      </trkpt>
      <trkpt lat="44.57519" lon="0.97214">
        <ele>112.61</ele>
        <time>2015-04-19T08:02:15Z</time>
      </trkpt>
      <trkpt lat="44.57521" lon="0.9722">
        <ele>112.61</ele>
        <time>2015-04-19T08:02:19Z</time>
      </trkpt>
      <trkpt lat="44.57523" lon="0.97223">
        <ele>112.61</ele>
        <time>2015-04-19T08:02:21Z</time>
      </trkpt>
      <trkpt lat="44.57542" lon="0.97216">
        <ele>112.61</ele>
        <time>2015-04-19T08:02:35Z</time>
      </trkpt>
      <trkpt lat="44.57559" lon="0.97196">
        <ele>112.61</ele>
        <time>2015-04-19T08:02:51Z</time>
      </trkpt>
      <trkpt lat="44.57563" lon="0.97178">
        <ele>112.61</ele>
        <time>2015-04-19T08:03:02Z</time>
      </trkpt>
      <trkpt lat="44.57572" lon="0.97164">
        <ele>113.57</ele>
        <time>2015-04-19T08:03:12Z</time>
      </trkpt>
      <trkpt lat="44.57574" lon="0.97157">
        <ele>113.57</ele>
        <time>2015-04-19T08:03:16Z</time>
      </trkpt>
      <trkpt lat="44.57585" lon="0.97121">
        <ele>114.53</ele>
        <time>2015-04-19T08:03:31Z</time>
      </trkpt>
      <trkpt lat="44.57598" lon="0.97109">
        <ele>114.53</ele>
        <time>2015-04-19T08:03:43Z</time>
      </trkpt>
      <trkpt lat="44.57622" lon="0.97111">
        <ele>115.5</ele>
        <time>2015-04-19T08:03:58Z</time>
      </trkpt>
      <trkpt lat="44.57645" lon="0.97114">
        <ele>115.5</ele>
        <time>2015-04-19T08:04:13Z</time>
      </trkpt>
      <trkpt lat="44.5765" lon="0.97114">
        <ele>115.5</ele>
        <time>2015-04-19T08:04:16Z</time>
      </trkpt>
      <trkpt lat="44.57657" lon="0.97114">
        <ele>115.5</ele>
        <time>2015-04-19T08:04:21Z</time>
      </trkpt>
      <trkpt lat="44.57678" lon="0.97128">
        <ele>116.46</ele>
        <time>2015-04-19T08:04:36Z</time>
      </trkpt>
      <trkpt lat="44.57681" lon="0.97132">
        <ele>116.46</ele>
        <time>2015-04-19T08:04:38Z</time>
      </trkpt>
      <trkpt lat="44.57684" lon="0.97138">
        <ele>116.46</ele>
        <time>2015-04-19T08:04:43Z</time>
      </trkpt>
      <trkpt lat="44.57684" lon="0.97136">
        <ele>116.46</ele>
        <time>2015-04-19T08:04:45Z</time>
      </trkpt>
      <trkpt lat="44.57689" lon="0.9713">
        <ele>116.46</ele>
        <time>2015-04-19T08:04:48Z</time>
      </trkpt>
      <trkpt lat="44.57697" lon="0.97106">
        <ele>116.46</ele>
        <time>2015-04-19T08:04:57Z</time>
      </trkpt>
      <trkpt lat="44.57709" lon="0.97071">
        <ele>115.01</ele>
        <time>2015-04-19T08:05:10Z</time>
      </trkpt>
      <trkpt lat="44.57713" lon="0.97042">
        <ele>113.57</ele>
        <time>2015-04-19T08:05:23Z</time>
      </trkpt>
      <trkpt lat="44.57714" lon="0.97035">
        <ele>113.57</ele>
        <time>2015-04-19T08:05:25Z</time>
      </trkpt>
      <trkpt lat="44.57714" lon="0.97032">
        <ele>113.57</ele>
        <time>2015-04-19T08:05:26Z</time>
      </trkpt>
      <trkpt lat="44.57714" lon="0.97029">
        <ele>113.09</ele>
        <time>2015-04-19T08:05:27Z</time>
      </trkpt>
      <trkpt lat="44.57714" lon="0.97025">
        <ele>113.09</ele>
        <time>2015-04-19T08:05:28Z</time>
      </trkpt>
      <trkpt lat="44.57714" lon="0.97022">
        <ele>113.09</ele>
        <time>2015-04-19T08:05:29Z</time>
      </trkpt>
      <trkpt lat="44.57714" lon="0.97019">
        <ele>113.09</ele>
        <time>2015-04-19T08:05:30Z</time>
      </trkpt>
      <trkpt lat="44.57715" lon="0.97008">
        <ele>113.09</ele>
        <time>2015-04-19T08:05:33Z</time>
      </trkpt>
      <trkpt lat="44.57716" lon="0.97004">
        <ele>113.09</ele>
        <time>2015-04-19T08:05:34Z</time>
      </trkpt>
      <trkpt lat="44.57716" lon="0.97001">
        <ele>113.09</ele>
        <time>2015-04-19T08:05:35Z</time>
      </trkpt>
      <trkpt lat="44.57716" lon="0.96998">
        <ele>113.09</ele>
        <time>2015-04-19T08:05:36Z</time>
      </trkpt>
      <trkpt lat="44.57716" lon="0.96996">
        <ele>113.09</ele>
        <time>2015-04-19T08:05:37Z</time>
      </trkpt>
      <trkpt lat="44.57715" lon="0.96993">
        <ele>113.09</ele>
        <time>2015-04-19T08:05:38Z</time>
      </trkpt>
      <trkpt lat="44.57715" lon="0.9699">
        <ele>113.09</ele>
        <time>2015-04-19T08:05:39Z</time>
      </trkpt>
      <trkpt lat="44.57714" lon="0.96986">
        <ele>113.09</ele>
        <time>2015-04-19T08:05:40Z</time>
      </trkpt>
      <trkpt lat="44.57714" lon="0.96983">
        <ele>113.09</ele>
        <time>2015-04-19T08:05:41Z</time>
      </trkpt>
      <trkpt lat="44.57713" lon="0.96981">
        <ele>113.09</ele>
        <time>2015-04-19T08:05:42Z</time>
      </trkpt>
      <trkpt lat="44.57712" lon="0.96979">
        <ele>113.09</ele>
        <time>2015-04-19T08:05:43Z</time>
      </trkpt>
      <trkpt lat="44.57712" lon="0.96977">
        <ele>113.09</ele>
        <time>2015-04-19T08:05:44Z</time>
      </trkpt>
      <trkpt lat="44.57711" lon="0.96976">
        <ele>113.09</ele>
        <time>2015-04-19T08:05:45Z</time>
      </trkpt>
      <trkpt lat="44.5771" lon="0.96974">
        <ele>113.09</ele>
        <time>2015-04-19T08:05:46Z</time>
      </trkpt>
      <trkpt lat="44.57709" lon="0.96972">
        <ele>113.09</ele>
        <time>2015-04-19T08:05:47Z</time>
      </trkpt>
      <trkpt lat="44.57708" lon="0.9697">
        <ele>113.09</ele>
        <time>2015-04-19T08:05:48Z</time>
      </trkpt>
      <trkpt lat="44.57707" lon="0.96968">
        <ele>113.09</ele>
        <time>2015-04-19T08:05:49Z</time>
      </trkpt>
      <trkpt lat="44.57706" lon="0.96965">
        <ele>113.09</ele>
        <time>2015-04-19T08:05:50Z</time>
      </trkpt>
      <trkpt lat="44.57706" lon="0.96963">
        <ele>113.09</ele>
        <time>2015-04-19T08:05:51Z</time>
      </trkpt>
      <trkpt lat="44.57704" lon="0.96944">
        <ele>113.09</ele>
        <time>2015-04-19T08:05:58Z</time>
      </trkpt>
      <trkpt lat="44.57705" lon="0.96942">
        <ele>113.09</ele>
        <time>2015-04-19T08:05:59Z</time>
      </trkpt>
      <trkpt lat="44.57706" lon="0.9694">
        <ele>113.09</ele>
        <time>2015-04-19T08:06:00Z</time>
      </trkpt>
      <trkpt lat="44.57711" lon="0.96931">
        <ele>113.09</ele>
        <time>2015-04-19T08:06:05Z</time>
      </trkpt>
      <trkpt lat="44.57739" lon="0.96909">
        <ele>113.09</ele>
        <time>2015-04-19T08:06:17Z</time>
      </trkpt>
      <trkpt lat="44.57762" lon="0.9691">
        <ele>114.05</ele>
        <time>2015-04-19T08:06:31Z</time>
      </trkpt>
      <trkpt lat="44.57773" lon="0.96911">
        <ele>114.05</ele>
        <time>2015-04-19T08:06:37Z</time>
      </trkpt>
      <trkpt lat="44.57794" lon="0.96917">
        <ele>114.05</ele>
        <time>2015-04-19T08:06:49Z</time>
      </trkpt>
      <trkpt lat="44.57802" lon="0.96921">
        <ele>114.05</ele>
        <time>2015-04-19T08:06:54Z</time>
      </trkpt>
      <trkpt lat="44.57817" lon="0.96922">
        <ele>114.05</ele>
        <time>2015-04-19T08:07:04Z</time>
      </trkpt>
      <trkpt lat="44.57821" lon="0.96923">
        <ele>114.05</ele>
        <time>2015-04-19T08:07:07Z</time>
      </trkpt>
      <trkpt lat="44.57842" lon="0.96924">
        <ele>114.53</ele>
        <time>2015-04-19T08:07:19Z</time>
      </trkpt>
      <trkpt lat="44.57866" lon="0.96931">
        <ele>114.53</ele>
        <time>2015-04-19T08:07:32Z</time>
      </trkpt>
      <trkpt lat="44.57888" lon="0.96938">
        <ele>115.01</ele>
        <time>2015-04-19T08:07:45Z</time>
      </trkpt>
      <trkpt lat="44.57913" lon="0.96947">
        <ele>115.5</ele>
        <time>2015-04-19T08:07:59Z</time>
      </trkpt>
      <trkpt lat="44.57929" lon="0.96952">
        <ele>115.98</ele>
        <time>2015-04-19T08:08:09Z</time>
      </trkpt>
      <trkpt lat="44.57942" lon="0.96953">
        <ele>115.98</ele>
        <time>2015-04-19T08:08:17Z</time>
      </trkpt>
      <trkpt lat="44.57952" lon="0.96943">
        <ele>116.46</ele>
        <time>2015-04-19T08:08:26Z</time>
      </trkpt>
      <trkpt lat="44.57974" lon="0.96948">
        <ele>116.94</ele>
        <time>2015-04-19T08:08:41Z</time>
      </trkpt>
      <trkpt lat="44.57977" lon="0.96951">
        <ele>116.94</ele>
        <time>2015-04-19T08:08:44Z</time>
      </trkpt>
      <trkpt lat="44.57984" lon="0.96951">
        <ele>116.94</ele>
        <time>2015-04-19T08:08:49Z</time>
      </trkpt>
      <trkpt lat="44.58002" lon="0.96955">
        <ele>117.42</ele>
        <time>2015-04-19T08:09:02Z</time>
      </trkpt>
      <trkpt lat="44.58003" lon="0.96955">
        <ele>117.42</ele>
        <time>2015-04-19T08:09:03Z</time>
      </trkpt>
      <trkpt lat="44.58017" lon="0.96959">
        <ele>118.38</ele>
        <time>2015-04-19T08:09:14Z</time>
      </trkpt>
      <trkpt lat="44.58033" lon="0.96963">
        <ele>118.86</ele>
        <time>2015-04-19T08:09:24Z</time>
      </trkpt>
      <trkpt lat="44.58036" lon="0.96967">
        <ele>118.86</ele>
        <time>2015-04-19T08:09:28Z</time>
      </trkpt>
      <trkpt lat="44.58056" lon="0.96974">
        <ele>117.9</ele>
        <time>2015-04-19T08:09:41Z</time>
      </trkpt>
      <trkpt lat="44.58057" lon="0.96975">
        <ele>117.42</ele>
        <time>2015-04-19T08:09:42Z</time>
      </trkpt>
      <trkpt lat="44.5808" lon="0.96986">
        <ele>117.9</ele>
        <time>2015-04-19T08:09:55Z</time>
      </trkpt>
      <trkpt lat="44.58087" lon="0.96989">
        <ele>117.9</ele>
        <time>2015-04-19T08:09:59Z</time>
      </trkpt>
      <trkpt lat="44.58093" lon="0.9699">
        <ele>117.9</ele>
        <time>2015-04-19T08:10:03Z</time>
      </trkpt>
      <trkpt lat="44.58112" lon="0.96993">
        <ele>119.34</ele>
        <time>2015-04-19T08:10:17Z</time>
      </trkpt>
      <trkpt lat="44.58118" lon="0.96993">
        <ele>119.34</ele>
        <time>2015-04-19T08:10:21Z</time>
      </trkpt>
      <trkpt lat="44.58136" lon="0.96993">
        <ele>119.82</ele>
        <time>2015-04-19T08:10:32Z</time>
      </trkpt>
      <trkpt lat="44.58147" lon="0.96991">
        <ele>120.3</ele>
        <time>2015-04-19T08:10:39Z</time>
      </trkpt>
      <trkpt lat="44.5816" lon="0.96984">
        <ele>120.3</ele>
        <time>2015-04-19T08:10:48Z</time>
      </trkpt>
      <trkpt lat="44.58181" lon="0.96977">
        <ele>120.78</ele>
        <time>2015-04-19T08:11:00Z</time>
      </trkpt>
      <trkpt lat="44.58189" lon="0.96975">
        <ele>120.78</ele>
        <time>2015-04-19T08:11:06Z</time>
      </trkpt>
      <trkpt lat="44.58213" lon="0.96978">
        <ele>120.78</ele>
        <time>2015-04-19T08:11:19Z</time>
      </trkpt>
      <trkpt lat="44.58229" lon="0.96971">
        <ele>121.26</ele>
        <time>2015-04-19T08:11:28Z</time>
      </trkpt>
      <trkpt lat="44.5825" lon="0.96965">
        <ele>121.74</ele>
        <time>2015-04-19T08:11:42Z</time>
      </trkpt>
      <trkpt lat="44.58267" lon="0.9696">
        <ele>121.74</ele>
        <time>2015-04-19T08:11:54Z</time>
      </trkpt>
      <trkpt lat="44.58283" lon="0.96956">
        <ele>121.74</ele>
        <time>2015-04-19T08:12:06Z</time>
      </trkpt>
      <trkpt lat="44.58304" lon="0.96946">
        <ele>122.22</ele>
        <time>2015-04-19T08:12:19Z</time>
      </trkpt>
      <trkpt lat="44.58316" lon="0.96941">
        <ele>123.19</ele>
        <time>2015-04-19T08:12:27Z</time>
      </trkpt>
      <trkpt lat="44.58319" lon="0.96939">
        <ele>123.67</ele>
        <time>2015-04-19T08:12:29Z</time>
      </trkpt>
      <trkpt lat="44.58326" lon="0.96937">
        <ele>123.67</ele>
        <time>2015-04-19T08:12:34Z</time>
      </trkpt>
      <trkpt lat="44.58346" lon="0.96924">
        <ele>123.67</ele>
        <time>2015-04-19T08:12:48Z</time>
      </trkpt>
      <trkpt lat="44.5835" lon="0.96922">
        <ele>122.22</ele>
        <time>2015-04-19T08:12:51Z</time>
      </trkpt>
      <trkpt lat="44.58356" lon="0.96919">
        <ele>121.26</ele>
        <time>2015-04-19T08:12:55Z</time>
      </trkpt>
      <trkpt lat="44.58378" lon="0.96912">
        <ele>119.82</ele>
        <time>2015-04-19T08:13:06Z</time>
      </trkpt>
      <trkpt lat="44.58399" lon="0.96906">
        <ele>119.82</ele>
        <time>2015-04-19T08:13:18Z</time>
      </trkpt>
      <trkpt lat="44.58419" lon="0.96897">
        <ele>121.26</ele>
        <time>2015-04-19T08:13:30Z</time>
      </trkpt>
      <trkpt lat="44.5842" lon="0.96896">
        <ele>121.26</ele>
        <time>2015-04-19T08:13:31Z</time>
      </trkpt>
      <trkpt lat="44.58432" lon="0.96887">
        <ele>121.74</ele>
        <time>2015-04-19T08:13:40Z</time>
      </trkpt>
      <trkpt lat="44.58447" lon="0.96879">
        <ele>122.71</ele>
        <time>2015-04-19T08:13:53Z</time>
      </trkpt>
      <trkpt lat="44.58464" lon="0.96874">
        <ele>122.71</ele>
        <time>2015-04-19T08:14:07Z</time>
      </trkpt>
      <trkpt lat="44.58482" lon="0.96863">
        <ele>122.71</ele>
        <time>2015-04-19T08:14:20Z</time>
      </trkpt>
      <trkpt lat="44.58487" lon="0.96861">
        <ele>123.19</ele>
        <time>2015-04-19T08:14:24Z</time>
      </trkpt>
      <trkpt lat="44.58489" lon="0.96858">
        <ele>122.71</ele>
        <time>2015-04-19T08:14:26Z</time>
      </trkpt>
      <trkpt lat="44.58516" lon="0.96842">
        <ele>123.67</ele>
        <time>2015-04-19T08:14:40Z</time>
      </trkpt>
      <trkpt lat="44.58532" lon="0.96833">
        <ele>124.15</ele>
        <time>2015-04-19T08:14:51Z</time>
      </trkpt>
      <trkpt lat="44.58559" lon="0.96821">
        <ele>124.15</ele>
        <time>2015-04-19T08:15:04Z</time>
      </trkpt>
      <trkpt lat="44.58572" lon="0.96817">
        <ele>124.15</ele>
        <time>2015-04-19T08:15:12Z</time>
      </trkpt>
      <trkpt lat="44.58583" lon="0.96812">
        <ele>124.15</ele>
        <time>2015-04-19T08:15:18Z</time>
      </trkpt>
      <trkpt lat="44.586" lon="0.96801">
        <ele>124.15</ele>
        <time>2015-04-19T08:15:31Z</time>
      </trkpt>
      <trkpt lat="44.58607" lon="0.96796">
        <ele>124.15</ele>
        <time>2015-04-19T08:15:38Z</time>
      </trkpt>
      <trkpt lat="44.58612" lon="0.96791">
        <ele>124.15</ele>
        <time>2015-04-19T08:15:43Z</time>
      </trkpt>
      <trkpt lat="44.58619" lon="0.96779">
        <ele>123.67</ele>
        <time>2015-04-19T08:15:56Z</time>
      </trkpt>
      <trkpt lat="44.58621" lon="0.96775">
        <ele>123.67</ele>
        <time>2015-04-19T08:16:00Z</time>
      </trkpt>
      <trkpt lat="44.58629" lon="0.96759">
        <ele>123.67</ele>
        <time>2015-04-19T08:16:10Z</time>
      </trkpt>
      <trkpt lat="44.58634" lon="0.96751">
        <ele>123.67</ele>
        <time>2015-04-19T08:16:13Z</time>
      </trkpt>
      <trkpt lat="44.58657" lon="0.96728">
        <ele>124.63</ele>
        <time>2015-04-19T08:16:25Z</time>
      </trkpt>
      <trkpt lat="44.58673" lon="0.96714">
        <ele>125.59</ele>
        <time>2015-04-19T08:16:37Z</time>
      </trkpt>
      <trkpt lat="44.58683" lon="0.96704">
        <ele>126.07</ele>
        <time>2015-04-19T08:16:50Z</time>
      </trkpt>
      <trkpt lat="44.58696" lon="0.9669">
        <ele>126.07</ele>
        <time>2015-04-19T08:17:04Z</time>
      </trkpt>
      <trkpt lat="44.58712" lon="0.96674">
        <ele>126.07</ele>
        <time>2015-04-19T08:17:11Z</time>
      </trkpt>
      <trkpt lat="44.58714" lon="0.9667">
        <ele>126.55</ele>
        <time>2015-04-19T08:17:13Z</time>
      </trkpt>
      <trkpt lat="44.58718" lon="0.96663">
        <ele>126.55</ele>
        <time>2015-04-19T08:17:16Z</time>
      </trkpt>
      <trkpt lat="44.58725" lon="0.96651">
        <ele>127.03</ele>
        <time>2015-04-19T08:17:21Z</time>
      </trkpt>
      <trkpt lat="44.58742" lon="0.9663">
        <ele>127.51</ele>
        <time>2015-04-19T08:17:35Z</time>
      </trkpt>
      <trkpt lat="44.58755" lon="0.9662">
        <ele>127.99</ele>
        <time>2015-04-19T08:17:44Z</time>
      </trkpt>
      <trkpt lat="44.58759" lon="0.96617">
        <ele>127.99</ele>
        <time>2015-04-19T08:17:47Z</time>
      </trkpt>
      <trkpt lat="44.58772" lon="0.96612">
        <ele>128.47</ele>
        <time>2015-04-19T08:17:55Z</time>
      </trkpt>
      <trkpt lat="44.5879" lon="0.96613">
        <ele>128.47</ele>
        <time>2015-04-19T08:18:08Z</time>
      </trkpt>
      <trkpt lat="44.58796" lon="0.96615">
        <ele>128.47</ele>
        <time>2015-04-19T08:18:13Z</time>
      </trkpt>
      <trkpt lat="44.588" lon="0.96616">
        <ele>128.47</ele>
        <time>2015-04-19T08:18:16Z</time>
      </trkpt>
      <trkpt lat="44.58806" lon="0.96616">
        <ele>128.47</ele>
        <time>2015-04-19T08:18:23Z</time>
      </trkpt>
      <trkpt lat="44.58822" lon="0.96613">
        <ele>128.47</ele>
        <time>2015-04-19T08:18:35Z</time>
      </trkpt>
      <trkpt lat="44.58842" lon="0.96611">
        <ele>128.47</ele>
        <time>2015-04-19T08:18:46Z</time>
      </trkpt>
      <trkpt lat="44.58852" lon="0.9661">
        <ele>128.47</ele>
        <time>2015-04-19T08:18:51Z</time>
      </trkpt>
      <trkpt lat="44.58867" lon="0.96617">
        <ele>128.47</ele>
        <time>2015-04-19T08:19:00Z</time>
      </trkpt>
      <trkpt lat="44.58883" lon="0.9662">
        <ele>127.03</ele>
        <time>2015-04-19T08:19:12Z</time>
      </trkpt>
      <trkpt lat="44.589" lon="0.96625">
        <ele>126.55</ele>
        <time>2015-04-19T08:19:23Z</time>
      </trkpt>
      <trkpt lat="44.58905" lon="0.96625">
        <ele>126.55</ele>
        <time>2015-04-19T08:19:27Z</time>
      </trkpt>
      <trkpt lat="44.58922" lon="0.96629">
        <ele>126.55</ele>
        <time>2015-04-19T08:19:41Z</time>
      </trkpt>
      <trkpt lat="44.58934" lon="0.9663">
        <ele>126.55</ele>
        <time>2015-04-19T08:19:50Z</time>
      </trkpt>
      <trkpt lat="44.58942" lon="0.9663">
        <ele>126.55</ele>
        <time>2015-04-19T08:19:55Z</time>
      </trkpt>
      <trkpt lat="44.58961" lon="0.96635">
        <ele>126.55</ele>
        <time>2015-04-19T08:20:06Z</time>
      </trkpt>
      <trkpt lat="44.58985" lon="0.9665">
        <ele>126.55</ele>
        <time>2015-04-19T08:20:19Z</time>
      </trkpt>
      <trkpt lat="44.59004" lon="0.96659">
        <ele>126.07</ele>
        <time>2015-04-19T08:20:33Z</time>
      </trkpt>
      <trkpt lat="44.59025" lon="0.96662">
        <ele>126.07</ele>
        <time>2015-04-19T08:20:44Z</time>
      </trkpt>
      <trkpt lat="44.59046" lon="0.96664">
        <ele>126.07</ele>
        <time>2015-04-19T08:20:56Z</time>
      </trkpt>
      <trkpt lat="44.59066" lon="0.96659">
        <ele>126.07</ele>
        <time>2015-04-19T08:21:08Z</time>
      </trkpt>
      <trkpt lat="44.59082" lon="0.96653">
        <ele>126.07</ele>
        <time>2015-04-19T08:21:19Z</time>
      </trkpt>
      <trkpt lat="44.59103" lon="0.96649">
        <ele>126.55</ele>
        <time>2015-04-19T08:21:31Z</time>
      </trkpt>
      <trkpt lat="44.59121" lon="0.96636">
        <ele>125.59</ele>
        <time>2015-04-19T08:21:44Z</time>
      </trkpt>
      <trkpt lat="44.59139" lon="0.96618">
        <ele>125.59</ele>
        <time>2015-04-19T08:21:59Z</time>
      </trkpt>
      <trkpt lat="44.59157" lon="0.96593">
        <ele>127.03</ele>
        <time>2015-04-19T08:22:14Z</time>
      </trkpt>
      <trkpt lat="44.59164" lon="0.96578">
        <ele>127.99</ele>
        <time>2015-04-19T08:22:23Z</time>
      </trkpt>
      <trkpt lat="44.59165" lon="0.96576">
        <ele>127.51</ele>
        <time>2015-04-19T08:22:24Z</time>
      </trkpt>
      <trkpt lat="44.59166" lon="0.96574">
        <ele>127.51</ele>
        <time>2015-04-19T08:22:25Z</time>
      </trkpt>
      <trkpt lat="44.59166" lon="0.96573">
        <ele>127.51</ele>
        <time>2015-04-19T08:22:26Z</time>
      </trkpt>
      <trkpt lat="44.59167" lon="0.96571">
        <ele>127.99</ele>
        <time>2015-04-19T08:22:27Z</time>
      </trkpt>
      <trkpt lat="44.59168" lon="0.96569">
        <ele>127.99</ele>
        <time>2015-04-19T08:22:28Z</time>
      </trkpt>
      <trkpt lat="44.59168" lon="0.96567">
        <ele>127.99</ele>
        <time>2015-04-19T08:22:29Z</time>
      </trkpt>
      <trkpt lat="44.59168" lon="0.96565">
        <ele>127.99</ele>
        <time>2015-04-19T08:22:30Z</time>
      </trkpt>
      <trkpt lat="44.59169" lon="0.96564">
        <ele>127.99</ele>
        <time>2015-04-19T08:22:31Z</time>
      </trkpt>
      <trkpt lat="44.5917" lon="0.96563">
        <ele>127.99</ele>
        <time>2015-04-19T08:22:32Z</time>
      </trkpt>
      <trkpt lat="44.59173" lon="0.96553">
        <ele>129.43</ele>
        <time>2015-04-19T08:22:39Z</time>
      </trkpt>
      <trkpt lat="44.59174" lon="0.96551">
        <ele>129.43</ele>
        <time>2015-04-19T08:22:40Z</time>
      </trkpt>
      <trkpt lat="44.59174" lon="0.96546">
        <ele>129.92</ele>
        <time>2015-04-19T08:22:44Z</time>
      </trkpt>
      <trkpt lat="44.59175" lon="0.96543">
        <ele>129.92</ele>
        <time>2015-04-19T08:22:46Z</time>
      </trkpt>
      <trkpt lat="44.59179" lon="0.96527">
        <ele>130.88</ele>
        <time>2015-04-19T08:22:58Z</time>
      </trkpt>
      <trkpt lat="44.59184" lon="0.96513">
        <ele>131.84</ele>
        <time>2015-04-19T08:23:10Z</time>
      </trkpt>
      <trkpt lat="44.59184" lon="0.9651">
        <ele>131.84</ele>
        <time>2015-04-19T08:23:12Z</time>
      </trkpt>
      <trkpt lat="44.5919" lon="0.96488">
        <ele>132.8</ele>
        <time>2015-04-19T08:23:22Z</time>
      </trkpt>
      <trkpt lat="44.59191" lon="0.96485">
        <ele>132.8</ele>
        <time>2015-04-19T08:23:23Z</time>
      </trkpt>
      <trkpt lat="44.59192" lon="0.96483">
        <ele>132.8</ele>
        <time>2015-04-19T08:23:24Z</time>
      </trkpt>
      <trkpt lat="44.59193" lon="0.9648">
        <ele>132.8</ele>
        <time>2015-04-19T08:23:25Z</time>
      </trkpt>
      <trkpt lat="44.59195" lon="0.96477">
        <ele>132.8</ele>
        <time>2015-04-19T08:23:26Z</time>
      </trkpt>
      <trkpt lat="44.59196" lon="0.96476">
        <ele>132.8</ele>
        <time>2015-04-19T08:23:27Z</time>
      </trkpt>
      <trkpt lat="44.59197" lon="0.96474">
        <ele>132.8</ele>
        <time>2015-04-19T08:23:28Z</time>
      </trkpt>
      <trkpt lat="44.59198" lon="0.96473">
        <ele>132.8</ele>
        <time>2015-04-19T08:23:29Z</time>
      </trkpt>
      <trkpt lat="44.59199" lon="0.96471">
        <ele>132.8</ele>
        <time>2015-04-19T08:23:30Z</time>
      </trkpt>
      <trkpt lat="44.592" lon="0.96469">
        <ele>132.8</ele>
        <time>2015-04-19T08:23:31Z</time>
      </trkpt>
      <trkpt lat="44.59203" lon="0.96465">
        <ele>132.8</ele>
        <time>2015-04-19T08:23:34Z</time>
      </trkpt>
      <trkpt lat="44.59223" lon="0.96453">
        <ele>131.84</ele>
        <time>2015-04-19T08:23:45Z</time>
      </trkpt>
      <trkpt lat="44.59241" lon="0.9644">
        <ele>130.88</ele>
        <time>2015-04-19T08:23:55Z</time>
      </trkpt>
      <trkpt lat="44.59262" lon="0.96432">
        <ele>129.92</ele>
        <time>2015-04-19T08:24:09Z</time>
      </trkpt>
      <trkpt lat="44.59273" lon="0.96431">
        <ele>129.92</ele>
        <time>2015-04-19T08:24:17Z</time>
      </trkpt>
      <trkpt lat="44.59286" lon="0.9641">
        <ele>129.92</ele>
        <time>2015-04-19T08:24:33Z</time>
      </trkpt>
      <trkpt lat="44.593" lon="0.96386">
        <ele>129.92</ele>
        <time>2015-04-19T08:24:48Z</time>
      </trkpt>
      <trkpt lat="44.59317" lon="0.96362">
        <ele>131.36</ele>
        <time>2015-04-19T08:25:05Z</time>
      </trkpt>
      <trkpt lat="44.59325" lon="0.96354">
        <ele>131.36</ele>
        <time>2015-04-19T08:25:12Z</time>
      </trkpt>
      <trkpt lat="44.59339" lon="0.96334">
        <ele>132.32</ele>
        <time>2015-04-19T08:25:25Z</time>
      </trkpt>
      <trkpt lat="44.59353" lon="0.96317">
        <ele>132.32</ele>
        <time>2015-04-19T08:25:37Z</time>
      </trkpt>
      <trkpt lat="44.59357" lon="0.9631">
        <ele>132.32</ele>
        <time>2015-04-19T08:25:41Z</time>
      </trkpt>
      <trkpt lat="44.5937" lon="0.9629">
        <ele>132.8</ele>
        <time>2015-04-19T08:25:55Z</time>
      </trkpt>
      <trkpt lat="44.59377" lon="0.96266">
        <ele>132.8</ele>
        <time>2015-04-19T08:26:08Z</time>
      </trkpt>
      <trkpt lat="44.59387" lon="0.96229">
        <ele>132.8</ele>
        <time>2015-04-19T08:26:24Z</time>
      </trkpt>
      <trkpt lat="44.59395" lon="0.96195">
        <ele>132.8</ele>
        <time>2015-04-19T08:26:40Z</time>
      </trkpt>
      <trkpt lat="44.59405" lon="0.96168">
        <ele>132.8</ele>
        <time>2015-04-19T08:26:52Z</time>
      </trkpt>
      <trkpt lat="44.59411" lon="0.96164">
        <ele>132.8</ele>
        <time>2015-04-19T08:26:56Z</time>
      </trkpt>
      <trkpt lat="44.5944" lon="0.96166">
        <ele>133.76</ele>
        <time>2015-04-19T08:27:16Z</time>
      </trkpt>
      <trkpt lat="44.59464" lon="0.96165">
        <ele>135.2</ele>
        <time>2015-04-19T08:27:32Z</time>
      </trkpt>
      <trkpt lat="44.59466" lon="0.96164">
        <ele>134.72</ele>
        <time>2015-04-19T08:27:34Z</time>
      </trkpt>
      <trkpt lat="44.59468" lon="0.96154">
        <ele>136.16</ele>
        <time>2015-04-19T08:27:41Z</time>
      </trkpt>
      <trkpt lat="44.59463" lon="0.96146">
        <ele>136.64</ele>
        <time>2015-04-19T08:27:48Z</time>
      </trkpt>
      <trkpt lat="44.59452" lon="0.96143">
        <ele>138.57</ele>
        <time>2015-04-19T08:28:00Z</time>
      </trkpt>
      <trkpt lat="44.59445" lon="0.96141">
        <ele>139.53</ele>
        <time>2015-04-19T08:28:05Z</time>
      </trkpt>
      <trkpt lat="44.59438" lon="0.96135">
        <ele>140.49</ele>
        <time>2015-04-19T08:28:12Z</time>
      </trkpt>
      <trkpt lat="44.59431" lon="0.96129">
        <ele>141.45</ele>
        <time>2015-04-19T08:28:19Z</time>
      </trkpt>
      <trkpt lat="44.59427" lon="0.96118">
        <ele>142.41</ele>
        <time>2015-04-19T08:28:25Z</time>
      </trkpt>
      <trkpt lat="44.59436" lon="0.96095">
        <ele>143.85</ele>
        <time>2015-04-19T08:28:34Z</time>
      </trkpt>
      <trkpt lat="44.59452" lon="0.96093">
        <ele>146.26</ele>
        <time>2015-04-19T08:28:48Z</time>
      </trkpt>
      <trkpt lat="44.59465" lon="0.96086">
        <ele>148.18</ele>
        <time>2015-04-19T08:29:04Z</time>
      </trkpt>
      <trkpt lat="44.59478" lon="0.96086">
        <ele>150.1</ele>
        <time>2015-04-19T08:29:16Z</time>
      </trkpt>
      <trkpt lat="44.59482" lon="0.96086">
        <ele>152.99</ele>
        <time>2015-04-19T08:29:28Z</time>
      </trkpt>
      <trkpt lat="44.59484" lon="0.96086">
        <ele>155.39</ele>
        <time>2015-04-19T08:29:32Z</time>
      </trkpt>
      <trkpt lat="44.59504" lon="0.96085">
        <ele>156.83</ele>
        <time>2015-04-19T08:29:44Z</time>
      </trkpt>
      <trkpt lat="44.59523" lon="0.9608">
        <ele>157.31</ele>
        <time>2015-04-19T08:29:54Z</time>
      </trkpt>
      <trkpt lat="44.59541" lon="0.96081">
        <ele>159.24</ele>
        <time>2015-04-19T08:30:06Z</time>
      </trkpt>
      <trkpt lat="44.59561" lon="0.96072">
        <ele>160.68</ele>
        <time>2015-04-19T08:30:21Z</time>
      </trkpt>
      <trkpt lat="44.59573" lon="0.96061">
        <ele>163.56</ele>
        <time>2015-04-19T08:30:34Z</time>
      </trkpt>
      <trkpt lat="44.59575" lon="0.96057">
        <ele>167.41</ele>
        <time>2015-04-19T08:30:44Z</time>
      </trkpt>
      <trkpt lat="44.59574" lon="0.96052">
        <ele>169.33</ele>
        <time>2015-04-19T08:30:49Z</time>
      </trkpt>
      <trkpt lat="44.59572" lon="0.96039">
        <ele>169.33</ele>
        <time>2015-04-19T08:31:00Z</time>
      </trkpt>
      <trkpt lat="44.59572" lon="0.96026">
        <ele>170.29</ele>
        <time>2015-04-19T08:31:12Z</time>
      </trkpt>
      <trkpt lat="44.59572" lon="0.96026">
        <ele>170.77</ele>
        <time>2015-04-19T08:31:15Z</time>
      </trkpt>
      <trkpt lat="44.59574" lon="0.96">
        <ele>172.21</ele>
        <time>2015-04-19T08:31:26Z</time>
      </trkpt>
      <trkpt lat="44.59575" lon="0.95972">
        <ele>174.14</ele>
        <time>2015-04-19T08:31:40Z</time>
      </trkpt>
      <trkpt lat="44.59572" lon="0.95958">
        <ele>176.54</ele>
        <time>2015-04-19T08:31:54Z</time>
      </trkpt>
      <trkpt lat="44.59573" lon="0.95933">
        <ele>177.5</ele>
        <time>2015-04-19T08:32:04Z</time>
      </trkpt>
      <trkpt lat="44.59574" lon="0.95916">
        <ele>178.94</ele>
        <time>2015-04-19T08:32:11Z</time>
      </trkpt>
      <trkpt lat="44.59574" lon="0.95888">
        <ele>179.9</ele>
        <time>2015-04-19T08:32:23Z</time>
      </trkpt>
      <trkpt lat="44.59571" lon="0.95865">
        <ele>181.35</ele>
        <time>2015-04-19T08:32:34Z</time>
      </trkpt>
      <trkpt lat="44.59575" lon="0.95854">
        <ele>182.79</ele>
        <time>2015-04-19T08:32:45Z</time>
      </trkpt>
      <trkpt lat="44.59579" lon="0.95825">
        <ele>184.23</ele>
        <time>2015-04-19T08:32:59Z</time>
      </trkpt>
      <trkpt lat="44.59587" lon="0.95798">
        <ele>186.15</ele>
        <time>2015-04-19T08:33:12Z</time>
      </trkpt>
      <trkpt lat="44.59591" lon="0.95786">
        <ele>188.08</ele>
        <time>2015-04-19T08:33:23Z</time>
      </trkpt>
      <trkpt lat="44.59594" lon="0.95776">
        <ele>189.04</ele>
        <time>2015-04-19T08:33:33Z</time>
      </trkpt>
      <trkpt lat="44.59603" lon="0.95748">
        <ele>190.48</ele>
        <time>2015-04-19T08:33:45Z</time>
      </trkpt>
      <trkpt lat="44.59606" lon="0.95722">
        <ele>192.4</ele>
        <time>2015-04-19T08:33:57Z</time>
      </trkpt>
      <trkpt lat="44.59609" lon="0.9571">
        <ele>194.32</ele>
        <time>2015-04-19T08:34:08Z</time>
      </trkpt>
      <trkpt lat="44.59608" lon="0.95696">
        <ele>194.8</ele>
        <time>2015-04-19T08:34:15Z</time>
      </trkpt>
      <trkpt lat="44.596" lon="0.95671">
        <ele>196.25</ele>
        <time>2015-04-19T08:34:29Z</time>
      </trkpt>
      <trkpt lat="44.59601" lon="0.95662">
        <ele>197.21</ele>
        <time>2015-04-19T08:34:35Z</time>
      </trkpt>
      <trkpt lat="44.5959" lon="0.95639">
        <ele>199.13</ele>
        <time>2015-04-19T08:34:48Z</time>
      </trkpt>
      <trkpt lat="44.59581" lon="0.95619">
        <ele>200.09</ele>
        <time>2015-04-19T08:35:00Z</time>
      </trkpt>
      <trkpt lat="44.59571" lon="0.95595">
        <ele>201.05</ele>
        <time>2015-04-19T08:35:11Z</time>
      </trkpt>
      <trkpt lat="44.59566" lon="0.9559">
        <ele>201.53</ele>
        <time>2015-04-19T08:35:15Z</time>
      </trkpt>
      <trkpt lat="44.59562" lon="0.95567">
        <ele>203.46</ele>
        <time>2015-04-19T08:35:29Z</time>
      </trkpt>
      <trkpt lat="44.5956" lon="0.95562">
        <ele>204.9</ele>
        <time>2015-04-19T08:35:38Z</time>
      </trkpt>
      <trkpt lat="44.59561" lon="0.95544">
        <ele>206.82</ele>
        <time>2015-04-19T08:35:49Z</time>
      </trkpt>
      <trkpt lat="44.59557" lon="0.95516">
        <ele>208.74</ele>
        <time>2015-04-19T08:36:01Z</time>
      </trkpt>
      <trkpt lat="44.59556" lon="0.95511">
        <ele>209.22</ele>
        <time>2015-04-19T08:36:06Z</time>
      </trkpt>
      <trkpt lat="44.59564" lon="0.95479">
        <ele>211.63</ele>
        <time>2015-04-19T08:36:20Z</time>
      </trkpt>
      <trkpt lat="44.59567" lon="0.95465">
        <ele>213.55</ele>
        <time>2015-04-19T08:36:34Z</time>
      </trkpt>
      <trkpt lat="44.59569" lon="0.95445">
        <ele>215.47</ele>
        <time>2015-04-19T08:36:46Z</time>
      </trkpt>
      <trkpt lat="44.59569" lon="0.9542">
        <ele>217.4</ele>
        <time>2015-04-19T08:36:59Z</time>
      </trkpt>
      <trkpt lat="44.59571" lon="0.95393">
        <ele>218.84</ele>
        <time>2015-04-19T08:37:13Z</time>
      </trkpt>
      <trkpt lat="44.59573" lon="0.95371">
        <ele>220.28</ele>
        <time>2015-04-19T08:37:25Z</time>
      </trkpt>
      <trkpt lat="44.59575" lon="0.95353">
        <ele>221.72</ele>
        <time>2015-04-19T08:37:38Z</time>
      </trkpt>
      <trkpt lat="44.59575" lon="0.95334">
        <ele>224.12</ele>
        <time>2015-04-19T08:37:52Z</time>
      </trkpt>
      <trkpt lat="44.59571" lon="0.95313">
        <ele>226.05</ele>
        <time>2015-04-19T08:38:04Z</time>
      </trkpt>
      <trkpt lat="44.59571" lon="0.95284">
        <ele>227.49</ele>
        <time>2015-04-19T08:38:17Z</time>
      </trkpt>
      <trkpt lat="44.59573" lon="0.95251">
        <ele>228.45</ele>
        <time>2015-04-19T08:38:31Z</time>
      </trkpt>
      <trkpt lat="44.59581" lon="0.95206">
        <ele>229.41</ele>
        <time>2015-04-19T08:38:44Z</time>
      </trkpt>
      <trkpt lat="44.59582" lon="0.95194">
        <ele>230.85</ele>
        <time>2015-04-19T08:38:54Z</time>
      </trkpt>
      <trkpt lat="44.59586" lon="0.95189">
        <ele>231.33</ele>
        <time>2015-04-19T08:38:57Z</time>
      </trkpt>
      <trkpt lat="44.59591" lon="0.9518">
        <ele>231.81</ele>
        <time>2015-04-19T08:39:03Z</time>
      </trkpt>
      <trkpt lat="44.59605" lon="0.9515">
        <ele>233.26</ele>
        <time>2015-04-19T08:39:20Z</time>
      </trkpt>
      <trkpt lat="44.59615" lon="0.95129">
        <ele>234.22</ele>
        <time>2015-04-19T08:39:34Z</time>
      </trkpt>
      <trkpt lat="44.59626" lon="0.95113">
        <ele>234.7</ele>
        <time>2015-04-19T08:39:47Z</time>
      </trkpt>
      <trkpt lat="44.59627" lon="0.95111">
        <ele>234.7</ele>
        <time>2015-04-19T08:39:48Z</time>
      </trkpt>
      <trkpt lat="44.59645" lon="0.95099">
        <ele>235.66</ele>
        <time>2015-04-19T08:40:02Z</time>
      </trkpt>
      <trkpt lat="44.59666" lon="0.95079">
        <ele>237.58</ele>
        <time>2015-04-19T08:40:17Z</time>
      </trkpt>
      <trkpt lat="44.59656" lon="0.9507">
        <ele>238.06</ele>
        <time>2015-04-19T08:40:31Z</time>
      </trkpt>
      <trkpt lat="44.59646" lon="0.95044">
        <ele>238.54</ele>
        <time>2015-04-19T08:40:46Z</time>
      </trkpt>
      <trkpt lat="44.59654" lon="0.9501">
        <ele>237.1</ele>
        <time>2015-04-19T08:41:01Z</time>
      </trkpt>
      <trkpt lat="44.59667" lon="0.94998">
        <ele>237.1</ele>
        <time>2015-04-19T08:41:12Z</time>
      </trkpt>
      <trkpt lat="44.59672" lon="0.94999">
        <ele>238.54</ele>
        <time>2015-04-19T08:41:16Z</time>
      </trkpt>
      <trkpt lat="44.59693" lon="0.94999">
        <ele>240.95</ele>
        <time>2015-04-19T08:41:32Z</time>
      </trkpt>
      <trkpt lat="44.59696" lon="0.94996">
        <ele>241.43</ele>
        <time>2015-04-19T08:41:35Z</time>
      </trkpt>
      <trkpt lat="44.59702" lon="0.94974">
        <ele>242.87</ele>
        <time>2015-04-19T08:41:50Z</time>
      </trkpt>
      <trkpt lat="44.59709" lon="0.94954">
        <ele>245.27</ele>
        <time>2015-04-19T08:42:04Z</time>
      </trkpt>
      <trkpt lat="44.5971" lon="0.94949">
        <ele>245.75</ele>
        <time>2015-04-19T08:42:09Z</time>
      </trkpt>
      <trkpt lat="44.59712" lon="0.94946">
        <ele>245.27</ele>
        <time>2015-04-19T08:42:11Z</time>
      </trkpt>
      <trkpt lat="44.59719" lon="0.94922">
        <ele>246.72</ele>
        <time>2015-04-19T08:42:25Z</time>
      </trkpt>
      <trkpt lat="44.59719" lon="0.94921">
        <ele>247.2</ele>
        <time>2015-04-19T08:42:26Z</time>
      </trkpt>
      <trkpt lat="44.59729" lon="0.94898">
        <ele>247.68</ele>
        <time>2015-04-19T08:42:41Z</time>
      </trkpt>
      <trkpt lat="44.5974" lon="0.94881">
        <ele>247.68</ele>
        <time>2015-04-19T08:42:51Z</time>
      </trkpt>
      <trkpt lat="44.59751" lon="0.94866">
        <ele>247.68</ele>
        <time>2015-04-19T08:43:01Z</time>
      </trkpt>
      <trkpt lat="44.59755" lon="0.94862">
        <ele>247.68</ele>
        <time>2015-04-19T08:43:04Z</time>
      </trkpt>
      <trkpt lat="44.59757" lon="0.94861">
        <ele>247.68</ele>
        <time>2015-04-19T08:43:05Z</time>
      </trkpt>
      <trkpt lat="44.59758" lon="0.94859">
        <ele>247.68</ele>
        <time>2015-04-19T08:43:06Z</time>
      </trkpt>
      <trkpt lat="44.59759" lon="0.94857">
        <ele>247.68</ele>
        <time>2015-04-19T08:43:07Z</time>
      </trkpt>
      <trkpt lat="44.59771" lon="0.94843">
        <ele>247.68</ele>
        <time>2015-04-19T08:43:16Z</time>
      </trkpt>
      <trkpt lat="44.59784" lon="0.94827">
        <ele>246.23</ele>
        <time>2015-04-19T08:43:28Z</time>
      </trkpt>
      <trkpt lat="44.59785" lon="0.94825">
        <ele>246.23</ele>
        <time>2015-04-19T08:43:30Z</time>
      </trkpt>
      <trkpt lat="44.59786" lon="0.94823">
        <ele>246.23</ele>
        <time>2015-04-19T08:43:31Z</time>
      </trkpt>
      <trkpt lat="44.59787" lon="0.9482">
        <ele>246.23</ele>
        <time>2015-04-19T08:43:32Z</time>
      </trkpt>
      <trkpt lat="44.59803" lon="0.94789">
        <ele>244.79</ele>
        <time>2015-04-19T08:43:46Z</time>
      </trkpt>
      <trkpt lat="44.59818" lon="0.9476">
        <ele>243.83</ele>
        <time>2015-04-19T08:43:59Z</time>
      </trkpt>
      <trkpt lat="44.59825" lon="0.94746">
        <ele>243.35</ele>
        <time>2015-04-19T08:44:07Z</time>
      </trkpt>
      <trkpt lat="44.59834" lon="0.94721">
        <ele>242.39</ele>
        <time>2015-04-19T08:44:20Z</time>
      </trkpt>
      <trkpt lat="44.59839" lon="0.94705">
        <ele>242.39</ele>
        <time>2015-04-19T08:44:27Z</time>
      </trkpt>
      <trkpt lat="44.5984" lon="0.94702">
        <ele>242.39</ele>
        <time>2015-04-19T08:44:28Z</time>
      </trkpt>
      <trkpt lat="44.59841" lon="0.94698">
        <ele>242.39</ele>
        <time>2015-04-19T08:44:29Z</time>
      </trkpt>
      <trkpt lat="44.59842" lon="0.94696">
        <ele>241.43</ele>
        <time>2015-04-19T08:44:30Z</time>
      </trkpt>
      <trkpt lat="44.59843" lon="0.94693">
        <ele>241.91</ele>
        <time>2015-04-19T08:44:31Z</time>
      </trkpt>
      <trkpt lat="44.59844" lon="0.94689">
        <ele>241.91</ele>
        <time>2015-04-19T08:44:32Z</time>
      </trkpt>
      <trkpt lat="44.59845" lon="0.94687">
        <ele>241.91</ele>
        <time>2015-04-19T08:44:33Z</time>
      </trkpt>
      <trkpt lat="44.59858" lon="0.94657">
        <ele>240.47</ele>
        <time>2015-04-19T08:44:43Z</time>
      </trkpt>
      <trkpt lat="44.59876" lon="0.94624">
        <ele>239.51</ele>
        <time>2015-04-19T08:44:55Z</time>
      </trkpt>
      <trkpt lat="44.59886" lon="0.94594">
        <ele>239.02</ele>
        <time>2015-04-19T08:45:06Z</time>
      </trkpt>
      <trkpt lat="44.59892" lon="0.9457">
        <ele>239.02</ele>
        <time>2015-04-19T08:45:15Z</time>
      </trkpt>
      <trkpt lat="44.59893" lon="0.94562">
        <ele>239.02</ele>
        <time>2015-04-19T08:45:18Z</time>
      </trkpt>
      <trkpt lat="44.59894" lon="0.94559">
        <ele>239.02</ele>
        <time>2015-04-19T08:45:19Z</time>
      </trkpt>
      <trkpt lat="44.59894" lon="0.94557">
        <ele>239.02</ele>
        <time>2015-04-19T08:45:20Z</time>
      </trkpt>
      <trkpt lat="44.59894" lon="0.94555">
        <ele>239.02</ele>
        <time>2015-04-19T08:45:21Z</time>
      </trkpt>
      <trkpt lat="44.59895" lon="0.94546">
        <ele>239.02</ele>
        <time>2015-04-19T08:45:26Z</time>
      </trkpt>
      <trkpt lat="44.59895" lon="0.94542">
        <ele>239.02</ele>
        <time>2015-04-19T08:45:28Z</time>
      </trkpt>
      <trkpt lat="44.59896" lon="0.94538">
        <ele>239.02</ele>
        <time>2015-04-19T08:45:30Z</time>
      </trkpt>
      <trkpt lat="44.59897" lon="0.94536">
        <ele>239.02</ele>
        <time>2015-04-19T08:45:31Z</time>
      </trkpt>
      <trkpt lat="44.59906" lon="0.94513">
        <ele>239.02</ele>
        <time>2015-04-19T08:45:45Z</time>
      </trkpt>
      <trkpt lat="44.59908" lon="0.94507">
        <ele>239.02</ele>
        <time>2015-04-19T08:45:49Z</time>
      </trkpt>
      <trkpt lat="44.59908" lon="0.94505">
        <ele>239.02</ele>
        <time>2015-04-19T08:45:50Z</time>
      </trkpt>
      <trkpt lat="44.59909" lon="0.94492">
        <ele>239.02</ele>
        <time>2015-04-19T08:45:56Z</time>
      </trkpt>
      <trkpt lat="44.5991" lon="0.94487">
        <ele>239.02</ele>
        <time>2015-04-19T08:45:59Z</time>
      </trkpt>
      <trkpt lat="44.5991" lon="0.94485">
        <ele>239.02</ele>
        <time>2015-04-19T08:46:00Z</time>
      </trkpt>
      <trkpt lat="44.59908" lon="0.9447">
        <ele>239.02</ele>
        <time>2015-04-19T08:46:08Z</time>
      </trkpt>
      <trkpt lat="44.59908" lon="0.94464">
        <ele>239.02</ele>
        <time>2015-04-19T08:46:11Z</time>
      </trkpt>
      <trkpt lat="44.59908" lon="0.94461">
        <ele>239.02</ele>
        <time>2015-04-19T08:46:12Z</time>
      </trkpt>
      <trkpt lat="44.59908" lon="0.94456">
        <ele>239.02</ele>
        <time>2015-04-19T08:46:14Z</time>
      </trkpt>
      <trkpt lat="44.59909" lon="0.94454">
        <ele>239.02</ele>
        <time>2015-04-19T08:46:15Z</time>
      </trkpt>
      <trkpt lat="44.59909" lon="0.94452">
        <ele>239.02</ele>
        <time>2015-04-19T08:46:16Z</time>
      </trkpt>
      <trkpt lat="44.5991" lon="0.94446">
        <ele>239.02</ele>
        <time>2015-04-19T08:46:19Z</time>
      </trkpt>
      <trkpt lat="44.5991" lon="0.94444">
        <ele>239.02</ele>
        <time>2015-04-19T08:46:20Z</time>
      </trkpt>
      <trkpt lat="44.59911" lon="0.9442">
        <ele>239.02</ele>
        <time>2015-04-19T08:46:32Z</time>
      </trkpt>
      <trkpt lat="44.59913" lon="0.94397">
        <ele>240.47</ele>
        <time>2015-04-19T08:46:43Z</time>
      </trkpt>
      <trkpt lat="44.59914" lon="0.94395">
        <ele>240.47</ele>
        <time>2015-04-19T08:46:44Z</time>
      </trkpt>
      <trkpt lat="44.59916" lon="0.94387">
        <ele>240.47</ele>
        <time>2015-04-19T08:46:48Z</time>
      </trkpt>
      <trkpt lat="44.59916" lon="0.94384">
        <ele>240.47</ele>
        <time>2015-04-19T08:46:49Z</time>
      </trkpt>
      <trkpt lat="44.59917" lon="0.94381">
        <ele>240.47</ele>
        <time>2015-04-19T08:46:50Z</time>
      </trkpt>
      <trkpt lat="44.59918" lon="0.94371">
        <ele>240.47</ele>
        <time>2015-04-19T08:46:54Z</time>
      </trkpt>
      <trkpt lat="44.59919" lon="0.94369">
        <ele>240.47</ele>
        <time>2015-04-19T08:46:55Z</time>
      </trkpt>
      <trkpt lat="44.59928" lon="0.94342">
        <ele>240.95</ele>
        <time>2015-04-19T08:47:08Z</time>
      </trkpt>
      <trkpt lat="44.59934" lon="0.94323">
        <ele>241.91</ele>
        <time>2015-04-19T08:47:20Z</time>
      </trkpt>
      <trkpt lat="44.59936" lon="0.94316">
        <ele>241.91</ele>
        <time>2015-04-19T08:47:24Z</time>
      </trkpt>
      <trkpt lat="44.59936" lon="0.94314">
        <ele>241.91</ele>
        <time>2015-04-19T08:47:25Z</time>
      </trkpt>
      <trkpt lat="44.59937" lon="0.94308">
        <ele>242.39</ele>
        <time>2015-04-19T08:47:28Z</time>
      </trkpt>
      <trkpt lat="44.59938" lon="0.94306">
        <ele>242.39</ele>
        <time>2015-04-19T08:47:29Z</time>
      </trkpt>
      <trkpt lat="44.59939" lon="0.94304">
        <ele>242.39</ele>
        <time>2015-04-19T08:47:30Z</time>
      </trkpt>
      <trkpt lat="44.59939" lon="0.94302">
        <ele>242.39</ele>
        <time>2015-04-19T08:47:31Z</time>
      </trkpt>
      <trkpt lat="44.59939" lon="0.94299">
        <ele>242.39</ele>
        <time>2015-04-19T08:47:32Z</time>
      </trkpt>
      <trkpt lat="44.59945" lon="0.94284">
        <ele>242.39</ele>
        <time>2015-04-19T08:47:40Z</time>
      </trkpt>
      <trkpt lat="44.59954" lon="0.94264">
        <ele>243.35</ele>
        <time>2015-04-19T08:47:52Z</time>
      </trkpt>
      <trkpt lat="44.59958" lon="0.94259">
        <ele>243.83</ele>
        <time>2015-04-19T08:48:01Z</time>
      </trkpt>
      <trkpt lat="44.59967" lon="0.94239">
        <ele>244.79</ele>
        <time>2015-04-19T08:48:14Z</time>
      </trkpt>
      <trkpt lat="44.5997" lon="0.94225">
        <ele>245.27</ele>
        <time>2015-04-19T08:48:21Z</time>
      </trkpt>
      <trkpt lat="44.59969" lon="0.94223">
        <ele>245.75</ele>
        <time>2015-04-19T08:48:22Z</time>
      </trkpt>
      <trkpt lat="44.59969" lon="0.94218">
        <ele>245.75</ele>
        <time>2015-04-19T08:48:24Z</time>
      </trkpt>
      <trkpt lat="44.59974" lon="0.94195">
        <ele>246.72</ele>
        <time>2015-04-19T08:48:35Z</time>
      </trkpt>
      <trkpt lat="44.59979" lon="0.94162">
        <ele>248.64</ele>
        <time>2015-04-19T08:48:48Z</time>
      </trkpt>
      <trkpt lat="44.59982" lon="0.94135">
        <ele>249.12</ele>
        <time>2015-04-19T08:48:59Z</time>
      </trkpt>
      <trkpt lat="44.59984" lon="0.94129">
        <ele>249.12</ele>
        <time>2015-04-19T08:49:02Z</time>
      </trkpt>
      <trkpt lat="44.59984" lon="0.94126">
        <ele>249.12</ele>
        <time>2015-04-19T08:49:03Z</time>
      </trkpt>
      <trkpt lat="44.59984" lon="0.94123">
        <ele>249.6</ele>
        <time>2015-04-19T08:49:04Z</time>
      </trkpt>
      <trkpt lat="44.59984" lon="0.94114">
        <ele>249.6</ele>
        <time>2015-04-19T08:49:07Z</time>
      </trkpt>
      <trkpt lat="44.59984" lon="0.94112">
        <ele>249.6</ele>
        <time>2015-04-19T08:49:08Z</time>
      </trkpt>
      <trkpt lat="44.59985" lon="0.94087">
        <ele>249.6</ele>
        <time>2015-04-19T08:49:19Z</time>
      </trkpt>
      <trkpt lat="44.59986" lon="0.94086">
        <ele>249.6</ele>
        <time>2015-04-19T08:49:21Z</time>
      </trkpt>
      <trkpt lat="44.59987" lon="0.94084">
        <ele>249.6</ele>
        <time>2015-04-19T08:49:22Z</time>
      </trkpt>
      <trkpt lat="44.59988" lon="0.94082">
        <ele>249.6</ele>
        <time>2015-04-19T08:49:23Z</time>
      </trkpt>
      <trkpt lat="44.59989" lon="0.9408">
        <ele>249.6</ele>
        <time>2015-04-19T08:49:24Z</time>
      </trkpt>
      <trkpt lat="44.60001" lon="0.9405">
        <ele>249.6</ele>
        <time>2015-04-19T08:49:35Z</time>
      </trkpt>
      <trkpt lat="44.60015" lon="0.9403">
        <ele>249.6</ele>
        <time>2015-04-19T08:49:48Z</time>
      </trkpt>
      <trkpt lat="44.60026" lon="0.9401">
        <ele>249.6</ele>
        <time>2015-04-19T08:50:00Z</time>
      </trkpt>
      <trkpt lat="44.60033" lon="0.94">
        <ele>249.6</ele>
        <time>2015-04-19T08:50:12Z</time>
      </trkpt>
      <trkpt lat="44.60042" lon="0.93981">
        <ele>249.6</ele>
        <time>2015-04-19T08:50:24Z</time>
      </trkpt>
      <trkpt lat="44.60054" lon="0.93953">
        <ele>248.64</ele>
        <time>2015-04-19T08:50:39Z</time>
      </trkpt>
      <trkpt lat="44.6006" lon="0.93937">
        <ele>248.64</ele>
        <time>2015-04-19T08:50:50Z</time>
      </trkpt>
      <trkpt lat="44.60062" lon="0.93934">
        <ele>248.64</ele>
        <time>2015-04-19T08:50:51Z</time>
      </trkpt>
      <trkpt lat="44.60069" lon="0.93918">
        <ele>249.12</ele>
        <time>2015-04-19T08:51:00Z</time>
      </trkpt>
      <trkpt lat="44.60071" lon="0.93915">
        <ele>249.12</ele>
        <time>2015-04-19T08:51:03Z</time>
      </trkpt>
      <trkpt lat="44.60074" lon="0.93909">
        <ele>249.12</ele>
        <time>2015-04-19T08:51:06Z</time>
      </trkpt>
      <trkpt lat="44.60082" lon="0.9389">
        <ele>249.12</ele>
        <time>2015-04-19T08:51:15Z</time>
      </trkpt>
      <trkpt lat="44.60092" lon="0.93872">
        <ele>249.12</ele>
        <time>2015-04-19T08:51:28Z</time>
      </trkpt>
      <trkpt lat="44.60099" lon="0.93853">
        <ele>249.12</ele>
        <time>2015-04-19T08:51:37Z</time>
      </trkpt>
      <trkpt lat="44.60114" lon="0.93832">
        <ele>249.6</ele>
        <time>2015-04-19T08:51:50Z</time>
      </trkpt>
      <trkpt lat="44.60116" lon="0.93829">
        <ele>250.56</ele>
        <time>2015-04-19T08:51:52Z</time>
      </trkpt>
      <trkpt lat="44.60123" lon="0.93814">
        <ele>251.52</ele>
        <time>2015-04-19T08:52:03Z</time>
      </trkpt>
      <trkpt lat="44.60131" lon="0.93803">
        <ele>252.48</ele>
        <time>2015-04-19T08:52:16Z</time>
      </trkpt>
      <trkpt lat="44.6014" lon="0.93788">
        <ele>253.44</ele>
        <time>2015-04-19T08:52:27Z</time>
      </trkpt>
      <trkpt lat="44.60152" lon="0.93767">
        <ele>255.37</ele>
        <time>2015-04-19T08:52:39Z</time>
      </trkpt>
      <trkpt lat="44.60165" lon="0.9373">
        <ele>257.29</ele>
        <time>2015-04-19T08:52:52Z</time>
      </trkpt>
      <trkpt lat="44.60172" lon="0.93713">
        <ele>258.73</ele>
        <time>2015-04-19T08:53:04Z</time>
      </trkpt>
      <trkpt lat="44.60179" lon="0.937">
        <ele>260.65</ele>
        <time>2015-04-19T08:53:14Z</time>
      </trkpt>
      <trkpt lat="44.60187" lon="0.93677">
        <ele>262.58</ele>
        <time>2015-04-19T08:53:30Z</time>
      </trkpt>
      <trkpt lat="44.60197" lon="0.93659">
        <ele>264.5</ele>
        <time>2015-04-19T08:53:42Z</time>
      </trkpt>
      <trkpt lat="44.60207" lon="0.93651">
        <ele>264.98</ele>
        <time>2015-04-19T08:53:47Z</time>
      </trkpt>
      <trkpt lat="44.60227" lon="0.9365">
        <ele>266.9</ele>
        <time>2015-04-19T08:54:01Z</time>
      </trkpt>
      <trkpt lat="44.60231" lon="0.93654">
        <ele>266.9</ele>
        <time>2015-04-19T08:54:04Z</time>
      </trkpt>
      <trkpt lat="44.60239" lon="0.93658">
        <ele>266.9</ele>
        <time>2015-04-19T08:54:09Z</time>
      </trkpt>
      <trkpt lat="44.60241" lon="0.93659">
        <ele>266.9</ele>
        <time>2015-04-19T08:54:10Z</time>
      </trkpt>
      <trkpt lat="44.60243" lon="0.9366">
        <ele>266.9</ele>
        <time>2015-04-19T08:54:11Z</time>
      </trkpt>
      <trkpt lat="44.60246" lon="0.93661">
        <ele>266.9</ele>
        <time>2015-04-19T08:54:12Z</time>
      </trkpt>
      <trkpt lat="44.60247" lon="0.93662">
        <ele>266.9</ele>
        <time>2015-04-19T08:54:13Z</time>
      </trkpt>
      <trkpt lat="44.60249" lon="0.93663">
        <ele>266.9</ele>
        <time>2015-04-19T08:54:14Z</time>
      </trkpt>
      <trkpt lat="44.60251" lon="0.93665">
        <ele>266.9</ele>
        <time>2015-04-19T08:54:15Z</time>
      </trkpt>
      <trkpt lat="44.60254" lon="0.93666">
        <ele>266.9</ele>
        <time>2015-04-19T08:54:16Z</time>
      </trkpt>
      <trkpt lat="44.60256" lon="0.93667">
        <ele>266.9</ele>
        <time>2015-04-19T08:54:17Z</time>
      </trkpt>
      <trkpt lat="44.60258" lon="0.93669">
        <ele>266.9</ele>
        <time>2015-04-19T08:54:18Z</time>
      </trkpt>
      <trkpt lat="44.6026" lon="0.9367">
        <ele>266.9</ele>
        <time>2015-04-19T08:54:19Z</time>
      </trkpt>
      <trkpt lat="44.60263" lon="0.93671">
        <ele>266.9</ele>
        <time>2015-04-19T08:54:20Z</time>
      </trkpt>
      <trkpt lat="44.60264" lon="0.93673">
        <ele>266.9</ele>
        <time>2015-04-19T08:54:21Z</time>
      </trkpt>
      <trkpt lat="44.60266" lon="0.93675">
        <ele>266.9</ele>
        <time>2015-04-19T08:54:22Z</time>
      </trkpt>
      <trkpt lat="44.60269" lon="0.93676">
        <ele>266.9</ele>
        <time>2015-04-19T08:54:23Z</time>
      </trkpt>
      <trkpt lat="44.60271" lon="0.93677">
        <ele>266.9</ele>
        <time>2015-04-19T08:54:24Z</time>
      </trkpt>
      <trkpt lat="44.60273" lon="0.93678">
        <ele>266.9</ele>
        <time>2015-04-19T08:54:25Z</time>
      </trkpt>
      <trkpt lat="44.60275" lon="0.9368">
        <ele>266.9</ele>
        <time>2015-04-19T08:54:26Z</time>
      </trkpt>
      <trkpt lat="44.60278" lon="0.93681">
        <ele>266.9</ele>
        <time>2015-04-19T08:54:27Z</time>
      </trkpt>
      <trkpt lat="44.6028" lon="0.93682">
        <ele>266.9</ele>
        <time>2015-04-19T08:54:28Z</time>
      </trkpt>
      <trkpt lat="44.60282" lon="0.93685">
        <ele>265.94</ele>
        <time>2015-04-19T08:54:29Z</time>
      </trkpt>
      <trkpt lat="44.60303" lon="0.937">
        <ele>264.98</ele>
        <time>2015-04-19T08:54:38Z</time>
      </trkpt>
      <trkpt lat="44.60323" lon="0.93715">
        <ele>264.02</ele>
        <time>2015-04-19T08:54:47Z</time>
      </trkpt>
      <trkpt lat="44.60326" lon="0.93717">
        <ele>263.54</ele>
        <time>2015-04-19T08:54:48Z</time>
      </trkpt>
      <trkpt lat="44.60354" lon="0.93736">
        <ele>262.58</ele>
        <time>2015-04-19T08:54:59Z</time>
      </trkpt>
      <trkpt lat="44.60362" lon="0.93744">
        <ele>261.14</ele>
        <time>2015-04-19T08:55:03Z</time>
      </trkpt>
      <trkpt lat="44.60364" lon="0.93746">
        <ele>261.14</ele>
        <time>2015-04-19T08:55:04Z</time>
      </trkpt>
      <trkpt lat="44.60367" lon="0.93747">
        <ele>261.14</ele>
        <time>2015-04-19T08:55:05Z</time>
      </trkpt>
      <trkpt lat="44.60369" lon="0.93749">
        <ele>261.14</ele>
        <time>2015-04-19T08:55:06Z</time>
      </trkpt>
      <trkpt lat="44.60371" lon="0.93751">
        <ele>260.65</ele>
        <time>2015-04-19T08:55:07Z</time>
      </trkpt>
      <trkpt lat="44.60374" lon="0.93752">
        <ele>260.65</ele>
        <time>2015-04-19T08:55:08Z</time>
      </trkpt>
      <trkpt lat="44.60376" lon="0.93753">
        <ele>260.65</ele>
        <time>2015-04-19T08:55:09Z</time>
      </trkpt>
      <trkpt lat="44.60379" lon="0.93755">
        <ele>260.65</ele>
        <time>2015-04-19T08:55:10Z</time>
      </trkpt>
      <trkpt lat="44.60381" lon="0.93757">
        <ele>260.65</ele>
        <time>2015-04-19T08:55:11Z</time>
      </trkpt>
      <trkpt lat="44.60384" lon="0.93759">
        <ele>260.17</ele>
        <time>2015-04-19T08:55:12Z</time>
      </trkpt>
      <trkpt lat="44.60385" lon="0.93761">
        <ele>260.17</ele>
        <time>2015-04-19T08:55:13Z</time>
      </trkpt>
      <trkpt lat="44.60388" lon="0.93762">
        <ele>260.17</ele>
        <time>2015-04-19T08:55:14Z</time>
      </trkpt>
      <trkpt lat="44.60406" lon="0.93778">
        <ele>259.21</ele>
        <time>2015-04-19T08:55:26Z</time>
      </trkpt>
      <trkpt lat="44.60425" lon="0.93788">
        <ele>258.25</ele>
        <time>2015-04-19T08:55:38Z</time>
      </trkpt>
      <trkpt lat="44.60448" lon="0.938">
        <ele>256.81</ele>
        <time>2015-04-19T08:55:54Z</time>
      </trkpt>
      <trkpt lat="44.60469" lon="0.93809">
        <ele>255.85</ele>
        <time>2015-04-19T08:56:08Z</time>
      </trkpt>
      <trkpt lat="44.60488" lon="0.93819">
        <ele>255.37</ele>
        <time>2015-04-19T08:56:20Z</time>
      </trkpt>
      <trkpt lat="44.6049" lon="0.9382">
        <ele>254.41</ele>
        <time>2015-04-19T08:56:21Z</time>
      </trkpt>
      <trkpt lat="44.60494" lon="0.93821">
        <ele>254.89</ele>
        <time>2015-04-19T08:56:24Z</time>
      </trkpt>
      <trkpt lat="44.60496" lon="0.93822">
        <ele>254.89</ele>
        <time>2015-04-19T08:56:25Z</time>
      </trkpt>
      <trkpt lat="44.60497" lon="0.93822">
        <ele>254.89</ele>
        <time>2015-04-19T08:56:26Z</time>
      </trkpt>
      <trkpt lat="44.60501" lon="0.93824">
        <ele>254.89</ele>
        <time>2015-04-19T08:56:29Z</time>
      </trkpt>
      <trkpt lat="44.60503" lon="0.93825">
        <ele>254.41</ele>
        <time>2015-04-19T08:56:30Z</time>
      </trkpt>
      <trkpt lat="44.60508" lon="0.93828">
        <ele>254.41</ele>
        <time>2015-04-19T08:56:34Z</time>
      </trkpt>
      <trkpt lat="44.6051" lon="0.93828">
        <ele>254.41</ele>
        <time>2015-04-19T08:56:35Z</time>
      </trkpt>
      <trkpt lat="44.60511" lon="0.93828">
        <ele>254.41</ele>
        <time>2015-04-19T08:56:36Z</time>
      </trkpt>
      <trkpt lat="44.60525" lon="0.93836">
        <ele>254.41</ele>
        <time>2015-04-19T08:56:46Z</time>
      </trkpt>
      <trkpt lat="44.6054" lon="0.93843">
        <ele>253.93</ele>
        <time>2015-04-19T08:56:55Z</time>
      </trkpt>
      <trkpt lat="44.60552" lon="0.93847">
        <ele>253.44</ele>
        <time>2015-04-19T08:57:05Z</time>
      </trkpt>
      <trkpt lat="44.60569" lon="0.93851">
        <ele>253.44</ele>
        <time>2015-04-19T08:57:16Z</time>
      </trkpt>
      <trkpt lat="44.60571" lon="0.93852">
        <ele>253.44</ele>
        <time>2015-04-19T08:57:17Z</time>
      </trkpt>
      <trkpt lat="44.60589" lon="0.93858">
        <ele>253.44</ele>
        <time>2015-04-19T08:57:28Z</time>
      </trkpt>
      <trkpt lat="44.60612" lon="0.93872">
        <ele>253.44</ele>
        <time>2015-04-19T08:57:42Z</time>
      </trkpt>
      <trkpt lat="44.6063" lon="0.93886">
        <ele>253.44</ele>
        <time>2015-04-19T08:57:53Z</time>
      </trkpt>
      <trkpt lat="44.60631" lon="0.93887">
        <ele>253.44</ele>
        <time>2015-04-19T08:57:54Z</time>
      </trkpt>
      <trkpt lat="44.60649" lon="0.93899">
        <ele>253.44</ele>
        <time>2015-04-19T08:58:07Z</time>
      </trkpt>
      <trkpt lat="44.60667" lon="0.93906">
        <ele>253.44</ele>
        <time>2015-04-19T08:58:20Z</time>
      </trkpt>
      <trkpt lat="44.60687" lon="0.93914">
        <ele>254.41</ele>
        <time>2015-04-19T08:58:33Z</time>
      </trkpt>
      <trkpt lat="44.60702" lon="0.93919">
        <ele>254.41</ele>
        <time>2015-04-19T08:58:44Z</time>
      </trkpt>
      <trkpt lat="44.6072" lon="0.93924">
        <ele>254.41</ele>
        <time>2015-04-19T08:58:57Z</time>
      </trkpt>
      <trkpt lat="44.60726" lon="0.93927">
        <ele>254.41</ele>
        <time>2015-04-19T08:59:02Z</time>
      </trkpt>
      <trkpt lat="44.60745" lon="0.93935">
        <ele>253.44</ele>
        <time>2015-04-19T08:59:15Z</time>
      </trkpt>
      <trkpt lat="44.60766" lon="0.93943">
        <ele>252.96</ele>
        <time>2015-04-19T08:59:31Z</time>
      </trkpt>
      <trkpt lat="44.60773" lon="0.93948">
        <ele>252.96</ele>
        <time>2015-04-19T08:59:37Z</time>
      </trkpt>
      <trkpt lat="44.60774" lon="0.9395">
        <ele>252.96</ele>
        <time>2015-04-19T08:59:38Z</time>
      </trkpt>
      <trkpt lat="44.60775" lon="0.93951">
        <ele>252.96</ele>
        <time>2015-04-19T08:59:39Z</time>
      </trkpt>
      <trkpt lat="44.60777" lon="0.93952">
        <ele>252.96</ele>
        <time>2015-04-19T08:59:40Z</time>
      </trkpt>
      <trkpt lat="44.60792" lon="0.93968">
        <ele>252.96</ele>
        <time>2015-04-19T08:59:54Z</time>
      </trkpt>
      <trkpt lat="44.60804" lon="0.93982">
        <ele>252.96</ele>
        <time>2015-04-19T09:00:02Z</time>
      </trkpt>
      <trkpt lat="44.60805" lon="0.93984">
        <ele>252.96</ele>
        <time>2015-04-19T09:00:03Z</time>
      </trkpt>
      <trkpt lat="44.60807" lon="0.93986">
        <ele>252.96</ele>
        <time>2015-04-19T09:00:04Z</time>
      </trkpt>
      <trkpt lat="44.60808" lon="0.93987">
        <ele>252.96</ele>
        <time>2015-04-19T09:00:05Z</time>
      </trkpt>
      <trkpt lat="44.60809" lon="0.93988">
        <ele>252.96</ele>
        <time>2015-04-19T09:00:06Z</time>
      </trkpt>
      <trkpt lat="44.6081" lon="0.93989">
        <ele>252.96</ele>
        <time>2015-04-19T09:00:07Z</time>
      </trkpt>
      <trkpt lat="44.60811" lon="0.9399">
        <ele>252.96</ele>
        <time>2015-04-19T09:00:08Z</time>
      </trkpt>
      <trkpt lat="44.60812" lon="0.93991">
        <ele>252.96</ele>
        <time>2015-04-19T09:00:09Z</time>
      </trkpt>
      <trkpt lat="44.60829" lon="0.94017">
        <ele>252.96</ele>
        <time>2015-04-19T09:00:24Z</time>
      </trkpt>
      <trkpt lat="44.60847" lon="0.9404">
        <ele>253.93</ele>
        <time>2015-04-19T09:00:39Z</time>
      </trkpt>
      <trkpt lat="44.60861" lon="0.94057">
        <ele>254.41</ele>
        <time>2015-04-19T09:00:53Z</time>
      </trkpt>
      <trkpt lat="44.6087" lon="0.94068">
        <ele>254.41</ele>
        <time>2015-04-19T09:01:02Z</time>
      </trkpt>
      <trkpt lat="44.60871" lon="0.9407">
        <ele>254.41</ele>
        <time>2015-04-19T09:01:03Z</time>
      </trkpt>
      <trkpt lat="44.60872" lon="0.94072">
        <ele>254.41</ele>
        <time>2015-04-19T09:01:04Z</time>
      </trkpt>
      <trkpt lat="44.60873" lon="0.94074">
        <ele>254.41</ele>
        <time>2015-04-19T09:01:05Z</time>
      </trkpt>
      <trkpt lat="44.60874" lon="0.94075">
        <ele>254.41</ele>
        <time>2015-04-19T09:01:06Z</time>
      </trkpt>
      <trkpt lat="44.60875" lon="0.94077">
        <ele>254.41</ele>
        <time>2015-04-19T09:01:07Z</time>
      </trkpt>
      <trkpt lat="44.60885" lon="0.94101">
        <ele>254.41</ele>
        <time>2015-04-19T09:01:22Z</time>
      </trkpt>
      <trkpt lat="44.60885" lon="0.94103">
        <ele>254.41</ele>
        <time>2015-04-19T09:01:23Z</time>
      </trkpt>
      <trkpt lat="44.60886" lon="0.94104">
        <ele>254.41</ele>
        <time>2015-04-19T09:01:24Z</time>
      </trkpt>
      <trkpt lat="44.60893" lon="0.9412">
        <ele>254.41</ele>
        <time>2015-04-19T09:01:34Z</time>
      </trkpt>
      <trkpt lat="44.60901" lon="0.94135">
        <ele>254.41</ele>
        <time>2015-04-19T09:01:42Z</time>
      </trkpt>
      <trkpt lat="44.60902" lon="0.94141">
        <ele>254.41</ele>
        <time>2015-04-19T09:01:45Z</time>
      </trkpt>
      <trkpt lat="44.60904" lon="0.94146">
        <ele>253.93</ele>
        <time>2015-04-19T09:01:48Z</time>
      </trkpt>
      <trkpt lat="44.60905" lon="0.9415">
        <ele>253.93</ele>
        <time>2015-04-19T09:01:51Z</time>
      </trkpt>
      <trkpt lat="44.60906" lon="0.94151">
        <ele>253.93</ele>
        <time>2015-04-19T09:01:52Z</time>
      </trkpt>
      <trkpt lat="44.60907" lon="0.94153">
        <ele>253.93</ele>
        <time>2015-04-19T09:01:53Z</time>
      </trkpt>
      <trkpt lat="44.60908" lon="0.94155">
        <ele>253.93</ele>
        <time>2015-04-19T09:01:54Z</time>
      </trkpt>
      <trkpt lat="44.60909" lon="0.94157">
        <ele>253.93</ele>
        <time>2015-04-19T09:01:55Z</time>
      </trkpt>
      <trkpt lat="44.60909" lon="0.94159">
        <ele>253.93</ele>
        <time>2015-04-19T09:01:56Z</time>
      </trkpt>
      <trkpt lat="44.60914" lon="0.9417">
        <ele>253.44</ele>
        <time>2015-04-19T09:02:02Z</time>
      </trkpt>
      <trkpt lat="44.60917" lon="0.94181">
        <ele>253.44</ele>
        <time>2015-04-19T09:02:08Z</time>
      </trkpt>
      <trkpt lat="44.60918" lon="0.94183">
        <ele>252.96</ele>
        <time>2015-04-19T09:02:09Z</time>
      </trkpt>
      <trkpt lat="44.60925" lon="0.94198">
        <ele>252.96</ele>
        <time>2015-04-19T09:02:20Z</time>
      </trkpt>
      <trkpt lat="44.60926" lon="0.942">
        <ele>252.96</ele>
        <time>2015-04-19T09:02:21Z</time>
      </trkpt>
      <trkpt lat="44.60927" lon="0.94201">
        <ele>252.96</ele>
        <time>2015-04-19T09:02:22Z</time>
      </trkpt>
      <trkpt lat="44.60927" lon="0.94203">
        <ele>252.96</ele>
        <time>2015-04-19T09:02:23Z</time>
      </trkpt>
      <trkpt lat="44.60928" lon="0.94205">
        <ele>253.44</ele>
        <time>2015-04-19T09:02:24Z</time>
      </trkpt>
      <trkpt lat="44.60929" lon="0.94206">
        <ele>253.44</ele>
        <time>2015-04-19T09:02:25Z</time>
      </trkpt>
      <trkpt lat="44.6093" lon="0.94208">
        <ele>253.44</ele>
        <time>2015-04-19T09:02:26Z</time>
      </trkpt>
      <trkpt lat="44.60931" lon="0.94209">
        <ele>253.44</ele>
        <time>2015-04-19T09:02:27Z</time>
      </trkpt>
      <trkpt lat="44.60933" lon="0.9421">
        <ele>253.44</ele>
        <time>2015-04-19T09:02:28Z</time>
      </trkpt>
      <trkpt lat="44.60939" lon="0.94218">
        <ele>253.44</ele>
        <time>2015-04-19T09:02:34Z</time>
      </trkpt>
      <trkpt lat="44.60941" lon="0.9422">
        <ele>253.44</ele>
        <time>2015-04-19T09:02:35Z</time>
      </trkpt>
      <trkpt lat="44.60944" lon="0.94223">
        <ele>253.44</ele>
        <time>2015-04-19T09:02:38Z</time>
      </trkpt>
      <trkpt lat="44.60945" lon="0.94225">
        <ele>253.44</ele>
        <time>2015-04-19T09:02:39Z</time>
      </trkpt>
      <trkpt lat="44.60946" lon="0.94227">
        <ele>253.44</ele>
        <time>2015-04-19T09:02:40Z</time>
      </trkpt>
      <trkpt lat="44.60947" lon="0.94229">
        <ele>253.44</ele>
        <time>2015-04-19T09:02:41Z</time>
      </trkpt>
      <trkpt lat="44.60948" lon="0.94231">
        <ele>253.44</ele>
        <time>2015-04-19T09:02:42Z</time>
      </trkpt>
      <trkpt lat="44.60949" lon="0.94232">
        <ele>253.44</ele>
        <time>2015-04-19T09:02:43Z</time>
      </trkpt>
      <trkpt lat="44.6095" lon="0.94233">
        <ele>253.44</ele>
        <time>2015-04-19T09:02:44Z</time>
      </trkpt>
      <trkpt lat="44.60951" lon="0.94235">
        <ele>253.44</ele>
        <time>2015-04-19T09:02:45Z</time>
      </trkpt>
      <trkpt lat="44.6096" lon="0.94249">
        <ele>253.44</ele>
        <time>2015-04-19T09:02:54Z</time>
      </trkpt>
      <trkpt lat="44.6097" lon="0.94271">
        <ele>253.93</ele>
        <time>2015-04-19T09:03:07Z</time>
      </trkpt>
      <trkpt lat="44.60982" lon="0.94288">
        <ele>253.93</ele>
        <time>2015-04-19T09:03:17Z</time>
      </trkpt>
      <trkpt lat="44.60994" lon="0.94325">
        <ele>253.44</ele>
        <time>2015-04-19T09:03:28Z</time>
      </trkpt>
      <trkpt lat="44.60994" lon="0.94328">
        <ele>253.44</ele>
        <time>2015-04-19T09:03:29Z</time>
      </trkpt>
      <trkpt lat="44.60995" lon="0.94332">
        <ele>253.44</ele>
        <time>2015-04-19T09:03:30Z</time>
      </trkpt>
      <trkpt lat="44.60997" lon="0.94336">
        <ele>252.96</ele>
        <time>2015-04-19T09:03:31Z</time>
      </trkpt>
      <trkpt lat="44.60998" lon="0.94339">
        <ele>252.96</ele>
        <time>2015-04-19T09:03:32Z</time>
      </trkpt>
      <trkpt lat="44.60998" lon="0.94342">
        <ele>252.96</ele>
        <time>2015-04-19T09:03:33Z</time>
      </trkpt>
      <trkpt lat="44.60999" lon="0.94345">
        <ele>252.96</ele>
        <time>2015-04-19T09:03:34Z</time>
      </trkpt>
      <trkpt lat="44.61" lon="0.9435">
        <ele>252.48</ele>
        <time>2015-04-19T09:03:36Z</time>
      </trkpt>
      <trkpt lat="44.61001" lon="0.94352">
        <ele>252.48</ele>
        <time>2015-04-19T09:03:37Z</time>
      </trkpt>
      <trkpt lat="44.61001" lon="0.94355">
        <ele>252.48</ele>
        <time>2015-04-19T09:03:38Z</time>
      </trkpt>
      <trkpt lat="44.61001" lon="0.94358">
        <ele>252.48</ele>
        <time>2015-04-19T09:03:39Z</time>
      </trkpt>
      <trkpt lat="44.61002" lon="0.94361">
        <ele>252</ele>
        <time>2015-04-19T09:03:40Z</time>
      </trkpt>
      <trkpt lat="44.61006" lon="0.94372">
        <ele>252</ele>
        <time>2015-04-19T09:03:43Z</time>
      </trkpt>
      <trkpt lat="44.61007" lon="0.94375">
        <ele>252</ele>
        <time>2015-04-19T09:03:44Z</time>
      </trkpt>
      <trkpt lat="44.61008" lon="0.94377">
        <ele>251.52</ele>
        <time>2015-04-19T09:03:45Z</time>
      </trkpt>
      <trkpt lat="44.61009" lon="0.9438">
        <ele>251.52</ele>
        <time>2015-04-19T09:03:46Z</time>
      </trkpt>
      <trkpt lat="44.6101" lon="0.94383">
        <ele>251.52</ele>
        <time>2015-04-19T09:03:47Z</time>
      </trkpt>
      <trkpt lat="44.6101" lon="0.94385">
        <ele>251.52</ele>
        <time>2015-04-19T09:03:48Z</time>
      </trkpt>
      <trkpt lat="44.61011" lon="0.94389">
        <ele>251.52</ele>
        <time>2015-04-19T09:03:49Z</time>
      </trkpt>
      <trkpt lat="44.61012" lon="0.94392">
        <ele>251.04</ele>
        <time>2015-04-19T09:03:50Z</time>
      </trkpt>
      <trkpt lat="44.61013" lon="0.94395">
        <ele>251.04</ele>
        <time>2015-04-19T09:03:51Z</time>
      </trkpt>
      <trkpt lat="44.61014" lon="0.94398">
        <ele>250.08</ele>
        <time>2015-04-19T09:03:52Z</time>
      </trkpt>
      <trkpt lat="44.61015" lon="0.94406">
        <ele>249.6</ele>
        <time>2015-04-19T09:03:55Z</time>
      </trkpt>
      <trkpt lat="44.61016" lon="0.94408">
        <ele>250.08</ele>
        <time>2015-04-19T09:03:56Z</time>
      </trkpt>
      <trkpt lat="44.61017" lon="0.94411">
        <ele>250.08</ele>
        <time>2015-04-19T09:03:57Z</time>
      </trkpt>
      <trkpt lat="44.61017" lon="0.94413">
        <ele>250.08</ele>
        <time>2015-04-19T09:03:58Z</time>
      </trkpt>
      <trkpt lat="44.61018" lon="0.94416">
        <ele>250.08</ele>
        <time>2015-04-19T09:03:59Z</time>
      </trkpt>
      <trkpt lat="44.61018" lon="0.94418">
        <ele>250.08</ele>
        <time>2015-04-19T09:04:00Z</time>
      </trkpt>
      <trkpt lat="44.61019" lon="0.9442">
        <ele>250.08</ele>
        <time>2015-04-19T09:04:01Z</time>
      </trkpt>
      <trkpt lat="44.6102" lon="0.94422">
        <ele>250.08</ele>
        <time>2015-04-19T09:04:02Z</time>
      </trkpt>
      <trkpt lat="44.61022" lon="0.94425">
        <ele>250.08</ele>
        <time>2015-04-19T09:04:04Z</time>
      </trkpt>
      <trkpt lat="44.61023" lon="0.94427">
        <ele>250.08</ele>
        <time>2015-04-19T09:04:05Z</time>
      </trkpt>
      <trkpt lat="44.61034" lon="0.94449">
        <ele>250.08</ele>
        <time>2015-04-19T09:04:17Z</time>
      </trkpt>
      <trkpt lat="44.61044" lon="0.94463">
        <ele>250.08</ele>
        <time>2015-04-19T09:04:26Z</time>
      </trkpt>
      <trkpt lat="44.61045" lon="0.94465">
        <ele>250.08</ele>
        <time>2015-04-19T09:04:27Z</time>
      </trkpt>
      <trkpt lat="44.61046" lon="0.94467">
        <ele>250.08</ele>
        <time>2015-04-19T09:04:28Z</time>
      </trkpt>
      <trkpt lat="44.61047" lon="0.94468">
        <ele>250.08</ele>
        <time>2015-04-19T09:04:29Z</time>
      </trkpt>
      <trkpt lat="44.61048" lon="0.9447">
        <ele>250.08</ele>
        <time>2015-04-19T09:04:30Z</time>
      </trkpt>
      <trkpt lat="44.61049" lon="0.94472">
        <ele>250.08</ele>
        <time>2015-04-19T09:04:31Z</time>
      </trkpt>
      <trkpt lat="44.61051" lon="0.94474">
        <ele>250.08</ele>
        <time>2015-04-19T09:04:32Z</time>
      </trkpt>
      <trkpt lat="44.61052" lon="0.94475">
        <ele>251.04</ele>
        <time>2015-04-19T09:04:33Z</time>
      </trkpt>
      <trkpt lat="44.61053" lon="0.94477">
        <ele>251.04</ele>
        <time>2015-04-19T09:04:34Z</time>
      </trkpt>
      <trkpt lat="44.61054" lon="0.94479">
        <ele>251.04</ele>
        <time>2015-04-19T09:04:35Z</time>
      </trkpt>
      <trkpt lat="44.61065" lon="0.94491">
        <ele>251.52</ele>
        <time>2015-04-19T09:04:43Z</time>
      </trkpt>
      <trkpt lat="44.6108" lon="0.94507">
        <ele>252</ele>
        <time>2015-04-19T09:04:57Z</time>
      </trkpt>
      <trkpt lat="44.61096" lon="0.94524">
        <ele>252</ele>
        <time>2015-04-19T09:05:12Z</time>
      </trkpt>
      <trkpt lat="44.61101" lon="0.94531">
        <ele>252</ele>
        <time>2015-04-19T09:05:17Z</time>
      </trkpt>
      <trkpt lat="44.61112" lon="0.94546">
        <ele>252</ele>
        <time>2015-04-19T09:05:27Z</time>
      </trkpt>
      <trkpt lat="44.61131" lon="0.9457">
        <ele>252.48</ele>
        <time>2015-04-19T09:05:43Z</time>
      </trkpt>
      <trkpt lat="44.61152" lon="0.94595">
        <ele>252.96</ele>
        <time>2015-04-19T09:05:58Z</time>
      </trkpt>
      <trkpt lat="44.6116" lon="0.94603">
        <ele>252.96</ele>
        <time>2015-04-19T09:06:04Z</time>
      </trkpt>
      <trkpt lat="44.61161" lon="0.94603">
        <ele>252.96</ele>
        <time>2015-04-19T09:06:05Z</time>
      </trkpt>
      <trkpt lat="44.61167" lon="0.94604">
        <ele>252.96</ele>
        <time>2015-04-19T09:06:12Z</time>
      </trkpt>
      <trkpt lat="44.61181" lon="0.94618">
        <ele>252.96</ele>
        <time>2015-04-19T09:06:26Z</time>
      </trkpt>
      <trkpt lat="44.61195" lon="0.94635">
        <ele>252</ele>
        <time>2015-04-19T09:06:37Z</time>
      </trkpt>
      <trkpt lat="44.61213" lon="0.94652">
        <ele>252</ele>
        <time>2015-04-19T09:06:49Z</time>
      </trkpt>
      <trkpt lat="44.61223" lon="0.94662">
        <ele>252</ele>
        <time>2015-04-19T09:07:00Z</time>
      </trkpt>
      <trkpt lat="44.61238" lon="0.9467">
        <ele>252</ele>
        <time>2015-04-19T09:07:11Z</time>
      </trkpt>
      <trkpt lat="44.61263" lon="0.94691">
        <ele>252</ele>
        <time>2015-04-19T09:07:24Z</time>
      </trkpt>
      <trkpt lat="44.61274" lon="0.947">
        <ele>252.96</ele>
        <time>2015-04-19T09:07:33Z</time>
      </trkpt>
      <trkpt lat="44.61278" lon="0.94704">
        <ele>253.44</ele>
        <time>2015-04-19T09:07:37Z</time>
      </trkpt>
      <trkpt lat="44.61279" lon="0.94705">
        <ele>253.44</ele>
        <time>2015-04-19T09:07:38Z</time>
      </trkpt>
      <trkpt lat="44.61293" lon="0.94717">
        <ele>254.89</ele>
        <time>2015-04-19T09:07:52Z</time>
      </trkpt>
      <trkpt lat="44.61295" lon="0.94719">
        <ele>254.41</ele>
        <time>2015-04-19T09:07:54Z</time>
      </trkpt>
      <trkpt lat="44.61296" lon="0.9472">
        <ele>254.41</ele>
        <time>2015-04-19T09:07:55Z</time>
      </trkpt>
      <trkpt lat="44.61297" lon="0.94721">
        <ele>254.41</ele>
        <time>2015-04-19T09:07:56Z</time>
      </trkpt>
      <trkpt lat="44.61299" lon="0.94722">
        <ele>254.89</ele>
        <time>2015-04-19T09:07:57Z</time>
      </trkpt>
      <trkpt lat="44.613" lon="0.94724">
        <ele>254.89</ele>
        <time>2015-04-19T09:07:58Z</time>
      </trkpt>
      <trkpt lat="44.61311" lon="0.94731">
        <ele>255.85</ele>
        <time>2015-04-19T09:08:09Z</time>
      </trkpt>
      <trkpt lat="44.6133" lon="0.94745">
        <ele>255.85</ele>
        <time>2015-04-19T09:08:20Z</time>
      </trkpt>
      <trkpt lat="44.61332" lon="0.94747">
        <ele>255.85</ele>
        <time>2015-04-19T09:08:21Z</time>
      </trkpt>
      <trkpt lat="44.61354" lon="0.94774">
        <ele>254.41</ele>
        <time>2015-04-19T09:08:31Z</time>
      </trkpt>
      <trkpt lat="44.61373" lon="0.94792">
        <ele>253.93</ele>
        <time>2015-04-19T09:08:39Z</time>
      </trkpt>
      <trkpt lat="44.61375" lon="0.94794">
        <ele>253.93</ele>
        <time>2015-04-19T09:08:40Z</time>
      </trkpt>
      <trkpt lat="44.61377" lon="0.94796">
        <ele>253.93</ele>
        <time>2015-04-19T09:08:41Z</time>
      </trkpt>
      <trkpt lat="44.61378" lon="0.94796">
        <ele>253.93</ele>
        <time>2015-04-19T09:08:42Z</time>
      </trkpt>
      <trkpt lat="44.6138" lon="0.94797">
        <ele>253.44</ele>
        <time>2015-04-19T09:08:43Z</time>
      </trkpt>
      <trkpt lat="44.61382" lon="0.94798">
        <ele>253.44</ele>
        <time>2015-04-19T09:08:44Z</time>
      </trkpt>
      <trkpt lat="44.61384" lon="0.94799">
        <ele>253.44</ele>
        <time>2015-04-19T09:08:45Z</time>
      </trkpt>
      <trkpt lat="44.61386" lon="0.948">
        <ele>253.44</ele>
        <time>2015-04-19T09:08:46Z</time>
      </trkpt>
      <trkpt lat="44.61388" lon="0.94801">
        <ele>253.44</ele>
        <time>2015-04-19T09:08:47Z</time>
      </trkpt>
      <trkpt lat="44.61405" lon="0.94813">
        <ele>252.96</ele>
        <time>2015-04-19T09:08:57Z</time>
      </trkpt>
      <trkpt lat="44.61406" lon="0.94815">
        <ele>252.96</ele>
        <time>2015-04-19T09:08:58Z</time>
      </trkpt>
      <trkpt lat="44.61407" lon="0.94817">
        <ele>252.96</ele>
        <time>2015-04-19T09:08:59Z</time>
      </trkpt>
      <trkpt lat="44.61409" lon="0.94819">
        <ele>252.96</ele>
        <time>2015-04-19T09:09:00Z</time>
      </trkpt>
      <trkpt lat="44.6141" lon="0.94823">
        <ele>252.96</ele>
        <time>2015-04-19T09:09:01Z</time>
      </trkpt>
      <trkpt lat="44.6141" lon="0.94826">
        <ele>252.48</ele>
        <time>2015-04-19T09:09:02Z</time>
      </trkpt>
      <trkpt lat="44.6141" lon="0.94829">
        <ele>252.48</ele>
        <time>2015-04-19T09:09:03Z</time>
      </trkpt>
      <trkpt lat="44.61409" lon="0.94832">
        <ele>252.48</ele>
        <time>2015-04-19T09:09:04Z</time>
      </trkpt>
      <trkpt lat="44.61408" lon="0.94834">
        <ele>251.52</ele>
        <time>2015-04-19T09:09:05Z</time>
      </trkpt>
      <trkpt lat="44.61407" lon="0.94835">
        <ele>251.52</ele>
        <time>2015-04-19T09:09:06Z</time>
      </trkpt>
      <trkpt lat="44.61392" lon="0.94856">
        <ele>250.08</ele>
        <time>2015-04-19T09:09:17Z</time>
      </trkpt>
      <trkpt lat="44.61373" lon="0.94866">
        <ele>248.16</ele>
        <time>2015-04-19T09:09:27Z</time>
      </trkpt>
      <trkpt lat="44.61372" lon="0.94867">
        <ele>248.16</ele>
        <time>2015-04-19T09:09:28Z</time>
      </trkpt>
      <trkpt lat="44.61366" lon="0.9487">
        <ele>248.16</ele>
        <time>2015-04-19T09:09:32Z</time>
      </trkpt>
      <trkpt lat="44.61365" lon="0.94871">
        <ele>248.16</ele>
        <time>2015-04-19T09:09:33Z</time>
      </trkpt>
      <trkpt lat="44.61364" lon="0.94874">
        <ele>248.16</ele>
        <time>2015-04-19T09:09:34Z</time>
      </trkpt>
      <trkpt lat="44.61363" lon="0.94875">
        <ele>247.68</ele>
        <time>2015-04-19T09:09:35Z</time>
      </trkpt>
      <trkpt lat="44.61361" lon="0.94876">
        <ele>247.68</ele>
        <time>2015-04-19T09:09:36Z</time>
      </trkpt>
      <trkpt lat="44.61361" lon="0.94878">
        <ele>247.68</ele>
        <time>2015-04-19T09:09:37Z</time>
      </trkpt>
      <trkpt lat="44.61363" lon="0.94884">
        <ele>247.68</ele>
        <time>2015-04-19T09:09:38Z</time>
      </trkpt>
      <trkpt lat="44.61363" lon="0.94887">
        <ele>247.68</ele>
        <time>2015-04-19T09:09:39Z</time>
      </trkpt>
      <trkpt lat="44.6136" lon="0.9489">
        <ele>246.72</ele>
        <time>2015-04-19T09:09:41Z</time>
      </trkpt>
      <trkpt lat="44.61357" lon="0.94893">
        <ele>246.72</ele>
        <time>2015-04-19T09:09:43Z</time>
      </trkpt>
      <trkpt lat="44.61355" lon="0.94894">
        <ele>246.23</ele>
        <time>2015-04-19T09:09:44Z</time>
      </trkpt>
      <trkpt lat="44.61342" lon="0.94901">
        <ele>245.27</ele>
        <time>2015-04-19T09:09:52Z</time>
      </trkpt>
      <trkpt lat="44.6133" lon="0.94903">
        <ele>242.39</ele>
        <time>2015-04-19T09:09:59Z</time>
      </trkpt>
      <trkpt lat="44.61313" lon="0.94904">
        <ele>242.39</ele>
        <time>2015-04-19T09:10:08Z</time>
      </trkpt>
      <trkpt lat="44.61301" lon="0.94907">
        <ele>242.39</ele>
        <time>2015-04-19T09:10:19Z</time>
      </trkpt>
      <trkpt lat="44.61281" lon="0.94913">
        <ele>241.91</ele>
        <time>2015-04-19T09:10:28Z</time>
      </trkpt>
      <trkpt lat="44.61277" lon="0.94915">
        <ele>241.43</ele>
        <time>2015-04-19T09:10:31Z</time>
      </trkpt>
      <trkpt lat="44.61275" lon="0.94916">
        <ele>241.43</ele>
        <time>2015-04-19T09:10:32Z</time>
      </trkpt>
      <trkpt lat="44.61274" lon="0.94918">
        <ele>241.43</ele>
        <time>2015-04-19T09:10:33Z</time>
      </trkpt>
      <trkpt lat="44.61259" lon="0.94925">
        <ele>240.47</ele>
        <time>2015-04-19T09:10:40Z</time>
      </trkpt>
      <trkpt lat="44.61257" lon="0.94927">
        <ele>240.47</ele>
        <time>2015-04-19T09:10:41Z</time>
      </trkpt>
      <trkpt lat="44.61252" lon="0.9493">
        <ele>239.99</ele>
        <time>2015-04-19T09:10:43Z</time>
      </trkpt>
      <trkpt lat="44.61249" lon="0.94934">
        <ele>239.99</ele>
        <time>2015-04-19T09:10:45Z</time>
      </trkpt>
      <trkpt lat="44.6124" lon="0.94951">
        <ele>238.54</ele>
        <time>2015-04-19T09:10:57Z</time>
      </trkpt>
      <trkpt lat="44.61238" lon="0.94972">
        <ele>237.58</ele>
        <time>2015-04-19T09:11:07Z</time>
      </trkpt>
      <trkpt lat="44.61236" lon="0.94977">
        <ele>237.58</ele>
        <time>2015-04-19T09:11:09Z</time>
      </trkpt>
      <trkpt lat="44.61233" lon="0.94988">
        <ele>237.1</ele>
        <time>2015-04-19T09:11:13Z</time>
      </trkpt>
      <trkpt lat="44.61225" lon="0.95014">
        <ele>234.7</ele>
        <time>2015-04-19T09:11:22Z</time>
      </trkpt>
      <trkpt lat="44.61214" lon="0.9504">
        <ele>234.7</ele>
        <time>2015-04-19T09:11:33Z</time>
      </trkpt>
      <trkpt lat="44.61205" lon="0.95059">
        <ele>235.18</ele>
        <time>2015-04-19T09:11:43Z</time>
      </trkpt>
      <trkpt lat="44.61204" lon="0.95066">
        <ele>235.18</ele>
        <time>2015-04-19T09:11:47Z</time>
      </trkpt>
      <trkpt lat="44.61203" lon="0.95069">
        <ele>235.18</ele>
        <time>2015-04-19T09:11:49Z</time>
      </trkpt>
      <trkpt lat="44.61197" lon="0.95079">
        <ele>234.7</ele>
        <time>2015-04-19T09:11:54Z</time>
      </trkpt>
      <trkpt lat="44.61183" lon="0.95091">
        <ele>233.74</ele>
        <time>2015-04-19T09:12:04Z</time>
      </trkpt>
      <trkpt lat="44.61181" lon="0.95092">
        <ele>233.74</ele>
        <time>2015-04-19T09:12:06Z</time>
      </trkpt>
      <trkpt lat="44.61175" lon="0.95102">
        <ele>233.74</ele>
        <time>2015-04-19T09:12:16Z</time>
      </trkpt>
      <trkpt lat="44.61172" lon="0.95106">
        <ele>233.74</ele>
        <time>2015-04-19T09:12:18Z</time>
      </trkpt>
      <trkpt lat="44.61168" lon="0.95111">
        <ele>234.22</ele>
        <time>2015-04-19T09:12:22Z</time>
      </trkpt>
      <trkpt lat="44.61161" lon="0.95119">
        <ele>234.22</ele>
        <time>2015-04-19T09:12:28Z</time>
      </trkpt>
      <trkpt lat="44.6116" lon="0.95123">
        <ele>234.22</ele>
        <time>2015-04-19T09:12:30Z</time>
      </trkpt>
      <trkpt lat="44.61156" lon="0.95134">
        <ele>234.22</ele>
        <time>2015-04-19T09:12:37Z</time>
      </trkpt>
      <trkpt lat="44.61147" lon="0.95149">
        <ele>234.22</ele>
        <time>2015-04-19T09:12:48Z</time>
      </trkpt>
      <trkpt lat="44.61145" lon="0.95152">
        <ele>234.22</ele>
        <time>2015-04-19T09:12:50Z</time>
      </trkpt>
      <trkpt lat="44.61127" lon="0.95163">
        <ele>235.66</ele>
        <time>2015-04-19T09:12:58Z</time>
      </trkpt>
      <trkpt lat="44.6111" lon="0.95184">
        <ele>236.62</ele>
        <time>2015-04-19T09:13:11Z</time>
      </trkpt>
      <trkpt lat="44.61103" lon="0.95197">
        <ele>238.06</ele>
        <time>2015-04-19T09:13:19Z</time>
      </trkpt>
      <trkpt lat="44.61096" lon="0.95211">
        <ele>238.06</ele>
        <time>2015-04-19T09:13:31Z</time>
      </trkpt>
      <trkpt lat="44.61088" lon="0.95223">
        <ele>239.51</ele>
        <time>2015-04-19T09:13:41Z</time>
      </trkpt>
      <trkpt lat="44.61086" lon="0.95229">
        <ele>239.99</ele>
        <time>2015-04-19T09:13:45Z</time>
      </trkpt>
      <trkpt lat="44.61083" lon="0.95245">
        <ele>240.95</ele>
        <time>2015-04-19T09:13:57Z</time>
      </trkpt>
      <trkpt lat="44.61083" lon="0.95251">
        <ele>240.95</ele>
        <time>2015-04-19T09:13:59Z</time>
      </trkpt>
      <trkpt lat="44.61086" lon="0.95274">
        <ele>241.91</ele>
        <time>2015-04-19T09:14:13Z</time>
      </trkpt>
      <trkpt lat="44.61094" lon="0.95296">
        <ele>242.39</ele>
        <time>2015-04-19T09:14:23Z</time>
      </trkpt>
      <trkpt lat="44.61098" lon="0.95311">
        <ele>243.35</ele>
        <time>2015-04-19T09:14:30Z</time>
      </trkpt>
      <trkpt lat="44.61101" lon="0.95325">
        <ele>243.83</ele>
        <time>2015-04-19T09:14:41Z</time>
      </trkpt>
      <trkpt lat="44.61101" lon="0.9534">
        <ele>244.31</ele>
        <time>2015-04-19T09:14:48Z</time>
      </trkpt>
      <trkpt lat="44.61105" lon="0.9535">
        <ele>244.31</ele>
        <time>2015-04-19T09:14:51Z</time>
      </trkpt>
      <trkpt lat="44.61106" lon="0.95371">
        <ele>244.79</ele>
        <time>2015-04-19T09:15:05Z</time>
      </trkpt>
      <trkpt lat="44.61107" lon="0.95394">
        <ele>245.27</ele>
        <time>2015-04-19T09:15:17Z</time>
      </trkpt>
      <trkpt lat="44.61107" lon="0.95417">
        <ele>246.23</ele>
        <time>2015-04-19T09:15:25Z</time>
      </trkpt>
      <trkpt lat="44.61108" lon="0.95434">
        <ele>246.72</ele>
        <time>2015-04-19T09:15:34Z</time>
      </trkpt>
      <trkpt lat="44.61107" lon="0.9544">
        <ele>247.2</ele>
        <time>2015-04-19T09:15:38Z</time>
      </trkpt>
      <trkpt lat="44.61112" lon="0.95455">
        <ele>248.16</ele>
        <time>2015-04-19T09:15:44Z</time>
      </trkpt>
      <trkpt lat="44.61114" lon="0.95462">
        <ele>248.16</ele>
        <time>2015-04-19T09:15:47Z</time>
      </trkpt>
      <trkpt lat="44.61116" lon="0.95473">
        <ele>248.64</ele>
        <time>2015-04-19T09:15:51Z</time>
      </trkpt>
      <trkpt lat="44.61117" lon="0.95478">
        <ele>248.64</ele>
        <time>2015-04-19T09:15:53Z</time>
      </trkpt>
      <trkpt lat="44.61118" lon="0.9549">
        <ele>248.64</ele>
        <time>2015-04-19T09:15:59Z</time>
      </trkpt>
      <trkpt lat="44.6112" lon="0.95514">
        <ele>248.64</ele>
        <time>2015-04-19T09:16:07Z</time>
      </trkpt>
      <trkpt lat="44.61119" lon="0.95522">
        <ele>248.64</ele>
        <time>2015-04-19T09:16:11Z</time>
      </trkpt>
      <trkpt lat="44.61121" lon="0.95531">
        <ele>248.64</ele>
        <time>2015-04-19T09:16:14Z</time>
      </trkpt>
      <trkpt lat="44.61122" lon="0.9554">
        <ele>248.64</ele>
        <time>2015-04-19T09:16:18Z</time>
      </trkpt>
      <trkpt lat="44.61123" lon="0.95556">
        <ele>248.64</ele>
        <time>2015-04-19T09:16:25Z</time>
      </trkpt>
      <trkpt lat="44.61122" lon="0.95569">
        <ele>248.64</ele>
        <time>2015-04-19T09:16:32Z</time>
      </trkpt>
      <trkpt lat="44.61115" lon="0.95582">
        <ele>249.12</ele>
        <time>2015-04-19T09:16:39Z</time>
      </trkpt>
      <trkpt lat="44.61111" lon="0.95591">
        <ele>250.08</ele>
        <time>2015-04-19T09:16:44Z</time>
      </trkpt>
      <trkpt lat="44.61109" lon="0.95593">
        <ele>250.08</ele>
        <time>2015-04-19T09:16:45Z</time>
      </trkpt>
      <trkpt lat="44.61109" lon="0.95595">
        <ele>250.08</ele>
        <time>2015-04-19T09:16:46Z</time>
      </trkpt>
      <trkpt lat="44.61108" lon="0.95597">
        <ele>250.08</ele>
        <time>2015-04-19T09:16:47Z</time>
      </trkpt>
      <trkpt lat="44.61108" lon="0.95598">
        <ele>250.08</ele>
        <time>2015-04-19T09:16:48Z</time>
      </trkpt>
      <trkpt lat="44.611" lon="0.95617">
        <ele>250.56</ele>
        <time>2015-04-19T09:17:00Z</time>
      </trkpt>
      <trkpt lat="44.61096" lon="0.95623">
        <ele>250.56</ele>
        <time>2015-04-19T09:17:04Z</time>
      </trkpt>
      <trkpt lat="44.61095" lon="0.95625">
        <ele>250.56</ele>
        <time>2015-04-19T09:17:05Z</time>
      </trkpt>
      <trkpt lat="44.61085" lon="0.95637">
        <ele>250.56</ele>
        <time>2015-04-19T09:17:12Z</time>
      </trkpt>
      <trkpt lat="44.61083" lon="0.95639">
        <ele>250.56</ele>
        <time>2015-04-19T09:17:13Z</time>
      </trkpt>
      <trkpt lat="44.61081" lon="0.95642">
        <ele>250.56</ele>
        <time>2015-04-19T09:17:14Z</time>
      </trkpt>
      <trkpt lat="44.61081" lon="0.95644">
        <ele>250.56</ele>
        <time>2015-04-19T09:17:15Z</time>
      </trkpt>
      <trkpt lat="44.61081" lon="0.95645">
        <ele>250.56</ele>
        <time>2015-04-19T09:17:16Z</time>
      </trkpt>
      <trkpt lat="44.6108" lon="0.95647">
        <ele>250.56</ele>
        <time>2015-04-19T09:17:17Z</time>
      </trkpt>
      <trkpt lat="44.61079" lon="0.95649">
        <ele>250.56</ele>
        <time>2015-04-19T09:17:18Z</time>
      </trkpt>
      <trkpt lat="44.61079" lon="0.95651">
        <ele>250.56</ele>
        <time>2015-04-19T09:17:19Z</time>
      </trkpt>
      <trkpt lat="44.61078" lon="0.95653">
        <ele>250.56</ele>
        <time>2015-04-19T09:17:20Z</time>
      </trkpt>
      <trkpt lat="44.61077" lon="0.95655">
        <ele>250.56</ele>
        <time>2015-04-19T09:17:21Z</time>
      </trkpt>
      <trkpt lat="44.61076" lon="0.95657">
        <ele>250.56</ele>
        <time>2015-04-19T09:17:22Z</time>
      </trkpt>
      <trkpt lat="44.61075" lon="0.95659">
        <ele>250.56</ele>
        <time>2015-04-19T09:17:23Z</time>
      </trkpt>
      <trkpt lat="44.61071" lon="0.95678">
        <ele>250.56</ele>
        <time>2015-04-19T09:17:33Z</time>
      </trkpt>
      <trkpt lat="44.61071" lon="0.9568">
        <ele>250.56</ele>
        <time>2015-04-19T09:17:34Z</time>
      </trkpt>
      <trkpt lat="44.61072" lon="0.95682">
        <ele>250.56</ele>
        <time>2015-04-19T09:17:35Z</time>
      </trkpt>
      <trkpt lat="44.61072" lon="0.95685">
        <ele>250.56</ele>
        <time>2015-04-19T09:17:36Z</time>
      </trkpt>
      <trkpt lat="44.6107" lon="0.95688">
        <ele>250.56</ele>
        <time>2015-04-19T09:17:37Z</time>
      </trkpt>
      <trkpt lat="44.61069" lon="0.95691">
        <ele>250.56</ele>
        <time>2015-04-19T09:17:38Z</time>
      </trkpt>
      <trkpt lat="44.61067" lon="0.95693">
        <ele>250.56</ele>
        <time>2015-04-19T09:17:39Z</time>
      </trkpt>
      <trkpt lat="44.61066" lon="0.95696">
        <ele>250.56</ele>
        <time>2015-04-19T09:17:40Z</time>
      </trkpt>
      <trkpt lat="44.61065" lon="0.95698">
        <ele>250.56</ele>
        <time>2015-04-19T09:17:41Z</time>
      </trkpt>
      <trkpt lat="44.61064" lon="0.95702">
        <ele>250.56</ele>
        <time>2015-04-19T09:17:42Z</time>
      </trkpt>
      <trkpt lat="44.61063" lon="0.95705">
        <ele>250.56</ele>
        <time>2015-04-19T09:17:43Z</time>
      </trkpt>
      <trkpt lat="44.61061" lon="0.95708">
        <ele>250.56</ele>
        <time>2015-04-19T09:17:44Z</time>
      </trkpt>
      <trkpt lat="44.6106" lon="0.9571">
        <ele>250.56</ele>
        <time>2015-04-19T09:17:45Z</time>
      </trkpt>
      <trkpt lat="44.61059" lon="0.95713">
        <ele>250.56</ele>
        <time>2015-04-19T09:17:46Z</time>
      </trkpt>
      <trkpt lat="44.61059" lon="0.95715">
        <ele>251.04</ele>
        <time>2015-04-19T09:17:47Z</time>
      </trkpt>
      <trkpt lat="44.61045" lon="0.95744">
        <ele>249.6</ele>
        <time>2015-04-19T09:17:57Z</time>
      </trkpt>
      <trkpt lat="44.61034" lon="0.95775">
        <ele>248.64</ele>
        <time>2015-04-19T09:18:07Z</time>
      </trkpt>
      <trkpt lat="44.61033" lon="0.95778">
        <ele>248.64</ele>
        <time>2015-04-19T09:18:08Z</time>
      </trkpt>
      <trkpt lat="44.61032" lon="0.95781">
        <ele>248.64</ele>
        <time>2015-04-19T09:18:09Z</time>
      </trkpt>
      <trkpt lat="44.61032" lon="0.95783">
        <ele>248.16</ele>
        <time>2015-04-19T09:18:10Z</time>
      </trkpt>
      <trkpt lat="44.61031" lon="0.95785">
        <ele>248.16</ele>
        <time>2015-04-19T09:18:11Z</time>
      </trkpt>
      <trkpt lat="44.61031" lon="0.95787">
        <ele>248.16</ele>
        <time>2015-04-19T09:18:12Z</time>
      </trkpt>
      <trkpt lat="44.61032" lon="0.95789">
        <ele>248.16</ele>
        <time>2015-04-19T09:18:13Z</time>
      </trkpt>
      <trkpt lat="44.61032" lon="0.95792">
        <ele>248.16</ele>
        <time>2015-04-19T09:18:14Z</time>
      </trkpt>
      <trkpt lat="44.61033" lon="0.95794">
        <ele>247.68</ele>
        <time>2015-04-19T09:18:15Z</time>
      </trkpt>
      <trkpt lat="44.61033" lon="0.95803">
        <ele>247.68</ele>
        <time>2015-04-19T09:18:19Z</time>
      </trkpt>
      <trkpt lat="44.61032" lon="0.95806">
        <ele>246.72</ele>
        <time>2015-04-19T09:18:20Z</time>
      </trkpt>
      <trkpt lat="44.61023" lon="0.95818">
        <ele>246.23</ele>
        <time>2015-04-19T09:18:26Z</time>
      </trkpt>
      <trkpt lat="44.61022" lon="0.9582">
        <ele>246.23</ele>
        <time>2015-04-19T09:18:27Z</time>
      </trkpt>
      <trkpt lat="44.61023" lon="0.95822">
        <ele>246.23</ele>
        <time>2015-04-19T09:18:28Z</time>
      </trkpt>
      <trkpt lat="44.61023" lon="0.95824">
        <ele>246.23</ele>
        <time>2015-04-19T09:18:29Z</time>
      </trkpt>
      <trkpt lat="44.61023" lon="0.95831">
        <ele>245.75</ele>
        <time>2015-04-19T09:18:33Z</time>
      </trkpt>
      <trkpt lat="44.61021" lon="0.95838">
        <ele>245.27</ele>
        <time>2015-04-19T09:18:38Z</time>
      </trkpt>
      <trkpt lat="44.61022" lon="0.95841">
        <ele>245.27</ele>
        <time>2015-04-19T09:18:39Z</time>
      </trkpt>
      <trkpt lat="44.61023" lon="0.95843">
        <ele>245.27</ele>
        <time>2015-04-19T09:18:40Z</time>
      </trkpt>
      <trkpt lat="44.61023" lon="0.95845">
        <ele>245.27</ele>
        <time>2015-04-19T09:18:41Z</time>
      </trkpt>
      <trkpt lat="44.61023" lon="0.95848">
        <ele>245.27</ele>
        <time>2015-04-19T09:18:42Z</time>
      </trkpt>
      <trkpt lat="44.61022" lon="0.9585">
        <ele>245.27</ele>
        <time>2015-04-19T09:18:43Z</time>
      </trkpt>
      <trkpt lat="44.61022" lon="0.95852">
        <ele>245.27</ele>
        <time>2015-04-19T09:18:44Z</time>
      </trkpt>
      <trkpt lat="44.61021" lon="0.95854">
        <ele>245.75</ele>
        <time>2015-04-19T09:18:45Z</time>
      </trkpt>
      <trkpt lat="44.6102" lon="0.95859">
        <ele>245.27</ele>
        <time>2015-04-19T09:18:48Z</time>
      </trkpt>
      <trkpt lat="44.6102" lon="0.95861">
        <ele>245.27</ele>
        <time>2015-04-19T09:18:49Z</time>
      </trkpt>
      <trkpt lat="44.61019" lon="0.95863">
        <ele>245.27</ele>
        <time>2015-04-19T09:18:50Z</time>
      </trkpt>
      <trkpt lat="44.61018" lon="0.95865">
        <ele>245.27</ele>
        <time>2015-04-19T09:18:51Z</time>
      </trkpt>
      <trkpt lat="44.61019" lon="0.95867">
        <ele>245.27</ele>
        <time>2015-04-19T09:18:52Z</time>
      </trkpt>
      <trkpt lat="44.61017" lon="0.95872">
        <ele>244.79</ele>
        <time>2015-04-19T09:18:55Z</time>
      </trkpt>
      <trkpt lat="44.61018" lon="0.95874">
        <ele>244.79</ele>
        <time>2015-04-19T09:18:56Z</time>
      </trkpt>
      <trkpt lat="44.61016" lon="0.95885">
        <ele>244.79</ele>
        <time>2015-04-19T09:19:00Z</time>
      </trkpt>
      <trkpt lat="44.61015" lon="0.95887">
        <ele>244.79</ele>
        <time>2015-04-19T09:19:01Z</time>
      </trkpt>
      <trkpt lat="44.61014" lon="0.95889">
        <ele>244.79</ele>
        <time>2015-04-19T09:19:02Z</time>
      </trkpt>
      <trkpt lat="44.61013" lon="0.95891">
        <ele>244.31</ele>
        <time>2015-04-19T09:19:03Z</time>
      </trkpt>
      <trkpt lat="44.61013" lon="0.95893">
        <ele>244.31</ele>
        <time>2015-04-19T09:19:04Z</time>
      </trkpt>
      <trkpt lat="44.61012" lon="0.95895">
        <ele>244.31</ele>
        <time>2015-04-19T09:19:05Z</time>
      </trkpt>
      <trkpt lat="44.61011" lon="0.95897">
        <ele>244.31</ele>
        <time>2015-04-19T09:19:06Z</time>
      </trkpt>
      <trkpt lat="44.61011" lon="0.95898">
        <ele>244.31</ele>
        <time>2015-04-19T09:19:07Z</time>
      </trkpt>
      <trkpt lat="44.61005" lon="0.95911">
        <ele>244.31</ele>
        <time>2015-04-19T09:19:13Z</time>
      </trkpt>
      <trkpt lat="44.61003" lon="0.95916">
        <ele>244.31</ele>
        <time>2015-04-19T09:19:15Z</time>
      </trkpt>
      <trkpt lat="44.61001" lon="0.95918">
        <ele>244.31</ele>
        <time>2015-04-19T09:19:16Z</time>
      </trkpt>
      <trkpt lat="44.61" lon="0.9592">
        <ele>244.31</ele>
        <time>2015-04-19T09:19:17Z</time>
      </trkpt>
      <trkpt lat="44.61" lon="0.95923">
        <ele>244.31</ele>
        <time>2015-04-19T09:19:18Z</time>
      </trkpt>
      <trkpt lat="44.61" lon="0.95925">
        <ele>244.31</ele>
        <time>2015-04-19T09:19:19Z</time>
      </trkpt>
      <trkpt lat="44.60999" lon="0.95927">
        <ele>244.31</ele>
        <time>2015-04-19T09:19:20Z</time>
      </trkpt>
      <trkpt lat="44.60999" lon="0.9593">
        <ele>243.83</ele>
        <time>2015-04-19T09:19:21Z</time>
      </trkpt>
      <trkpt lat="44.60997" lon="0.95932">
        <ele>243.83</ele>
        <time>2015-04-19T09:19:22Z</time>
      </trkpt>
      <trkpt lat="44.60995" lon="0.95942">
        <ele>243.83</ele>
        <time>2015-04-19T09:19:27Z</time>
      </trkpt>
      <trkpt lat="44.60994" lon="0.95944">
        <ele>243.83</ele>
        <time>2015-04-19T09:19:28Z</time>
      </trkpt>
      <trkpt lat="44.60981" lon="0.95964">
        <ele>243.83</ele>
        <time>2015-04-19T09:19:41Z</time>
      </trkpt>
      <trkpt lat="44.6098" lon="0.95965">
        <ele>243.83</ele>
        <time>2015-04-19T09:19:42Z</time>
      </trkpt>
      <trkpt lat="44.60979" lon="0.95967">
        <ele>243.83</ele>
        <time>2015-04-19T09:19:43Z</time>
      </trkpt>
      <trkpt lat="44.60967" lon="0.95984">
        <ele>243.83</ele>
        <time>2015-04-19T09:19:53Z</time>
      </trkpt>
      <trkpt lat="44.60962" lon="0.95993">
        <ele>243.83</ele>
        <time>2015-04-19T09:20:00Z</time>
      </trkpt>
      <trkpt lat="44.6096" lon="0.95995">
        <ele>243.35</ele>
        <time>2015-04-19T09:20:01Z</time>
      </trkpt>
      <trkpt lat="44.60944" lon="0.96016">
        <ele>242.87</ele>
        <time>2015-04-19T09:20:10Z</time>
      </trkpt>
      <trkpt lat="44.60924" lon="0.9603">
        <ele>241.91</ele>
        <time>2015-04-19T09:20:18Z</time>
      </trkpt>
      <trkpt lat="44.6091" lon="0.96046">
        <ele>241.43</ele>
        <time>2015-04-19T09:20:27Z</time>
      </trkpt>
      <trkpt lat="44.60908" lon="0.9605">
        <ele>240.95</ele>
        <time>2015-04-19T09:20:29Z</time>
      </trkpt>
      <trkpt lat="44.60906" lon="0.96051">
        <ele>240.95</ele>
        <time>2015-04-19T09:20:30Z</time>
      </trkpt>
      <trkpt lat="44.609" lon="0.96056">
        <ele>240.95</ele>
        <time>2015-04-19T09:20:32Z</time>
      </trkpt>
      <trkpt lat="44.60896" lon="0.96058">
        <ele>240.95</ele>
        <time>2015-04-19T09:20:33Z</time>
      </trkpt>
      <trkpt lat="44.60894" lon="0.96058">
        <ele>239.99</ele>
        <time>2015-04-19T09:20:34Z</time>
      </trkpt>
      <trkpt lat="44.60891" lon="0.96058">
        <ele>240.47</ele>
        <time>2015-04-19T09:20:35Z</time>
      </trkpt>
      <trkpt lat="44.6089" lon="0.96058">
        <ele>239.51</ele>
        <time>2015-04-19T09:20:36Z</time>
      </trkpt>
      <trkpt lat="44.60873" lon="0.9607">
        <ele>237.1</ele>
        <time>2015-04-19T09:20:44Z</time>
      </trkpt>
      <trkpt lat="44.60853" lon="0.96084">
        <ele>237.1</ele>
        <time>2015-04-19T09:20:51Z</time>
      </trkpt>
      <trkpt lat="44.6085" lon="0.96086">
        <ele>237.1</ele>
        <time>2015-04-19T09:20:52Z</time>
      </trkpt>
      <trkpt lat="44.60848" lon="0.96087">
        <ele>237.1</ele>
        <time>2015-04-19T09:20:53Z</time>
      </trkpt>
      <trkpt lat="44.60846" lon="0.96089">
        <ele>237.1</ele>
        <time>2015-04-19T09:20:54Z</time>
      </trkpt>
      <trkpt lat="44.60844" lon="0.96091">
        <ele>237.1</ele>
        <time>2015-04-19T09:20:55Z</time>
      </trkpt>
      <trkpt lat="44.60842" lon="0.96092">
        <ele>237.1</ele>
        <time>2015-04-19T09:20:56Z</time>
      </trkpt>
      <trkpt lat="44.60839" lon="0.96094">
        <ele>236.62</ele>
        <time>2015-04-19T09:20:57Z</time>
      </trkpt>
      <trkpt lat="44.60837" lon="0.96095">
        <ele>236.62</ele>
        <time>2015-04-19T09:20:58Z</time>
      </trkpt>
      <trkpt lat="44.60835" lon="0.96097">
        <ele>236.62</ele>
        <time>2015-04-19T09:20:59Z</time>
      </trkpt>
      <trkpt lat="44.60823" lon="0.96104">
        <ele>236.14</ele>
        <time>2015-04-19T09:21:06Z</time>
      </trkpt>
      <trkpt lat="44.60811" lon="0.96113">
        <ele>236.14</ele>
        <time>2015-04-19T09:21:15Z</time>
      </trkpt>
      <trkpt lat="44.60795" lon="0.96118">
        <ele>236.14</ele>
        <time>2015-04-19T09:21:26Z</time>
      </trkpt>
      <trkpt lat="44.60779" lon="0.96127">
        <ele>236.14</ele>
        <time>2015-04-19T09:21:40Z</time>
      </trkpt>
      <trkpt lat="44.60776" lon="0.9613">
        <ele>236.14</ele>
        <time>2015-04-19T09:21:42Z</time>
      </trkpt>
      <trkpt lat="44.60775" lon="0.96132">
        <ele>235.66</ele>
        <time>2015-04-19T09:21:43Z</time>
      </trkpt>
      <trkpt lat="44.60775" lon="0.96134">
        <ele>235.66</ele>
        <time>2015-04-19T09:21:44Z</time>
      </trkpt>
      <trkpt lat="44.60774" lon="0.96136">
        <ele>235.66</ele>
        <time>2015-04-19T09:21:45Z</time>
      </trkpt>
      <trkpt lat="44.60773" lon="0.96137">
        <ele>235.66</ele>
        <time>2015-04-19T09:21:46Z</time>
      </trkpt>
      <trkpt lat="44.60772" lon="0.96139">
        <ele>235.66</ele>
        <time>2015-04-19T09:21:47Z</time>
      </trkpt>
      <trkpt lat="44.60771" lon="0.96141">
        <ele>235.66</ele>
        <time>2015-04-19T09:21:48Z</time>
      </trkpt>
      <trkpt lat="44.6077" lon="0.96143">
        <ele>235.66</ele>
        <time>2015-04-19T09:21:49Z</time>
      </trkpt>
      <trkpt lat="44.60763" lon="0.96152">
        <ele>235.66</ele>
        <time>2015-04-19T09:21:54Z</time>
      </trkpt>
      <trkpt lat="44.60762" lon="0.96154">
        <ele>235.66</ele>
        <time>2015-04-19T09:21:55Z</time>
      </trkpt>
      <trkpt lat="44.6076" lon="0.96156">
        <ele>235.66</ele>
        <time>2015-04-19T09:21:56Z</time>
      </trkpt>
      <trkpt lat="44.60758" lon="0.96158">
        <ele>235.66</ele>
        <time>2015-04-19T09:21:57Z</time>
      </trkpt>
      <trkpt lat="44.60756" lon="0.9616">
        <ele>235.66</ele>
        <time>2015-04-19T09:21:58Z</time>
      </trkpt>
      <trkpt lat="44.60734" lon="0.96175">
        <ele>235.66</ele>
        <time>2015-04-19T09:22:06Z</time>
      </trkpt>
      <trkpt lat="44.60719" lon="0.96189">
        <ele>235.66</ele>
        <time>2015-04-19T09:22:15Z</time>
      </trkpt>
      <trkpt lat="44.60717" lon="0.96191">
        <ele>235.66</ele>
        <time>2015-04-19T09:22:16Z</time>
      </trkpt>
      <trkpt lat="44.60716" lon="0.96192">
        <ele>235.66</ele>
        <time>2015-04-19T09:22:17Z</time>
      </trkpt>
      <trkpt lat="44.60715" lon="0.96193">
        <ele>235.66</ele>
        <time>2015-04-19T09:22:18Z</time>
      </trkpt>
      <trkpt lat="44.60714" lon="0.96195">
        <ele>235.66</ele>
        <time>2015-04-19T09:22:19Z</time>
      </trkpt>
      <trkpt lat="44.6071" lon="0.962">
        <ele>235.66</ele>
        <time>2015-04-19T09:22:22Z</time>
      </trkpt>
      <trkpt lat="44.60705" lon="0.96206">
        <ele>235.66</ele>
        <time>2015-04-19T09:22:26Z</time>
      </trkpt>
      <trkpt lat="44.60696" lon="0.96217">
        <ele>235.18</ele>
        <time>2015-04-19T09:22:34Z</time>
      </trkpt>
      <trkpt lat="44.60687" lon="0.96232">
        <ele>235.18</ele>
        <time>2015-04-19T09:22:45Z</time>
      </trkpt>
      <trkpt lat="44.60686" lon="0.96236">
        <ele>235.18</ele>
        <time>2015-04-19T09:22:48Z</time>
      </trkpt>
      <trkpt lat="44.6068" lon="0.96255">
        <ele>234.7</ele>
        <time>2015-04-19T09:23:00Z</time>
      </trkpt>
      <trkpt lat="44.60676" lon="0.96262">
        <ele>234.7</ele>
        <time>2015-04-19T09:23:05Z</time>
      </trkpt>
      <trkpt lat="44.60672" lon="0.96268">
        <ele>234.7</ele>
        <time>2015-04-19T09:23:08Z</time>
      </trkpt>
      <trkpt lat="44.60672" lon="0.9627">
        <ele>234.7</ele>
        <time>2015-04-19T09:23:09Z</time>
      </trkpt>
      <trkpt lat="44.60671" lon="0.96273">
        <ele>234.7</ele>
        <time>2015-04-19T09:23:10Z</time>
      </trkpt>
      <trkpt lat="44.6067" lon="0.96276">
        <ele>234.22</ele>
        <time>2015-04-19T09:23:11Z</time>
      </trkpt>
      <trkpt lat="44.60669" lon="0.96277">
        <ele>234.22</ele>
        <time>2015-04-19T09:23:12Z</time>
      </trkpt>
      <trkpt lat="44.60668" lon="0.96282">
        <ele>234.22</ele>
        <time>2015-04-19T09:23:13Z</time>
      </trkpt>
      <trkpt lat="44.60666" lon="0.96285">
        <ele>234.22</ele>
        <time>2015-04-19T09:23:14Z</time>
      </trkpt>
      <trkpt lat="44.60664" lon="0.96288">
        <ele>234.22</ele>
        <time>2015-04-19T09:23:15Z</time>
      </trkpt>
      <trkpt lat="44.60664" lon="0.96291">
        <ele>234.22</ele>
        <time>2015-04-19T09:23:16Z</time>
      </trkpt>
      <trkpt lat="44.60664" lon="0.96294">
        <ele>234.22</ele>
        <time>2015-04-19T09:23:17Z</time>
      </trkpt>
      <trkpt lat="44.60664" lon="0.96297">
        <ele>233.74</ele>
        <time>2015-04-19T09:23:18Z</time>
      </trkpt>
      <trkpt lat="44.60663" lon="0.96301">
        <ele>233.74</ele>
        <time>2015-04-19T09:23:19Z</time>
      </trkpt>
      <trkpt lat="44.60663" lon="0.96304">
        <ele>233.74</ele>
        <time>2015-04-19T09:23:20Z</time>
      </trkpt>
      <trkpt lat="44.60662" lon="0.96307">
        <ele>233.74</ele>
        <time>2015-04-19T09:23:21Z</time>
      </trkpt>
      <trkpt lat="44.60661" lon="0.9631">
        <ele>232.78</ele>
        <time>2015-04-19T09:23:22Z</time>
      </trkpt>
      <trkpt lat="44.60661" lon="0.96312">
        <ele>233.26</ele>
        <time>2015-04-19T09:23:23Z</time>
      </trkpt>
      <trkpt lat="44.60658" lon="0.96322">
        <ele>231.81</ele>
        <time>2015-04-19T09:23:27Z</time>
      </trkpt>
      <trkpt lat="44.60657" lon="0.96325">
        <ele>231.33</ele>
        <time>2015-04-19T09:23:28Z</time>
      </trkpt>
      <trkpt lat="44.60655" lon="0.96327">
        <ele>231.33</ele>
        <time>2015-04-19T09:23:29Z</time>
      </trkpt>
      <trkpt lat="44.60654" lon="0.96328">
        <ele>231.33</ele>
        <time>2015-04-19T09:23:30Z</time>
      </trkpt>
      <trkpt lat="44.60652" lon="0.9633">
        <ele>231.33</ele>
        <time>2015-04-19T09:23:31Z</time>
      </trkpt>
      <trkpt lat="44.60651" lon="0.96333">
        <ele>231.33</ele>
        <time>2015-04-19T09:23:32Z</time>
      </trkpt>
      <trkpt lat="44.60651" lon="0.96335">
        <ele>231.33</ele>
        <time>2015-04-19T09:23:33Z</time>
      </trkpt>
      <trkpt lat="44.6065" lon="0.96337">
        <ele>231.33</ele>
        <time>2015-04-19T09:23:34Z</time>
      </trkpt>
      <trkpt lat="44.60649" lon="0.96339">
        <ele>231.33</ele>
        <time>2015-04-19T09:23:35Z</time>
      </trkpt>
      <trkpt lat="44.60648" lon="0.96342">
        <ele>231.33</ele>
        <time>2015-04-19T09:23:36Z</time>
      </trkpt>
      <trkpt lat="44.60648" lon="0.96345">
        <ele>231.33</ele>
        <time>2015-04-19T09:23:37Z</time>
      </trkpt>
      <trkpt lat="44.60647" lon="0.96349">
        <ele>231.33</ele>
        <time>2015-04-19T09:23:38Z</time>
      </trkpt>
      <trkpt lat="44.60647" lon="0.96358">
        <ele>230.85</ele>
        <time>2015-04-19T09:23:41Z</time>
      </trkpt>
      <trkpt lat="44.60638" lon="0.96371">
        <ele>227.97</ele>
        <time>2015-04-19T09:23:50Z</time>
      </trkpt>
      <trkpt lat="44.60638" lon="0.96373">
        <ele>227.01</ele>
        <time>2015-04-19T09:23:51Z</time>
      </trkpt>
      <trkpt lat="44.60639" lon="0.96376">
        <ele>226.53</ele>
        <time>2015-04-19T09:23:52Z</time>
      </trkpt>
      <trkpt lat="44.60639" lon="0.96378">
        <ele>225.57</ele>
        <time>2015-04-19T09:23:53Z</time>
      </trkpt>
      <trkpt lat="44.60639" lon="0.9638">
        <ele>225.09</ele>
        <time>2015-04-19T09:23:54Z</time>
      </trkpt>
      <trkpt lat="44.6064" lon="0.96382">
        <ele>224.61</ele>
        <time>2015-04-19T09:23:55Z</time>
      </trkpt>
      <trkpt lat="44.60641" lon="0.96384">
        <ele>224.12</ele>
        <time>2015-04-19T09:23:56Z</time>
      </trkpt>
      <trkpt lat="44.60643" lon="0.96398">
        <ele>223.16</ele>
        <time>2015-04-19T09:24:00Z</time>
      </trkpt>
      <trkpt lat="44.60643" lon="0.96402">
        <ele>223.16</ele>
        <time>2015-04-19T09:24:01Z</time>
      </trkpt>
      <trkpt lat="44.60642" lon="0.96408">
        <ele>223.16</ele>
        <time>2015-04-19T09:24:03Z</time>
      </trkpt>
      <trkpt lat="44.60642" lon="0.96413">
        <ele>223.16</ele>
        <time>2015-04-19T09:24:04Z</time>
      </trkpt>
      <trkpt lat="44.60641" lon="0.96418">
        <ele>223.16</ele>
        <time>2015-04-19T09:24:05Z</time>
      </trkpt>
      <trkpt lat="44.60642" lon="0.96424">
        <ele>223.16</ele>
        <time>2015-04-19T09:24:06Z</time>
      </trkpt>
      <trkpt lat="44.60641" lon="0.96428">
        <ele>223.16</ele>
        <time>2015-04-19T09:24:07Z</time>
      </trkpt>
      <trkpt lat="44.6064" lon="0.96433">
        <ele>223.16</ele>
        <time>2015-04-19T09:24:08Z</time>
      </trkpt>
      <trkpt lat="44.60642" lon="0.96439">
        <ele>223.16</ele>
        <time>2015-04-19T09:24:09Z</time>
      </trkpt>
      <trkpt lat="44.60641" lon="0.96443">
        <ele>223.16</ele>
        <time>2015-04-19T09:24:10Z</time>
      </trkpt>
      <trkpt lat="44.6064" lon="0.96446">
        <ele>223.16</ele>
        <time>2015-04-19T09:24:11Z</time>
      </trkpt>
      <trkpt lat="44.60639" lon="0.9645">
        <ele>223.16</ele>
        <time>2015-04-19T09:24:12Z</time>
      </trkpt>
      <trkpt lat="44.60638" lon="0.96453">
        <ele>223.16</ele>
        <time>2015-04-19T09:24:13Z</time>
      </trkpt>
      <trkpt lat="44.60637" lon="0.96455">
        <ele>223.16</ele>
        <time>2015-04-19T09:24:14Z</time>
      </trkpt>
      <trkpt lat="44.60635" lon="0.9646">
        <ele>223.16</ele>
        <time>2015-04-19T09:24:16Z</time>
      </trkpt>
      <trkpt lat="44.60634" lon="0.96462">
        <ele>223.16</ele>
        <time>2015-04-19T09:24:17Z</time>
      </trkpt>
      <trkpt lat="44.60634" lon="0.96465">
        <ele>223.16</ele>
        <time>2015-04-19T09:24:18Z</time>
      </trkpt>
      <trkpt lat="44.60634" lon="0.96468">
        <ele>222.68</ele>
        <time>2015-04-19T09:24:19Z</time>
      </trkpt>
      <trkpt lat="44.60634" lon="0.9647">
        <ele>222.68</ele>
        <time>2015-04-19T09:24:20Z</time>
      </trkpt>
      <trkpt lat="44.60634" lon="0.96473">
        <ele>222.68</ele>
        <time>2015-04-19T09:24:21Z</time>
      </trkpt>
      <trkpt lat="44.60633" lon="0.96475">
        <ele>222.68</ele>
        <time>2015-04-19T09:24:22Z</time>
      </trkpt>
      <trkpt lat="44.60633" lon="0.96477">
        <ele>222.68</ele>
        <time>2015-04-19T09:24:23Z</time>
      </trkpt>
      <trkpt lat="44.60633" lon="0.96479">
        <ele>222.2</ele>
        <time>2015-04-19T09:24:24Z</time>
      </trkpt>
      <trkpt lat="44.60633" lon="0.96482">
        <ele>222.2</ele>
        <time>2015-04-19T09:24:25Z</time>
      </trkpt>
      <trkpt lat="44.60627" lon="0.965">
        <ele>220.76</ele>
        <time>2015-04-19T09:24:34Z</time>
      </trkpt>
      <trkpt lat="44.60629" lon="0.96529">
        <ele>219.32</ele>
        <time>2015-04-19T09:24:45Z</time>
      </trkpt>
      <trkpt lat="44.60627" lon="0.96544">
        <ele>215.95</ele>
        <time>2015-04-19T09:24:52Z</time>
      </trkpt>
      <trkpt lat="44.60631" lon="0.96567">
        <ele>214.99</ele>
        <time>2015-04-19T09:25:05Z</time>
      </trkpt>
      <trkpt lat="44.60631" lon="0.96569">
        <ele>214.99</ele>
        <time>2015-04-19T09:25:06Z</time>
      </trkpt>
      <trkpt lat="44.60631" lon="0.9657">
        <ele>214.99</ele>
        <time>2015-04-19T09:25:07Z</time>
      </trkpt>
      <trkpt lat="44.60633" lon="0.96577">
        <ele>214.99</ele>
        <time>2015-04-19T09:25:12Z</time>
      </trkpt>
      <trkpt lat="44.60634" lon="0.96579">
        <ele>214.99</ele>
        <time>2015-04-19T09:25:13Z</time>
      </trkpt>
      <trkpt lat="44.60635" lon="0.9658">
        <ele>214.99</ele>
        <time>2015-04-19T09:25:14Z</time>
      </trkpt>
      <trkpt lat="44.60635" lon="0.96582">
        <ele>214.99</ele>
        <time>2015-04-19T09:25:15Z</time>
      </trkpt>
      <trkpt lat="44.60635" lon="0.96609">
        <ele>214.99</ele>
        <time>2015-04-19T09:25:29Z</time>
      </trkpt>
      <trkpt lat="44.60634" lon="0.96619">
        <ele>214.99</ele>
        <time>2015-04-19T09:25:34Z</time>
      </trkpt>
      <trkpt lat="44.60629" lon="0.96641">
        <ele>214.99</ele>
        <time>2015-04-19T09:25:47Z</time>
      </trkpt>
      <trkpt lat="44.60624" lon="0.96656">
        <ele>216.43</ele>
        <time>2015-04-19T09:25:55Z</time>
      </trkpt>
      <trkpt lat="44.60621" lon="0.96666">
        <ele>216.43</ele>
        <time>2015-04-19T09:26:01Z</time>
      </trkpt>
      <trkpt lat="44.60618" lon="0.96683">
        <ele>217.4</ele>
        <time>2015-04-19T09:26:07Z</time>
      </trkpt>
      <trkpt lat="44.60619" lon="0.9669">
        <ele>217.4</ele>
        <time>2015-04-19T09:26:10Z</time>
      </trkpt>
      <trkpt lat="44.6062" lon="0.96696">
        <ele>217.4</ele>
        <time>2015-04-19T09:26:13Z</time>
      </trkpt>
      <trkpt lat="44.60621" lon="0.96698">
        <ele>217.4</ele>
        <time>2015-04-19T09:26:14Z</time>
      </trkpt>
      <trkpt lat="44.60629" lon="0.9674">
        <ele>214.99</ele>
        <time>2015-04-19T09:26:27Z</time>
      </trkpt>
      <trkpt lat="44.60632" lon="0.96758">
        <ele>211.63</ele>
        <time>2015-04-19T09:26:33Z</time>
      </trkpt>
      <trkpt lat="44.60635" lon="0.96766">
        <ele>208.74</ele>
        <time>2015-04-19T09:26:39Z</time>
      </trkpt>
      <trkpt lat="44.60637" lon="0.96779">
        <ele>207.78</ele>
        <time>2015-04-19T09:26:47Z</time>
      </trkpt>
      <trkpt lat="44.60646" lon="0.96817">
        <ele>206.82</ele>
        <time>2015-04-19T09:26:57Z</time>
      </trkpt>
      <trkpt lat="44.60651" lon="0.96856">
        <ele>204.9</ele>
        <time>2015-04-19T09:27:09Z</time>
      </trkpt>
      <trkpt lat="44.60651" lon="0.96857">
        <ele>204.9</ele>
        <time>2015-04-19T09:27:10Z</time>
      </trkpt>
      <trkpt lat="44.60646" lon="0.96864">
        <ele>202.01</ele>
        <time>2015-04-19T09:27:14Z</time>
      </trkpt>
      <trkpt lat="44.60644" lon="0.96867">
        <ele>201.53</ele>
        <time>2015-04-19T09:27:15Z</time>
      </trkpt>
      <trkpt lat="44.60634" lon="0.96876">
        <ele>198.17</ele>
        <time>2015-04-19T09:27:20Z</time>
      </trkpt>
      <trkpt lat="44.60629" lon="0.96881">
        <ele>197.69</ele>
        <time>2015-04-19T09:27:23Z</time>
      </trkpt>
      <trkpt lat="44.60627" lon="0.96883">
        <ele>197.69</ele>
        <time>2015-04-19T09:27:24Z</time>
      </trkpt>
      <trkpt lat="44.60614" lon="0.96896">
        <ele>197.69</ele>
        <time>2015-04-19T09:27:30Z</time>
      </trkpt>
      <trkpt lat="44.60611" lon="0.96898">
        <ele>197.69</ele>
        <time>2015-04-19T09:27:31Z</time>
      </trkpt>
      <trkpt lat="44.60608" lon="0.96903">
        <ele>197.69</ele>
        <time>2015-04-19T09:27:33Z</time>
      </trkpt>
      <trkpt lat="44.60606" lon="0.96905">
        <ele>197.69</ele>
        <time>2015-04-19T09:27:34Z</time>
      </trkpt>
      <trkpt lat="44.60602" lon="0.96909">
        <ele>197.69</ele>
        <time>2015-04-19T09:27:36Z</time>
      </trkpt>
      <trkpt lat="44.606" lon="0.96912">
        <ele>197.69</ele>
        <time>2015-04-19T09:27:37Z</time>
      </trkpt>
      <trkpt lat="44.60597" lon="0.96914">
        <ele>197.69</ele>
        <time>2015-04-19T09:27:38Z</time>
      </trkpt>
      <trkpt lat="44.60584" lon="0.96929">
        <ele>197.69</ele>
        <time>2015-04-19T09:27:44Z</time>
      </trkpt>
      <trkpt lat="44.6058" lon="0.96933">
        <ele>197.69</ele>
        <time>2015-04-19T09:27:45Z</time>
      </trkpt>
      <trkpt lat="44.60578" lon="0.96934">
        <ele>197.69</ele>
        <time>2015-04-19T09:27:46Z</time>
      </trkpt>
      <trkpt lat="44.60576" lon="0.96938">
        <ele>197.69</ele>
        <time>2015-04-19T09:27:48Z</time>
      </trkpt>
      <trkpt lat="44.60575" lon="0.9694">
        <ele>197.69</ele>
        <time>2015-04-19T09:27:49Z</time>
      </trkpt>
      <trkpt lat="44.60572" lon="0.96944">
        <ele>198.17</ele>
        <time>2015-04-19T09:27:51Z</time>
      </trkpt>
      <trkpt lat="44.6057" lon="0.96947">
        <ele>198.17</ele>
        <time>2015-04-19T09:27:52Z</time>
      </trkpt>
      <trkpt lat="44.60569" lon="0.9695">
        <ele>198.17</ele>
        <time>2015-04-19T09:27:53Z</time>
      </trkpt>
      <trkpt lat="44.60566" lon="0.96952">
        <ele>198.17</ele>
        <time>2015-04-19T09:27:54Z</time>
      </trkpt>
      <trkpt lat="44.60565" lon="0.96955">
        <ele>198.17</ele>
        <time>2015-04-19T09:27:55Z</time>
      </trkpt>
      <trkpt lat="44.60563" lon="0.96957">
        <ele>198.17</ele>
        <time>2015-04-19T09:27:56Z</time>
      </trkpt>
      <trkpt lat="44.60561" lon="0.96959">
        <ele>197.69</ele>
        <time>2015-04-19T09:27:57Z</time>
      </trkpt>
      <trkpt lat="44.60559" lon="0.96961">
        <ele>197.69</ele>
        <time>2015-04-19T09:27:58Z</time>
      </trkpt>
      <trkpt lat="44.60557" lon="0.96962">
        <ele>197.69</ele>
        <time>2015-04-19T09:27:59Z</time>
      </trkpt>
      <trkpt lat="44.60545" lon="0.96966">
        <ele>194.32</ele>
        <time>2015-04-19T09:28:04Z</time>
      </trkpt>
      <trkpt lat="44.60537" lon="0.96969">
        <ele>191.44</ele>
        <time>2015-04-19T09:28:08Z</time>
      </trkpt>
      <trkpt lat="44.60529" lon="0.96971">
        <ele>189.52</ele>
        <time>2015-04-19T09:28:12Z</time>
      </trkpt>
      <trkpt lat="44.60507" lon="0.96977">
        <ele>189.04</ele>
        <time>2015-04-19T09:28:22Z</time>
      </trkpt>
      <trkpt lat="44.60505" lon="0.96978">
        <ele>189.04</ele>
        <time>2015-04-19T09:28:23Z</time>
      </trkpt>
      <trkpt lat="44.60503" lon="0.96979">
        <ele>189.04</ele>
        <time>2015-04-19T09:28:24Z</time>
      </trkpt>
      <trkpt lat="44.60502" lon="0.9698">
        <ele>189.04</ele>
        <time>2015-04-19T09:28:25Z</time>
      </trkpt>
      <trkpt lat="44.60488" lon="0.96988">
        <ele>190</ele>
        <time>2015-04-19T09:28:35Z</time>
      </trkpt>
      <trkpt lat="44.60476" lon="0.96994">
        <ele>190</ele>
        <time>2015-04-19T09:28:43Z</time>
      </trkpt>
      <trkpt lat="44.6046" lon="0.97001">
        <ele>190</ele>
        <time>2015-04-19T09:28:55Z</time>
      </trkpt>
      <trkpt lat="44.60446" lon="0.9701">
        <ele>190.48</ele>
        <time>2015-04-19T09:29:04Z</time>
      </trkpt>
      <trkpt lat="44.60424" lon="0.97018">
        <ele>190.48</ele>
        <time>2015-04-19T09:29:13Z</time>
      </trkpt>
      <trkpt lat="44.60422" lon="0.97019">
        <ele>190.48</ele>
        <time>2015-04-19T09:29:14Z</time>
      </trkpt>
      <trkpt lat="44.60409" lon="0.97033">
        <ele>190.48</ele>
        <time>2015-04-19T09:29:25Z</time>
      </trkpt>
      <trkpt lat="44.60403" lon="0.97041">
        <ele>190.48</ele>
        <time>2015-04-19T09:29:30Z</time>
      </trkpt>
      <trkpt lat="44.60402" lon="0.97045">
        <ele>189.04</ele>
        <time>2015-04-19T09:29:32Z</time>
      </trkpt>
      <trkpt lat="44.604" lon="0.97051">
        <ele>189.04</ele>
        <time>2015-04-19T09:29:35Z</time>
      </trkpt>
      <trkpt lat="44.60386" lon="0.97067">
        <ele>187.11</ele>
        <time>2015-04-19T09:29:43Z</time>
      </trkpt>
      <trkpt lat="44.60379" lon="0.97075">
        <ele>184.71</ele>
        <time>2015-04-19T09:29:47Z</time>
      </trkpt>
      <trkpt lat="44.60377" lon="0.9708">
        <ele>182.79</ele>
        <time>2015-04-19T09:29:49Z</time>
      </trkpt>
      <trkpt lat="44.60377" lon="0.97083">
        <ele>182.31</ele>
        <time>2015-04-19T09:29:50Z</time>
      </trkpt>
      <trkpt lat="44.60369" lon="0.97096">
        <ele>178.94</ele>
        <time>2015-04-19T09:29:56Z</time>
      </trkpt>
      <trkpt lat="44.6036" lon="0.97122">
        <ele>178.94</ele>
        <time>2015-04-19T09:30:08Z</time>
      </trkpt>
      <trkpt lat="44.60353" lon="0.97137">
        <ele>178.46</ele>
        <time>2015-04-19T09:30:17Z</time>
      </trkpt>
      <trkpt lat="44.60349" lon="0.97146">
        <ele>177.5</ele>
        <time>2015-04-19T09:30:21Z</time>
      </trkpt>
      <trkpt lat="44.60353" lon="0.97161">
        <ele>174.14</ele>
        <time>2015-04-19T09:30:30Z</time>
      </trkpt>
      <trkpt lat="44.60351" lon="0.97166">
        <ele>171.73</ele>
        <time>2015-04-19T09:30:34Z</time>
      </trkpt>
      <trkpt lat="44.60333" lon="0.97173">
        <ele>169.81</ele>
        <time>2015-04-19T09:30:40Z</time>
      </trkpt>
      <trkpt lat="44.60326" lon="0.9717">
        <ele>169.33</ele>
        <time>2015-04-19T09:30:48Z</time>
      </trkpt>
      <trkpt lat="44.60296" lon="0.97169">
        <ele>169.33</ele>
        <time>2015-04-19T09:30:59Z</time>
      </trkpt>
      <trkpt lat="44.60284" lon="0.97167">
        <ele>168.37</ele>
        <time>2015-04-19T09:31:06Z</time>
      </trkpt>
      <trkpt lat="44.60263" lon="0.9716">
        <ele>167.89</ele>
        <time>2015-04-19T09:31:18Z</time>
      </trkpt>
      <trkpt lat="44.60231" lon="0.97159">
        <ele>166.93</ele>
        <time>2015-04-19T09:31:34Z</time>
      </trkpt>
      <trkpt lat="44.60221" lon="0.97157">
        <ele>166.93</ele>
        <time>2015-04-19T09:31:41Z</time>
      </trkpt>
      <trkpt lat="44.60213" lon="0.97157">
        <ele>166.93</ele>
        <time>2015-04-19T09:31:47Z</time>
      </trkpt>
      <trkpt lat="44.6021" lon="0.97156">
        <ele>166.45</ele>
        <time>2015-04-19T09:31:49Z</time>
      </trkpt>
      <trkpt lat="44.60188" lon="0.97142">
        <ele>165.96</ele>
        <time>2015-04-19T09:32:05Z</time>
      </trkpt>
      <trkpt lat="44.60187" lon="0.97141">
        <ele>165.96</ele>
        <time>2015-04-19T09:32:06Z</time>
      </trkpt>
      <trkpt lat="44.6018" lon="0.97135">
        <ele>165.96</ele>
        <time>2015-04-19T09:32:12Z</time>
      </trkpt>
      <trkpt lat="44.6017" lon="0.97115">
        <ele>165</ele>
        <time>2015-04-19T09:32:24Z</time>
      </trkpt>
      <trkpt lat="44.60168" lon="0.97113">
        <ele>164.52</ele>
        <time>2015-04-19T09:32:25Z</time>
      </trkpt>
      <trkpt lat="44.60148" lon="0.97099">
        <ele>162.12</ele>
        <time>2015-04-19T09:32:40Z</time>
      </trkpt>
      <trkpt lat="44.6014" lon="0.9709">
        <ele>158.75</ele>
        <time>2015-04-19T09:32:46Z</time>
      </trkpt>
      <trkpt lat="44.60139" lon="0.97089">
        <ele>158.27</ele>
        <time>2015-04-19T09:32:47Z</time>
      </trkpt>
      <trkpt lat="44.60136" lon="0.97086">
        <ele>157.79</ele>
        <time>2015-04-19T09:32:49Z</time>
      </trkpt>
      <trkpt lat="44.60135" lon="0.97084">
        <ele>157.79</ele>
        <time>2015-04-19T09:32:50Z</time>
      </trkpt>
      <trkpt lat="44.60127" lon="0.97076">
        <ele>157.31</ele>
        <time>2015-04-19T09:32:56Z</time>
      </trkpt>
      <trkpt lat="44.60122" lon="0.97073">
        <ele>157.31</ele>
        <time>2015-04-19T09:33:00Z</time>
      </trkpt>
      <trkpt lat="44.60121" lon="0.97073">
        <ele>157.31</ele>
        <time>2015-04-19T09:33:01Z</time>
      </trkpt>
      <trkpt lat="44.6012" lon="0.97073">
        <ele>157.31</ele>
        <time>2015-04-19T09:33:02Z</time>
      </trkpt>
      <trkpt lat="44.60103" lon="0.97063">
        <ele>156.35</ele>
        <time>2015-04-19T09:33:15Z</time>
      </trkpt>
      <trkpt lat="44.60092" lon="0.97055">
        <ele>155.87</ele>
        <time>2015-04-19T09:33:25Z</time>
      </trkpt>
      <trkpt lat="44.6009" lon="0.97055">
        <ele>155.87</ele>
        <time>2015-04-19T09:33:26Z</time>
      </trkpt>
      <trkpt lat="44.60088" lon="0.97054">
        <ele>155.87</ele>
        <time>2015-04-19T09:33:27Z</time>
      </trkpt>
      <trkpt lat="44.60076" lon="0.97052">
        <ele>155.39</ele>
        <time>2015-04-19T09:33:34Z</time>
      </trkpt>
      <trkpt lat="44.60074" lon="0.97051">
        <ele>155.39</ele>
        <time>2015-04-19T09:33:35Z</time>
      </trkpt>
      <trkpt lat="44.60072" lon="0.97051">
        <ele>154.91</ele>
        <time>2015-04-19T09:33:36Z</time>
      </trkpt>
      <trkpt lat="44.60071" lon="0.97051">
        <ele>154.91</ele>
        <time>2015-04-19T09:33:37Z</time>
      </trkpt>
      <trkpt lat="44.60069" lon="0.9705">
        <ele>154.91</ele>
        <time>2015-04-19T09:33:38Z</time>
      </trkpt>
      <trkpt lat="44.6005" lon="0.97046">
        <ele>153.47</ele>
        <time>2015-04-19T09:33:51Z</time>
      </trkpt>
      <trkpt lat="44.60048" lon="0.97044">
        <ele>153.47</ele>
        <time>2015-04-19T09:33:53Z</time>
      </trkpt>
      <trkpt lat="44.60047" lon="0.97042">
        <ele>153.47</ele>
        <time>2015-04-19T09:33:54Z</time>
      </trkpt>
      <trkpt lat="44.60046" lon="0.97038">
        <ele>153.47</ele>
        <time>2015-04-19T09:33:55Z</time>
      </trkpt>
      <trkpt lat="44.60045" lon="0.97033">
        <ele>152.99</ele>
        <time>2015-04-19T09:33:57Z</time>
      </trkpt>
      <trkpt lat="44.60042" lon="0.96996">
        <ele>151.06</ele>
        <time>2015-04-19T09:34:12Z</time>
      </trkpt>
      <trkpt lat="44.60043" lon="0.96986">
        <ele>151.06</ele>
        <time>2015-04-19T09:34:17Z</time>
      </trkpt>
      <trkpt lat="44.60042" lon="0.96973">
        <ele>150.58</ele>
        <time>2015-04-19T09:34:26Z</time>
      </trkpt>
      <trkpt lat="44.60049" lon="0.96948">
        <ele>150.58</ele>
        <time>2015-04-19T09:34:40Z</time>
      </trkpt>
      <trkpt lat="44.60048" lon="0.96932">
        <ele>150.1</ele>
        <time>2015-04-19T09:34:50Z</time>
      </trkpt>
      <trkpt lat="44.60048" lon="0.96929">
        <ele>149.62</ele>
        <time>2015-04-19T09:34:52Z</time>
      </trkpt>
      <trkpt lat="44.60046" lon="0.96921">
        <ele>149.14</ele>
        <time>2015-04-19T09:35:04Z</time>
      </trkpt>
      <trkpt lat="44.60044" lon="0.96919">
        <ele>149.14</ele>
        <time>2015-04-19T09:35:16Z</time>
      </trkpt>
      <trkpt lat="44.60046" lon="0.96915">
        <ele>149.14</ele>
        <time>2015-04-19T09:35:29Z</time>
      </trkpt>
      <trkpt lat="44.60047" lon="0.96911">
        <ele>149.14</ele>
        <time>2015-04-19T09:35:50Z</time>
      </trkpt>
      <trkpt lat="44.60046" lon="0.96908">
        <ele>148.66</ele>
        <time>2015-04-19T09:36:11Z</time>
      </trkpt>
      <trkpt lat="44.60045" lon="0.96907">
        <ele>148.66</ele>
        <time>2015-04-19T09:36:32Z</time>
      </trkpt>
      <trkpt lat="44.60046" lon="0.96903">
        <ele>148.66</ele>
        <time>2015-04-19T09:36:54Z</time>
      </trkpt>
      <trkpt lat="44.60047" lon="0.96903">
        <ele>148.66</ele>
        <time>2015-04-19T09:37:08Z</time>
      </trkpt>
      <trkpt lat="44.60047" lon="0.96902">
        <ele>148.66</ele>
        <time>2015-04-19T09:37:30Z</time>
      </trkpt>
      <trkpt lat="44.60047" lon="0.96904">
        <ele>148.18</ele>
        <time>2015-04-19T09:37:53Z</time>
      </trkpt>
      <trkpt lat="44.60047" lon="0.96904">
        <ele>148.18</ele>
        <time>2015-04-19T09:38:07Z</time>
      </trkpt>
      <trkpt lat="44.60048" lon="0.96904">
        <ele>148.18</ele>
        <time>2015-04-19T09:38:31Z</time>
      </trkpt>
      <trkpt lat="44.60046" lon="0.96904">
        <ele>148.18</ele>
        <time>2015-04-19T09:38:55Z</time>
      </trkpt>
      <trkpt lat="44.60046" lon="0.96904">
        <ele>148.18</ele>
        <time>2015-04-19T09:39:17Z</time>
      </trkpt>
      <trkpt lat="44.60046" lon="0.96903">
        <ele>147.7</ele>
        <time>2015-04-19T09:39:41Z</time>
      </trkpt>
      <trkpt lat="44.60046" lon="0.96901">
        <ele>147.22</ele>
        <time>2015-04-19T09:39:55Z</time>
      </trkpt>
      <trkpt lat="44.60046" lon="0.96903">
        <ele>147.22</ele>
        <time>2015-04-19T09:40:14Z</time>
      </trkpt>
      <trkpt lat="44.60046" lon="0.96903">
        <ele>147.22</ele>
        <time>2015-04-19T09:40:34Z</time>
      </trkpt>
      <trkpt lat="44.60046" lon="0.96903">
        <ele>147.22</ele>
        <time>2015-04-19T09:40:52Z</time>
      </trkpt>
      <trkpt lat="44.60043" lon="0.96903">
        <ele>147.22</ele>
        <time>2015-04-19T09:41:21Z</time>
      </trkpt>
      <trkpt lat="44.60043" lon="0.96903">
        <ele>147.22</ele>
        <time>2015-04-19T09:41:34Z</time>
      </trkpt>
      <trkpt lat="44.60042" lon="0.96902">
        <ele>147.22</ele>
        <time>2015-04-19T09:41:54Z</time>
      </trkpt>
      <trkpt lat="44.60044" lon="0.96904">
        <ele>147.22</ele>
        <time>2015-04-19T09:42:05Z</time>
      </trkpt>
      <trkpt lat="44.60047" lon="0.96903">
        <ele>147.22</ele>
        <time>2015-04-19T09:42:18Z</time>
      </trkpt>
      <trkpt lat="44.60044" lon="0.96913">
        <ele>147.22</ele>
        <time>2015-04-19T09:42:26Z</time>
      </trkpt>
      <trkpt lat="44.60045" lon="0.96943">
        <ele>147.22</ele>
        <time>2015-04-19T09:42:38Z</time>
      </trkpt>
      <trkpt lat="44.60046" lon="0.96964">
        <ele>147.22</ele>
        <time>2015-04-19T09:42:47Z</time>
      </trkpt>
      <trkpt lat="44.60046" lon="0.96994">
        <ele>147.22</ele>
        <time>2015-04-19T09:43:00Z</time>
      </trkpt>
      <trkpt lat="44.60046" lon="0.97022">
        <ele>148.66</ele>
        <time>2015-04-19T09:43:13Z</time>
      </trkpt>
      <trkpt lat="44.60046" lon="0.97023">
        <ele>148.66</ele>
        <time>2015-04-19T09:43:14Z</time>
      </trkpt>
      <trkpt lat="44.60042" lon="0.97026">
        <ele>148.66</ele>
        <time>2015-04-19T09:43:17Z</time>
      </trkpt>
      <trkpt lat="44.60038" lon="0.97026">
        <ele>148.66</ele>
        <time>2015-04-19T09:43:21Z</time>
      </trkpt>
      <trkpt lat="44.60013" lon="0.97023">
        <ele>149.14</ele>
        <time>2015-04-19T09:43:34Z</time>
      </trkpt>
      <trkpt lat="44.59995" lon="0.97026">
        <ele>149.14</ele>
        <time>2015-04-19T09:43:47Z</time>
      </trkpt>
      <trkpt lat="44.5998" lon="0.9704">
        <ele>149.14</ele>
        <time>2015-04-19T09:43:59Z</time>
      </trkpt>
      <trkpt lat="44.59968" lon="0.97052">
        <ele>149.14</ele>
        <time>2015-04-19T09:44:11Z</time>
      </trkpt>
      <trkpt lat="44.5995" lon="0.97072">
        <ele>150.1</ele>
        <time>2015-04-19T09:44:25Z</time>
      </trkpt>
      <trkpt lat="44.59944" lon="0.9708">
        <ele>152.03</ele>
        <time>2015-04-19T09:44:37Z</time>
      </trkpt>
      <trkpt lat="44.59937" lon="0.97084">
        <ele>152.51</ele>
        <time>2015-04-19T09:44:40Z</time>
      </trkpt>
      <trkpt lat="44.59938" lon="0.97077">
        <ele>152.99</ele>
        <time>2015-04-19T09:44:49Z</time>
      </trkpt>
      <trkpt lat="44.59939" lon="0.97058">
        <ele>152.99</ele>
        <time>2015-04-19T09:45:01Z</time>
      </trkpt>
      <trkpt lat="44.59938" lon="0.97044">
        <ele>154.43</ele>
        <time>2015-04-19T09:45:10Z</time>
      </trkpt>
      <trkpt lat="44.5993" lon="0.97036">
        <ele>158.27</ele>
        <time>2015-04-19T09:45:21Z</time>
      </trkpt>
      <trkpt lat="44.59927" lon="0.97034">
        <ele>160.68</ele>
        <time>2015-04-19T09:45:24Z</time>
      </trkpt>
      <trkpt lat="44.59918" lon="0.97029">
        <ele>155.87</ele>
        <time>2015-04-19T09:45:36Z</time>
      </trkpt>
      <trkpt lat="44.59917" lon="0.97029">
        <ele>152.03</ele>
        <time>2015-04-19T09:45:37Z</time>
      </trkpt>
      <trkpt lat="44.59916" lon="0.97029">
        <ele>154.91</ele>
        <time>2015-04-19T09:45:38Z</time>
      </trkpt>
      <trkpt lat="44.59916" lon="0.97029">
        <ele>158.75</ele>
        <time>2015-04-19T09:45:39Z</time>
      </trkpt>
      <trkpt lat="44.59915" lon="0.97028">
        <ele>162.12</ele>
        <time>2015-04-19T09:45:40Z</time>
      </trkpt>
      <trkpt lat="44.59905" lon="0.97022">
        <ele>142.89</ele>
        <time>2015-04-19T09:45:53Z</time>
      </trkpt>
      <trkpt lat="44.59904" lon="0.97021">
        <ele>173.66</ele>
        <time>2015-04-19T09:45:54Z</time>
      </trkpt>
      <trkpt lat="44.59903" lon="0.97021">
        <ele>178.94</ele>
        <time>2015-04-19T09:45:55Z</time>
      </trkpt>
      <trkpt lat="44.59902" lon="0.9702">
        <ele>171.73</ele>
        <time>2015-04-19T09:45:56Z</time>
      </trkpt>
      <trkpt lat="44.59896" lon="0.97012">
        <ele>168.37</ele>
        <time>2015-04-19T09:46:06Z</time>
      </trkpt>
      <trkpt lat="44.59893" lon="0.97004">
        <ele>171.73</ele>
        <time>2015-04-19T09:46:16Z</time>
      </trkpt>
      <trkpt lat="44.59893" lon="0.97003">
        <ele>173.66</ele>
        <time>2015-04-19T09:46:19Z</time>
      </trkpt>
      <trkpt lat="44.59881" lon="0.97004">
        <ele>174.14</ele>
        <time>2015-04-19T09:46:32Z</time>
      </trkpt>
      <trkpt lat="44.59881" lon="0.97002">
        <ele>174.14</ele>
        <time>2015-04-19T09:46:34Z</time>
      </trkpt>
      <trkpt lat="44.59877" lon="0.96999">
        <ele>174.14</ele>
        <time>2015-04-19T09:46:38Z</time>
      </trkpt>
      <trkpt lat="44.59863" lon="0.96997">
        <ele>175.58</ele>
        <time>2015-04-19T09:46:53Z</time>
      </trkpt>
      <trkpt lat="44.59864" lon="0.9699">
        <ele>177.98</ele>
        <time>2015-04-19T09:47:08Z</time>
      </trkpt>
      <trkpt lat="44.59861" lon="0.9698">
        <ele>177.98</ele>
        <time>2015-04-19T09:47:16Z</time>
      </trkpt>
      <trkpt lat="44.59847" lon="0.96958">
        <ele>177.98</ele>
        <time>2015-04-19T09:47:32Z</time>
      </trkpt>
      <trkpt lat="44.59837" lon="0.96938">
        <ele>177.98</ele>
        <time>2015-04-19T09:47:45Z</time>
      </trkpt>
      <trkpt lat="44.5982" lon="0.9692">
        <ele>176.54</ele>
        <time>2015-04-19T09:47:58Z</time>
      </trkpt>
      <trkpt lat="44.59816" lon="0.96913">
        <ele>177.02</ele>
        <time>2015-04-19T09:48:02Z</time>
      </trkpt>
      <trkpt lat="44.59812" lon="0.96908">
        <ele>176.06</ele>
        <time>2015-04-19T09:48:06Z</time>
      </trkpt>
      <trkpt lat="44.59799" lon="0.96885">
        <ele>176.06</ele>
        <time>2015-04-19T09:48:19Z</time>
      </trkpt>
      <trkpt lat="44.59782" lon="0.96866">
        <ele>176.06</ele>
        <time>2015-04-19T09:48:32Z</time>
      </trkpt>
      <trkpt lat="44.59764" lon="0.96853">
        <ele>176.06</ele>
        <time>2015-04-19T09:48:44Z</time>
      </trkpt>
      <trkpt lat="44.5976" lon="0.96852">
        <ele>176.06</ele>
        <time>2015-04-19T09:48:48Z</time>
      </trkpt>
      <trkpt lat="44.59758" lon="0.96854">
        <ele>176.06</ele>
        <time>2015-04-19T09:48:51Z</time>
      </trkpt>
      <trkpt lat="44.59742" lon="0.96864">
        <ele>177.02</ele>
        <time>2015-04-19T09:49:05Z</time>
      </trkpt>
      <trkpt lat="44.59734" lon="0.9687">
        <ele>178.46</ele>
        <time>2015-04-19T09:49:13Z</time>
      </trkpt>
      <trkpt lat="44.59731" lon="0.96875">
        <ele>178.94</ele>
        <time>2015-04-19T09:49:17Z</time>
      </trkpt>
      <trkpt lat="44.59726" lon="0.96884">
        <ele>179.9</ele>
        <time>2015-04-19T09:49:24Z</time>
      </trkpt>
      <trkpt lat="44.59725" lon="0.96893">
        <ele>180.38</ele>
        <time>2015-04-19T09:49:28Z</time>
      </trkpt>
      <trkpt lat="44.59717" lon="0.96916">
        <ele>181.35</ele>
        <time>2015-04-19T09:49:41Z</time>
      </trkpt>
      <trkpt lat="44.59716" lon="0.96918">
        <ele>181.35</ele>
        <time>2015-04-19T09:49:42Z</time>
      </trkpt>
      <trkpt lat="44.59713" lon="0.96938">
        <ele>182.31</ele>
        <time>2015-04-19T09:49:53Z</time>
      </trkpt>
      <trkpt lat="44.59712" lon="0.96946">
        <ele>182.31</ele>
        <time>2015-04-19T09:49:57Z</time>
      </trkpt>
      <trkpt lat="44.59714" lon="0.96972">
        <ele>183.27</ele>
        <time>2015-04-19T09:50:10Z</time>
      </trkpt>
      <trkpt lat="44.59718" lon="0.96988">
        <ele>183.75</ele>
        <time>2015-04-19T09:50:21Z</time>
      </trkpt>
      <trkpt lat="44.59721" lon="0.97007">
        <ele>184.23</ele>
        <time>2015-04-19T09:50:32Z</time>
      </trkpt>
      <trkpt lat="44.59722" lon="0.97031">
        <ele>184.71</ele>
        <time>2015-04-19T09:50:44Z</time>
      </trkpt>
      <trkpt lat="44.5972" lon="0.97048">
        <ele>185.19</ele>
        <time>2015-04-19T09:50:54Z</time>
      </trkpt>
      <trkpt lat="44.59719" lon="0.97051">
        <ele>185.19</ele>
        <time>2015-04-19T09:50:55Z</time>
      </trkpt>
      <trkpt lat="44.59713" lon="0.97082">
        <ele>184.23</ele>
        <time>2015-04-19T09:51:08Z</time>
      </trkpt>
      <trkpt lat="44.59707" lon="0.97107">
        <ele>182.79</ele>
        <time>2015-04-19T09:51:21Z</time>
      </trkpt>
      <trkpt lat="44.59707" lon="0.9711">
        <ele>183.27</ele>
        <time>2015-04-19T09:51:24Z</time>
      </trkpt>
      <trkpt lat="44.59706" lon="0.9713">
        <ele>182.79</ele>
        <time>2015-04-19T09:51:32Z</time>
      </trkpt>
      <trkpt lat="44.59703" lon="0.97135">
        <ele>182.79</ele>
        <time>2015-04-19T09:51:34Z</time>
      </trkpt>
      <trkpt lat="44.59695" lon="0.97164">
        <ele>182.79</ele>
        <time>2015-04-19T09:51:46Z</time>
      </trkpt>
      <trkpt lat="44.59694" lon="0.97166">
        <ele>182.79</ele>
        <time>2015-04-19T09:51:48Z</time>
      </trkpt>
      <trkpt lat="44.59691" lon="0.97174">
        <ele>182.79</ele>
        <time>2015-04-19T09:51:53Z</time>
      </trkpt>
      <trkpt lat="44.59688" lon="0.97181">
        <ele>182.79</ele>
        <time>2015-04-19T09:51:57Z</time>
      </trkpt>
      <trkpt lat="44.59685" lon="0.97188">
        <ele>182.79</ele>
        <time>2015-04-19T09:52:01Z</time>
      </trkpt>
      <trkpt lat="44.59679" lon="0.97198">
        <ele>183.27</ele>
        <time>2015-04-19T09:52:13Z</time>
      </trkpt>
      <trkpt lat="44.59674" lon="0.97211">
        <ele>185.19</ele>
        <time>2015-04-19T09:52:25Z</time>
      </trkpt>
      <trkpt lat="44.59655" lon="0.97232">
        <ele>187.11</ele>
        <time>2015-04-19T09:52:37Z</time>
      </trkpt>
      <trkpt lat="44.59647" lon="0.97245">
        <ele>188.08</ele>
        <time>2015-04-19T09:52:48Z</time>
      </trkpt>
      <trkpt lat="44.59632" lon="0.97267">
        <ele>189.52</ele>
        <time>2015-04-19T09:53:01Z</time>
      </trkpt>
      <trkpt lat="44.59613" lon="0.97287">
        <ele>190.48</ele>
        <time>2015-04-19T09:53:15Z</time>
      </trkpt>
      <trkpt lat="44.596" lon="0.97298">
        <ele>191.44</ele>
        <time>2015-04-19T09:53:25Z</time>
      </trkpt>
      <trkpt lat="44.59584" lon="0.97315">
        <ele>193.36</ele>
        <time>2015-04-19T09:53:38Z</time>
      </trkpt>
      <trkpt lat="44.59578" lon="0.97322">
        <ele>193.84</ele>
        <time>2015-04-19T09:53:42Z</time>
      </trkpt>
      <trkpt lat="44.59576" lon="0.97328">
        <ele>194.32</ele>
        <time>2015-04-19T09:53:47Z</time>
      </trkpt>
      <trkpt lat="44.59565" lon="0.97344">
        <ele>195.28</ele>
        <time>2015-04-19T09:54:00Z</time>
      </trkpt>
      <trkpt lat="44.59555" lon="0.97358">
        <ele>195.77</ele>
        <time>2015-04-19T09:54:12Z</time>
      </trkpt>
      <trkpt lat="44.59538" lon="0.97374">
        <ele>195.77</ele>
        <time>2015-04-19T09:54:25Z</time>
      </trkpt>
      <trkpt lat="44.59524" lon="0.97386">
        <ele>197.21</ele>
        <time>2015-04-19T09:54:37Z</time>
      </trkpt>
      <trkpt lat="44.59511" lon="0.97398">
        <ele>197.69</ele>
        <time>2015-04-19T09:54:49Z</time>
      </trkpt>
      <trkpt lat="44.59502" lon="0.97408">
        <ele>198.17</ele>
        <time>2015-04-19T09:54:58Z</time>
      </trkpt>
      <trkpt lat="44.59495" lon="0.97418">
        <ele>199.13</ele>
        <time>2015-04-19T09:55:10Z</time>
      </trkpt>
      <trkpt lat="44.59491" lon="0.97428">
        <ele>200.57</ele>
        <time>2015-04-19T09:55:19Z</time>
      </trkpt>
      <trkpt lat="44.59481" lon="0.97451">
        <ele>202.98</ele>
        <time>2015-04-19T09:55:35Z</time>
      </trkpt>
      <trkpt lat="44.59467" lon="0.97477">
        <ele>204.42</ele>
        <time>2015-04-19T09:55:50Z</time>
      </trkpt>
      <trkpt lat="44.5945" lon="0.97498">
        <ele>206.82</ele>
        <time>2015-04-19T09:56:02Z</time>
      </trkpt>
      <trkpt lat="44.59447" lon="0.975">
        <ele>206.82</ele>
        <time>2015-04-19T09:56:03Z</time>
      </trkpt>
      <trkpt lat="44.59437" lon="0.97516">
        <ele>208.26</ele>
        <time>2015-04-19T09:56:12Z</time>
      </trkpt>
      <trkpt lat="44.59429" lon="0.97528">
        <ele>209.7</ele>
        <time>2015-04-19T09:56:23Z</time>
      </trkpt>
      <trkpt lat="44.59417" lon="0.97542">
        <ele>213.07</ele>
        <time>2015-04-19T09:56:35Z</time>
      </trkpt>
      <trkpt lat="44.59414" lon="0.9755">
        <ele>216.43</ele>
        <time>2015-04-19T09:56:41Z</time>
      </trkpt>
      <trkpt lat="44.59411" lon="0.97565">
        <ele>216.43</ele>
        <time>2015-04-19T09:56:53Z</time>
      </trkpt>
      <trkpt lat="44.59409" lon="0.97578">
        <ele>216.91</ele>
        <time>2015-04-19T09:57:03Z</time>
      </trkpt>
      <trkpt lat="44.59406" lon="0.97593">
        <ele>218.36</ele>
        <time>2015-04-19T09:57:14Z</time>
      </trkpt>
      <trkpt lat="44.59389" lon="0.97616">
        <ele>220.28</ele>
        <time>2015-04-19T09:57:27Z</time>
      </trkpt>
      <trkpt lat="44.59384" lon="0.97624">
        <ele>220.76</ele>
        <time>2015-04-19T09:57:32Z</time>
      </trkpt>
      <trkpt lat="44.59367" lon="0.97646">
        <ele>221.72</ele>
        <time>2015-04-19T09:57:42Z</time>
      </trkpt>
      <trkpt lat="44.59348" lon="0.97665">
        <ele>222.68</ele>
        <time>2015-04-19T09:57:54Z</time>
      </trkpt>
      <trkpt lat="44.59346" lon="0.9767">
        <ele>223.64</ele>
        <time>2015-04-19T09:57:58Z</time>
      </trkpt>
      <trkpt lat="44.59342" lon="0.97678">
        <ele>227.01</ele>
        <time>2015-04-19T09:58:04Z</time>
      </trkpt>
      <trkpt lat="44.59333" lon="0.97683">
        <ele>228.93</ele>
        <time>2015-04-19T09:58:16Z</time>
      </trkpt>
      <trkpt lat="44.59329" lon="0.97678">
        <ele>228.93</ele>
        <time>2015-04-19T09:58:26Z</time>
      </trkpt>
      <trkpt lat="44.59312" lon="0.97677">
        <ele>229.89</ele>
        <time>2015-04-19T09:58:34Z</time>
      </trkpt>
      <trkpt lat="44.59297" lon="0.97682">
        <ele>230.85</ele>
        <time>2015-04-19T09:58:43Z</time>
      </trkpt>
      <trkpt lat="44.59295" lon="0.97684">
        <ele>231.81</ele>
        <time>2015-04-19T09:58:45Z</time>
      </trkpt>
      <trkpt lat="44.59284" lon="0.97694">
        <ele>233.74</ele>
        <time>2015-04-19T09:58:58Z</time>
      </trkpt>
      <trkpt lat="44.59274" lon="0.9771">
        <ele>236.14</ele>
        <time>2015-04-19T09:59:11Z</time>
      </trkpt>
      <trkpt lat="44.59264" lon="0.97725">
        <ele>238.06</ele>
        <time>2015-04-19T09:59:25Z</time>
      </trkpt>
      <trkpt lat="44.59256" lon="0.97733">
        <ele>240.47</ele>
        <time>2015-04-19T09:59:35Z</time>
      </trkpt>
      <trkpt lat="44.59249" lon="0.97745">
        <ele>241.91</ele>
        <time>2015-04-19T09:59:46Z</time>
      </trkpt>
      <trkpt lat="44.59247" lon="0.97749">
        <ele>242.39</ele>
        <time>2015-04-19T09:59:50Z</time>
      </trkpt>
      <trkpt lat="44.59246" lon="0.9776">
        <ele>243.35</ele>
        <time>2015-04-19T09:59:57Z</time>
      </trkpt>
      <trkpt lat="44.59244" lon="0.97779">
        <ele>245.27</ele>
        <time>2015-04-19T10:00:08Z</time>
      </trkpt>
      <trkpt lat="44.59248" lon="0.97801">
        <ele>246.23</ele>
        <time>2015-04-19T10:00:20Z</time>
      </trkpt>
      <trkpt lat="44.59252" lon="0.97819">
        <ele>247.2</ele>
        <time>2015-04-19T10:00:33Z</time>
      </trkpt>
      <trkpt lat="44.59252" lon="0.9782">
        <ele>247.2</ele>
        <time>2015-04-19T10:00:34Z</time>
      </trkpt>
      <trkpt lat="44.59259" lon="0.97836">
        <ele>247.68</ele>
        <time>2015-04-19T10:00:46Z</time>
      </trkpt>
      <trkpt lat="44.59266" lon="0.97855">
        <ele>248.16</ele>
        <time>2015-04-19T10:00:55Z</time>
      </trkpt>
      <trkpt lat="44.59271" lon="0.97871">
        <ele>249.12</ele>
        <time>2015-04-19T10:01:07Z</time>
      </trkpt>
      <trkpt lat="44.59273" lon="0.97882">
        <ele>249.12</ele>
        <time>2015-04-19T10:01:11Z</time>
      </trkpt>
      <trkpt lat="44.59272" lon="0.97892">
        <ele>249.6</ele>
        <time>2015-04-19T10:01:20Z</time>
      </trkpt>
      <trkpt lat="44.59271" lon="0.97914">
        <ele>249.6</ele>
        <time>2015-04-19T10:01:29Z</time>
      </trkpt>
      <trkpt lat="44.5927" lon="0.9794">
        <ele>250.08</ele>
        <time>2015-04-19T10:01:41Z</time>
      </trkpt>
      <trkpt lat="44.59278" lon="0.9796">
        <ele>251.52</ele>
        <time>2015-04-19T10:01:52Z</time>
      </trkpt>
      <trkpt lat="44.59279" lon="0.97963">
        <ele>251.52</ele>
        <time>2015-04-19T10:01:56Z</time>
      </trkpt>
      <trkpt lat="44.59288" lon="0.9798">
        <ele>251.52</ele>
        <time>2015-04-19T10:02:04Z</time>
      </trkpt>
      <trkpt lat="44.59303" lon="0.97996">
        <ele>251.52</ele>
        <time>2015-04-19T10:02:11Z</time>
      </trkpt>
      <trkpt lat="44.59312" lon="0.98008">
        <ele>250.08</ele>
        <time>2015-04-19T10:02:15Z</time>
      </trkpt>
      <trkpt lat="44.59315" lon="0.98014">
        <ele>250.08</ele>
        <time>2015-04-19T10:02:18Z</time>
      </trkpt>
      <trkpt lat="44.59323" lon="0.98028">
        <ele>248.16</ele>
        <time>2015-04-19T10:02:30Z</time>
      </trkpt>
      <trkpt lat="44.59323" lon="0.98034">
        <ele>247.68</ele>
        <time>2015-04-19T10:02:39Z</time>
      </trkpt>
      <trkpt lat="44.59327" lon="0.98046">
        <ele>247.68</ele>
        <time>2015-04-19T10:02:50Z</time>
      </trkpt>
      <trkpt lat="44.5933" lon="0.98055">
        <ele>247.68</ele>
        <time>2015-04-19T10:02:54Z</time>
      </trkpt>
      <trkpt lat="44.59336" lon="0.98073">
        <ele>249.6</ele>
        <time>2015-04-19T10:03:06Z</time>
      </trkpt>
      <trkpt lat="44.59347" lon="0.98099">
        <ele>251.52</ele>
        <time>2015-04-19T10:03:18Z</time>
      </trkpt>
      <trkpt lat="44.59355" lon="0.9812">
        <ele>252.48</ele>
        <time>2015-04-19T10:03:29Z</time>
      </trkpt>
      <trkpt lat="44.59356" lon="0.98125">
        <ele>252.48</ele>
        <time>2015-04-19T10:03:32Z</time>
      </trkpt>
      <trkpt lat="44.59368" lon="0.98163">
        <ele>252.48</ele>
        <time>2015-04-19T10:03:41Z</time>
      </trkpt>
      <trkpt lat="44.59362" lon="0.98186">
        <ele>252.48</ele>
        <time>2015-04-19T10:03:54Z</time>
      </trkpt>
      <trkpt lat="44.59362" lon="0.98205">
        <ele>252.48</ele>
        <time>2015-04-19T10:04:05Z</time>
      </trkpt>
      <trkpt lat="44.59358" lon="0.98233">
        <ele>252.48</ele>
        <time>2015-04-19T10:04:17Z</time>
      </trkpt>
      <trkpt lat="44.59358" lon="0.98239">
        <ele>252.96</ele>
        <time>2015-04-19T10:04:20Z</time>
      </trkpt>
      <trkpt lat="44.59347" lon="0.98259">
        <ele>253.44</ele>
        <time>2015-04-19T10:04:29Z</time>
      </trkpt>
      <trkpt lat="44.59336" lon="0.98281">
        <ele>254.41</ele>
        <time>2015-04-19T10:04:40Z</time>
      </trkpt>
      <trkpt lat="44.59327" lon="0.98297">
        <ele>254.89</ele>
        <time>2015-04-19T10:04:50Z</time>
      </trkpt>
      <trkpt lat="44.59317" lon="0.9831">
        <ele>255.37</ele>
        <time>2015-04-19T10:04:58Z</time>
      </trkpt>
      <trkpt lat="44.59305" lon="0.98324">
        <ele>255.85</ele>
        <time>2015-04-19T10:05:06Z</time>
      </trkpt>
      <trkpt lat="44.59295" lon="0.98337">
        <ele>255.85</ele>
        <time>2015-04-19T10:05:18Z</time>
      </trkpt>
      <trkpt lat="44.59289" lon="0.98343">
        <ele>255.85</ele>
        <time>2015-04-19T10:05:22Z</time>
      </trkpt>
      <trkpt lat="44.59286" lon="0.9836">
        <ele>254.41</ele>
        <time>2015-04-19T10:05:31Z</time>
      </trkpt>
      <trkpt lat="44.59283" lon="0.98365">
        <ele>253.93</ele>
        <time>2015-04-19T10:05:35Z</time>
      </trkpt>
      <trkpt lat="44.59284" lon="0.98383">
        <ele>252.96</ele>
        <time>2015-04-19T10:05:48Z</time>
      </trkpt>
      <trkpt lat="44.59295" lon="0.98406">
        <ele>252.96</ele>
        <time>2015-04-19T10:06:02Z</time>
      </trkpt>
      <trkpt lat="44.59299" lon="0.98419">
        <ele>252.96</ele>
        <time>2015-04-19T10:06:10Z</time>
      </trkpt>
      <trkpt lat="44.59311" lon="0.98443">
        <ele>251.52</ele>
        <time>2015-04-19T10:06:24Z</time>
      </trkpt>
      <trkpt lat="44.59321" lon="0.9847">
        <ele>250.08</ele>
        <time>2015-04-19T10:06:36Z</time>
      </trkpt>
      <trkpt lat="44.59332" lon="0.98503">
        <ele>249.12</ele>
        <time>2015-04-19T10:06:51Z</time>
      </trkpt>
      <trkpt lat="44.59334" lon="0.98533">
        <ele>249.12</ele>
        <time>2015-04-19T10:07:04Z</time>
      </trkpt>
      <trkpt lat="44.59341" lon="0.98561">
        <ele>248.64</ele>
        <time>2015-04-19T10:07:18Z</time>
      </trkpt>
      <trkpt lat="44.59347" lon="0.98576">
        <ele>248.64</ele>
        <time>2015-04-19T10:07:24Z</time>
      </trkpt>
      <trkpt lat="44.59347" lon="0.98578">
        <ele>248.64</ele>
        <time>2015-04-19T10:07:25Z</time>
      </trkpt>
      <trkpt lat="44.59355" lon="0.98605">
        <ele>248.64</ele>
        <time>2015-04-19T10:07:38Z</time>
      </trkpt>
      <trkpt lat="44.59357" lon="0.98612">
        <ele>248.64</ele>
        <time>2015-04-19T10:07:44Z</time>
      </trkpt>
      <trkpt lat="44.59357" lon="0.98613">
        <ele>248.64</ele>
        <time>2015-04-19T10:07:45Z</time>
      </trkpt>
      <trkpt lat="44.59359" lon="0.98615">
        <ele>248.64</ele>
        <time>2015-04-19T10:07:46Z</time>
      </trkpt>
      <trkpt lat="44.5936" lon="0.98618">
        <ele>248.64</ele>
        <time>2015-04-19T10:07:48Z</time>
      </trkpt>
      <trkpt lat="44.59368" lon="0.98633">
        <ele>249.6</ele>
        <time>2015-04-19T10:08:00Z</time>
      </trkpt>
      <trkpt lat="44.59383" lon="0.98657">
        <ele>249.6</ele>
        <time>2015-04-19T10:08:13Z</time>
      </trkpt>
      <trkpt lat="44.59394" lon="0.9868">
        <ele>249.6</ele>
        <time>2015-04-19T10:08:24Z</time>
      </trkpt>
      <trkpt lat="44.59403" lon="0.98694">
        <ele>249.12</ele>
        <time>2015-04-19T10:08:32Z</time>
      </trkpt>
      <trkpt lat="44.59404" lon="0.98698">
        <ele>249.12</ele>
        <time>2015-04-19T10:08:33Z</time>
      </trkpt>
      <trkpt lat="44.59405" lon="0.98702">
        <ele>249.12</ele>
        <time>2015-04-19T10:08:34Z</time>
      </trkpt>
      <trkpt lat="44.59404" lon="0.98705">
        <ele>249.12</ele>
        <time>2015-04-19T10:08:35Z</time>
      </trkpt>
      <trkpt lat="44.59398" lon="0.98734">
        <ele>249.12</ele>
        <time>2015-04-19T10:08:45Z</time>
      </trkpt>
      <trkpt lat="44.59394" lon="0.98754">
        <ele>245.75</ele>
        <time>2015-04-19T10:08:55Z</time>
      </trkpt>
      <trkpt lat="44.59392" lon="0.98757">
        <ele>244.31</ele>
        <time>2015-04-19T10:08:57Z</time>
      </trkpt>
      <trkpt lat="44.59391" lon="0.98765">
        <ele>241.91</ele>
        <time>2015-04-19T10:09:01Z</time>
      </trkpt>
      <trkpt lat="44.59386" lon="0.98772">
        <ele>240.47</ele>
        <time>2015-04-19T10:09:05Z</time>
      </trkpt>
      <trkpt lat="44.59357" lon="0.98775">
        <ele>239.99</ele>
        <time>2015-04-19T10:09:16Z</time>
      </trkpt>
      <trkpt lat="44.5934" lon="0.9877">
        <ele>239.02</ele>
        <time>2015-04-19T10:09:26Z</time>
      </trkpt>
      <trkpt lat="44.59325" lon="0.98765">
        <ele>238.06</ele>
        <time>2015-04-19T10:09:35Z</time>
      </trkpt>
      <trkpt lat="44.59318" lon="0.98771">
        <ele>237.58</ele>
        <time>2015-04-19T10:09:39Z</time>
      </trkpt>
      <trkpt lat="44.59308" lon="0.98779">
        <ele>236.62</ele>
        <time>2015-04-19T10:09:45Z</time>
      </trkpt>
      <trkpt lat="44.59303" lon="0.98784">
        <ele>236.14</ele>
        <time>2015-04-19T10:09:49Z</time>
      </trkpt>
      <trkpt lat="44.59295" lon="0.98791">
        <ele>232.78</ele>
        <time>2015-04-19T10:09:54Z</time>
      </trkpt>
      <trkpt lat="44.59277" lon="0.98818">
        <ele>228.93</ele>
        <time>2015-04-19T10:10:07Z</time>
      </trkpt>
      <trkpt lat="44.59272" lon="0.98833">
        <ele>228.93</ele>
        <time>2015-04-19T10:10:12Z</time>
      </trkpt>
      <trkpt lat="44.59268" lon="0.98839">
        <ele>228.93</ele>
        <time>2015-04-19T10:10:15Z</time>
      </trkpt>
      <trkpt lat="44.59265" lon="0.98852">
        <ele>228.93</ele>
        <time>2015-04-19T10:10:19Z</time>
      </trkpt>
      <trkpt lat="44.59258" lon="0.98883">
        <ele>228.45</ele>
        <time>2015-04-19T10:10:29Z</time>
      </trkpt>
      <trkpt lat="44.59256" lon="0.98901">
        <ele>227.49</ele>
        <time>2015-04-19T10:10:35Z</time>
      </trkpt>
      <trkpt lat="44.5925" lon="0.98917">
        <ele>226.53</ele>
        <time>2015-04-19T10:10:41Z</time>
      </trkpt>
      <trkpt lat="44.59245" lon="0.9893">
        <ele>226.05</ele>
        <time>2015-04-19T10:10:47Z</time>
      </trkpt>
      <trkpt lat="44.59241" lon="0.98945">
        <ele>225.09</ele>
        <time>2015-04-19T10:10:53Z</time>
      </trkpt>
      <trkpt lat="44.59239" lon="0.98963">
        <ele>224.12</ele>
        <time>2015-04-19T10:11:01Z</time>
      </trkpt>
      <trkpt lat="44.59238" lon="0.98968">
        <ele>223.16</ele>
        <time>2015-04-19T10:11:03Z</time>
      </trkpt>
      <trkpt lat="44.59233" lon="0.98986">
        <ele>221.72</ele>
        <time>2015-04-19T10:11:11Z</time>
      </trkpt>
      <trkpt lat="44.59231" lon="0.98994">
        <ele>221.72</ele>
        <time>2015-04-19T10:11:14Z</time>
      </trkpt>
      <trkpt lat="44.59224" lon="0.99011">
        <ele>218.84</ele>
        <time>2015-04-19T10:11:23Z</time>
      </trkpt>
      <trkpt lat="44.59224" lon="0.99014">
        <ele>218.84</ele>
        <time>2015-04-19T10:11:24Z</time>
      </trkpt>
      <trkpt lat="44.59218" lon="0.99028">
        <ele>215.47</ele>
        <time>2015-04-19T10:11:31Z</time>
      </trkpt>
      <trkpt lat="44.5921" lon="0.99041">
        <ele>212.11</ele>
        <time>2015-04-19T10:11:39Z</time>
      </trkpt>
      <trkpt lat="44.59204" lon="0.99054">
        <ele>208.74</ele>
        <time>2015-04-19T10:11:44Z</time>
      </trkpt>
      <trkpt lat="44.59201" lon="0.9907">
        <ele>206.82</ele>
        <time>2015-04-19T10:11:49Z</time>
      </trkpt>
      <trkpt lat="44.59197" lon="0.99085">
        <ele>207.3</ele>
        <time>2015-04-19T10:11:54Z</time>
      </trkpt>
      <trkpt lat="44.59195" lon="0.99096">
        <ele>206.82</ele>
        <time>2015-04-19T10:11:57Z</time>
      </trkpt>
      <trkpt lat="44.59195" lon="0.99102">
        <ele>206.82</ele>
        <time>2015-04-19T10:11:59Z</time>
      </trkpt>
      <trkpt lat="44.59185" lon="0.99119">
        <ele>204.42</ele>
        <time>2015-04-19T10:12:05Z</time>
      </trkpt>
      <trkpt lat="44.59178" lon="0.99126">
        <ele>201.05</ele>
        <time>2015-04-19T10:12:09Z</time>
      </trkpt>
      <trkpt lat="44.59178" lon="0.99128">
        <ele>200.09</ele>
        <time>2015-04-19T10:12:10Z</time>
      </trkpt>
      <trkpt lat="44.59178" lon="0.99129">
        <ele>199.61</ele>
        <time>2015-04-19T10:12:11Z</time>
      </trkpt>
      <trkpt lat="44.59174" lon="0.99139">
        <ele>198.65</ele>
        <time>2015-04-19T10:12:13Z</time>
      </trkpt>
      <trkpt lat="44.5917" lon="0.99147">
        <ele>197.21</ele>
        <time>2015-04-19T10:12:17Z</time>
      </trkpt>
      <trkpt lat="44.59159" lon="0.99162">
        <ele>196.73</ele>
        <time>2015-04-19T10:12:26Z</time>
      </trkpt>
      <trkpt lat="44.59157" lon="0.99166">
        <ele>196.25</ele>
        <time>2015-04-19T10:12:28Z</time>
      </trkpt>
      <trkpt lat="44.59135" lon="0.99169">
        <ele>193.84</ele>
        <time>2015-04-19T10:12:38Z</time>
      </trkpt>
      <trkpt lat="44.59128" lon="0.99175">
        <ele>190.48</ele>
        <time>2015-04-19T10:12:43Z</time>
      </trkpt>
      <trkpt lat="44.59125" lon="0.99178">
        <ele>189.52</ele>
        <time>2015-04-19T10:12:45Z</time>
      </trkpt>
      <trkpt lat="44.59115" lon="0.99201">
        <ele>189.04</ele>
        <time>2015-04-19T10:12:56Z</time>
      </trkpt>
      <trkpt lat="44.59108" lon="0.9922">
        <ele>187.11</ele>
        <time>2015-04-19T10:13:07Z</time>
      </trkpt>
      <trkpt lat="44.59101" lon="0.99251">
        <ele>185.19</ele>
        <time>2015-04-19T10:13:18Z</time>
      </trkpt>
      <trkpt lat="44.59098" lon="0.99262">
        <ele>181.83</ele>
        <time>2015-04-19T10:13:26Z</time>
      </trkpt>
      <trkpt lat="44.591" lon="0.99332">
        <ele>178.94</ele>
        <time>2015-04-19T10:13:36Z</time>
      </trkpt>
      <trkpt lat="44.59102" lon="0.99384">
        <ele>176.06</ele>
        <time>2015-04-19T10:13:46Z</time>
      </trkpt>
      <trkpt lat="44.59102" lon="0.9939">
        <ele>175.1</ele>
        <time>2015-04-19T10:13:50Z</time>
      </trkpt>
      <trkpt lat="44.591" lon="0.99394">
        <ele>173.17</ele>
        <time>2015-04-19T10:13:55Z</time>
      </trkpt>
      <trkpt lat="44.59098" lon="0.99401">
        <ele>172.21</ele>
        <time>2015-04-19T10:14:00Z</time>
      </trkpt>
      <trkpt lat="44.59095" lon="0.99409">
        <ele>170.77</ele>
        <time>2015-04-19T10:14:05Z</time>
      </trkpt>
      <trkpt lat="44.59091" lon="0.99411">
        <ele>169.81</ele>
        <time>2015-04-19T10:14:08Z</time>
      </trkpt>
      <trkpt lat="44.59074" lon="0.99441">
        <ele>169.33</ele>
        <time>2015-04-19T10:14:23Z</time>
      </trkpt>
      <trkpt lat="44.59067" lon="0.99504">
        <ele>168.85</ele>
        <time>2015-04-19T10:14:39Z</time>
      </trkpt>
      <trkpt lat="44.59065" lon="0.99513">
        <ele>168.37</ele>
        <time>2015-04-19T10:14:41Z</time>
      </trkpt>
      <trkpt lat="44.59042" lon="0.99527">
        <ele>167.89</ele>
        <time>2015-04-19T10:14:55Z</time>
      </trkpt>
      <trkpt lat="44.59027" lon="0.99528">
        <ele>166.45</ele>
        <time>2015-04-19T10:15:06Z</time>
      </trkpt>
      <trkpt lat="44.59019" lon="0.99533">
        <ele>165</ele>
        <time>2015-04-19T10:15:18Z</time>
      </trkpt>
      <trkpt lat="44.59019" lon="0.99539">
        <ele>164.52</ele>
        <time>2015-04-19T10:15:23Z</time>
      </trkpt>
      <trkpt lat="44.59019" lon="0.99551">
        <ele>161.16</ele>
        <time>2015-04-19T10:15:31Z</time>
      </trkpt>
      <trkpt lat="44.5902" lon="0.99559">
        <ele>159.72</ele>
        <time>2015-04-19T10:15:37Z</time>
      </trkpt>
      <trkpt lat="44.5902" lon="0.9957">
        <ele>159.72</ele>
        <time>2015-04-19T10:15:40Z</time>
      </trkpt>
      <trkpt lat="44.59023" lon="0.9959">
        <ele>159.72</ele>
        <time>2015-04-19T10:15:54Z</time>
      </trkpt>
      <trkpt lat="44.59028" lon="0.99606">
        <ele>159.72</ele>
        <time>2015-04-19T10:16:05Z</time>
      </trkpt>
      <trkpt lat="44.59029" lon="0.99617">
        <ele>159.72</ele>
        <time>2015-04-19T10:16:11Z</time>
      </trkpt>
      <trkpt lat="44.59035" lon="0.99634">
        <ele>161.16</ele>
        <time>2015-04-19T10:16:25Z</time>
      </trkpt>
      <trkpt lat="44.59035" lon="0.99637">
        <ele>161.16</ele>
        <time>2015-04-19T10:16:27Z</time>
      </trkpt>
      <trkpt lat="44.59035" lon="0.99651">
        <ele>163.08</ele>
        <time>2015-04-19T10:16:38Z</time>
      </trkpt>
      <trkpt lat="44.59029" lon="0.99662">
        <ele>164.52</ele>
        <time>2015-04-19T10:16:49Z</time>
      </trkpt>
      <trkpt lat="44.59024" lon="0.99662">
        <ele>165.48</ele>
        <time>2015-04-19T10:16:55Z</time>
      </trkpt>
      <trkpt lat="44.59025" lon="0.99689">
        <ele>166.93</ele>
        <time>2015-04-19T10:17:02Z</time>
      </trkpt>
      <trkpt lat="44.5901" lon="0.99707">
        <ele>168.85</ele>
        <time>2015-04-19T10:17:15Z</time>
      </trkpt>
      <trkpt lat="44.59" lon="0.99711">
        <ele>169.81</ele>
        <time>2015-04-19T10:17:22Z</time>
      </trkpt>
      <trkpt lat="44.5898" lon="0.99711">
        <ele>171.73</ele>
        <time>2015-04-19T10:17:37Z</time>
      </trkpt>
      <trkpt lat="44.5896" lon="0.99713">
        <ele>172.69</ele>
        <time>2015-04-19T10:17:51Z</time>
      </trkpt>
      <trkpt lat="44.58951" lon="0.99718">
        <ele>173.66</ele>
        <time>2015-04-19T10:18:01Z</time>
      </trkpt>
      <trkpt lat="44.58948" lon="0.9972">
        <ele>173.66</ele>
        <time>2015-04-19T10:18:04Z</time>
      </trkpt>
      <trkpt lat="44.5893" lon="0.99734">
        <ele>175.1</ele>
        <time>2015-04-19T10:18:20Z</time>
      </trkpt>
      <trkpt lat="44.5892" lon="0.99747">
        <ele>176.06</ele>
        <time>2015-04-19T10:18:31Z</time>
      </trkpt>
      <trkpt lat="44.58918" lon="0.99751">
        <ele>176.06</ele>
        <time>2015-04-19T10:18:34Z</time>
      </trkpt>
      <trkpt lat="44.58907" lon="0.99765">
        <ele>177.02</ele>
        <time>2015-04-19T10:18:45Z</time>
      </trkpt>
      <trkpt lat="44.58898" lon="0.99783">
        <ele>177.5</ele>
        <time>2015-04-19T10:18:59Z</time>
      </trkpt>
      <trkpt lat="44.58883" lon="0.99799">
        <ele>177.98</ele>
        <time>2015-04-19T10:19:12Z</time>
      </trkpt>
      <trkpt lat="44.58857" lon="0.99823">
        <ele>178.46</ele>
        <time>2015-04-19T10:19:28Z</time>
      </trkpt>
      <trkpt lat="44.58845" lon="0.99843">
        <ele>178.94</ele>
        <time>2015-04-19T10:19:40Z</time>
      </trkpt>
      <trkpt lat="44.58832" lon="0.99864">
        <ele>178.46</ele>
        <time>2015-04-19T10:19:54Z</time>
      </trkpt>
      <trkpt lat="44.5883" lon="0.99867">
        <ele>178.46</ele>
        <time>2015-04-19T10:19:56Z</time>
      </trkpt>
      <trkpt lat="44.58816" lon="0.99897">
        <ele>178.46</ele>
        <time>2015-04-19T10:20:12Z</time>
      </trkpt>
      <trkpt lat="44.58804" lon="0.99923">
        <ele>177.5</ele>
        <time>2015-04-19T10:20:25Z</time>
      </trkpt>
      <trkpt lat="44.58801" lon="0.99936">
        <ele>177.5</ele>
        <time>2015-04-19T10:20:31Z</time>
      </trkpt>
      <trkpt lat="44.58797" lon="0.99945">
        <ele>177.5</ele>
        <time>2015-04-19T10:20:35Z</time>
      </trkpt>
      <trkpt lat="44.58788" lon="0.99972">
        <ele>176.06</ele>
        <time>2015-04-19T10:20:49Z</time>
      </trkpt>
      <trkpt lat="44.58786" lon="0.99976">
        <ele>176.54</ele>
        <time>2015-04-19T10:20:51Z</time>
      </trkpt>
      <trkpt lat="44.5878" lon="0.99997">
        <ele>176.06</ele>
        <time>2015-04-19T10:21:01Z</time>
      </trkpt>
      <trkpt lat="44.58777" lon="1.00007">
        <ele>176.06</ele>
        <time>2015-04-19T10:21:06Z</time>
      </trkpt>
      <trkpt lat="44.5877" lon="1.00034">
        <ele>174.62</ele>
        <time>2015-04-19T10:21:19Z</time>
      </trkpt>
      <trkpt lat="44.58762" lon="1.0006">
        <ele>173.66</ele>
        <time>2015-04-19T10:21:32Z</time>
      </trkpt>
      <trkpt lat="44.5876" lon="1.00071">
        <ele>173.17</ele>
        <time>2015-04-19T10:21:37Z</time>
      </trkpt>
      <trkpt lat="44.5875" lon="1.00098">
        <ele>172.21</ele>
        <time>2015-04-19T10:21:52Z</time>
      </trkpt>
      <trkpt lat="44.58747" lon="1.00105">
        <ele>171.25</ele>
        <time>2015-04-19T10:21:56Z</time>
      </trkpt>
      <trkpt lat="44.58741" lon="1.00123">
        <ele>170.29</ele>
        <time>2015-04-19T10:22:06Z</time>
      </trkpt>
      <trkpt lat="44.58741" lon="1.00128">
        <ele>169.81</ele>
        <time>2015-04-19T10:22:09Z</time>
      </trkpt>
      <trkpt lat="44.58736" lon="1.00141">
        <ele>169.33</ele>
        <time>2015-04-19T10:22:17Z</time>
      </trkpt>
      <trkpt lat="44.58727" lon="1.00164">
        <ele>168.37</ele>
        <time>2015-04-19T10:22:28Z</time>
      </trkpt>
      <trkpt lat="44.58717" lon="1.0019">
        <ele>166.93</ele>
        <time>2015-04-19T10:22:40Z</time>
      </trkpt>
      <trkpt lat="44.58705" lon="1.00215">
        <ele>165.96</ele>
        <time>2015-04-19T10:22:54Z</time>
      </trkpt>
      <trkpt lat="44.58699" lon="1.00228">
        <ele>165.96</ele>
        <time>2015-04-19T10:23:02Z</time>
      </trkpt>
      <trkpt lat="44.58693" lon="1.00238">
        <ele>165.48</ele>
        <time>2015-04-19T10:23:08Z</time>
      </trkpt>
      <trkpt lat="44.5869" lon="1.00243">
        <ele>165</ele>
        <time>2015-04-19T10:23:11Z</time>
      </trkpt>
      <trkpt lat="44.58679" lon="1.00261">
        <ele>161.64</ele>
        <time>2015-04-19T10:23:19Z</time>
      </trkpt>
      <trkpt lat="44.58667" lon="1.00279">
        <ele>161.16</ele>
        <time>2015-04-19T10:23:26Z</time>
      </trkpt>
      <trkpt lat="44.58652" lon="1.00304">
        <ele>157.79</ele>
        <time>2015-04-19T10:23:38Z</time>
      </trkpt>
      <trkpt lat="44.58652" lon="1.00305">
        <ele>157.79</ele>
        <time>2015-04-19T10:23:39Z</time>
      </trkpt>
      <trkpt lat="44.58644" lon="1.00323">
        <ele>157.31</ele>
        <time>2015-04-19T10:23:48Z</time>
      </trkpt>
      <trkpt lat="44.58641" lon="1.00329">
        <ele>157.31</ele>
        <time>2015-04-19T10:23:50Z</time>
      </trkpt>
      <trkpt lat="44.5864" lon="1.00332">
        <ele>157.31</ele>
        <time>2015-04-19T10:23:51Z</time>
      </trkpt>
      <trkpt lat="44.5864" lon="1.00334">
        <ele>156.83</ele>
        <time>2015-04-19T10:23:52Z</time>
      </trkpt>
      <trkpt lat="44.58639" lon="1.00336">
        <ele>156.83</ele>
        <time>2015-04-19T10:23:53Z</time>
      </trkpt>
      <trkpt lat="44.58639" lon="1.00339">
        <ele>156.35</ele>
        <time>2015-04-19T10:23:54Z</time>
      </trkpt>
      <trkpt lat="44.58639" lon="1.00342">
        <ele>156.35</ele>
        <time>2015-04-19T10:23:55Z</time>
      </trkpt>
      <trkpt lat="44.58637" lon="1.00358">
        <ele>152.99</ele>
        <time>2015-04-19T10:24:01Z</time>
      </trkpt>
      <trkpt lat="44.58637" lon="1.00368">
        <ele>152.03</ele>
        <time>2015-04-19T10:24:04Z</time>
      </trkpt>
      <trkpt lat="44.58636" lon="1.00373">
        <ele>152.03</ele>
        <time>2015-04-19T10:24:05Z</time>
      </trkpt>
      <trkpt lat="44.58635" lon="1.00376">
        <ele>151.54</ele>
        <time>2015-04-19T10:24:06Z</time>
      </trkpt>
      <trkpt lat="44.58633" lon="1.00377">
        <ele>151.54</ele>
        <time>2015-04-19T10:24:07Z</time>
      </trkpt>
      <trkpt lat="44.58631" lon="1.00378">
        <ele>151.54</ele>
        <time>2015-04-19T10:24:08Z</time>
      </trkpt>
      <trkpt lat="44.58629" lon="1.0038">
        <ele>151.54</ele>
        <time>2015-04-19T10:24:09Z</time>
      </trkpt>
      <trkpt lat="44.58627" lon="1.0038">
        <ele>151.54</ele>
        <time>2015-04-19T10:24:10Z</time>
      </trkpt>
      <trkpt lat="44.58625" lon="1.00381">
        <ele>151.54</ele>
        <time>2015-04-19T10:24:11Z</time>
      </trkpt>
      <trkpt lat="44.58623" lon="1.00381">
        <ele>151.54</ele>
        <time>2015-04-19T10:24:12Z</time>
      </trkpt>
      <trkpt lat="44.58622" lon="1.00382">
        <ele>151.54</ele>
        <time>2015-04-19T10:24:13Z</time>
      </trkpt>
      <trkpt lat="44.5862" lon="1.00382">
        <ele>151.54</ele>
        <time>2015-04-19T10:24:14Z</time>
      </trkpt>
      <trkpt lat="44.58618" lon="1.00382">
        <ele>151.54</ele>
        <time>2015-04-19T10:24:15Z</time>
      </trkpt>
      <trkpt lat="44.58616" lon="1.00382">
        <ele>151.54</ele>
        <time>2015-04-19T10:24:16Z</time>
      </trkpt>
      <trkpt lat="44.58615" lon="1.00382">
        <ele>151.54</ele>
        <time>2015-04-19T10:24:17Z</time>
      </trkpt>
      <trkpt lat="44.58595" lon="1.00391">
        <ele>149.14</ele>
        <time>2015-04-19T10:24:32Z</time>
      </trkpt>
      <trkpt lat="44.58592" lon="1.00391">
        <ele>147.7</ele>
        <time>2015-04-19T10:24:34Z</time>
      </trkpt>
      <trkpt lat="44.58591" lon="1.00391">
        <ele>147.22</ele>
        <time>2015-04-19T10:24:35Z</time>
      </trkpt>
      <trkpt lat="44.58586" lon="1.00393">
        <ele>143.85</ele>
        <time>2015-04-19T10:24:39Z</time>
      </trkpt>
      <trkpt lat="44.5857" lon="1.00399">
        <ele>141.93</ele>
        <time>2015-04-19T10:24:51Z</time>
      </trkpt>
      <trkpt lat="44.58551" lon="1.00407">
        <ele>141.93</ele>
        <time>2015-04-19T10:25:05Z</time>
      </trkpt>
      <trkpt lat="44.58545" lon="1.00427">
        <ele>141.45</ele>
        <time>2015-04-19T10:25:17Z</time>
      </trkpt>
      <trkpt lat="44.58548" lon="1.00435">
        <ele>140.97</ele>
        <time>2015-04-19T10:25:22Z</time>
      </trkpt>
      <trkpt lat="44.58555" lon="1.00453">
        <ele>140.97</ele>
        <time>2015-04-19T10:25:33Z</time>
      </trkpt>
      <trkpt lat="44.58558" lon="1.00463">
        <ele>140.97</ele>
        <time>2015-04-19T10:25:38Z</time>
      </trkpt>
      <trkpt lat="44.58558" lon="1.00464">
        <ele>140.97</ele>
        <time>2015-04-19T10:25:39Z</time>
      </trkpt>
      <trkpt lat="44.58559" lon="1.00466">
        <ele>140.97</ele>
        <time>2015-04-19T10:25:40Z</time>
      </trkpt>
      <trkpt lat="44.5856" lon="1.00468">
        <ele>140.97</ele>
        <time>2015-04-19T10:25:41Z</time>
      </trkpt>
      <trkpt lat="44.5856" lon="1.0047">
        <ele>140.97</ele>
        <time>2015-04-19T10:25:42Z</time>
      </trkpt>
      <trkpt lat="44.58561" lon="1.00472">
        <ele>140.97</ele>
        <time>2015-04-19T10:25:43Z</time>
      </trkpt>
      <trkpt lat="44.58572" lon="1.00501">
        <ele>140.97</ele>
        <time>2015-04-19T10:25:58Z</time>
      </trkpt>
      <trkpt lat="44.58576" lon="1.00515">
        <ele>140.97</ele>
        <time>2015-04-19T10:26:06Z</time>
      </trkpt>
      <trkpt lat="44.58577" lon="1.00516">
        <ele>140.97</ele>
        <time>2015-04-19T10:26:07Z</time>
      </trkpt>
      <trkpt lat="44.58582" lon="1.00532">
        <ele>140.49</ele>
        <time>2015-04-19T10:26:17Z</time>
      </trkpt>
      <trkpt lat="44.5858" lon="1.00546">
        <ele>141.45</ele>
        <time>2015-04-19T10:26:23Z</time>
      </trkpt>
      <trkpt lat="44.58579" lon="1.00548">
        <ele>141.45</ele>
        <time>2015-04-19T10:26:24Z</time>
      </trkpt>
      <trkpt lat="44.58575" lon="1.00554">
        <ele>141.45</ele>
        <time>2015-04-19T10:26:38Z</time>
      </trkpt>
      <trkpt lat="44.58571" lon="1.00562">
        <ele>141.45</ele>
        <time>2015-04-19T10:26:55Z</time>
      </trkpt>
      <trkpt lat="44.58568" lon="1.00567">
        <ele>141.45</ele>
        <time>2015-04-19T10:26:59Z</time>
      </trkpt>
      <trkpt lat="44.58567" lon="1.00568">
        <ele>141.45</ele>
        <time>2015-04-19T10:27:00Z</time>
      </trkpt>
      <trkpt lat="44.58566" lon="1.00568">
        <ele>141.45</ele>
        <time>2015-04-19T10:27:01Z</time>
      </trkpt>
      <trkpt lat="44.58547" lon="1.00579">
        <ele>141.45</ele>
        <time>2015-04-19T10:27:14Z</time>
      </trkpt>
      <trkpt lat="44.58541" lon="1.0059">
        <ele>141.45</ele>
        <time>2015-04-19T10:27:22Z</time>
      </trkpt>
      <trkpt lat="44.58541" lon="1.00592">
        <ele>141.45</ele>
        <time>2015-04-19T10:27:23Z</time>
      </trkpt>
      <trkpt lat="44.58541" lon="1.00593">
        <ele>141.45</ele>
        <time>2015-04-19T10:27:24Z</time>
      </trkpt>
      <trkpt lat="44.58547" lon="1.00611">
        <ele>141.45</ele>
        <time>2015-04-19T10:27:37Z</time>
      </trkpt>
      <trkpt lat="44.58557" lon="1.00634">
        <ele>139.05</ele>
        <time>2015-04-19T10:27:50Z</time>
      </trkpt>
      <trkpt lat="44.58567" lon="1.00661">
        <ele>138.09</ele>
        <time>2015-04-19T10:28:05Z</time>
      </trkpt>
      <trkpt lat="44.58581" lon="1.00694">
        <ele>137.13</ele>
        <time>2015-04-19T10:28:23Z</time>
      </trkpt>
      <trkpt lat="44.58593" lon="1.00722">
        <ele>137.13</ele>
        <time>2015-04-19T10:28:37Z</time>
      </trkpt>
      <trkpt lat="44.58609" lon="1.00753">
        <ele>137.13</ele>
        <time>2015-04-19T10:28:55Z</time>
      </trkpt>
      <trkpt lat="44.5862" lon="1.00777">
        <ele>137.13</ele>
        <time>2015-04-19T10:29:09Z</time>
      </trkpt>
      <trkpt lat="44.58626" lon="1.00786">
        <ele>137.13</ele>
        <time>2015-04-19T10:29:15Z</time>
      </trkpt>
      <trkpt lat="44.58627" lon="1.00787">
        <ele>137.13</ele>
        <time>2015-04-19T10:29:16Z</time>
      </trkpt>
      <trkpt lat="44.58628" lon="1.00788">
        <ele>136.64</ele>
        <time>2015-04-19T10:29:17Z</time>
      </trkpt>
      <trkpt lat="44.58643" lon="1.00807">
        <ele>136.64</ele>
        <time>2015-04-19T10:29:31Z</time>
      </trkpt>
      <trkpt lat="44.5865" lon="1.00814">
        <ele>136.64</ele>
        <time>2015-04-19T10:29:37Z</time>
      </trkpt>
      <trkpt lat="44.58651" lon="1.00816">
        <ele>136.64</ele>
        <time>2015-04-19T10:29:38Z</time>
      </trkpt>
      <trkpt lat="44.58652" lon="1.00818">
        <ele>136.64</ele>
        <time>2015-04-19T10:29:39Z</time>
      </trkpt>
      <trkpt lat="44.58653" lon="1.0082">
        <ele>136.64</ele>
        <time>2015-04-19T10:29:40Z</time>
      </trkpt>
      <trkpt lat="44.58654" lon="1.00822">
        <ele>136.64</ele>
        <time>2015-04-19T10:29:41Z</time>
      </trkpt>
      <trkpt lat="44.58655" lon="1.00824">
        <ele>136.64</ele>
        <time>2015-04-19T10:29:42Z</time>
      </trkpt>
      <trkpt lat="44.58657" lon="1.00826">
        <ele>136.64</ele>
        <time>2015-04-19T10:29:43Z</time>
      </trkpt>
      <trkpt lat="44.58661" lon="1.00833">
        <ele>136.16</ele>
        <time>2015-04-19T10:29:47Z</time>
      </trkpt>
      <trkpt lat="44.58662" lon="1.00834">
        <ele>136.16</ele>
        <time>2015-04-19T10:29:48Z</time>
      </trkpt>
      <trkpt lat="44.58663" lon="1.00836">
        <ele>136.16</ele>
        <time>2015-04-19T10:29:49Z</time>
      </trkpt>
      <trkpt lat="44.58677" lon="1.00854">
        <ele>135.68</ele>
        <time>2015-04-19T10:30:03Z</time>
      </trkpt>
      <trkpt lat="44.58693" lon="1.00875">
        <ele>134.72</ele>
        <time>2015-04-19T10:30:17Z</time>
      </trkpt>
      <trkpt lat="44.58696" lon="1.00878">
        <ele>134.72</ele>
        <time>2015-04-19T10:30:19Z</time>
      </trkpt>
      <trkpt lat="44.58697" lon="1.00879">
        <ele>134.72</ele>
        <time>2015-04-19T10:30:20Z</time>
      </trkpt>
      <trkpt lat="44.58698" lon="1.00881">
        <ele>134.24</ele>
        <time>2015-04-19T10:30:21Z</time>
      </trkpt>
      <trkpt lat="44.58706" lon="1.00889">
        <ele>134.24</ele>
        <time>2015-04-19T10:30:27Z</time>
      </trkpt>
      <trkpt lat="44.58707" lon="1.00891">
        <ele>134.24</ele>
        <time>2015-04-19T10:30:28Z</time>
      </trkpt>
      <trkpt lat="44.58708" lon="1.00893">
        <ele>134.24</ele>
        <time>2015-04-19T10:30:29Z</time>
      </trkpt>
      <trkpt lat="44.58725" lon="1.00915">
        <ele>133.76</ele>
        <time>2015-04-19T10:30:43Z</time>
      </trkpt>
      <trkpt lat="44.58726" lon="1.00917">
        <ele>133.76</ele>
        <time>2015-04-19T10:30:44Z</time>
      </trkpt>
      <trkpt lat="44.58726" lon="1.00919">
        <ele>133.76</ele>
        <time>2015-04-19T10:30:45Z</time>
      </trkpt>
      <trkpt lat="44.58727" lon="1.0092">
        <ele>133.76</ele>
        <time>2015-04-19T10:30:46Z</time>
      </trkpt>
      <trkpt lat="44.58728" lon="1.00922">
        <ele>133.76</ele>
        <time>2015-04-19T10:30:47Z</time>
      </trkpt>
      <trkpt lat="44.58728" lon="1.00923">
        <ele>133.76</ele>
        <time>2015-04-19T10:30:48Z</time>
      </trkpt>
      <trkpt lat="44.58729" lon="1.00925">
        <ele>133.76</ele>
        <time>2015-04-19T10:30:49Z</time>
      </trkpt>
      <trkpt lat="44.5873" lon="1.00926">
        <ele>133.28</ele>
        <time>2015-04-19T10:30:50Z</time>
      </trkpt>
      <trkpt lat="44.58731" lon="1.00927">
        <ele>133.28</ele>
        <time>2015-04-19T10:30:51Z</time>
      </trkpt>
      <trkpt lat="44.58747" lon="1.00946">
        <ele>133.28</ele>
        <time>2015-04-19T10:31:04Z</time>
      </trkpt>
      <trkpt lat="44.58764" lon="1.00963">
        <ele>133.28</ele>
        <time>2015-04-19T10:31:18Z</time>
      </trkpt>
      <trkpt lat="44.5877" lon="1.00969">
        <ele>133.28</ele>
        <time>2015-04-19T10:31:23Z</time>
      </trkpt>
      <trkpt lat="44.58772" lon="1.00972">
        <ele>133.28</ele>
        <time>2015-04-19T10:31:25Z</time>
      </trkpt>
      <trkpt lat="44.58774" lon="1.00973">
        <ele>133.28</ele>
        <time>2015-04-19T10:31:26Z</time>
      </trkpt>
      <trkpt lat="44.58775" lon="1.00973">
        <ele>133.28</ele>
        <time>2015-04-19T10:31:27Z</time>
      </trkpt>
      <trkpt lat="44.58776" lon="1.00975">
        <ele>133.28</ele>
        <time>2015-04-19T10:31:28Z</time>
      </trkpt>
      <trkpt lat="44.58777" lon="1.00976">
        <ele>133.28</ele>
        <time>2015-04-19T10:31:29Z</time>
      </trkpt>
      <trkpt lat="44.58778" lon="1.00976">
        <ele>133.28</ele>
        <time>2015-04-19T10:31:30Z</time>
      </trkpt>
      <trkpt lat="44.58779" lon="1.00977">
        <ele>133.28</ele>
        <time>2015-04-19T10:31:31Z</time>
      </trkpt>
      <trkpt lat="44.58781" lon="1.00979">
        <ele>133.28</ele>
        <time>2015-04-19T10:31:32Z</time>
      </trkpt>
      <trkpt lat="44.58782" lon="1.0098">
        <ele>133.28</ele>
        <time>2015-04-19T10:31:33Z</time>
      </trkpt>
      <trkpt lat="44.58783" lon="1.00981">
        <ele>133.28</ele>
        <time>2015-04-19T10:31:34Z</time>
      </trkpt>
      <trkpt lat="44.58799" lon="1.00998">
        <ele>133.28</ele>
        <time>2015-04-19T10:31:47Z</time>
      </trkpt>
      <trkpt lat="44.58807" lon="1.01004">
        <ele>133.28</ele>
        <time>2015-04-19T10:31:55Z</time>
      </trkpt>
      <trkpt lat="44.58808" lon="1.01005">
        <ele>133.28</ele>
        <time>2015-04-19T10:31:56Z</time>
      </trkpt>
      <trkpt lat="44.58809" lon="1.01006">
        <ele>133.28</ele>
        <time>2015-04-19T10:31:57Z</time>
      </trkpt>
      <trkpt lat="44.58809" lon="1.01007">
        <ele>133.28</ele>
        <time>2015-04-19T10:31:58Z</time>
      </trkpt>
      <trkpt lat="44.5881" lon="1.01008">
        <ele>133.28</ele>
        <time>2015-04-19T10:31:59Z</time>
      </trkpt>
      <trkpt lat="44.58811" lon="1.0101">
        <ele>133.28</ele>
        <time>2015-04-19T10:32:00Z</time>
      </trkpt>
      <trkpt lat="44.58812" lon="1.01011">
        <ele>133.28</ele>
        <time>2015-04-19T10:32:01Z</time>
      </trkpt>
      <trkpt lat="44.58813" lon="1.01012">
        <ele>133.28</ele>
        <time>2015-04-19T10:32:02Z</time>
      </trkpt>
      <trkpt lat="44.58815" lon="1.01014">
        <ele>133.28</ele>
        <time>2015-04-19T10:32:03Z</time>
      </trkpt>
      <trkpt lat="44.58816" lon="1.01016">
        <ele>133.28</ele>
        <time>2015-04-19T10:32:04Z</time>
      </trkpt>
      <trkpt lat="44.58817" lon="1.01018">
        <ele>133.28</ele>
        <time>2015-04-19T10:32:05Z</time>
      </trkpt>
      <trkpt lat="44.58818" lon="1.0102">
        <ele>133.28</ele>
        <time>2015-04-19T10:32:06Z</time>
      </trkpt>
      <trkpt lat="44.5882" lon="1.01022">
        <ele>133.28</ele>
        <time>2015-04-19T10:32:07Z</time>
      </trkpt>
      <trkpt lat="44.58833" lon="1.01041">
        <ele>133.28</ele>
        <time>2015-04-19T10:32:19Z</time>
      </trkpt>
      <trkpt lat="44.58834" lon="1.01043">
        <ele>133.28</ele>
        <time>2015-04-19T10:32:20Z</time>
      </trkpt>
      <trkpt lat="44.58846" lon="1.01056">
        <ele>133.28</ele>
        <time>2015-04-19T10:32:32Z</time>
      </trkpt>
      <trkpt lat="44.58854" lon="1.01065">
        <ele>133.28</ele>
        <time>2015-04-19T10:32:39Z</time>
      </trkpt>
      <trkpt lat="44.58867" lon="1.0108">
        <ele>133.28</ele>
        <time>2015-04-19T10:32:51Z</time>
      </trkpt>
      <trkpt lat="44.58878" lon="1.01092">
        <ele>133.28</ele>
        <time>2015-04-19T10:33:01Z</time>
      </trkpt>
      <trkpt lat="44.58879" lon="1.01094">
        <ele>133.28</ele>
        <time>2015-04-19T10:33:02Z</time>
      </trkpt>
      <trkpt lat="44.58881" lon="1.01095">
        <ele>133.28</ele>
        <time>2015-04-19T10:33:03Z</time>
      </trkpt>
      <trkpt lat="44.58894" lon="1.01115">
        <ele>133.28</ele>
        <time>2015-04-19T10:33:17Z</time>
      </trkpt>
      <trkpt lat="44.58905" lon="1.01142">
        <ele>133.28</ele>
        <time>2015-04-19T10:33:28Z</time>
      </trkpt>
      <trkpt lat="44.58905" lon="1.01144">
        <ele>133.28</ele>
        <time>2015-04-19T10:33:29Z</time>
      </trkpt>
      <trkpt lat="44.58906" lon="1.01146">
        <ele>133.28</ele>
        <time>2015-04-19T10:33:30Z</time>
      </trkpt>
      <trkpt lat="44.58907" lon="1.01148">
        <ele>133.28</ele>
        <time>2015-04-19T10:33:31Z</time>
      </trkpt>
      <trkpt lat="44.58917" lon="1.01161">
        <ele>134.72</ele>
        <time>2015-04-19T10:33:43Z</time>
      </trkpt>
      <trkpt lat="44.58933" lon="1.01179">
        <ele>135.68</ele>
        <time>2015-04-19T10:33:58Z</time>
      </trkpt>
      <trkpt lat="44.58946" lon="1.01201">
        <ele>135.68</ele>
        <time>2015-04-19T10:34:13Z</time>
      </trkpt>
      <trkpt lat="44.58947" lon="1.01202">
        <ele>135.68</ele>
        <time>2015-04-19T10:34:14Z</time>
      </trkpt>
      <trkpt lat="44.58948" lon="1.01207">
        <ele>135.68</ele>
        <time>2015-04-19T10:34:16Z</time>
      </trkpt>
      <trkpt lat="44.58952" lon="1.01224">
        <ele>135.2</ele>
        <time>2015-04-19T10:34:27Z</time>
      </trkpt>
      <trkpt lat="44.58953" lon="1.01228">
        <ele>135.2</ele>
        <time>2015-04-19T10:34:39Z</time>
      </trkpt>
      <trkpt lat="44.58953" lon="1.01232">
        <ele>135.2</ele>
        <time>2015-04-19T10:34:55Z</time>
      </trkpt>
      <trkpt lat="44.58953" lon="1.01234">
        <ele>135.2</ele>
        <time>2015-04-19T10:35:08Z</time>
      </trkpt>
      <trkpt lat="44.58951" lon="1.01235">
        <ele>134.72</ele>
        <time>2015-04-19T10:35:26Z</time>
      </trkpt>
      <trkpt lat="44.58948" lon="1.01235">
        <ele>134.72</ele>
        <time>2015-04-19T10:35:45Z</time>
      </trkpt>
      <trkpt lat="44.58949" lon="1.01234">
        <ele>134.72</ele>
        <time>2015-04-19T10:36:05Z</time>
      </trkpt>
      <trkpt lat="44.58947" lon="1.01233">
        <ele>134.24</ele>
        <time>2015-04-19T10:36:22Z</time>
      </trkpt>
      <trkpt lat="44.58951" lon="1.01234">
        <ele>134.24</ele>
        <time>2015-04-19T10:36:36Z</time>
      </trkpt>
      <trkpt lat="44.58965" lon="1.0124">
        <ele>134.24</ele>
        <time>2015-04-19T10:36:47Z</time>
      </trkpt>
      <trkpt lat="44.58968" lon="1.01242">
        <ele>134.24</ele>
        <time>2015-04-19T10:36:52Z</time>
      </trkpt>
      <trkpt lat="44.58985" lon="1.01243">
        <ele>134.24</ele>
        <time>2015-04-19T10:37:06Z</time>
      </trkpt>
      <trkpt lat="44.58994" lon="1.01249">
        <ele>134.24</ele>
        <time>2015-04-19T10:37:14Z</time>
      </trkpt>
      <trkpt lat="44.59002" lon="1.01255">
        <ele>133.76</ele>
        <time>2015-04-19T10:37:23Z</time>
      </trkpt>
      <trkpt lat="44.59011" lon="1.01256">
        <ele>133.76</ele>
        <time>2015-04-19T10:37:34Z</time>
      </trkpt>
      <trkpt lat="44.59016" lon="1.01261">
        <ele>134.24</ele>
        <time>2015-04-19T10:37:39Z</time>
      </trkpt>
      <trkpt lat="44.59023" lon="1.01264">
        <ele>134.24</ele>
        <time>2015-04-19T10:37:44Z</time>
      </trkpt>
      <trkpt lat="44.59042" lon="1.01287">
        <ele>134.24</ele>
        <time>2015-04-19T10:37:56Z</time>
      </trkpt>
      <trkpt lat="44.5904" lon="1.01328">
        <ele>134.24</ele>
        <time>2015-04-19T10:38:08Z</time>
      </trkpt>
      <trkpt lat="44.59033" lon="1.01345">
        <ele>134.24</ele>
        <time>2015-04-19T10:38:17Z</time>
      </trkpt>
      <trkpt lat="44.59034" lon="1.01349">
        <ele>134.24</ele>
        <time>2015-04-19T10:38:20Z</time>
      </trkpt>
      <trkpt lat="44.59029" lon="1.0136">
        <ele>133.76</ele>
        <time>2015-04-19T10:38:27Z</time>
      </trkpt>
      <trkpt lat="44.59021" lon="1.01365">
        <ele>133.76</ele>
        <time>2015-04-19T10:38:32Z</time>
      </trkpt>
      <trkpt lat="44.59012" lon="1.01386">
        <ele>134.24</ele>
        <time>2015-04-19T10:38:43Z</time>
      </trkpt>
      <trkpt lat="44.59005" lon="1.01395">
        <ele>134.72</ele>
        <time>2015-04-19T10:38:50Z</time>
      </trkpt>
      <trkpt lat="44.58994" lon="1.01417">
        <ele>135.2</ele>
        <time>2015-04-19T10:39:01Z</time>
      </trkpt>
      <trkpt lat="44.58988" lon="1.01426">
        <ele>135.2</ele>
        <time>2015-04-19T10:39:06Z</time>
      </trkpt>
      <trkpt lat="44.58978" lon="1.01452">
        <ele>135.68</ele>
        <time>2015-04-19T10:39:21Z</time>
      </trkpt>
      <trkpt lat="44.58977" lon="1.01455">
        <ele>135.68</ele>
        <time>2015-04-19T10:39:23Z</time>
      </trkpt>
      <trkpt lat="44.58971" lon="1.01466">
        <ele>135.68</ele>
        <time>2015-04-19T10:39:30Z</time>
      </trkpt>
      <trkpt lat="44.58952" lon="1.01487">
        <ele>136.16</ele>
        <time>2015-04-19T10:39:46Z</time>
      </trkpt>
      <trkpt lat="44.58943" lon="1.01503">
        <ele>135.68</ele>
        <time>2015-04-19T10:39:57Z</time>
      </trkpt>
      <trkpt lat="44.58926" lon="1.01525">
        <ele>136.16</ele>
        <time>2015-04-19T10:40:12Z</time>
      </trkpt>
      <trkpt lat="44.58924" lon="1.01528">
        <ele>136.16</ele>
        <time>2015-04-19T10:40:14Z</time>
      </trkpt>
      <trkpt lat="44.58909" lon="1.0152">
        <ele>137.13</ele>
        <time>2015-04-19T10:40:23Z</time>
      </trkpt>
      <trkpt lat="44.58896" lon="1.01516">
        <ele>137.13</ele>
        <time>2015-04-19T10:40:30Z</time>
      </trkpt>
      <trkpt lat="44.58893" lon="1.01514">
        <ele>137.13</ele>
        <time>2015-04-19T10:40:32Z</time>
      </trkpt>
      <trkpt lat="44.58879" lon="1.01504">
        <ele>137.61</ele>
        <time>2015-04-19T10:40:44Z</time>
      </trkpt>
      <trkpt lat="44.58863" lon="1.01499">
        <ele>138.09</ele>
        <time>2015-04-19T10:40:56Z</time>
      </trkpt>
      <trkpt lat="44.58847" lon="1.01506">
        <ele>139.53</ele>
        <time>2015-04-19T10:41:08Z</time>
      </trkpt>
      <trkpt lat="44.58831" lon="1.01514">
        <ele>141.45</ele>
        <time>2015-04-19T10:41:22Z</time>
      </trkpt>
      <trkpt lat="44.58826" lon="1.01516">
        <ele>142.89</ele>
        <time>2015-04-19T10:41:27Z</time>
      </trkpt>
      <trkpt lat="44.58821" lon="1.01518">
        <ele>143.37</ele>
        <time>2015-04-19T10:41:31Z</time>
      </trkpt>
      <trkpt lat="44.58801" lon="1.01523">
        <ele>145.78</ele>
        <time>2015-04-19T10:41:46Z</time>
      </trkpt>
      <trkpt lat="44.58794" lon="1.01525">
        <ele>147.22</ele>
        <time>2015-04-19T10:41:52Z</time>
      </trkpt>
      <trkpt lat="44.58789" lon="1.01538">
        <ele>149.62</ele>
        <time>2015-04-19T10:42:05Z</time>
      </trkpt>
      <trkpt lat="44.5879" lon="1.01545">
        <ele>152.51</ele>
        <time>2015-04-19T10:42:11Z</time>
      </trkpt>
      <trkpt lat="44.58794" lon="1.01584">
        <ele>152.99</ele>
        <time>2015-04-19T10:42:30Z</time>
      </trkpt>
      <trkpt lat="44.58793" lon="1.01601">
        <ele>152.99</ele>
        <time>2015-04-19T10:42:39Z</time>
      </trkpt>
      <trkpt lat="44.58789" lon="1.01609">
        <ele>152.99</ele>
        <time>2015-04-19T10:42:44Z</time>
      </trkpt>
      <trkpt lat="44.58775" lon="1.01621">
        <ele>152.99</ele>
        <time>2015-04-19T10:42:57Z</time>
      </trkpt>
      <trkpt lat="44.58765" lon="1.01624">
        <ele>153.47</ele>
        <time>2015-04-19T10:43:06Z</time>
      </trkpt>
      <trkpt lat="44.58751" lon="1.01633">
        <ele>154.91</ele>
        <time>2015-04-19T10:43:19Z</time>
      </trkpt>
      <trkpt lat="44.58735" lon="1.01644">
        <ele>156.83</ele>
        <time>2015-04-19T10:43:33Z</time>
      </trkpt>
      <trkpt lat="44.58721" lon="1.01653">
        <ele>158.75</ele>
        <time>2015-04-19T10:43:46Z</time>
      </trkpt>
      <trkpt lat="44.58719" lon="1.01656">
        <ele>159.24</ele>
        <time>2015-04-19T10:43:49Z</time>
      </trkpt>
      <trkpt lat="44.58714" lon="1.01661">
        <ele>160.2</ele>
        <time>2015-04-19T10:43:54Z</time>
      </trkpt>
      <trkpt lat="44.5871" lon="1.01667">
        <ele>160.68</ele>
        <time>2015-04-19T10:43:58Z</time>
      </trkpt>
      <trkpt lat="44.58709" lon="1.0167">
        <ele>160.68</ele>
        <time>2015-04-19T10:44:00Z</time>
      </trkpt>
      <trkpt lat="44.587" lon="1.0169">
        <ele>162.12</ele>
        <time>2015-04-19T10:44:14Z</time>
      </trkpt>
      <trkpt lat="44.58695" lon="1.017">
        <ele>164.04</ele>
        <time>2015-04-19T10:44:26Z</time>
      </trkpt>
      <trkpt lat="44.58685" lon="1.01721">
        <ele>165.96</ele>
        <time>2015-04-19T10:44:39Z</time>
      </trkpt>
      <trkpt lat="44.58684" lon="1.01723">
        <ele>165.96</ele>
        <time>2015-04-19T10:44:41Z</time>
      </trkpt>
      <trkpt lat="44.58668" lon="1.01726">
        <ele>167.89</ele>
        <time>2015-04-19T10:44:52Z</time>
      </trkpt>
      <trkpt lat="44.58667" lon="1.01727">
        <ele>167.41</ele>
        <time>2015-04-19T10:44:53Z</time>
      </trkpt>
      <trkpt lat="44.58662" lon="1.01731">
        <ele>168.85</ele>
        <time>2015-04-19T10:45:03Z</time>
      </trkpt>
      <trkpt lat="44.58647" lon="1.01738">
        <ele>170.29</ele>
        <time>2015-04-19T10:45:16Z</time>
      </trkpt>
      <trkpt lat="44.58647" lon="1.01739">
        <ele>170.29</ele>
        <time>2015-04-19T10:45:18Z</time>
      </trkpt>
      <trkpt lat="44.58642" lon="1.01752">
        <ele>172.69</ele>
        <time>2015-04-19T10:45:31Z</time>
      </trkpt>
      <trkpt lat="44.58641" lon="1.01754">
        <ele>172.69</ele>
        <time>2015-04-19T10:45:33Z</time>
      </trkpt>
      <trkpt lat="44.58633" lon="1.01767">
        <ele>174.62</ele>
        <time>2015-04-19T10:45:44Z</time>
      </trkpt>
      <trkpt lat="44.58624" lon="1.0179">
        <ele>175.58</ele>
        <time>2015-04-19T10:45:55Z</time>
      </trkpt>
      <trkpt lat="44.58617" lon="1.01807">
        <ele>176.54</ele>
        <time>2015-04-19T10:46:06Z</time>
      </trkpt>
      <trkpt lat="44.58613" lon="1.01816">
        <ele>177.5</ele>
        <time>2015-04-19T10:46:19Z</time>
      </trkpt>
      <trkpt lat="44.58609" lon="1.01839">
        <ele>178.94</ele>
        <time>2015-04-19T10:46:29Z</time>
      </trkpt>
      <trkpt lat="44.58603" lon="1.01846">
        <ele>179.42</ele>
        <time>2015-04-19T10:46:37Z</time>
      </trkpt>
      <trkpt lat="44.58587" lon="1.0185">
        <ele>181.83</ele>
        <time>2015-04-19T10:46:49Z</time>
      </trkpt>
      <trkpt lat="44.58578" lon="1.01852">
        <ele>183.75</ele>
        <time>2015-04-19T10:46:59Z</time>
      </trkpt>
      <trkpt lat="44.58568" lon="1.01855">
        <ele>185.67</ele>
        <time>2015-04-19T10:47:09Z</time>
      </trkpt>
      <trkpt lat="44.58558" lon="1.01855">
        <ele>188.56</ele>
        <time>2015-04-19T10:47:20Z</time>
      </trkpt>
      <trkpt lat="44.58557" lon="1.01854">
        <ele>191.92</ele>
        <time>2015-04-19T10:47:25Z</time>
      </trkpt>
      <trkpt lat="44.58555" lon="1.01851">
        <ele>193.36</ele>
        <time>2015-04-19T10:47:36Z</time>
      </trkpt>
      <trkpt lat="44.58545" lon="1.01834">
        <ele>193.36</ele>
        <time>2015-04-19T10:47:46Z</time>
      </trkpt>
      <trkpt lat="44.58536" lon="1.01813">
        <ele>193.36</ele>
        <time>2015-04-19T10:47:57Z</time>
      </trkpt>
      <trkpt lat="44.58532" lon="1.01798">
        <ele>193.84</ele>
        <time>2015-04-19T10:48:03Z</time>
      </trkpt>
      <trkpt lat="44.58524" lon="1.01782">
        <ele>192.4</ele>
        <time>2015-04-19T10:48:12Z</time>
      </trkpt>
      <trkpt lat="44.58522" lon="1.01779">
        <ele>192.4</ele>
        <time>2015-04-19T10:48:14Z</time>
      </trkpt>
      <trkpt lat="44.58513" lon="1.0176">
        <ele>190.48</ele>
        <time>2015-04-19T10:48:26Z</time>
      </trkpt>
      <trkpt lat="44.58511" lon="1.01757">
        <ele>190</ele>
        <time>2015-04-19T10:48:28Z</time>
      </trkpt>
      <trkpt lat="44.58509" lon="1.01755">
        <ele>190</ele>
        <time>2015-04-19T10:48:30Z</time>
      </trkpt>
      <trkpt lat="44.58507" lon="1.01752">
        <ele>189.52</ele>
        <time>2015-04-19T10:48:32Z</time>
      </trkpt>
      <trkpt lat="44.58505" lon="1.01749">
        <ele>189.52</ele>
        <time>2015-04-19T10:48:34Z</time>
      </trkpt>
      <trkpt lat="44.58498" lon="1.01742">
        <ele>188.56</ele>
        <time>2015-04-19T10:48:41Z</time>
      </trkpt>
      <trkpt lat="44.58489" lon="1.01734">
        <ele>187.59</ele>
        <time>2015-04-19T10:48:50Z</time>
      </trkpt>
      <trkpt lat="44.58479" lon="1.01717">
        <ele>186.15</ele>
        <time>2015-04-19T10:49:04Z</time>
      </trkpt>
      <trkpt lat="44.58479" lon="1.01715">
        <ele>186.15</ele>
        <time>2015-04-19T10:49:05Z</time>
      </trkpt>
      <trkpt lat="44.58459" lon="1.01672">
        <ele>185.19</ele>
        <time>2015-04-19T10:49:22Z</time>
      </trkpt>
      <trkpt lat="44.58465" lon="1.01647">
        <ele>184.71</ele>
        <time>2015-04-19T10:49:35Z</time>
      </trkpt>
      <trkpt lat="44.58469" lon="1.01622">
        <ele>183.75</ele>
        <time>2015-04-19T10:49:48Z</time>
      </trkpt>
      <trkpt lat="44.5847" lon="1.01616">
        <ele>183.27</ele>
        <time>2015-04-19T10:49:54Z</time>
      </trkpt>
      <trkpt lat="44.58477" lon="1.01586">
        <ele>182.79</ele>
        <time>2015-04-19T10:50:08Z</time>
      </trkpt>
      <trkpt lat="44.58482" lon="1.01557">
        <ele>181.35</ele>
        <time>2015-04-19T10:50:22Z</time>
      </trkpt>
      <trkpt lat="44.58477" lon="1.01544">
        <ele>179.9</ele>
        <time>2015-04-19T10:50:32Z</time>
      </trkpt>
      <trkpt lat="44.5847" lon="1.01542">
        <ele>179.42</ele>
        <time>2015-04-19T10:50:36Z</time>
      </trkpt>
      <trkpt lat="44.58461" lon="1.0154">
        <ele>177.02</ele>
        <time>2015-04-19T10:50:42Z</time>
      </trkpt>
      <trkpt lat="44.58453" lon="1.01539">
        <ele>172.69</ele>
        <time>2015-04-19T10:50:47Z</time>
      </trkpt>
      <trkpt lat="44.58439" lon="1.01541">
        <ele>170.29</ele>
        <time>2015-04-19T10:50:56Z</time>
      </trkpt>
      <trkpt lat="44.58435" lon="1.01542">
        <ele>170.29</ele>
        <time>2015-04-19T10:50:59Z</time>
      </trkpt>
      <trkpt lat="44.58413" lon="1.01545">
        <ele>169.81</ele>
        <time>2015-04-19T10:51:11Z</time>
      </trkpt>
      <trkpt lat="44.5841" lon="1.01546">
        <ele>169.33</ele>
        <time>2015-04-19T10:51:13Z</time>
      </trkpt>
      <trkpt lat="44.584" lon="1.01549">
        <ele>166.45</ele>
        <time>2015-04-19T10:51:20Z</time>
      </trkpt>
      <trkpt lat="44.58396" lon="1.01547">
        <ele>164.52</ele>
        <time>2015-04-19T10:51:23Z</time>
      </trkpt>
      <trkpt lat="44.58382" lon="1.01552">
        <ele>160.68</ele>
        <time>2015-04-19T10:51:33Z</time>
      </trkpt>
      <trkpt lat="44.58361" lon="1.01554">
        <ele>160.2</ele>
        <time>2015-04-19T10:51:43Z</time>
      </trkpt>
      <trkpt lat="44.58341" lon="1.01553">
        <ele>157.79</ele>
        <time>2015-04-19T10:51:53Z</time>
      </trkpt>
      <trkpt lat="44.58334" lon="1.01556">
        <ele>154.43</ele>
        <time>2015-04-19T10:51:58Z</time>
      </trkpt>
      <trkpt lat="44.58317" lon="1.01555">
        <ele>152.51</ele>
        <time>2015-04-19T10:52:05Z</time>
      </trkpt>
      <trkpt lat="44.58305" lon="1.01558">
        <ele>152.51</ele>
        <time>2015-04-19T10:52:15Z</time>
      </trkpt>
      <trkpt lat="44.58286" lon="1.01556">
        <ele>151.06</ele>
        <time>2015-04-19T10:52:26Z</time>
      </trkpt>
      <trkpt lat="44.58274" lon="1.01555">
        <ele>150.1</ele>
        <time>2015-04-19T10:52:34Z</time>
      </trkpt>
      <trkpt lat="44.58262" lon="1.01553">
        <ele>146.26</ele>
        <time>2015-04-19T10:52:42Z</time>
      </trkpt>
      <trkpt lat="44.58246" lon="1.01551">
        <ele>144.82</ele>
        <time>2015-04-19T10:52:51Z</time>
      </trkpt>
      <trkpt lat="44.58228" lon="1.01549">
        <ele>143.85</ele>
        <time>2015-04-19T10:53:01Z</time>
      </trkpt>
      <trkpt lat="44.58213" lon="1.01549">
        <ele>143.85</ele>
        <time>2015-04-19T10:53:10Z</time>
      </trkpt>
      <trkpt lat="44.58193" lon="1.01546">
        <ele>142.41</ele>
        <time>2015-04-19T10:53:23Z</time>
      </trkpt>
      <trkpt lat="44.58175" lon="1.01546">
        <ele>141.93</ele>
        <time>2015-04-19T10:53:35Z</time>
      </trkpt>
      <trkpt lat="44.58174" lon="1.01546">
        <ele>141.93</ele>
        <time>2015-04-19T10:53:36Z</time>
      </trkpt>
      <trkpt lat="44.58169" lon="1.01547">
        <ele>141.93</ele>
        <time>2015-04-19T10:53:41Z</time>
      </trkpt>
      <trkpt lat="44.58162" lon="1.01551">
        <ele>141.45</ele>
        <time>2015-04-19T10:53:46Z</time>
      </trkpt>
      <trkpt lat="44.5816" lon="1.01552">
        <ele>141.45</ele>
        <time>2015-04-19T10:53:47Z</time>
      </trkpt>
      <trkpt lat="44.58144" lon="1.01562">
        <ele>141.45</ele>
        <time>2015-04-19T10:53:59Z</time>
      </trkpt>
      <trkpt lat="44.58132" lon="1.0157">
        <ele>142.41</ele>
        <time>2015-04-19T10:54:11Z</time>
      </trkpt>
      <trkpt lat="44.58119" lon="1.01574">
        <ele>144.34</ele>
        <time>2015-04-19T10:54:23Z</time>
      </trkpt>
      <trkpt lat="44.58103" lon="1.01573">
        <ele>145.78</ele>
        <time>2015-04-19T10:54:33Z</time>
      </trkpt>
      <trkpt lat="44.58102" lon="1.01571">
        <ele>145.78</ele>
        <time>2015-04-19T10:54:34Z</time>
      </trkpt>
      <trkpt lat="44.58099" lon="1.0157">
        <ele>146.26</ele>
        <time>2015-04-19T10:54:35Z</time>
      </trkpt>
      <trkpt lat="44.58095" lon="1.01567">
        <ele>146.26</ele>
        <time>2015-04-19T10:54:37Z</time>
      </trkpt>
      <trkpt lat="44.58093" lon="1.01549">
        <ele>146.26</ele>
        <time>2015-04-19T10:54:48Z</time>
      </trkpt>
      <trkpt lat="44.5809" lon="1.01533">
        <ele>145.3</ele>
        <time>2015-04-19T10:54:58Z</time>
      </trkpt>
      <trkpt lat="44.5809" lon="1.01515">
        <ele>143.85</ele>
        <time>2015-04-19T10:55:09Z</time>
      </trkpt>
      <trkpt lat="44.58091" lon="1.01492">
        <ele>141.93</ele>
        <time>2015-04-19T10:55:23Z</time>
      </trkpt>
      <trkpt lat="44.58089" lon="1.01481">
        <ele>141.45</ele>
        <time>2015-04-19T10:55:28Z</time>
      </trkpt>
      <trkpt lat="44.58089" lon="1.01479">
        <ele>141.45</ele>
        <time>2015-04-19T10:55:29Z</time>
      </trkpt>
      <trkpt lat="44.58089" lon="1.01477">
        <ele>140.97</ele>
        <time>2015-04-19T10:55:30Z</time>
      </trkpt>
      <trkpt lat="44.58087" lon="1.01449">
        <ele>140.01</ele>
        <time>2015-04-19T10:55:43Z</time>
      </trkpt>
      <trkpt lat="44.58084" lon="1.01432">
        <ele>138.09</ele>
        <time>2015-04-19T10:55:54Z</time>
      </trkpt>
      <trkpt lat="44.58081" lon="1.01427">
        <ele>138.09</ele>
        <time>2015-04-19T10:55:58Z</time>
      </trkpt>
      <trkpt lat="44.58079" lon="1.01424">
        <ele>138.09</ele>
        <time>2015-04-19T10:56:00Z</time>
      </trkpt>
      <trkpt lat="44.58063" lon="1.01405">
        <ele>138.09</ele>
        <time>2015-04-19T10:56:14Z</time>
      </trkpt>
      <trkpt lat="44.58054" lon="1.01396">
        <ele>138.09</ele>
        <time>2015-04-19T10:56:22Z</time>
      </trkpt>
      <trkpt lat="44.58053" lon="1.01395">
        <ele>138.09</ele>
        <time>2015-04-19T10:56:23Z</time>
      </trkpt>
      <trkpt lat="44.58052" lon="1.01395">
        <ele>138.09</ele>
        <time>2015-04-19T10:56:24Z</time>
      </trkpt>
      <trkpt lat="44.58051" lon="1.01394">
        <ele>138.09</ele>
        <time>2015-04-19T10:56:25Z</time>
      </trkpt>
      <trkpt lat="44.5805" lon="1.01393">
        <ele>138.09</ele>
        <time>2015-04-19T10:56:26Z</time>
      </trkpt>
      <trkpt lat="44.58049" lon="1.01391">
        <ele>138.09</ele>
        <time>2015-04-19T10:56:27Z</time>
      </trkpt>
      <trkpt lat="44.58048" lon="1.0139">
        <ele>138.09</ele>
        <time>2015-04-19T10:56:28Z</time>
      </trkpt>
      <trkpt lat="44.5804" lon="1.01378">
        <ele>139.53</ele>
        <time>2015-04-19T10:56:41Z</time>
      </trkpt>
      <trkpt lat="44.58039" lon="1.01376">
        <ele>139.53</ele>
        <time>2015-04-19T10:56:43Z</time>
      </trkpt>
      <trkpt lat="44.58027" lon="1.0138">
        <ele>140.49</ele>
        <time>2015-04-19T10:56:56Z</time>
      </trkpt>
      <trkpt lat="44.58018" lon="1.01393">
        <ele>141.93</ele>
        <time>2015-04-19T10:57:09Z</time>
      </trkpt>
      <trkpt lat="44.58006" lon="1.01401">
        <ele>142.41</ele>
        <time>2015-04-19T10:57:20Z</time>
      </trkpt>
      <trkpt lat="44.57984" lon="1.01408">
        <ele>143.37</ele>
        <time>2015-04-19T10:57:34Z</time>
      </trkpt>
      <trkpt lat="44.57969" lon="1.01409">
        <ele>144.34</ele>
        <time>2015-04-19T10:57:43Z</time>
      </trkpt>
      <trkpt lat="44.57947" lon="1.01412">
        <ele>145.3</ele>
        <time>2015-04-19T10:57:57Z</time>
      </trkpt>
      <trkpt lat="44.57932" lon="1.0142">
        <ele>147.7</ele>
        <time>2015-04-19T10:58:10Z</time>
      </trkpt>
      <trkpt lat="44.57919" lon="1.01429">
        <ele>149.14</ele>
        <time>2015-04-19T10:58:23Z</time>
      </trkpt>
      <trkpt lat="44.57903" lon="1.01442">
        <ele>150.58</ele>
        <time>2015-04-19T10:58:36Z</time>
      </trkpt>
      <trkpt lat="44.57888" lon="1.0145">
        <ele>151.54</ele>
        <time>2015-04-19T10:58:48Z</time>
      </trkpt>
      <trkpt lat="44.57873" lon="1.01454">
        <ele>152.03</ele>
        <time>2015-04-19T10:58:59Z</time>
      </trkpt>
      <trkpt lat="44.57857" lon="1.01457">
        <ele>152.51</ele>
        <time>2015-04-19T10:59:11Z</time>
      </trkpt>
      <trkpt lat="44.57844" lon="1.01458">
        <ele>153.47</ele>
        <time>2015-04-19T10:59:22Z</time>
      </trkpt>
      <trkpt lat="44.57833" lon="1.01461">
        <ele>153.95</ele>
        <time>2015-04-19T10:59:32Z</time>
      </trkpt>
      <trkpt lat="44.57814" lon="1.0146">
        <ele>154.91</ele>
        <time>2015-04-19T10:59:45Z</time>
      </trkpt>
      <trkpt lat="44.57803" lon="1.01463">
        <ele>154.91</ele>
        <time>2015-04-19T10:59:54Z</time>
      </trkpt>
      <trkpt lat="44.57788" lon="1.0147">
        <ele>154.91</ele>
        <time>2015-04-19T11:00:06Z</time>
      </trkpt>
      <trkpt lat="44.57775" lon="1.01478">
        <ele>154.91</ele>
        <time>2015-04-19T11:00:18Z</time>
      </trkpt>
      <trkpt lat="44.5776" lon="1.01486">
        <ele>153.95</ele>
        <time>2015-04-19T11:00:31Z</time>
      </trkpt>
      <trkpt lat="44.5775" lon="1.01498">
        <ele>153.47</ele>
        <time>2015-04-19T11:00:44Z</time>
      </trkpt>
      <trkpt lat="44.57741" lon="1.01507">
        <ele>153.47</ele>
        <time>2015-04-19T11:00:54Z</time>
      </trkpt>
      <trkpt lat="44.57727" lon="1.01514">
        <ele>153.47</ele>
        <time>2015-04-19T11:01:02Z</time>
      </trkpt>
      <trkpt lat="44.57721" lon="1.01514">
        <ele>153.47</ele>
        <time>2015-04-19T11:01:05Z</time>
      </trkpt>
      <trkpt lat="44.57717" lon="1.01512">
        <ele>154.43</ele>
        <time>2015-04-19T11:01:08Z</time>
      </trkpt>
      <trkpt lat="44.57703" lon="1.01508">
        <ele>155.39</ele>
        <time>2015-04-19T11:01:17Z</time>
      </trkpt>
      <trkpt lat="44.57685" lon="1.01501">
        <ele>157.31</ele>
        <time>2015-04-19T11:01:29Z</time>
      </trkpt>
      <trkpt lat="44.57678" lon="1.01498">
        <ele>158.27</ele>
        <time>2015-04-19T11:01:35Z</time>
      </trkpt>
      <trkpt lat="44.57668" lon="1.01502">
        <ele>159.72</ele>
        <time>2015-04-19T11:01:47Z</time>
      </trkpt>
      <trkpt lat="44.57665" lon="1.01508">
        <ele>160.2</ele>
        <time>2015-04-19T11:01:53Z</time>
      </trkpt>
      <trkpt lat="44.57653" lon="1.0152">
        <ele>161.16</ele>
        <time>2015-04-19T11:02:06Z</time>
      </trkpt>
      <trkpt lat="44.57652" lon="1.01521">
        <ele>161.16</ele>
        <time>2015-04-19T11:02:07Z</time>
      </trkpt>
      <trkpt lat="44.57641" lon="1.01533">
        <ele>162.6</ele>
        <time>2015-04-19T11:02:21Z</time>
      </trkpt>
      <trkpt lat="44.57638" lon="1.01536">
        <ele>162.6</ele>
        <time>2015-04-19T11:02:24Z</time>
      </trkpt>
      <trkpt lat="44.57624" lon="1.01546">
        <ele>163.56</ele>
        <time>2015-04-19T11:02:36Z</time>
      </trkpt>
      <trkpt lat="44.57606" lon="1.01558">
        <ele>163.56</ele>
        <time>2015-04-19T11:02:49Z</time>
      </trkpt>
      <trkpt lat="44.57589" lon="1.01566">
        <ele>163.56</ele>
        <time>2015-04-19T11:02:59Z</time>
      </trkpt>
      <trkpt lat="44.57578" lon="1.01576">
        <ele>164.04</ele>
        <time>2015-04-19T11:03:11Z</time>
      </trkpt>
      <trkpt lat="44.5756" lon="1.01581">
        <ele>164.04</ele>
        <time>2015-04-19T11:03:23Z</time>
      </trkpt>
      <trkpt lat="44.57546" lon="1.01578">
        <ele>164.52</ele>
        <time>2015-04-19T11:03:35Z</time>
      </trkpt>
      <trkpt lat="44.57541" lon="1.01581">
        <ele>165.48</ele>
        <time>2015-04-19T11:03:47Z</time>
      </trkpt>
      <trkpt lat="44.57535" lon="1.01583">
        <ele>165.96</ele>
        <time>2015-04-19T11:03:52Z</time>
      </trkpt>
      <trkpt lat="44.57528" lon="1.01585">
        <ele>165.96</ele>
        <time>2015-04-19T11:03:57Z</time>
      </trkpt>
      <trkpt lat="44.57511" lon="1.01589">
        <ele>166.93</ele>
        <time>2015-04-19T11:04:09Z</time>
      </trkpt>
      <trkpt lat="44.57496" lon="1.01596">
        <ele>168.37</ele>
        <time>2015-04-19T11:04:21Z</time>
      </trkpt>
      <trkpt lat="44.57489" lon="1.01598">
        <ele>168.85</ele>
        <time>2015-04-19T11:04:28Z</time>
      </trkpt>
      <trkpt lat="44.57476" lon="1.01602">
        <ele>168.85</ele>
        <time>2015-04-19T11:04:40Z</time>
      </trkpt>
      <trkpt lat="44.57468" lon="1.01602">
        <ele>168.85</ele>
        <time>2015-04-19T11:04:50Z</time>
      </trkpt>
      <trkpt lat="44.57455" lon="1.01596">
        <ele>168.85</ele>
        <time>2015-04-19T11:05:02Z</time>
      </trkpt>
      <trkpt lat="44.57442" lon="1.01594">
        <ele>168.85</ele>
        <time>2015-04-19T11:05:12Z</time>
      </trkpt>
      <trkpt lat="44.57424" lon="1.01595">
        <ele>168.85</ele>
        <time>2015-04-19T11:05:23Z</time>
      </trkpt>
      <trkpt lat="44.57405" lon="1.01599">
        <ele>168.85</ele>
        <time>2015-04-19T11:05:35Z</time>
      </trkpt>
      <trkpt lat="44.57391" lon="1.01607">
        <ele>169.33</ele>
        <time>2015-04-19T11:05:44Z</time>
      </trkpt>
      <trkpt lat="44.57373" lon="1.01619">
        <ele>170.29</ele>
        <time>2015-04-19T11:05:58Z</time>
      </trkpt>
      <trkpt lat="44.5737" lon="1.0162">
        <ele>170.29</ele>
        <time>2015-04-19T11:06:00Z</time>
      </trkpt>
      <trkpt lat="44.57368" lon="1.01621">
        <ele>170.29</ele>
        <time>2015-04-19T11:06:01Z</time>
      </trkpt>
      <trkpt lat="44.57367" lon="1.01621">
        <ele>170.29</ele>
        <time>2015-04-19T11:06:02Z</time>
      </trkpt>
      <trkpt lat="44.57358" lon="1.01623">
        <ele>170.29</ele>
        <time>2015-04-19T11:06:08Z</time>
      </trkpt>
      <trkpt lat="44.57346" lon="1.01628">
        <ele>170.29</ele>
        <time>2015-04-19T11:06:18Z</time>
      </trkpt>
      <trkpt lat="44.57336" lon="1.01634">
        <ele>170.29</ele>
        <time>2015-04-19T11:06:28Z</time>
      </trkpt>
      <trkpt lat="44.5733" lon="1.01639">
        <ele>169.33</ele>
        <time>2015-04-19T11:06:36Z</time>
      </trkpt>
      <trkpt lat="44.57322" lon="1.0165">
        <ele>168.37</ele>
        <time>2015-04-19T11:06:47Z</time>
      </trkpt>
      <trkpt lat="44.57297" lon="1.01659">
        <ele>167.41</ele>
        <time>2015-04-19T11:06:59Z</time>
      </trkpt>
      <trkpt lat="44.57296" lon="1.0167">
        <ele>166.93</ele>
        <time>2015-04-19T11:07:06Z</time>
      </trkpt>
      <trkpt lat="44.57294" lon="1.01677">
        <ele>166.93</ele>
        <time>2015-04-19T11:07:10Z</time>
      </trkpt>
      <trkpt lat="44.57279" lon="1.01689">
        <ele>166.93</ele>
        <time>2015-04-19T11:07:22Z</time>
      </trkpt>
      <trkpt lat="44.57278" lon="1.01686">
        <ele>166.93</ele>
        <time>2015-04-19T11:07:24Z</time>
      </trkpt>
      <trkpt lat="44.57291" lon="1.01684">
        <ele>166.93</ele>
        <time>2015-04-19T11:07:39Z</time>
      </trkpt>
      <trkpt lat="44.57307" lon="1.01692">
        <ele>167.41</ele>
        <time>2015-04-19T11:07:53Z</time>
      </trkpt>
      <trkpt lat="44.57322" lon="1.01702">
        <ele>167.41</ele>
        <time>2015-04-19T11:08:08Z</time>
      </trkpt>
      <trkpt lat="44.57323" lon="1.01702">
        <ele>167.41</ele>
        <time>2015-04-19T11:08:09Z</time>
      </trkpt>
      <trkpt lat="44.57324" lon="1.01706">
        <ele>167.41</ele>
        <time>2015-04-19T11:08:12Z</time>
      </trkpt>
      <trkpt lat="44.57325" lon="1.01714">
        <ele>167.41</ele>
        <time>2015-04-19T11:08:18Z</time>
      </trkpt>
      <trkpt lat="44.57325" lon="1.01723">
        <ele>168.85</ele>
        <time>2015-04-19T11:08:23Z</time>
      </trkpt>
      <trkpt lat="44.57332" lon="1.01758">
        <ele>170.77</ele>
        <time>2015-04-19T11:08:34Z</time>
      </trkpt>
      <trkpt lat="44.57335" lon="1.01787">
        <ele>174.14</ele>
        <time>2015-04-19T11:08:50Z</time>
      </trkpt>
      <trkpt lat="44.57334" lon="1.01808">
        <ele>176.54</ele>
        <time>2015-04-19T11:09:04Z</time>
      </trkpt>
      <trkpt lat="44.57334" lon="1.01832">
        <ele>177.98</ele>
        <time>2015-04-19T11:09:17Z</time>
      </trkpt>
      <trkpt lat="44.57333" lon="1.01854">
        <ele>179.42</ele>
        <time>2015-04-19T11:09:31Z</time>
      </trkpt>
      <trkpt lat="44.57333" lon="1.01857">
        <ele>179.9</ele>
        <time>2015-04-19T11:09:35Z</time>
      </trkpt>
      <trkpt lat="44.5733" lon="1.01864">
        <ele>180.38</ele>
        <time>2015-04-19T11:09:40Z</time>
      </trkpt>
      <trkpt lat="44.57325" lon="1.01873">
        <ele>180.87</ele>
        <time>2015-04-19T11:09:48Z</time>
      </trkpt>
      <trkpt lat="44.57321" lon="1.01877">
        <ele>181.35</ele>
        <time>2015-04-19T11:09:52Z</time>
      </trkpt>
      <trkpt lat="44.57308" lon="1.01887">
        <ele>181.83</ele>
        <time>2015-04-19T11:10:04Z</time>
      </trkpt>
      <trkpt lat="44.57305" lon="1.01887">
        <ele>182.31</ele>
        <time>2015-04-19T11:10:07Z</time>
      </trkpt>
      <trkpt lat="44.57289" lon="1.0189">
        <ele>182.79</ele>
        <time>2015-04-19T11:10:18Z</time>
      </trkpt>
      <trkpt lat="44.57267" lon="1.01893">
        <ele>184.23</ele>
        <time>2015-04-19T11:10:29Z</time>
      </trkpt>
      <trkpt lat="44.57258" lon="1.01894">
        <ele>184.71</ele>
        <time>2015-04-19T11:10:33Z</time>
      </trkpt>
      <trkpt lat="44.5725" lon="1.01896">
        <ele>185.19</ele>
        <time>2015-04-19T11:10:40Z</time>
      </trkpt>
      <trkpt lat="44.57238" lon="1.01899">
        <ele>186.63</ele>
        <time>2015-04-19T11:10:52Z</time>
      </trkpt>
      <trkpt lat="44.57231" lon="1.01902">
        <ele>187.59</ele>
        <time>2015-04-19T11:10:58Z</time>
      </trkpt>
      <trkpt lat="44.57222" lon="1.0191">
        <ele>189.04</ele>
        <time>2015-04-19T11:11:11Z</time>
      </trkpt>
      <trkpt lat="44.57215" lon="1.01924">
        <ele>190.48</ele>
        <time>2015-04-19T11:11:26Z</time>
      </trkpt>
      <trkpt lat="44.57206" lon="1.01931">
        <ele>190.48</ele>
        <time>2015-04-19T11:11:34Z</time>
      </trkpt>
      <trkpt lat="44.57203" lon="1.0194">
        <ele>190.48</ele>
        <time>2015-04-19T11:11:42Z</time>
      </trkpt>
      <trkpt lat="44.57195" lon="1.01947">
        <ele>189.52</ele>
        <time>2015-04-19T11:11:48Z</time>
      </trkpt>
      <trkpt lat="44.57194" lon="1.01955">
        <ele>188.08</ele>
        <time>2015-04-19T11:11:54Z</time>
      </trkpt>
      <trkpt lat="44.57191" lon="1.01962">
        <ele>188.08</ele>
        <time>2015-04-19T11:11:57Z</time>
      </trkpt>
      <trkpt lat="44.57189" lon="1.01968">
        <ele>187.11</ele>
        <time>2015-04-19T11:12:02Z</time>
      </trkpt>
      <trkpt lat="44.57189" lon="1.01974">
        <ele>186.63</ele>
        <time>2015-04-19T11:12:05Z</time>
      </trkpt>
      <trkpt lat="44.57184" lon="1.01994">
        <ele>183.75</ele>
        <time>2015-04-19T11:12:15Z</time>
      </trkpt>
      <trkpt lat="44.57179" lon="1.02014">
        <ele>182.31</ele>
        <time>2015-04-19T11:12:28Z</time>
      </trkpt>
      <trkpt lat="44.57182" lon="1.02042">
        <ele>182.31</ele>
        <time>2015-04-19T11:12:41Z</time>
      </trkpt>
      <trkpt lat="44.57182" lon="1.02046">
        <ele>182.31</ele>
        <time>2015-04-19T11:12:44Z</time>
      </trkpt>
      <trkpt lat="44.57184" lon="1.02066">
        <ele>181.35</ele>
        <time>2015-04-19T11:12:56Z</time>
      </trkpt>
      <trkpt lat="44.5719" lon="1.02077">
        <ele>180.87</ele>
        <time>2015-04-19T11:13:08Z</time>
      </trkpt>
      <trkpt lat="44.57189" lon="1.02095">
        <ele>179.9</ele>
        <time>2015-04-19T11:13:20Z</time>
      </trkpt>
      <trkpt lat="44.57184" lon="1.02105">
        <ele>176.06</ele>
        <time>2015-04-19T11:13:29Z</time>
      </trkpt>
      <trkpt lat="44.57182" lon="1.02107">
        <ele>176.06</ele>
        <time>2015-04-19T11:13:31Z</time>
      </trkpt>
      <trkpt lat="44.57175" lon="1.02132">
        <ele>173.17</ele>
        <time>2015-04-19T11:13:43Z</time>
      </trkpt>
      <trkpt lat="44.57174" lon="1.02152">
        <ele>172.21</ele>
        <time>2015-04-19T11:13:51Z</time>
      </trkpt>
      <trkpt lat="44.5718" lon="1.02177">
        <ele>172.21</ele>
        <time>2015-04-19T11:14:02Z</time>
      </trkpt>
      <trkpt lat="44.57181" lon="1.02188">
        <ele>172.21</ele>
        <time>2015-04-19T11:14:07Z</time>
      </trkpt>
      <trkpt lat="44.57181" lon="1.02199">
        <ele>172.69</ele>
        <time>2015-04-19T11:14:17Z</time>
      </trkpt>
      <trkpt lat="44.5718" lon="1.02204">
        <ele>172.69</ele>
        <time>2015-04-19T11:14:21Z</time>
      </trkpt>
      <trkpt lat="44.57179" lon="1.02214">
        <ele>172.69</ele>
        <time>2015-04-19T11:14:27Z</time>
      </trkpt>
      <trkpt lat="44.5717" lon="1.02229">
        <ele>172.69</ele>
        <time>2015-04-19T11:14:39Z</time>
      </trkpt>
      <trkpt lat="44.57169" lon="1.02248">
        <ele>174.62</ele>
        <time>2015-04-19T11:14:52Z</time>
      </trkpt>
      <trkpt lat="44.57169" lon="1.02249">
        <ele>174.14</ele>
        <time>2015-04-19T11:14:53Z</time>
      </trkpt>
      <trkpt lat="44.5717" lon="1.02265">
        <ele>175.58</ele>
        <time>2015-04-19T11:15:05Z</time>
      </trkpt>
      <trkpt lat="44.57175" lon="1.02277">
        <ele>176.06</ele>
        <time>2015-04-19T11:15:17Z</time>
      </trkpt>
      <trkpt lat="44.57165" lon="1.02284">
        <ele>176.54</ele>
        <time>2015-04-19T11:15:24Z</time>
      </trkpt>
      <trkpt lat="44.57164" lon="1.02287">
        <ele>176.54</ele>
        <time>2015-04-19T11:15:26Z</time>
      </trkpt>
      <trkpt lat="44.57163" lon="1.0229">
        <ele>177.02</ele>
        <time>2015-04-19T11:15:27Z</time>
      </trkpt>
      <trkpt lat="44.5716" lon="1.02295">
        <ele>177.02</ele>
        <time>2015-04-19T11:15:31Z</time>
      </trkpt>
      <trkpt lat="44.57148" lon="1.02308">
        <ele>177.98</ele>
        <time>2015-04-19T11:15:42Z</time>
      </trkpt>
      <trkpt lat="44.57139" lon="1.02313">
        <ele>178.46</ele>
        <time>2015-04-19T11:15:46Z</time>
      </trkpt>
      <trkpt lat="44.57122" lon="1.02328">
        <ele>178.46</ele>
        <time>2015-04-19T11:15:55Z</time>
      </trkpt>
      <trkpt lat="44.57116" lon="1.02343">
        <ele>179.42</ele>
        <time>2015-04-19T11:16:05Z</time>
      </trkpt>
      <trkpt lat="44.57116" lon="1.02348">
        <ele>179.42</ele>
        <time>2015-04-19T11:16:09Z</time>
      </trkpt>
      <trkpt lat="44.57115" lon="1.02356">
        <ele>179.9</ele>
        <time>2015-04-19T11:16:15Z</time>
      </trkpt>
      <trkpt lat="44.5711" lon="1.02361">
        <ele>179.9</ele>
        <time>2015-04-19T11:16:19Z</time>
      </trkpt>
      <trkpt lat="44.57095" lon="1.02369">
        <ele>180.38</ele>
        <time>2015-04-19T11:16:31Z</time>
      </trkpt>
      <trkpt lat="44.57078" lon="1.02373">
        <ele>181.35</ele>
        <time>2015-04-19T11:16:44Z</time>
      </trkpt>
      <trkpt lat="44.57064" lon="1.02372">
        <ele>181.83</ele>
        <time>2015-04-19T11:16:55Z</time>
      </trkpt>
      <trkpt lat="44.57046" lon="1.02366">
        <ele>182.31</ele>
        <time>2015-04-19T11:17:06Z</time>
      </trkpt>
      <trkpt lat="44.56966" lon="1.02351">
        <ele>183.75</ele>
        <time>2015-04-19T11:17:19Z</time>
      </trkpt>
      <trkpt lat="44.56963" lon="1.0234">
        <ele>184.71</ele>
        <time>2015-04-19T11:17:30Z</time>
      </trkpt>
      <trkpt lat="44.56957" lon="1.02334">
        <ele>186.15</ele>
        <time>2015-04-19T11:17:39Z</time>
      </trkpt>
      <trkpt lat="44.56948" lon="1.02328">
        <ele>187.11</ele>
        <time>2015-04-19T11:17:53Z</time>
      </trkpt>
      <trkpt lat="44.56936" lon="1.02325">
        <ele>188.08</ele>
        <time>2015-04-19T11:18:06Z</time>
      </trkpt>
      <trkpt lat="44.56922" lon="1.02324">
        <ele>188.56</ele>
        <time>2015-04-19T11:18:19Z</time>
      </trkpt>
      <trkpt lat="44.56908" lon="1.02324">
        <ele>190</ele>
        <time>2015-04-19T11:18:32Z</time>
      </trkpt>
      <trkpt lat="44.56892" lon="1.02322">
        <ele>190.96</ele>
        <time>2015-04-19T11:18:45Z</time>
      </trkpt>
      <trkpt lat="44.56886" lon="1.02318">
        <ele>192.4</ele>
        <time>2015-04-19T11:18:56Z</time>
      </trkpt>
      <trkpt lat="44.56883" lon="1.02317">
        <ele>192.4</ele>
        <time>2015-04-19T11:19:01Z</time>
      </trkpt>
      <trkpt lat="44.56879" lon="1.02318">
        <ele>192.88</ele>
        <time>2015-04-19T11:19:04Z</time>
      </trkpt>
      <trkpt lat="44.56876" lon="1.02318">
        <ele>192.88</ele>
        <time>2015-04-19T11:19:06Z</time>
      </trkpt>
      <trkpt lat="44.56872" lon="1.02318">
        <ele>192.88</ele>
        <time>2015-04-19T11:19:08Z</time>
      </trkpt>
      <trkpt lat="44.56848" lon="1.02319">
        <ele>193.84</ele>
        <time>2015-04-19T11:19:20Z</time>
      </trkpt>
      <trkpt lat="44.56846" lon="1.02319">
        <ele>194.8</ele>
        <time>2015-04-19T11:19:23Z</time>
      </trkpt>
      <trkpt lat="44.56837" lon="1.02321">
        <ele>195.28</ele>
        <time>2015-04-19T11:19:28Z</time>
      </trkpt>
      <trkpt lat="44.5683" lon="1.02321">
        <ele>195.77</ele>
        <time>2015-04-19T11:19:32Z</time>
      </trkpt>
      <trkpt lat="44.56804" lon="1.02318">
        <ele>196.73</ele>
        <time>2015-04-19T11:19:47Z</time>
      </trkpt>
      <trkpt lat="44.56786" lon="1.02315">
        <ele>198.17</ele>
        <time>2015-04-19T11:19:58Z</time>
      </trkpt>
      <trkpt lat="44.56779" lon="1.02315">
        <ele>199.13</ele>
        <time>2015-04-19T11:20:08Z</time>
      </trkpt>
      <trkpt lat="44.56778" lon="1.02315">
        <ele>199.13</ele>
        <time>2015-04-19T11:20:10Z</time>
      </trkpt>
      <trkpt lat="44.56776" lon="1.02319">
        <ele>199.61</ele>
        <time>2015-04-19T11:20:15Z</time>
      </trkpt>
      <trkpt lat="44.56771" lon="1.02319">
        <ele>200.09</ele>
        <time>2015-04-19T11:20:18Z</time>
      </trkpt>
      <trkpt lat="44.56747" lon="1.0233">
        <ele>202.01</ele>
        <time>2015-04-19T11:20:30Z</time>
      </trkpt>
      <trkpt lat="44.56735" lon="1.02344">
        <ele>204.42</ele>
        <time>2015-04-19T11:20:42Z</time>
      </trkpt>
      <trkpt lat="44.56731" lon="1.0235">
        <ele>207.78</ele>
        <time>2015-04-19T11:20:49Z</time>
      </trkpt>
      <trkpt lat="44.56725" lon="1.02364">
        <ele>208.74</ele>
        <time>2015-04-19T11:20:59Z</time>
      </trkpt>
      <trkpt lat="44.56719" lon="1.02377">
        <ele>209.22</ele>
        <time>2015-04-19T11:21:10Z</time>
      </trkpt>
      <trkpt lat="44.56715" lon="1.0239">
        <ele>210.19</ele>
        <time>2015-04-19T11:21:21Z</time>
      </trkpt>
      <trkpt lat="44.56705" lon="1.02409">
        <ele>211.15</ele>
        <time>2015-04-19T11:21:35Z</time>
      </trkpt>
      <trkpt lat="44.56698" lon="1.02424">
        <ele>212.59</ele>
        <time>2015-04-19T11:21:49Z</time>
      </trkpt>
      <trkpt lat="44.56696" lon="1.02432">
        <ele>213.07</ele>
        <time>2015-04-19T11:21:53Z</time>
      </trkpt>
      <trkpt lat="44.56692" lon="1.02461">
        <ele>214.03</ele>
        <time>2015-04-19T11:22:07Z</time>
      </trkpt>
      <trkpt lat="44.56692" lon="1.02465">
        <ele>214.03</ele>
        <time>2015-04-19T11:22:10Z</time>
      </trkpt>
      <trkpt lat="44.56692" lon="1.02482">
        <ele>214.99</ele>
        <time>2015-04-19T11:22:17Z</time>
      </trkpt>
      <trkpt lat="44.5669" lon="1.02497">
        <ele>215.95</ele>
        <time>2015-04-19T11:22:28Z</time>
      </trkpt>
      <trkpt lat="44.56693" lon="1.02511">
        <ele>216.91</ele>
        <time>2015-04-19T11:22:38Z</time>
      </trkpt>
      <trkpt lat="44.56693" lon="1.02513">
        <ele>217.4</ele>
        <time>2015-04-19T11:22:43Z</time>
      </trkpt>
      <trkpt lat="44.56685" lon="1.02515">
        <ele>218.84</ele>
        <time>2015-04-19T11:22:52Z</time>
      </trkpt>
      <trkpt lat="44.56674" lon="1.02516">
        <ele>219.8</ele>
        <time>2015-04-19T11:23:03Z</time>
      </trkpt>
      <trkpt lat="44.56644" lon="1.02515">
        <ele>221.24</ele>
        <time>2015-04-19T11:23:16Z</time>
      </trkpt>
      <trkpt lat="44.56635" lon="1.02513">
        <ele>221.24</ele>
        <time>2015-04-19T11:23:20Z</time>
      </trkpt>
      <trkpt lat="44.56606" lon="1.0251">
        <ele>223.64</ele>
        <time>2015-04-19T11:23:35Z</time>
      </trkpt>
      <trkpt lat="44.56598" lon="1.02508">
        <ele>225.57</ele>
        <time>2015-04-19T11:23:47Z</time>
      </trkpt>
      <trkpt lat="44.56586" lon="1.02504">
        <ele>229.41</ele>
        <time>2015-04-19T11:23:54Z</time>
      </trkpt>
      <trkpt lat="44.56579" lon="1.025">
        <ele>232.3</ele>
        <time>2015-04-19T11:23:59Z</time>
      </trkpt>
      <trkpt lat="44.56568" lon="1.02493">
        <ele>232.78</ele>
        <time>2015-04-19T11:24:09Z</time>
      </trkpt>
      <trkpt lat="44.56555" lon="1.02483">
        <ele>232.78</ele>
        <time>2015-04-19T11:24:21Z</time>
      </trkpt>
      <trkpt lat="44.56546" lon="1.0247">
        <ele>233.26</ele>
        <time>2015-04-19T11:24:33Z</time>
      </trkpt>
      <trkpt lat="44.56532" lon="1.02458">
        <ele>233.74</ele>
        <time>2015-04-19T11:24:42Z</time>
      </trkpt>
      <trkpt lat="44.56522" lon="1.02449">
        <ele>234.7</ele>
        <time>2015-04-19T11:24:49Z</time>
      </trkpt>
      <trkpt lat="44.56504" lon="1.02443">
        <ele>236.62</ele>
        <time>2015-04-19T11:25:01Z</time>
      </trkpt>
      <trkpt lat="44.56481" lon="1.02432">
        <ele>239.51</ele>
        <time>2015-04-19T11:25:17Z</time>
      </trkpt>
      <trkpt lat="44.56471" lon="1.02414">
        <ele>242.39</ele>
        <time>2015-04-19T11:25:30Z</time>
      </trkpt>
      <trkpt lat="44.56464" lon="1.02409">
        <ele>245.75</ele>
        <time>2015-04-19T11:25:38Z</time>
      </trkpt>
      <trkpt lat="44.56458" lon="1.02401">
        <ele>245.75</ele>
        <time>2015-04-19T11:25:50Z</time>
      </trkpt>
      <trkpt lat="44.56451" lon="1.02394">
        <ele>247.68</ele>
        <time>2015-04-19T11:26:03Z</time>
      </trkpt>
      <trkpt lat="44.56448" lon="1.02388">
        <ele>250.56</ele>
        <time>2015-04-19T11:26:12Z</time>
      </trkpt>
      <trkpt lat="44.56444" lon="1.02382">
        <ele>253.93</ele>
        <time>2015-04-19T11:26:19Z</time>
      </trkpt>
      <trkpt lat="44.56442" lon="1.02379">
        <ele>254.41</ele>
        <time>2015-04-19T11:26:25Z</time>
      </trkpt>
      <trkpt lat="44.56431" lon="1.02369">
        <ele>254.41</ele>
        <time>2015-04-19T11:26:35Z</time>
      </trkpt>
      <trkpt lat="44.5643" lon="1.02367">
        <ele>254.41</ele>
        <time>2015-04-19T11:26:37Z</time>
      </trkpt>
      <trkpt lat="44.56416" lon="1.02344">
        <ele>254.41</ele>
        <time>2015-04-19T11:26:49Z</time>
      </trkpt>
      <trkpt lat="44.56402" lon="1.02324">
        <ele>254.41</ele>
        <time>2015-04-19T11:27:00Z</time>
      </trkpt>
      <trkpt lat="44.56401" lon="1.02315">
        <ele>254.41</ele>
        <time>2015-04-19T11:27:07Z</time>
      </trkpt>
      <trkpt lat="44.56388" lon="1.02292">
        <ele>253.44</ele>
        <time>2015-04-19T11:27:18Z</time>
      </trkpt>
      <trkpt lat="44.56367" lon="1.02272">
        <ele>252</ele>
        <time>2015-04-19T11:27:32Z</time>
      </trkpt>
      <trkpt lat="44.56354" lon="1.02269">
        <ele>252</ele>
        <time>2015-04-19T11:27:40Z</time>
      </trkpt>
      <trkpt lat="44.56343" lon="1.02262">
        <ele>251.52</ele>
        <time>2015-04-19T11:27:54Z</time>
      </trkpt>
      <trkpt lat="44.56343" lon="1.02261">
        <ele>251.52</ele>
        <time>2015-04-19T11:27:55Z</time>
      </trkpt>
      <trkpt lat="44.5634" lon="1.0225">
        <ele>251.52</ele>
        <time>2015-04-19T11:28:02Z</time>
      </trkpt>
      <trkpt lat="44.56336" lon="1.02233">
        <ele>250.56</ele>
        <time>2015-04-19T11:28:14Z</time>
      </trkpt>
      <trkpt lat="44.56337" lon="1.02229">
        <ele>250.56</ele>
        <time>2015-04-19T11:28:16Z</time>
      </trkpt>
      <trkpt lat="44.56344" lon="1.02198">
        <ele>249.6</ele>
        <time>2015-04-19T11:28:24Z</time>
      </trkpt>
      <trkpt lat="44.56341" lon="1.02175">
        <ele>249.12</ele>
        <time>2015-04-19T11:28:36Z</time>
      </trkpt>
      <trkpt lat="44.56342" lon="1.02158">
        <ele>248.64</ele>
        <time>2015-04-19T11:28:47Z</time>
      </trkpt>
      <trkpt lat="44.56346" lon="1.02144">
        <ele>248.16</ele>
        <time>2015-04-19T11:28:55Z</time>
      </trkpt>
      <trkpt lat="44.56348" lon="1.02113">
        <ele>248.16</ele>
        <time>2015-04-19T11:29:06Z</time>
      </trkpt>
      <trkpt lat="44.56345" lon="1.02089">
        <ele>248.16</ele>
        <time>2015-04-19T11:29:16Z</time>
      </trkpt>
      <trkpt lat="44.56356" lon="1.02057">
        <ele>248.16</ele>
        <time>2015-04-19T11:29:31Z</time>
      </trkpt>
      <trkpt lat="44.5636" lon="1.02042">
        <ele>249.12</ele>
        <time>2015-04-19T11:29:41Z</time>
      </trkpt>
      <trkpt lat="44.56361" lon="1.02027">
        <ele>250.08</ele>
        <time>2015-04-19T11:29:51Z</time>
      </trkpt>
      <trkpt lat="44.56359" lon="1.02024">
        <ele>250.08</ele>
        <time>2015-04-19T11:29:55Z</time>
      </trkpt>
      <trkpt lat="44.56358" lon="1.02024">
        <ele>250.08</ele>
        <time>2015-04-19T11:29:59Z</time>
      </trkpt>
      <trkpt lat="44.56358" lon="1.02025">
        <ele>250.08</ele>
        <time>2015-04-19T11:30:01Z</time>
      </trkpt>
      <trkpt lat="44.56355" lon="1.02027">
        <ele>250.56</ele>
        <time>2015-04-19T11:30:05Z</time>
      </trkpt>
      <trkpt lat="44.56344" lon="1.02033">
        <ele>251.04</ele>
        <time>2015-04-19T11:30:16Z</time>
      </trkpt>
      <trkpt lat="44.56334" lon="1.02039">
        <ele>252.48</ele>
        <time>2015-04-19T11:30:29Z</time>
      </trkpt>
      <trkpt lat="44.56319" lon="1.02046">
        <ele>252.96</ele>
        <time>2015-04-19T11:30:41Z</time>
      </trkpt>
      <trkpt lat="44.56309" lon="1.02054">
        <ele>253.44</ele>
        <time>2015-04-19T11:30:52Z</time>
      </trkpt>
      <trkpt lat="44.56292" lon="1.0206">
        <ele>253.93</ele>
        <time>2015-04-19T11:31:05Z</time>
      </trkpt>
      <trkpt lat="44.56278" lon="1.02065">
        <ele>254.41</ele>
        <time>2015-04-19T11:31:16Z</time>
      </trkpt>
      <trkpt lat="44.56272" lon="1.02067">
        <ele>254.41</ele>
        <time>2015-04-19T11:31:22Z</time>
      </trkpt>
      <trkpt lat="44.5627" lon="1.02067">
        <ele>254.41</ele>
        <time>2015-04-19T11:31:23Z</time>
      </trkpt>
      <trkpt lat="44.56268" lon="1.02068">
        <ele>254.89</ele>
        <time>2015-04-19T11:31:24Z</time>
      </trkpt>
      <trkpt lat="44.56267" lon="1.02068">
        <ele>254.89</ele>
        <time>2015-04-19T11:31:25Z</time>
      </trkpt>
      <trkpt lat="44.56265" lon="1.02067">
        <ele>254.89</ele>
        <time>2015-04-19T11:31:26Z</time>
      </trkpt>
      <trkpt lat="44.56263" lon="1.02068">
        <ele>254.89</ele>
        <time>2015-04-19T11:31:27Z</time>
      </trkpt>
      <trkpt lat="44.56249" lon="1.02074">
        <ele>255.37</ele>
        <time>2015-04-19T11:31:38Z</time>
      </trkpt>
      <trkpt lat="44.56248" lon="1.02074">
        <ele>255.37</ele>
        <time>2015-04-19T11:31:39Z</time>
      </trkpt>
      <trkpt lat="44.5624" lon="1.02079">
        <ele>256.33</ele>
        <time>2015-04-19T11:31:46Z</time>
      </trkpt>
      <trkpt lat="44.56239" lon="1.0208">
        <ele>256.33</ele>
        <time>2015-04-19T11:31:47Z</time>
      </trkpt>
      <trkpt lat="44.56237" lon="1.0208">
        <ele>256.33</ele>
        <time>2015-04-19T11:31:48Z</time>
      </trkpt>
      <trkpt lat="44.56234" lon="1.0208">
        <ele>256.81</ele>
        <time>2015-04-19T11:31:50Z</time>
      </trkpt>
      <trkpt lat="44.56232" lon="1.02081">
        <ele>256.81</ele>
        <time>2015-04-19T11:31:51Z</time>
      </trkpt>
      <trkpt lat="44.56208" lon="1.02087">
        <ele>257.29</ele>
        <time>2015-04-19T11:32:04Z</time>
      </trkpt>
      <trkpt lat="44.56204" lon="1.0209">
        <ele>257.77</ele>
        <time>2015-04-19T11:32:07Z</time>
      </trkpt>
      <trkpt lat="44.56194" lon="1.02094">
        <ele>258.25</ele>
        <time>2015-04-19T11:32:20Z</time>
      </trkpt>
      <trkpt lat="44.56193" lon="1.02095">
        <ele>258.73</ele>
        <time>2015-04-19T11:32:24Z</time>
      </trkpt>
      <trkpt lat="44.5619" lon="1.02099">
        <ele>259.69</ele>
        <time>2015-04-19T11:32:30Z</time>
      </trkpt>
      <trkpt lat="44.56179" lon="1.02101">
        <ele>260.17</ele>
        <time>2015-04-19T11:32:39Z</time>
      </trkpt>
      <trkpt lat="44.56165" lon="1.02107">
        <ele>260.65</ele>
        <time>2015-04-19T11:32:50Z</time>
      </trkpt>
      <trkpt lat="44.56152" lon="1.02109">
        <ele>261.62</ele>
        <time>2015-04-19T11:33:01Z</time>
      </trkpt>
      <trkpt lat="44.56145" lon="1.02109">
        <ele>262.58</ele>
        <time>2015-04-19T11:33:11Z</time>
      </trkpt>
      <trkpt lat="44.56137" lon="1.0211">
        <ele>262.58</ele>
        <time>2015-04-19T11:33:17Z</time>
      </trkpt>
      <trkpt lat="44.5613" lon="1.02105">
        <ele>263.06</ele>
        <time>2015-04-19T11:33:24Z</time>
      </trkpt>
      <trkpt lat="44.5612" lon="1.021">
        <ele>264.02</ele>
        <time>2015-04-19T11:33:31Z</time>
      </trkpt>
      <trkpt lat="44.56106" lon="1.02093">
        <ele>264.02</ele>
        <time>2015-04-19T11:33:41Z</time>
      </trkpt>
      <trkpt lat="44.56082" lon="1.02091">
        <ele>264.5</ele>
        <time>2015-04-19T11:33:53Z</time>
      </trkpt>
      <trkpt lat="44.56054" lon="1.02085">
        <ele>264.5</ele>
        <time>2015-04-19T11:34:04Z</time>
      </trkpt>
      <trkpt lat="44.56043" lon="1.02084">
        <ele>264.5</ele>
        <time>2015-04-19T11:34:14Z</time>
      </trkpt>
      <trkpt lat="44.56025" lon="1.02082">
        <ele>263.54</ele>
        <time>2015-04-19T11:34:25Z</time>
      </trkpt>
      <trkpt lat="44.56015" lon="1.02082">
        <ele>263.54</ele>
        <time>2015-04-19T11:34:28Z</time>
      </trkpt>
      <trkpt lat="44.56012" lon="1.02082">
        <ele>263.54</ele>
        <time>2015-04-19T11:34:29Z</time>
      </trkpt>
      <trkpt lat="44.55999" lon="1.02084">
        <ele>263.54</ele>
        <time>2015-04-19T11:34:37Z</time>
      </trkpt>
      <trkpt lat="44.55982" lon="1.02089">
        <ele>262.58</ele>
        <time>2015-04-19T11:34:50Z</time>
      </trkpt>
      <trkpt lat="44.55972" lon="1.02091">
        <ele>262.1</ele>
        <time>2015-04-19T11:35:01Z</time>
      </trkpt>
      <trkpt lat="44.5596" lon="1.02095">
        <ele>262.1</ele>
        <time>2015-04-19T11:35:13Z</time>
      </trkpt>
      <trkpt lat="44.5595" lon="1.02103">
        <ele>262.1</ele>
        <time>2015-04-19T11:35:25Z</time>
      </trkpt>
      <trkpt lat="44.55949" lon="1.02104">
        <ele>262.1</ele>
        <time>2015-04-19T11:35:26Z</time>
      </trkpt>
      <trkpt lat="44.55942" lon="1.02106">
        <ele>262.1</ele>
        <time>2015-04-19T11:35:30Z</time>
      </trkpt>
      <trkpt lat="44.55928" lon="1.02109">
        <ele>262.58</ele>
        <time>2015-04-19T11:35:42Z</time>
      </trkpt>
      <trkpt lat="44.55909" lon="1.0211">
        <ele>264.02</ele>
        <time>2015-04-19T11:35:54Z</time>
      </trkpt>
      <trkpt lat="44.55893" lon="1.02111">
        <ele>264.02</ele>
        <time>2015-04-19T11:36:02Z</time>
      </trkpt>
      <trkpt lat="44.5589" lon="1.0211">
        <ele>264.02</ele>
        <time>2015-04-19T11:36:03Z</time>
      </trkpt>
      <trkpt lat="44.55887" lon="1.02111">
        <ele>264.02</ele>
        <time>2015-04-19T11:36:04Z</time>
      </trkpt>
      <trkpt lat="44.55884" lon="1.02111">
        <ele>264.02</ele>
        <time>2015-04-19T11:36:05Z</time>
      </trkpt>
      <trkpt lat="44.55883" lon="1.02112">
        <ele>264.5</ele>
        <time>2015-04-19T11:36:06Z</time>
      </trkpt>
      <trkpt lat="44.55881" lon="1.02112">
        <ele>264.5</ele>
        <time>2015-04-19T11:36:07Z</time>
      </trkpt>
      <trkpt lat="44.55879" lon="1.02113">
        <ele>264.5</ele>
        <time>2015-04-19T11:36:08Z</time>
      </trkpt>
      <trkpt lat="44.55878" lon="1.02113">
        <ele>264.5</ele>
        <time>2015-04-19T11:36:09Z</time>
      </trkpt>
      <trkpt lat="44.55877" lon="1.02114">
        <ele>264.5</ele>
        <time>2015-04-19T11:36:10Z</time>
      </trkpt>
      <trkpt lat="44.55862" lon="1.02119">
        <ele>264.5</ele>
        <time>2015-04-19T11:36:20Z</time>
      </trkpt>
      <trkpt lat="44.5586" lon="1.02119">
        <ele>264.5</ele>
        <time>2015-04-19T11:36:21Z</time>
      </trkpt>
      <trkpt lat="44.55837" lon="1.02123">
        <ele>264.5</ele>
        <time>2015-04-19T11:36:33Z</time>
      </trkpt>
      <trkpt lat="44.5582" lon="1.02124">
        <ele>264.5</ele>
        <time>2015-04-19T11:36:43Z</time>
      </trkpt>
      <trkpt lat="44.55803" lon="1.02126">
        <ele>264.5</ele>
        <time>2015-04-19T11:36:54Z</time>
      </trkpt>
      <trkpt lat="44.55793" lon="1.02126">
        <ele>264.5</ele>
        <time>2015-04-19T11:37:01Z</time>
      </trkpt>
      <trkpt lat="44.55792" lon="1.02126">
        <ele>264.5</ele>
        <time>2015-04-19T11:37:02Z</time>
      </trkpt>
      <trkpt lat="44.55785" lon="1.02125">
        <ele>263.06</ele>
        <time>2015-04-19T11:37:10Z</time>
      </trkpt>
      <trkpt lat="44.5578" lon="1.02124">
        <ele>262.1</ele>
        <time>2015-04-19T11:37:13Z</time>
      </trkpt>
      <trkpt lat="44.55777" lon="1.02124">
        <ele>262.58</ele>
        <time>2015-04-19T11:37:14Z</time>
      </trkpt>
      <trkpt lat="44.55763" lon="1.02127">
        <ele>261.62</ele>
        <time>2015-04-19T11:37:23Z</time>
      </trkpt>
      <trkpt lat="44.55749" lon="1.0213">
        <ele>260.65</ele>
        <time>2015-04-19T11:37:33Z</time>
      </trkpt>
      <trkpt lat="44.55743" lon="1.02133">
        <ele>260.17</ele>
        <time>2015-04-19T11:37:39Z</time>
      </trkpt>
      <trkpt lat="44.55741" lon="1.02135">
        <ele>260.17</ele>
        <time>2015-04-19T11:37:41Z</time>
      </trkpt>
      <trkpt lat="44.5574" lon="1.02136">
        <ele>260.17</ele>
        <time>2015-04-19T11:37:42Z</time>
      </trkpt>
      <trkpt lat="44.55738" lon="1.02137">
        <ele>260.17</ele>
        <time>2015-04-19T11:37:43Z</time>
      </trkpt>
      <trkpt lat="44.55736" lon="1.02137">
        <ele>260.17</ele>
        <time>2015-04-19T11:37:44Z</time>
      </trkpt>
      <trkpt lat="44.55734" lon="1.02138">
        <ele>260.17</ele>
        <time>2015-04-19T11:37:45Z</time>
      </trkpt>
      <trkpt lat="44.55732" lon="1.02139">
        <ele>259.21</ele>
        <time>2015-04-19T11:37:46Z</time>
      </trkpt>
      <trkpt lat="44.5573" lon="1.02139">
        <ele>259.21</ele>
        <time>2015-04-19T11:37:47Z</time>
      </trkpt>
      <trkpt lat="44.5571" lon="1.02148">
        <ele>258.73</ele>
        <time>2015-04-19T11:37:59Z</time>
      </trkpt>
      <trkpt lat="44.55691" lon="1.0216">
        <ele>258.25</ele>
        <time>2015-04-19T11:38:14Z</time>
      </trkpt>
      <trkpt lat="44.5569" lon="1.0216">
        <ele>258.25</ele>
        <time>2015-04-19T11:38:15Z</time>
      </trkpt>
      <trkpt lat="44.55688" lon="1.02161">
        <ele>258.25</ele>
        <time>2015-04-19T11:38:16Z</time>
      </trkpt>
      <trkpt lat="44.55686" lon="1.02162">
        <ele>258.25</ele>
        <time>2015-04-19T11:38:17Z</time>
      </trkpt>
      <trkpt lat="44.55685" lon="1.02163">
        <ele>257.29</ele>
        <time>2015-04-19T11:38:18Z</time>
      </trkpt>
      <trkpt lat="44.55663" lon="1.02174">
        <ele>256.81</ele>
        <time>2015-04-19T11:38:34Z</time>
      </trkpt>
      <trkpt lat="44.55652" lon="1.02182">
        <ele>256.81</ele>
        <time>2015-04-19T11:38:42Z</time>
      </trkpt>
      <trkpt lat="44.55637" lon="1.02193">
        <ele>255.85</ele>
        <time>2015-04-19T11:38:54Z</time>
      </trkpt>
      <trkpt lat="44.55631" lon="1.02198">
        <ele>255.37</ele>
        <time>2015-04-19T11:39:01Z</time>
      </trkpt>
      <trkpt lat="44.55629" lon="1.02199">
        <ele>255.37</ele>
        <time>2015-04-19T11:39:02Z</time>
      </trkpt>
      <trkpt lat="44.55628" lon="1.02199">
        <ele>255.37</ele>
        <time>2015-04-19T11:39:03Z</time>
      </trkpt>
      <trkpt lat="44.55627" lon="1.02198">
        <ele>255.37</ele>
        <time>2015-04-19T11:39:05Z</time>
      </trkpt>
      <trkpt lat="44.55617" lon="1.02194">
        <ele>255.37</ele>
        <time>2015-04-19T11:39:16Z</time>
      </trkpt>
      <trkpt lat="44.55604" lon="1.02188">
        <ele>254.89</ele>
        <time>2015-04-19T11:39:28Z</time>
      </trkpt>
      <trkpt lat="44.55586" lon="1.0218">
        <ele>254.89</ele>
        <time>2015-04-19T11:39:41Z</time>
      </trkpt>
      <trkpt lat="44.55574" lon="1.02169">
        <ele>254.41</ele>
        <time>2015-04-19T11:39:53Z</time>
      </trkpt>
      <trkpt lat="44.55562" lon="1.02151">
        <ele>252.48</ele>
        <time>2015-04-19T11:40:05Z</time>
      </trkpt>
      <trkpt lat="44.55549" lon="1.02141">
        <ele>251.52</ele>
        <time>2015-04-19T11:40:15Z</time>
      </trkpt>
      <trkpt lat="44.55545" lon="1.02137">
        <ele>251.04</ele>
        <time>2015-04-19T11:40:18Z</time>
      </trkpt>
      <trkpt lat="44.5554" lon="1.02132">
        <ele>250.08</ele>
        <time>2015-04-19T11:40:28Z</time>
      </trkpt>
      <trkpt lat="44.55534" lon="1.0212">
        <ele>248.64</ele>
        <time>2015-04-19T11:40:36Z</time>
      </trkpt>
      <trkpt lat="44.55526" lon="1.02106">
        <ele>248.16</ele>
        <time>2015-04-19T11:40:45Z</time>
      </trkpt>
      <trkpt lat="44.55515" lon="1.02094">
        <ele>247.2</ele>
        <time>2015-04-19T11:40:54Z</time>
      </trkpt>
      <trkpt lat="44.55503" lon="1.02079">
        <ele>246.23</ele>
        <time>2015-04-19T11:41:07Z</time>
      </trkpt>
      <trkpt lat="44.5549" lon="1.02061">
        <ele>245.75</ele>
        <time>2015-04-19T11:41:17Z</time>
      </trkpt>
      <trkpt lat="44.55481" lon="1.02042">
        <ele>244.31</ele>
        <time>2015-04-19T11:41:27Z</time>
      </trkpt>
      <trkpt lat="44.55471" lon="1.02028">
        <ele>243.83</ele>
        <time>2015-04-19T11:41:36Z</time>
      </trkpt>
      <trkpt lat="44.55459" lon="1.02015">
        <ele>243.35</ele>
        <time>2015-04-19T11:41:47Z</time>
      </trkpt>
      <trkpt lat="44.55446" lon="1.02005">
        <ele>243.35</ele>
        <time>2015-04-19T11:41:57Z</time>
      </trkpt>
      <trkpt lat="44.55445" lon="1.02003">
        <ele>243.35</ele>
        <time>2015-04-19T11:41:58Z</time>
      </trkpt>
      <trkpt lat="44.55445" lon="1.02001">
        <ele>242.87</ele>
        <time>2015-04-19T11:41:59Z</time>
      </trkpt>
      <trkpt lat="44.55444" lon="1.02">
        <ele>242.87</ele>
        <time>2015-04-19T11:42:00Z</time>
      </trkpt>
      <trkpt lat="44.55443" lon="1.01999">
        <ele>242.87</ele>
        <time>2015-04-19T11:42:01Z</time>
      </trkpt>
      <trkpt lat="44.55441" lon="1.01998">
        <ele>242.87</ele>
        <time>2015-04-19T11:42:02Z</time>
      </trkpt>
      <trkpt lat="44.5544" lon="1.01997">
        <ele>242.39</ele>
        <time>2015-04-19T11:42:03Z</time>
      </trkpt>
      <trkpt lat="44.55436" lon="1.01993">
        <ele>242.39</ele>
        <time>2015-04-19T11:42:07Z</time>
      </trkpt>
      <trkpt lat="44.55435" lon="1.01991">
        <ele>242.39</ele>
        <time>2015-04-19T11:42:08Z</time>
      </trkpt>
      <trkpt lat="44.5543" lon="1.01984">
        <ele>242.39</ele>
        <time>2015-04-19T11:42:14Z</time>
      </trkpt>
      <trkpt lat="44.55428" lon="1.0198">
        <ele>242.39</ele>
        <time>2015-04-19T11:42:18Z</time>
      </trkpt>
      <trkpt lat="44.55427" lon="1.01978">
        <ele>242.39</ele>
        <time>2015-04-19T11:42:19Z</time>
      </trkpt>
      <trkpt lat="44.55425" lon="1.01975">
        <ele>241.91</ele>
        <time>2015-04-19T11:42:20Z</time>
      </trkpt>
      <trkpt lat="44.55413" lon="1.01968">
        <ele>241.91</ele>
        <time>2015-04-19T11:42:21Z</time>
      </trkpt>
      <trkpt lat="44.55411" lon="1.01965">
        <ele>241.91</ele>
        <time>2015-04-19T11:42:22Z</time>
      </trkpt>
      <trkpt lat="44.55412" lon="1.01963">
        <ele>241.91</ele>
        <time>2015-04-19T11:42:23Z</time>
      </trkpt>
      <trkpt lat="44.55412" lon="1.0196">
        <ele>241.91</ele>
        <time>2015-04-19T11:42:24Z</time>
      </trkpt>
      <trkpt lat="44.55412" lon="1.01957">
        <ele>241.91</ele>
        <time>2015-04-19T11:42:25Z</time>
      </trkpt>
      <trkpt lat="44.55413" lon="1.01955">
        <ele>241.91</ele>
        <time>2015-04-19T11:42:26Z</time>
      </trkpt>
      <trkpt lat="44.55413" lon="1.01952">
        <ele>241.91</ele>
        <time>2015-04-19T11:42:27Z</time>
      </trkpt>
      <trkpt lat="44.55414" lon="1.0195">
        <ele>241.91</ele>
        <time>2015-04-19T11:42:28Z</time>
      </trkpt>
      <trkpt lat="44.55414" lon="1.01948">
        <ele>241.91</ele>
        <time>2015-04-19T11:42:29Z</time>
      </trkpt>
      <trkpt lat="44.55417" lon="1.01924">
        <ele>240.47</ele>
        <time>2015-04-19T11:42:43Z</time>
      </trkpt>
      <trkpt lat="44.55417" lon="1.01923">
        <ele>239.99</ele>
        <time>2015-04-19T11:42:44Z</time>
      </trkpt>
      <trkpt lat="44.55417" lon="1.0192">
        <ele>239.99</ele>
        <time>2015-04-19T11:42:45Z</time>
      </trkpt>
      <trkpt lat="44.55418" lon="1.01918">
        <ele>239.99</ele>
        <time>2015-04-19T11:42:46Z</time>
      </trkpt>
      <trkpt lat="44.55418" lon="1.01916">
        <ele>239.51</ele>
        <time>2015-04-19T11:42:47Z</time>
      </trkpt>
      <trkpt lat="44.5542" lon="1.01902">
        <ele>235.66</ele>
        <time>2015-04-19T11:42:57Z</time>
      </trkpt>
      <trkpt lat="44.5542" lon="1.01901">
        <ele>235.18</ele>
        <time>2015-04-19T11:42:58Z</time>
      </trkpt>
      <trkpt lat="44.55421" lon="1.01899">
        <ele>234.7</ele>
        <time>2015-04-19T11:42:59Z</time>
      </trkpt>
      <trkpt lat="44.55427" lon="1.01879">
        <ele>234.22</ele>
        <time>2015-04-19T11:43:14Z</time>
      </trkpt>
      <trkpt lat="44.55426" lon="1.01856">
        <ele>232.3</ele>
        <time>2015-04-19T11:43:28Z</time>
      </trkpt>
      <trkpt lat="44.55426" lon="1.01837">
        <ele>231.81</ele>
        <time>2015-04-19T11:43:39Z</time>
      </trkpt>
      <trkpt lat="44.55425" lon="1.01834">
        <ele>231.81</ele>
        <time>2015-04-19T11:43:40Z</time>
      </trkpt>
      <trkpt lat="44.55419" lon="1.01818">
        <ele>231.33</ele>
        <time>2015-04-19T11:43:50Z</time>
      </trkpt>
      <trkpt lat="44.55413" lon="1.01806">
        <ele>231.33</ele>
        <time>2015-04-19T11:43:59Z</time>
      </trkpt>
      <trkpt lat="44.55411" lon="1.01805">
        <ele>231.33</ele>
        <time>2015-04-19T11:44:01Z</time>
      </trkpt>
      <trkpt lat="44.55398" lon="1.01808">
        <ele>232.78</ele>
        <time>2015-04-19T11:44:14Z</time>
      </trkpt>
      <trkpt lat="44.55387" lon="1.01811">
        <ele>233.74</ele>
        <time>2015-04-19T11:44:23Z</time>
      </trkpt>
      <trkpt lat="44.55385" lon="1.01811">
        <ele>233.74</ele>
        <time>2015-04-19T11:44:24Z</time>
      </trkpt>
      <trkpt lat="44.55383" lon="1.0181">
        <ele>233.74</ele>
        <time>2015-04-19T11:44:25Z</time>
      </trkpt>
      <trkpt lat="44.55357" lon="1.01802">
        <ele>234.7</ele>
        <time>2015-04-19T11:44:42Z</time>
      </trkpt>
      <trkpt lat="44.55355" lon="1.01803">
        <ele>234.7</ele>
        <time>2015-04-19T11:44:44Z</time>
      </trkpt>
      <trkpt lat="44.55344" lon="1.01821">
        <ele>234.7</ele>
        <time>2015-04-19T11:44:59Z</time>
      </trkpt>
      <trkpt lat="44.55328" lon="1.01846">
        <ele>234.7</ele>
        <time>2015-04-19T11:45:16Z</time>
      </trkpt>
      <trkpt lat="44.55326" lon="1.01848">
        <ele>234.7</ele>
        <time>2015-04-19T11:45:18Z</time>
      </trkpt>
      <trkpt lat="44.55326" lon="1.01849">
        <ele>234.7</ele>
        <time>2015-04-19T11:45:19Z</time>
      </trkpt>
      <trkpt lat="44.55325" lon="1.01849">
        <ele>234.7</ele>
        <time>2015-04-19T11:45:20Z</time>
      </trkpt>
      <trkpt lat="44.55323" lon="1.0185">
        <ele>234.7</ele>
        <time>2015-04-19T11:45:21Z</time>
      </trkpt>
      <trkpt lat="44.55322" lon="1.01851">
        <ele>234.7</ele>
        <time>2015-04-19T11:45:22Z</time>
      </trkpt>
      <trkpt lat="44.55321" lon="1.0185">
        <ele>234.7</ele>
        <time>2015-04-19T11:45:23Z</time>
      </trkpt>
      <trkpt lat="44.5532" lon="1.0185">
        <ele>234.7</ele>
        <time>2015-04-19T11:45:24Z</time>
      </trkpt>
      <trkpt lat="44.55318" lon="1.0185">
        <ele>234.7</ele>
        <time>2015-04-19T11:45:25Z</time>
      </trkpt>
      <trkpt lat="44.55317" lon="1.0185">
        <ele>234.7</ele>
        <time>2015-04-19T11:45:26Z</time>
      </trkpt>
      <trkpt lat="44.55303" lon="1.01842">
        <ele>233.26</ele>
        <time>2015-04-19T11:45:39Z</time>
      </trkpt>
      <trkpt lat="44.55283" lon="1.01824">
        <ele>231.33</ele>
        <time>2015-04-19T11:45:54Z</time>
      </trkpt>
      <trkpt lat="44.55263" lon="1.01804">
        <ele>230.37</ele>
        <time>2015-04-19T11:46:11Z</time>
      </trkpt>
      <trkpt lat="44.55245" lon="1.01784">
        <ele>229.41</ele>
        <time>2015-04-19T11:46:27Z</time>
      </trkpt>
      <trkpt lat="44.55225" lon="1.01765">
        <ele>229.41</ele>
        <time>2015-04-19T11:46:43Z</time>
      </trkpt>
      <trkpt lat="44.55211" lon="1.0175">
        <ele>228.93</ele>
        <time>2015-04-19T11:46:58Z</time>
      </trkpt>
      <trkpt lat="44.55204" lon="1.01735">
        <ele>227.01</ele>
        <time>2015-04-19T11:47:17Z</time>
      </trkpt>
      <trkpt lat="44.55192" lon="1.01721">
        <ele>225.57</ele>
        <time>2015-04-19T11:47:28Z</time>
      </trkpt>
      <trkpt lat="44.55172" lon="1.01699">
        <ele>223.64</ele>
        <time>2015-04-19T11:47:38Z</time>
      </trkpt>
      <trkpt lat="44.55169" lon="1.01697">
        <ele>223.16</ele>
        <time>2015-04-19T11:47:41Z</time>
      </trkpt>
      <trkpt lat="44.55164" lon="1.01693">
        <ele>223.16</ele>
        <time>2015-04-19T11:47:45Z</time>
      </trkpt>
      <trkpt lat="44.55146" lon="1.0168">
        <ele>221.24</ele>
        <time>2015-04-19T11:47:58Z</time>
      </trkpt>
      <trkpt lat="44.55122" lon="1.01668">
        <ele>220.28</ele>
        <time>2015-04-19T11:48:12Z</time>
      </trkpt>
      <trkpt lat="44.55106" lon="1.01651">
        <ele>219.8</ele>
        <time>2015-04-19T11:48:25Z</time>
      </trkpt>
      <trkpt lat="44.55093" lon="1.01627">
        <ele>218.84</ele>
        <time>2015-04-19T11:48:41Z</time>
      </trkpt>
      <trkpt lat="44.55075" lon="1.01619">
        <ele>217.88</ele>
        <time>2015-04-19T11:48:54Z</time>
      </trkpt>
      <trkpt lat="44.55052" lon="1.01605">
        <ele>216.43</ele>
        <time>2015-04-19T11:49:11Z</time>
      </trkpt>
      <trkpt lat="44.55028" lon="1.0159">
        <ele>216.43</ele>
        <time>2015-04-19T11:49:29Z</time>
      </trkpt>
      <trkpt lat="44.55017" lon="1.01583">
        <ele>216.43</ele>
        <time>2015-04-19T11:49:38Z</time>
      </trkpt>
      <trkpt lat="44.55015" lon="1.01583">
        <ele>216.43</ele>
        <time>2015-04-19T11:49:39Z</time>
      </trkpt>
      <trkpt lat="44.54995" lon="1.01577">
        <ele>215.95</ele>
        <time>2015-04-19T11:49:54Z</time>
      </trkpt>
      <trkpt lat="44.54974" lon="1.0157">
        <ele>214.51</ele>
        <time>2015-04-19T11:50:10Z</time>
      </trkpt>
      <trkpt lat="44.5495" lon="1.01565">
        <ele>213.07</ele>
        <time>2015-04-19T11:50:28Z</time>
      </trkpt>
      <trkpt lat="44.54925" lon="1.01563">
        <ele>211.15</ele>
        <time>2015-04-19T11:50:45Z</time>
      </trkpt>
      <trkpt lat="44.54906" lon="1.01561">
        <ele>210.67</ele>
        <time>2015-04-19T11:50:59Z</time>
      </trkpt>
      <trkpt lat="44.54887" lon="1.0156">
        <ele>209.7</ele>
        <time>2015-04-19T11:51:12Z</time>
      </trkpt>
      <trkpt lat="44.54873" lon="1.01548">
        <ele>208.74</ele>
        <time>2015-04-19T11:51:26Z</time>
      </trkpt>
      <trkpt lat="44.54863" lon="1.01537">
        <ele>208.74</ele>
        <time>2015-04-19T11:51:39Z</time>
      </trkpt>
      <trkpt lat="44.54863" lon="1.01535">
        <ele>208.74</ele>
        <time>2015-04-19T11:51:40Z</time>
      </trkpt>
      <trkpt lat="44.54862" lon="1.01534">
        <ele>208.74</ele>
        <time>2015-04-19T11:51:41Z</time>
      </trkpt>
      <trkpt lat="44.54861" lon="1.01533">
        <ele>208.74</ele>
        <time>2015-04-19T11:51:42Z</time>
      </trkpt>
      <trkpt lat="44.54852" lon="1.01521">
        <ele>208.74</ele>
        <time>2015-04-19T11:51:53Z</time>
      </trkpt>
      <trkpt lat="44.54842" lon="1.0151">
        <ele>209.7</ele>
        <time>2015-04-19T11:52:05Z</time>
      </trkpt>
      <trkpt lat="44.54834" lon="1.01508">
        <ele>209.7</ele>
        <time>2015-04-19T11:52:11Z</time>
      </trkpt>
      <trkpt lat="44.54819" lon="1.01496">
        <ele>209.7</ele>
        <time>2015-04-19T11:52:25Z</time>
      </trkpt>
      <trkpt lat="44.54805" lon="1.01486">
        <ele>209.7</ele>
        <time>2015-04-19T11:52:36Z</time>
      </trkpt>
      <trkpt lat="44.54801" lon="1.01484">
        <ele>209.7</ele>
        <time>2015-04-19T11:52:39Z</time>
      </trkpt>
      <trkpt lat="44.54785" lon="1.01471">
        <ele>210.67</ele>
        <time>2015-04-19T11:52:54Z</time>
      </trkpt>
      <trkpt lat="44.54784" lon="1.01469">
        <ele>210.67</ele>
        <time>2015-04-19T11:52:55Z</time>
      </trkpt>
      <trkpt lat="44.54782" lon="1.01468">
        <ele>211.15</ele>
        <time>2015-04-19T11:53:00Z</time>
      </trkpt>
      <trkpt lat="44.54774" lon="1.01468">
        <ele>211.63</ele>
        <time>2015-04-19T11:53:08Z</time>
      </trkpt>
      <trkpt lat="44.54752" lon="1.01471">
        <ele>211.63</ele>
        <time>2015-04-19T11:53:22Z</time>
      </trkpt>
      <trkpt lat="44.54744" lon="1.01475">
        <ele>212.11</ele>
        <time>2015-04-19T11:53:31Z</time>
      </trkpt>
      <trkpt lat="44.54741" lon="1.01476">
        <ele>212.11</ele>
        <time>2015-04-19T11:53:33Z</time>
      </trkpt>
      <trkpt lat="44.54737" lon="1.01476">
        <ele>212.59</ele>
        <time>2015-04-19T11:53:36Z</time>
      </trkpt>
      <trkpt lat="44.5472" lon="1.01479">
        <ele>214.03</ele>
        <time>2015-04-19T11:53:48Z</time>
      </trkpt>
      <trkpt lat="44.54701" lon="1.01478">
        <ele>214.99</ele>
        <time>2015-04-19T11:54:00Z</time>
      </trkpt>
      <trkpt lat="44.54679" lon="1.0148">
        <ele>215.95</ele>
        <time>2015-04-19T11:54:15Z</time>
      </trkpt>
      <trkpt lat="44.54671" lon="1.01477">
        <ele>215.95</ele>
        <time>2015-04-19T11:54:24Z</time>
      </trkpt>
      <trkpt lat="44.54649" lon="1.01473">
        <ele>214.51</ele>
        <time>2015-04-19T11:54:38Z</time>
      </trkpt>
      <trkpt lat="44.54621" lon="1.01476">
        <ele>213.55</ele>
        <time>2015-04-19T11:54:53Z</time>
      </trkpt>
      <trkpt lat="44.54603" lon="1.01479">
        <ele>213.55</ele>
        <time>2015-04-19T11:55:07Z</time>
      </trkpt>
      <trkpt lat="44.54588" lon="1.01485">
        <ele>213.55</ele>
        <time>2015-04-19T11:55:15Z</time>
      </trkpt>
      <trkpt lat="44.54582" lon="1.0148">
        <ele>213.55</ele>
        <time>2015-04-19T11:55:24Z</time>
      </trkpt>
      <trkpt lat="44.54581" lon="1.01471">
        <ele>213.55</ele>
        <time>2015-04-19T11:55:31Z</time>
      </trkpt>
      <trkpt lat="44.54572" lon="1.01461">
        <ele>214.99</ele>
        <time>2015-04-19T11:55:42Z</time>
      </trkpt>
      <trkpt lat="44.54567" lon="1.01456">
        <ele>215.47</ele>
        <time>2015-04-19T11:55:50Z</time>
      </trkpt>
      <trkpt lat="44.5455" lon="1.0144">
        <ele>216.43</ele>
        <time>2015-04-19T11:56:01Z</time>
      </trkpt>
      <trkpt lat="44.54543" lon="1.01424">
        <ele>216.91</ele>
        <time>2015-04-19T11:56:12Z</time>
      </trkpt>
      <trkpt lat="44.54531" lon="1.01416">
        <ele>217.88</ele>
        <time>2015-04-19T11:56:24Z</time>
      </trkpt>
      <trkpt lat="44.54521" lon="1.01408">
        <ele>218.36</ele>
        <time>2015-04-19T11:56:34Z</time>
      </trkpt>
      <trkpt lat="44.54502" lon="1.01402">
        <ele>218.36</ele>
        <time>2015-04-19T11:56:44Z</time>
      </trkpt>
      <trkpt lat="44.54492" lon="1.01396">
        <ele>218.84</ele>
        <time>2015-04-19T11:56:51Z</time>
      </trkpt>
      <trkpt lat="44.54479" lon="1.01392">
        <ele>219.32</ele>
        <time>2015-04-19T11:57:01Z</time>
      </trkpt>
      <trkpt lat="44.5447" lon="1.01383">
        <ele>220.28</ele>
        <time>2015-04-19T11:57:10Z</time>
      </trkpt>
      <trkpt lat="44.54461" lon="1.01381">
        <ele>221.24</ele>
        <time>2015-04-19T11:57:17Z</time>
      </trkpt>
      <trkpt lat="44.54449" lon="1.01375">
        <ele>221.24</ele>
        <time>2015-04-19T11:57:27Z</time>
      </trkpt>
      <trkpt lat="44.54432" lon="1.01371">
        <ele>221.24</ele>
        <time>2015-04-19T11:57:38Z</time>
      </trkpt>
      <trkpt lat="44.54424" lon="1.0137">
        <ele>221.72</ele>
        <time>2015-04-19T11:57:44Z</time>
      </trkpt>
      <trkpt lat="44.54412" lon="1.01372">
        <ele>221.72</ele>
        <time>2015-04-19T11:57:56Z</time>
      </trkpt>
      <trkpt lat="44.54407" lon="1.01374">
        <ele>221.72</ele>
        <time>2015-04-19T11:58:01Z</time>
      </trkpt>
      <trkpt lat="44.54404" lon="1.01375">
        <ele>222.2</ele>
        <time>2015-04-19T11:58:06Z</time>
      </trkpt>
      <trkpt lat="44.54391" lon="1.01383">
        <ele>223.64</ele>
        <time>2015-04-19T11:58:17Z</time>
      </trkpt>
      <trkpt lat="44.54381" lon="1.01384">
        <ele>224.12</ele>
        <time>2015-04-19T11:58:25Z</time>
      </trkpt>
      <trkpt lat="44.54365" lon="1.01382">
        <ele>225.57</ele>
        <time>2015-04-19T11:58:36Z</time>
      </trkpt>
      <trkpt lat="44.54355" lon="1.01384">
        <ele>227.01</ele>
        <time>2015-04-19T11:58:49Z</time>
      </trkpt>
      <trkpt lat="44.5434" lon="1.01392">
        <ele>227.97</ele>
        <time>2015-04-19T11:59:01Z</time>
      </trkpt>
      <trkpt lat="44.54333" lon="1.01394">
        <ele>228.45</ele>
        <time>2015-04-19T11:59:06Z</time>
      </trkpt>
      <trkpt lat="44.5432" lon="1.01404">
        <ele>228.93</ele>
        <time>2015-04-19T11:59:18Z</time>
      </trkpt>
      <trkpt lat="44.54313" lon="1.01409">
        <ele>228.93</ele>
        <time>2015-04-19T11:59:26Z</time>
      </trkpt>
      <trkpt lat="44.54302" lon="1.01417">
        <ele>229.41</ele>
        <time>2015-04-19T11:59:34Z</time>
      </trkpt>
      <trkpt lat="44.54289" lon="1.0143">
        <ele>229.41</ele>
        <time>2015-04-19T11:59:46Z</time>
      </trkpt>
      <trkpt lat="44.54286" lon="1.01448">
        <ele>229.41</ele>
        <time>2015-04-19T11:59:59Z</time>
      </trkpt>
      <trkpt lat="44.54278" lon="1.01458">
        <ele>229.41</ele>
        <time>2015-04-19T12:00:05Z</time>
      </trkpt>
      <trkpt lat="44.54265" lon="1.01471">
        <ele>228.45</ele>
        <time>2015-04-19T12:00:16Z</time>
      </trkpt>
      <trkpt lat="44.54249" lon="1.01488">
        <ele>228.45</ele>
        <time>2015-04-19T12:00:29Z</time>
      </trkpt>
      <trkpt lat="44.54232" lon="1.01495">
        <ele>228.45</ele>
        <time>2015-04-19T12:00:40Z</time>
      </trkpt>
      <trkpt lat="44.54221" lon="1.0149">
        <ele>228.93</ele>
        <time>2015-04-19T12:00:48Z</time>
      </trkpt>
      <trkpt lat="44.5421" lon="1.0148">
        <ele>229.41</ele>
        <time>2015-04-19T12:01:01Z</time>
      </trkpt>
      <trkpt lat="44.54201" lon="1.01481">
        <ele>229.41</ele>
        <time>2015-04-19T12:01:12Z</time>
      </trkpt>
      <trkpt lat="44.54199" lon="1.01482">
        <ele>229.41</ele>
        <time>2015-04-19T12:01:13Z</time>
      </trkpt>
      <trkpt lat="44.54189" lon="1.01483">
        <ele>229.41</ele>
        <time>2015-04-19T12:01:19Z</time>
      </trkpt>
      <trkpt lat="44.5417" lon="1.01486">
        <ele>228.45</ele>
        <time>2015-04-19T12:01:35Z</time>
      </trkpt>
      <trkpt lat="44.54165" lon="1.01486">
        <ele>227.49</ele>
        <time>2015-04-19T12:01:41Z</time>
      </trkpt>
      <trkpt lat="44.54158" lon="1.01491">
        <ele>227.01</ele>
        <time>2015-04-19T12:01:46Z</time>
      </trkpt>
      <trkpt lat="44.54139" lon="1.01497">
        <ele>226.05</ele>
        <time>2015-04-19T12:01:57Z</time>
      </trkpt>
      <trkpt lat="44.54129" lon="1.01496">
        <ele>225.09</ele>
        <time>2015-04-19T12:02:08Z</time>
      </trkpt>
      <trkpt lat="44.54116" lon="1.01493">
        <ele>224.12</ele>
        <time>2015-04-19T12:02:18Z</time>
      </trkpt>
      <trkpt lat="44.54111" lon="1.01491">
        <ele>223.64</ele>
        <time>2015-04-19T12:02:23Z</time>
      </trkpt>
      <trkpt lat="44.54098" lon="1.01482">
        <ele>222.68</ele>
        <time>2015-04-19T12:02:33Z</time>
      </trkpt>
      <trkpt lat="44.5409" lon="1.01476">
        <ele>221.24</ele>
        <time>2015-04-19T12:02:39Z</time>
      </trkpt>
      <trkpt lat="44.5408" lon="1.01467">
        <ele>218.36</ele>
        <time>2015-04-19T12:02:45Z</time>
      </trkpt>
      <trkpt lat="44.54071" lon="1.01453">
        <ele>215.47</ele>
        <time>2015-04-19T12:02:55Z</time>
      </trkpt>
      <trkpt lat="44.54065" lon="1.01446">
        <ele>214.51</ele>
        <time>2015-04-19T12:03:05Z</time>
      </trkpt>
      <trkpt lat="44.5406" lon="1.01441">
        <ele>213.07</ele>
        <time>2015-04-19T12:03:16Z</time>
      </trkpt>
      <trkpt lat="44.54048" lon="1.01445">
        <ele>210.67</ele>
        <time>2015-04-19T12:03:28Z</time>
      </trkpt>
      <trkpt lat="44.54047" lon="1.01445">
        <ele>210.67</ele>
        <time>2015-04-19T12:03:29Z</time>
      </trkpt>
      <trkpt lat="44.5404" lon="1.01451">
        <ele>207.78</ele>
        <time>2015-04-19T12:03:35Z</time>
      </trkpt>
      <trkpt lat="44.54032" lon="1.01454">
        <ele>204.42</ele>
        <time>2015-04-19T12:03:40Z</time>
      </trkpt>
      <trkpt lat="44.54031" lon="1.01454">
        <ele>204.9</ele>
        <time>2015-04-19T12:03:41Z</time>
      </trkpt>
      <trkpt lat="44.54006" lon="1.01453">
        <ele>202.98</ele>
        <time>2015-04-19T12:03:57Z</time>
      </trkpt>
      <trkpt lat="44.53984" lon="1.0145">
        <ele>200.09</ele>
        <time>2015-04-19T12:04:10Z</time>
      </trkpt>
      <trkpt lat="44.53974" lon="1.01443">
        <ele>196.73</ele>
        <time>2015-04-19T12:04:18Z</time>
      </trkpt>
      <trkpt lat="44.5397" lon="1.01442">
        <ele>193.84</ele>
        <time>2015-04-19T12:04:22Z</time>
      </trkpt>
      <trkpt lat="44.53956" lon="1.01441">
        <ele>191.44</ele>
        <time>2015-04-19T12:04:34Z</time>
      </trkpt>
      <trkpt lat="44.53954" lon="1.01438">
        <ele>191.44</ele>
        <time>2015-04-19T12:04:37Z</time>
      </trkpt>
      <trkpt lat="44.53952" lon="1.01439">
        <ele>191.44</ele>
        <time>2015-04-19T12:04:39Z</time>
      </trkpt>
      <trkpt lat="44.53936" lon="1.01439">
        <ele>190.96</ele>
        <time>2015-04-19T12:04:50Z</time>
      </trkpt>
      <trkpt lat="44.53922" lon="1.01437">
        <ele>189.52</ele>
        <time>2015-04-19T12:05:01Z</time>
      </trkpt>
      <trkpt lat="44.53918" lon="1.01438">
        <ele>189.52</ele>
        <time>2015-04-19T12:05:04Z</time>
      </trkpt>
      <trkpt lat="44.5391" lon="1.01443">
        <ele>186.15</ele>
        <time>2015-04-19T12:05:14Z</time>
      </trkpt>
      <trkpt lat="44.53908" lon="1.01443">
        <ele>186.15</ele>
        <time>2015-04-19T12:05:17Z</time>
      </trkpt>
      <trkpt lat="44.53898" lon="1.01447">
        <ele>186.15</ele>
        <time>2015-04-19T12:05:24Z</time>
      </trkpt>
      <trkpt lat="44.53894" lon="1.01442">
        <ele>185.67</ele>
        <time>2015-04-19T12:05:35Z</time>
      </trkpt>
      <trkpt lat="44.5389" lon="1.01434">
        <ele>183.27</ele>
        <time>2015-04-19T12:05:41Z</time>
      </trkpt>
      <trkpt lat="44.5388" lon="1.01427">
        <ele>181.83</ele>
        <time>2015-04-19T12:05:46Z</time>
      </trkpt>
      <trkpt lat="44.53864" lon="1.01421">
        <ele>181.83</ele>
        <time>2015-04-19T12:05:58Z</time>
      </trkpt>
      <trkpt lat="44.5386" lon="1.01417">
        <ele>181.35</ele>
        <time>2015-04-19T12:06:03Z</time>
      </trkpt>
      <trkpt lat="44.53856" lon="1.01406">
        <ele>180.87</ele>
        <time>2015-04-19T12:06:08Z</time>
      </trkpt>
      <trkpt lat="44.53856" lon="1.014">
        <ele>180.38</ele>
        <time>2015-04-19T12:06:13Z</time>
      </trkpt>
      <trkpt lat="44.53855" lon="1.01397">
        <ele>178.94</ele>
        <time>2015-04-19T12:06:17Z</time>
      </trkpt>
      <trkpt lat="44.53855" lon="1.01394">
        <ele>178.46</ele>
        <time>2015-04-19T12:06:21Z</time>
      </trkpt>
      <trkpt lat="44.53848" lon="1.01391">
        <ele>175.1</ele>
        <time>2015-04-19T12:06:32Z</time>
      </trkpt>
      <trkpt lat="44.53845" lon="1.01388">
        <ele>171.73</ele>
        <time>2015-04-19T12:06:37Z</time>
      </trkpt>
      <trkpt lat="44.53836" lon="1.01382">
        <ele>168.37</ele>
        <time>2015-04-19T12:06:44Z</time>
      </trkpt>
      <trkpt lat="44.53829" lon="1.01379">
        <ele>167.89</ele>
        <time>2015-04-19T12:06:52Z</time>
      </trkpt>
      <trkpt lat="44.53823" lon="1.01371">
        <ele>169.33</ele>
        <time>2015-04-19T12:07:03Z</time>
      </trkpt>
      <trkpt lat="44.53825" lon="1.01368">
        <ele>170.29</ele>
        <time>2015-04-19T12:07:21Z</time>
      </trkpt>
      <trkpt lat="44.53821" lon="1.01364">
        <ele>170.29</ele>
        <time>2015-04-19T12:07:33Z</time>
      </trkpt>
      <trkpt lat="44.53817" lon="1.01365">
        <ele>170.29</ele>
        <time>2015-04-19T12:07:49Z</time>
      </trkpt>
      <trkpt lat="44.53813" lon="1.01367">
        <ele>170.29</ele>
        <time>2015-04-19T12:08:02Z</time>
      </trkpt>
      <trkpt lat="44.53811" lon="1.01367">
        <ele>170.29</ele>
        <time>2015-04-19T12:08:14Z</time>
      </trkpt>
      <trkpt lat="44.53813" lon="1.01367">
        <ele>169.81</ele>
        <time>2015-04-19T12:08:32Z</time>
      </trkpt>
      <trkpt lat="44.53813" lon="1.01366">
        <ele>169.81</ele>
        <time>2015-04-19T12:08:50Z</time>
      </trkpt>
      <trkpt lat="44.53812" lon="1.01364">
        <ele>169.81</ele>
        <time>2015-04-19T12:09:12Z</time>
      </trkpt>
      <trkpt lat="44.53813" lon="1.01364">
        <ele>169.33</ele>
        <time>2015-04-19T12:09:27Z</time>
      </trkpt>
      <trkpt lat="44.53811" lon="1.01365">
        <ele>169.33</ele>
        <time>2015-04-19T12:09:43Z</time>
      </trkpt>
      <trkpt lat="44.53811" lon="1.01365">
        <ele>169.33</ele>
        <time>2015-04-19T12:09:57Z</time>
      </trkpt>
      <trkpt lat="44.53811" lon="1.01366">
        <ele>168.85</ele>
        <time>2015-04-19T12:10:15Z</time>
      </trkpt>
      <trkpt lat="44.53812" lon="1.01366">
        <ele>168.85</ele>
        <time>2015-04-19T12:10:27Z</time>
      </trkpt>
      <trkpt lat="44.53812" lon="1.01365">
        <ele>168.85</ele>
        <time>2015-04-19T12:10:42Z</time>
      </trkpt>
      <trkpt lat="44.53814" lon="1.0137">
        <ele>168.37</ele>
        <time>2015-04-19T12:10:59Z</time>
      </trkpt>
      <trkpt lat="44.53815" lon="1.01372">
        <ele>168.37</ele>
        <time>2015-04-19T12:11:19Z</time>
      </trkpt>
      <trkpt lat="44.53814" lon="1.01372">
        <ele>168.37</ele>
        <time>2015-04-19T12:11:22Z</time>
      </trkpt>
      <trkpt lat="44.53812" lon="1.01365">
        <ele>168.37</ele>
        <time>2015-04-19T12:11:34Z</time>
      </trkpt>
      <trkpt lat="44.53809" lon="1.01368">
        <ele>168.37</ele>
        <time>2015-04-19T12:11:46Z</time>
      </trkpt>
      <trkpt lat="44.5381" lon="1.01367">
        <ele>168.37</ele>
        <time>2015-04-19T12:11:48Z</time>
      </trkpt>
      <trkpt lat="44.53814" lon="1.01367">
        <ele>167.89</ele>
        <time>2015-04-19T12:11:51Z</time>
      </trkpt>
      <trkpt lat="44.53816" lon="1.01366">
        <ele>167.89</ele>
        <time>2015-04-19T12:11:53Z</time>
      </trkpt>
      <trkpt lat="44.53825" lon="1.01365">
        <ele>167.89</ele>
        <time>2015-04-19T12:12:05Z</time>
      </trkpt>
      <trkpt lat="44.53831" lon="1.01361">
        <ele>167.89</ele>
        <time>2015-04-19T12:12:11Z</time>
      </trkpt>
      <trkpt lat="44.53833" lon="1.01356">
        <ele>167.89</ele>
        <time>2015-04-19T12:12:15Z</time>
      </trkpt>
      <trkpt lat="44.53842" lon="1.01354">
        <ele>163.56</ele>
        <time>2015-04-19T12:12:22Z</time>
      </trkpt>
      <trkpt lat="44.53852" lon="1.01347">
        <ele>163.08</ele>
        <time>2015-04-19T12:12:34Z</time>
      </trkpt>
      <trkpt lat="44.53853" lon="1.01347">
        <ele>163.08</ele>
        <time>2015-04-19T12:12:35Z</time>
      </trkpt>
      <trkpt lat="44.53858" lon="1.01344">
        <ele>162.6</ele>
        <time>2015-04-19T12:12:39Z</time>
      </trkpt>
      <trkpt lat="44.53852" lon="1.01341">
        <ele>162.12</ele>
        <time>2015-04-19T12:12:43Z</time>
      </trkpt>
      <trkpt lat="44.53851" lon="1.01341">
        <ele>162.12</ele>
        <time>2015-04-19T12:12:44Z</time>
      </trkpt>
      <trkpt lat="44.53849" lon="1.01341">
        <ele>162.12</ele>
        <time>2015-04-19T12:12:45Z</time>
      </trkpt>
      <trkpt lat="44.53848" lon="1.01341">
        <ele>162.12</ele>
        <time>2015-04-19T12:12:46Z</time>
      </trkpt>
      <trkpt lat="44.53847" lon="1.01342">
        <ele>161.64</ele>
        <time>2015-04-19T12:12:47Z</time>
      </trkpt>
      <trkpt lat="44.53846" lon="1.01343">
        <ele>161.64</ele>
        <time>2015-04-19T12:12:48Z</time>
      </trkpt>
      <trkpt lat="44.53844" lon="1.01344">
        <ele>161.64</ele>
        <time>2015-04-19T12:12:49Z</time>
      </trkpt>
      <trkpt lat="44.53843" lon="1.01344">
        <ele>161.64</ele>
        <time>2015-04-19T12:12:50Z</time>
      </trkpt>
      <trkpt lat="44.53841" lon="1.01344">
        <ele>160.68</ele>
        <time>2015-04-19T12:12:51Z</time>
      </trkpt>
      <trkpt lat="44.5384" lon="1.01344">
        <ele>160.68</ele>
        <time>2015-04-19T12:12:52Z</time>
      </trkpt>
      <trkpt lat="44.53839" lon="1.01343">
        <ele>160.68</ele>
        <time>2015-04-19T12:12:53Z</time>
      </trkpt>
      <trkpt lat="44.53829" lon="1.01341">
        <ele>158.75</ele>
        <time>2015-04-19T12:13:07Z</time>
      </trkpt>
      <trkpt lat="44.53825" lon="1.01341">
        <ele>157.79</ele>
        <time>2015-04-19T12:13:11Z</time>
      </trkpt>
      <trkpt lat="44.53823" lon="1.01341">
        <ele>157.79</ele>
        <time>2015-04-19T12:13:12Z</time>
      </trkpt>
      <trkpt lat="44.53816" lon="1.01344">
        <ele>156.35</ele>
        <time>2015-04-19T12:13:21Z</time>
      </trkpt>
      <trkpt lat="44.53806" lon="1.01351">
        <ele>154.43</ele>
        <time>2015-04-19T12:13:32Z</time>
      </trkpt>
      <trkpt lat="44.53804" lon="1.01351">
        <ele>154.91</ele>
        <time>2015-04-19T12:13:33Z</time>
      </trkpt>
      <trkpt lat="44.53796" lon="1.01354">
        <ele>153.47</ele>
        <time>2015-04-19T12:13:40Z</time>
      </trkpt>
      <trkpt lat="44.53781" lon="1.01358">
        <ele>151.06</ele>
        <time>2015-04-19T12:13:51Z</time>
      </trkpt>
      <trkpt lat="44.53777" lon="1.01361">
        <ele>150.58</ele>
        <time>2015-04-19T12:13:54Z</time>
      </trkpt>
      <trkpt lat="44.53776" lon="1.01363">
        <ele>150.58</ele>
        <time>2015-04-19T12:13:55Z</time>
      </trkpt>
      <trkpt lat="44.53774" lon="1.01364">
        <ele>150.58</ele>
        <time>2015-04-19T12:13:56Z</time>
      </trkpt>
      <trkpt lat="44.53772" lon="1.01365">
        <ele>150.58</ele>
        <time>2015-04-19T12:13:57Z</time>
      </trkpt>
      <trkpt lat="44.5377" lon="1.01366">
        <ele>150.58</ele>
        <time>2015-04-19T12:13:58Z</time>
      </trkpt>
      <trkpt lat="44.53768" lon="1.01366">
        <ele>150.1</ele>
        <time>2015-04-19T12:13:59Z</time>
      </trkpt>
      <trkpt lat="44.53767" lon="1.01368">
        <ele>150.1</ele>
        <time>2015-04-19T12:14:00Z</time>
      </trkpt>
      <trkpt lat="44.53764" lon="1.01375">
        <ele>150.1</ele>
        <time>2015-04-19T12:14:04Z</time>
      </trkpt>
      <trkpt lat="44.53763" lon="1.01377">
        <ele>150.1</ele>
        <time>2015-04-19T12:14:05Z</time>
      </trkpt>
      <trkpt lat="44.53762" lon="1.01379">
        <ele>150.1</ele>
        <time>2015-04-19T12:14:06Z</time>
      </trkpt>
      <trkpt lat="44.53761" lon="1.01386">
        <ele>149.62</ele>
        <time>2015-04-19T12:14:10Z</time>
      </trkpt>
      <trkpt lat="44.53761" lon="1.01387">
        <ele>149.62</ele>
        <time>2015-04-19T12:14:11Z</time>
      </trkpt>
      <trkpt lat="44.5376" lon="1.01389">
        <ele>149.62</ele>
        <time>2015-04-19T12:14:12Z</time>
      </trkpt>
      <trkpt lat="44.53761" lon="1.01398">
        <ele>149.14</ele>
        <time>2015-04-19T12:14:17Z</time>
      </trkpt>
      <trkpt lat="44.53758" lon="1.014">
        <ele>148.66</ele>
        <time>2015-04-19T12:14:19Z</time>
      </trkpt>
      <trkpt lat="44.53756" lon="1.014">
        <ele>148.66</ele>
        <time>2015-04-19T12:14:20Z</time>
      </trkpt>
      <trkpt lat="44.53754" lon="1.014">
        <ele>148.66</ele>
        <time>2015-04-19T12:14:21Z</time>
      </trkpt>
      <trkpt lat="44.53752" lon="1.01399">
        <ele>147.7</ele>
        <time>2015-04-19T12:14:22Z</time>
      </trkpt>
      <trkpt lat="44.53748" lon="1.01397">
        <ele>147.22</ele>
        <time>2015-04-19T12:14:26Z</time>
      </trkpt>
      <trkpt lat="44.53747" lon="1.01398">
        <ele>147.22</ele>
        <time>2015-04-19T12:14:27Z</time>
      </trkpt>
      <trkpt lat="44.53747" lon="1.014">
        <ele>146.74</ele>
        <time>2015-04-19T12:14:29Z</time>
      </trkpt>
      <trkpt lat="44.53747" lon="1.01402">
        <ele>146.74</ele>
        <time>2015-04-19T12:14:30Z</time>
      </trkpt>
      <trkpt lat="44.53747" lon="1.01404">
        <ele>146.26</ele>
        <time>2015-04-19T12:14:31Z</time>
      </trkpt>
      <trkpt lat="44.53747" lon="1.01405">
        <ele>146.26</ele>
        <time>2015-04-19T12:14:32Z</time>
      </trkpt>
      <trkpt lat="44.53748" lon="1.01407">
        <ele>146.26</ele>
        <time>2015-04-19T12:14:33Z</time>
      </trkpt>
      <trkpt lat="44.53745" lon="1.01408">
        <ele>145.3</ele>
        <time>2015-04-19T12:14:34Z</time>
      </trkpt>
      <trkpt lat="44.53734" lon="1.01424">
        <ele>143.85</ele>
        <time>2015-04-19T12:14:47Z</time>
      </trkpt>
      <trkpt lat="44.5373" lon="1.01434">
        <ele>141.93</ele>
        <time>2015-04-19T12:14:55Z</time>
      </trkpt>
      <trkpt lat="44.53729" lon="1.01435">
        <ele>141.93</ele>
        <time>2015-04-19T12:14:56Z</time>
      </trkpt>
      <trkpt lat="44.53728" lon="1.01436">
        <ele>141.45</ele>
        <time>2015-04-19T12:14:57Z</time>
      </trkpt>
      <trkpt lat="44.53728" lon="1.01436">
        <ele>141.45</ele>
        <time>2015-04-19T12:14:58Z</time>
      </trkpt>
      <trkpt lat="44.53728" lon="1.01438">
        <ele>141.45</ele>
        <time>2015-04-19T12:14:59Z</time>
      </trkpt>
      <trkpt lat="44.53728" lon="1.0144">
        <ele>141.45</ele>
        <time>2015-04-19T12:15:00Z</time>
      </trkpt>
      <trkpt lat="44.53727" lon="1.01477">
        <ele>140.49</ele>
        <time>2015-04-19T12:15:16Z</time>
      </trkpt>
      <trkpt lat="44.5371" lon="1.01495">
        <ele>140.49</ele>
        <time>2015-04-19T12:15:32Z</time>
      </trkpt>
      <trkpt lat="44.53699" lon="1.01504">
        <ele>140.49</ele>
        <time>2015-04-19T12:15:41Z</time>
      </trkpt>
      <trkpt lat="44.53687" lon="1.0152">
        <ele>141.93</ele>
        <time>2015-04-19T12:15:57Z</time>
      </trkpt>
      <trkpt lat="44.53685" lon="1.01522">
        <ele>141.93</ele>
        <time>2015-04-19T12:15:59Z</time>
      </trkpt>
      <trkpt lat="44.53677" lon="1.0153">
        <ele>142.89</ele>
        <time>2015-04-19T12:16:09Z</time>
      </trkpt>
      <trkpt lat="44.53673" lon="1.01548">
        <ele>145.3</ele>
        <time>2015-04-19T12:16:25Z</time>
      </trkpt>
      <trkpt lat="44.53666" lon="1.01565">
        <ele>146.26</ele>
        <time>2015-04-19T12:16:40Z</time>
      </trkpt>
      <trkpt lat="44.53657" lon="1.0158">
        <ele>148.18</ele>
        <time>2015-04-19T12:16:53Z</time>
      </trkpt>
      <trkpt lat="44.53647" lon="1.01595">
        <ele>150.58</ele>
        <time>2015-04-19T12:17:06Z</time>
      </trkpt>
      <trkpt lat="44.53633" lon="1.01612">
        <ele>152.99</ele>
        <time>2015-04-19T12:17:19Z</time>
      </trkpt>
      <trkpt lat="44.53626" lon="1.01622">
        <ele>155.39</ele>
        <time>2015-04-19T12:17:30Z</time>
      </trkpt>
      <trkpt lat="44.53628" lon="1.01635">
        <ele>156.83</ele>
        <time>2015-04-19T12:17:40Z</time>
      </trkpt>
      <trkpt lat="44.53621" lon="1.01648">
        <ele>158.75</ele>
        <time>2015-04-19T12:17:51Z</time>
      </trkpt>
      <trkpt lat="44.53618" lon="1.01663">
        <ele>161.16</ele>
        <time>2015-04-19T12:18:03Z</time>
      </trkpt>
      <trkpt lat="44.53616" lon="1.01666">
        <ele>164.52</ele>
        <time>2015-04-19T12:18:09Z</time>
      </trkpt>
      <trkpt lat="44.53619" lon="1.01667">
        <ele>165.96</ele>
        <time>2015-04-19T12:18:22Z</time>
      </trkpt>
      <trkpt lat="44.53614" lon="1.01672">
        <ele>165.96</ele>
        <time>2015-04-19T12:18:29Z</time>
      </trkpt>
      <trkpt lat="44.53581" lon="1.0167">
        <ele>167.89</ele>
        <time>2015-04-19T12:18:41Z</time>
      </trkpt>
      <trkpt lat="44.53564" lon="1.01658">
        <ele>169.33</ele>
        <time>2015-04-19T12:18:53Z</time>
      </trkpt>
      <trkpt lat="44.53562" lon="1.01654">
        <ele>169.81</ele>
        <time>2015-04-19T12:18:55Z</time>
      </trkpt>
      <trkpt lat="44.53556" lon="1.0164">
        <ele>171.25</ele>
        <time>2015-04-19T12:19:06Z</time>
      </trkpt>
      <trkpt lat="44.53556" lon="1.01637">
        <ele>171.25</ele>
        <time>2015-04-19T12:19:07Z</time>
      </trkpt>
      <trkpt lat="44.53553" lon="1.01626">
        <ele>172.21</ele>
        <time>2015-04-19T12:19:14Z</time>
      </trkpt>
      <trkpt lat="44.53548" lon="1.01608">
        <ele>172.69</ele>
        <time>2015-04-19T12:19:22Z</time>
      </trkpt>
      <trkpt lat="44.53543" lon="1.01595">
        <ele>172.69</ele>
        <time>2015-04-19T12:19:31Z</time>
      </trkpt>
      <trkpt lat="44.53546" lon="1.01571">
        <ele>171.73</ele>
        <time>2015-04-19T12:19:44Z</time>
      </trkpt>
      <trkpt lat="44.53548" lon="1.01568">
        <ele>170.29</ele>
        <time>2015-04-19T12:19:48Z</time>
      </trkpt>
      <trkpt lat="44.53557" lon="1.01552">
        <ele>168.37</ele>
        <time>2015-04-19T12:19:55Z</time>
      </trkpt>
      <trkpt lat="44.5356" lon="1.01544">
        <ele>167.89</ele>
        <time>2015-04-19T12:20:01Z</time>
      </trkpt>
      <trkpt lat="44.53555" lon="1.01536">
        <ele>167.89</ele>
        <time>2015-04-19T12:20:05Z</time>
      </trkpt>
      <trkpt lat="44.53552" lon="1.01531">
        <ele>167.41</ele>
        <time>2015-04-19T12:20:07Z</time>
      </trkpt>
      <trkpt lat="44.53533" lon="1.01521">
        <ele>165.96</ele>
        <time>2015-04-19T12:20:22Z</time>
      </trkpt>
      <trkpt lat="44.53516" lon="1.01511">
        <ele>164.52</ele>
        <time>2015-04-19T12:20:34Z</time>
      </trkpt>
      <trkpt lat="44.53498" lon="1.01518">
        <ele>164.04</ele>
        <time>2015-04-19T12:20:45Z</time>
      </trkpt>
      <trkpt lat="44.53483" lon="1.01524">
        <ele>164.04</ele>
        <time>2015-04-19T12:20:55Z</time>
      </trkpt>
      <trkpt lat="44.5346" lon="1.0153">
        <ele>164.04</ele>
        <time>2015-04-19T12:21:12Z</time>
      </trkpt>
      <trkpt lat="44.53452" lon="1.01528">
        <ele>165</ele>
        <time>2015-04-19T12:21:20Z</time>
      </trkpt>
      <trkpt lat="44.5344" lon="1.01521">
        <ele>166.93</ele>
        <time>2015-04-19T12:21:35Z</time>
      </trkpt>
      <trkpt lat="44.53426" lon="1.01506">
        <ele>169.33</ele>
        <time>2015-04-19T12:21:49Z</time>
      </trkpt>
      <trkpt lat="44.53422" lon="1.015">
        <ele>170.77</ele>
        <time>2015-04-19T12:21:55Z</time>
      </trkpt>
      <trkpt lat="44.53417" lon="1.01487">
        <ele>171.73</ele>
        <time>2015-04-19T12:22:03Z</time>
      </trkpt>
      <trkpt lat="44.53415" lon="1.01476">
        <ele>172.21</ele>
        <time>2015-04-19T12:22:09Z</time>
      </trkpt>
      <trkpt lat="44.53411" lon="1.01469">
        <ele>172.69</ele>
        <time>2015-04-19T12:22:15Z</time>
      </trkpt>
      <trkpt lat="44.53405" lon="1.01461">
        <ele>173.66</ele>
        <time>2015-04-19T12:22:22Z</time>
      </trkpt>
      <trkpt lat="44.53402" lon="1.01445">
        <ele>175.58</ele>
        <time>2015-04-19T12:22:34Z</time>
      </trkpt>
      <trkpt lat="44.53396" lon="1.01431">
        <ele>177.5</ele>
        <time>2015-04-19T12:22:46Z</time>
      </trkpt>
      <trkpt lat="44.53392" lon="1.01418">
        <ele>179.42</ele>
        <time>2015-04-19T12:22:56Z</time>
      </trkpt>
      <trkpt lat="44.53389" lon="1.01408">
        <ele>180.87</ele>
        <time>2015-04-19T12:23:06Z</time>
      </trkpt>
      <trkpt lat="44.53386" lon="1.01404">
        <ele>182.79</ele>
        <time>2015-04-19T12:23:16Z</time>
      </trkpt>
      <trkpt lat="44.53385" lon="1.01397">
        <ele>185.19</ele>
        <time>2015-04-19T12:23:28Z</time>
      </trkpt>
      <trkpt lat="44.53378" lon="1.01383">
        <ele>187.11</ele>
        <time>2015-04-19T12:23:38Z</time>
      </trkpt>
      <trkpt lat="44.53375" lon="1.01379">
        <ele>187.11</ele>
        <time>2015-04-19T12:23:42Z</time>
      </trkpt>
      <trkpt lat="44.53372" lon="1.01376">
        <ele>187.59</ele>
        <time>2015-04-19T12:23:45Z</time>
      </trkpt>
      <trkpt lat="44.53367" lon="1.01374">
        <ele>187.59</ele>
        <time>2015-04-19T12:23:49Z</time>
      </trkpt>
      <trkpt lat="44.53348" lon="1.01362">
        <ele>188.56</ele>
        <time>2015-04-19T12:24:02Z</time>
      </trkpt>
      <trkpt lat="44.53335" lon="1.01357">
        <ele>188.56</ele>
        <time>2015-04-19T12:24:13Z</time>
      </trkpt>
      <trkpt lat="44.53308" lon="1.01357">
        <ele>188.56</ele>
        <time>2015-04-19T12:24:29Z</time>
      </trkpt>
      <trkpt lat="44.53292" lon="1.01357">
        <ele>187.11</ele>
        <time>2015-04-19T12:24:40Z</time>
      </trkpt>
      <trkpt lat="44.53279" lon="1.01357">
        <ele>186.15</ele>
        <time>2015-04-19T12:24:51Z</time>
      </trkpt>
      <trkpt lat="44.53275" lon="1.01362">
        <ele>185.67</ele>
        <time>2015-04-19T12:25:00Z</time>
      </trkpt>
      <trkpt lat="44.5327" lon="1.01367">
        <ele>185.67</ele>
        <time>2015-04-19T12:25:07Z</time>
      </trkpt>
      <trkpt lat="44.53257" lon="1.0137">
        <ele>185.67</ele>
        <time>2015-04-19T12:25:18Z</time>
      </trkpt>
      <trkpt lat="44.53253" lon="1.01373">
        <ele>185.67</ele>
        <time>2015-04-19T12:25:23Z</time>
      </trkpt>
      <trkpt lat="44.53237" lon="1.0138">
        <ele>187.59</ele>
        <time>2015-04-19T12:25:36Z</time>
      </trkpt>
      <trkpt lat="44.5323" lon="1.01383">
        <ele>188.08</ele>
        <time>2015-04-19T12:25:42Z</time>
      </trkpt>
      <trkpt lat="44.53218" lon="1.01393">
        <ele>189.52</ele>
        <time>2015-04-19T12:25:52Z</time>
      </trkpt>
      <trkpt lat="44.53202" lon="1.01405">
        <ele>190.48</ele>
        <time>2015-04-19T12:26:08Z</time>
      </trkpt>
      <trkpt lat="44.53188" lon="1.01415">
        <ele>191.44</ele>
        <time>2015-04-19T12:26:22Z</time>
      </trkpt>
      <trkpt lat="44.5318" lon="1.01422">
        <ele>191.92</ele>
        <time>2015-04-19T12:26:29Z</time>
      </trkpt>
      <trkpt lat="44.53176" lon="1.01424">
        <ele>192.88</ele>
        <time>2015-04-19T12:26:33Z</time>
      </trkpt>
      <trkpt lat="44.53173" lon="1.01426">
        <ele>192.88</ele>
        <time>2015-04-19T12:26:35Z</time>
      </trkpt>
      <trkpt lat="44.5316" lon="1.0143">
        <ele>193.84</ele>
        <time>2015-04-19T12:26:47Z</time>
      </trkpt>
      <trkpt lat="44.53145" lon="1.01436">
        <ele>195.77</ele>
        <time>2015-04-19T12:26:57Z</time>
      </trkpt>
      <trkpt lat="44.53139" lon="1.01437">
        <ele>195.28</ele>
        <time>2015-04-19T12:27:00Z</time>
      </trkpt>
      <trkpt lat="44.53125" lon="1.01441">
        <ele>196.73</ele>
        <time>2015-04-19T12:27:09Z</time>
      </trkpt>
      <trkpt lat="44.53112" lon="1.01449">
        <ele>196.73</ele>
        <time>2015-04-19T12:27:23Z</time>
      </trkpt>
      <trkpt lat="44.53101" lon="1.01454">
        <ele>196.73</ele>
        <time>2015-04-19T12:27:34Z</time>
      </trkpt>
      <trkpt lat="44.53096" lon="1.01458">
        <ele>195.77</ele>
        <time>2015-04-19T12:27:38Z</time>
      </trkpt>
      <trkpt lat="44.5308" lon="1.01466">
        <ele>194.32</ele>
        <time>2015-04-19T12:27:48Z</time>
      </trkpt>
      <trkpt lat="44.53073" lon="1.01469">
        <ele>194.32</ele>
        <time>2015-04-19T12:27:53Z</time>
      </trkpt>
      <trkpt lat="44.53061" lon="1.01479">
        <ele>192.88</ele>
        <time>2015-04-19T12:28:00Z</time>
      </trkpt>
      <trkpt lat="44.5306" lon="1.01482">
        <ele>192.88</ele>
        <time>2015-04-19T12:28:02Z</time>
      </trkpt>
      <trkpt lat="44.53039" lon="1.01496">
        <ele>191.92</ele>
        <time>2015-04-19T12:28:13Z</time>
      </trkpt>
      <trkpt lat="44.53013" lon="1.015">
        <ele>190.48</ele>
        <time>2015-04-19T12:28:28Z</time>
      </trkpt>
      <trkpt lat="44.53002" lon="1.01498">
        <ele>189.52</ele>
        <time>2015-04-19T12:28:40Z</time>
      </trkpt>
      <trkpt lat="44.52993" lon="1.01493">
        <ele>188.56</ele>
        <time>2015-04-19T12:28:50Z</time>
      </trkpt>
      <trkpt lat="44.52979" lon="1.01478">
        <ele>187.11</ele>
        <time>2015-04-19T12:29:02Z</time>
      </trkpt>
      <trkpt lat="44.52953" lon="1.01461">
        <ele>185.67</ele>
        <time>2015-04-19T12:29:14Z</time>
      </trkpt>
      <trkpt lat="44.52943" lon="1.01459">
        <ele>185.19</ele>
        <time>2015-04-19T12:29:21Z</time>
      </trkpt>
      <trkpt lat="44.52934" lon="1.01453">
        <ele>184.23</ele>
        <time>2015-04-19T12:29:28Z</time>
      </trkpt>
      <trkpt lat="44.52929" lon="1.01446">
        <ele>183.27</ele>
        <time>2015-04-19T12:29:33Z</time>
      </trkpt>
      <trkpt lat="44.52916" lon="1.01433">
        <ele>180.87</ele>
        <time>2015-04-19T12:29:46Z</time>
      </trkpt>
      <trkpt lat="44.52904" lon="1.01414">
        <ele>179.42</ele>
        <time>2015-04-19T12:30:00Z</time>
      </trkpt>
      <trkpt lat="44.52897" lon="1.01409">
        <ele>178.94</ele>
        <time>2015-04-19T12:30:06Z</time>
      </trkpt>
      <trkpt lat="44.5289" lon="1.01404">
        <ele>178.46</ele>
        <time>2015-04-19T12:30:11Z</time>
      </trkpt>
      <trkpt lat="44.52879" lon="1.01386">
        <ele>177.02</ele>
        <time>2015-04-19T12:30:24Z</time>
      </trkpt>
      <trkpt lat="44.5287" lon="1.01376">
        <ele>177.5</ele>
        <time>2015-04-19T12:30:32Z</time>
      </trkpt>
      <trkpt lat="44.52868" lon="1.01371">
        <ele>177.02</ele>
        <time>2015-04-19T12:30:35Z</time>
      </trkpt>
      <trkpt lat="44.52849" lon="1.01336">
        <ele>177.02</ele>
        <time>2015-04-19T12:30:51Z</time>
      </trkpt>
      <trkpt lat="44.52843" lon="1.01317">
        <ele>176.54</ele>
        <time>2015-04-19T12:31:00Z</time>
      </trkpt>
      <trkpt lat="44.52843" lon="1.01313">
        <ele>176.54</ele>
        <time>2015-04-19T12:31:02Z</time>
      </trkpt>
      <trkpt lat="44.52839" lon="1.01301">
        <ele>176.54</ele>
        <time>2015-04-19T12:31:08Z</time>
      </trkpt>
      <trkpt lat="44.52825" lon="1.01281">
        <ele>176.54</ele>
        <time>2015-04-19T12:31:23Z</time>
      </trkpt>
      <trkpt lat="44.5281" lon="1.01262">
        <ele>176.06</ele>
        <time>2015-04-19T12:31:39Z</time>
      </trkpt>
      <trkpt lat="44.52794" lon="1.01246">
        <ele>176.06</ele>
        <time>2015-04-19T12:31:53Z</time>
      </trkpt>
      <trkpt lat="44.52777" lon="1.01227">
        <ele>176.06</ele>
        <time>2015-04-19T12:32:07Z</time>
      </trkpt>
      <trkpt lat="44.52774" lon="1.01224">
        <ele>176.06</ele>
        <time>2015-04-19T12:32:09Z</time>
      </trkpt>
      <trkpt lat="44.52757" lon="1.01205">
        <ele>175.58</ele>
        <time>2015-04-19T12:32:24Z</time>
      </trkpt>
      <trkpt lat="44.52749" lon="1.01197">
        <ele>175.58</ele>
        <time>2015-04-19T12:32:31Z</time>
      </trkpt>
      <trkpt lat="44.52744" lon="1.01196">
        <ele>176.54</ele>
        <time>2015-04-19T12:32:35Z</time>
      </trkpt>
      <trkpt lat="44.52726" lon="1.01189">
        <ele>177.02</ele>
        <time>2015-04-19T12:32:51Z</time>
      </trkpt>
      <trkpt lat="44.52722" lon="1.01186">
        <ele>176.54</ele>
        <time>2015-04-19T12:32:54Z</time>
      </trkpt>
      <trkpt lat="44.5272" lon="1.01178">
        <ele>176.54</ele>
        <time>2015-04-19T12:32:59Z</time>
      </trkpt>
      <trkpt lat="44.52723" lon="1.01155">
        <ele>177.5</ele>
        <time>2015-04-19T12:33:10Z</time>
      </trkpt>
      <trkpt lat="44.52721" lon="1.0115">
        <ele>177.5</ele>
        <time>2015-04-19T12:33:14Z</time>
      </trkpt>
      <trkpt lat="44.5272" lon="1.01146">
        <ele>177.98</ele>
        <time>2015-04-19T12:33:16Z</time>
      </trkpt>
      <trkpt lat="44.52721" lon="1.01116">
        <ele>177.98</ele>
        <time>2015-04-19T12:33:31Z</time>
      </trkpt>
      <trkpt lat="44.52723" lon="1.01101">
        <ele>177.98</ele>
        <time>2015-04-19T12:33:40Z</time>
      </trkpt>
      <trkpt lat="44.52716" lon="1.01087">
        <ele>176.54</ele>
        <time>2015-04-19T12:33:52Z</time>
      </trkpt>
      <trkpt lat="44.52713" lon="1.01087">
        <ele>176.54</ele>
        <time>2015-04-19T12:33:54Z</time>
      </trkpt>
      <trkpt lat="44.52698" lon="1.01082">
        <ele>175.1</ele>
        <time>2015-04-19T12:34:04Z</time>
      </trkpt>
      <trkpt lat="44.52696" lon="1.01081">
        <ele>174.62</ele>
        <time>2015-04-19T12:34:05Z</time>
      </trkpt>
      <trkpt lat="44.52679" lon="1.01076">
        <ele>172.69</ele>
        <time>2015-04-19T12:34:14Z</time>
      </trkpt>
      <trkpt lat="44.52676" lon="1.01076">
        <ele>171.25</ele>
        <time>2015-04-19T12:34:15Z</time>
      </trkpt>
      <trkpt lat="44.52675" lon="1.01075">
        <ele>170.77</ele>
        <time>2015-04-19T12:34:16Z</time>
      </trkpt>
      <trkpt lat="44.52674" lon="1.01074">
        <ele>171.25</ele>
        <time>2015-04-19T12:34:17Z</time>
      </trkpt>
      <trkpt lat="44.52672" lon="1.01074">
        <ele>169.81</ele>
        <time>2015-04-19T12:34:18Z</time>
      </trkpt>
      <trkpt lat="44.5267" lon="1.01073">
        <ele>169.33</ele>
        <time>2015-04-19T12:34:19Z</time>
      </trkpt>
      <trkpt lat="44.52669" lon="1.01072">
        <ele>170.29</ele>
        <time>2015-04-19T12:34:20Z</time>
      </trkpt>
      <trkpt lat="44.52646" lon="1.01066">
        <ele>169.81</ele>
        <time>2015-04-19T12:34:31Z</time>
      </trkpt>
      <trkpt lat="44.52645" lon="1.01066">
        <ele>169.81</ele>
        <time>2015-04-19T12:34:32Z</time>
      </trkpt>
      <trkpt lat="44.52643" lon="1.01066">
        <ele>169.81</ele>
        <time>2015-04-19T12:34:33Z</time>
      </trkpt>
      <trkpt lat="44.52641" lon="1.01066">
        <ele>169.81</ele>
        <time>2015-04-19T12:34:34Z</time>
      </trkpt>
      <trkpt lat="44.5264" lon="1.01065">
        <ele>169.81</ele>
        <time>2015-04-19T12:34:35Z</time>
      </trkpt>
      <trkpt lat="44.52638" lon="1.01065">
        <ele>169.81</ele>
        <time>2015-04-19T12:34:36Z</time>
      </trkpt>
      <trkpt lat="44.52637" lon="1.01065">
        <ele>169.81</ele>
        <time>2015-04-19T12:34:37Z</time>
      </trkpt>
      <trkpt lat="44.52635" lon="1.01064">
        <ele>169.81</ele>
        <time>2015-04-19T12:34:38Z</time>
      </trkpt>
      <trkpt lat="44.52633" lon="1.01064">
        <ele>169.81</ele>
        <time>2015-04-19T12:34:39Z</time>
      </trkpt>
      <trkpt lat="44.52632" lon="1.01064">
        <ele>169.81</ele>
        <time>2015-04-19T12:34:40Z</time>
      </trkpt>
      <trkpt lat="44.52631" lon="1.01063">
        <ele>169.81</ele>
        <time>2015-04-19T12:34:41Z</time>
      </trkpt>
      <trkpt lat="44.5263" lon="1.01062">
        <ele>169.81</ele>
        <time>2015-04-19T12:34:42Z</time>
      </trkpt>
      <trkpt lat="44.52628" lon="1.01062">
        <ele>169.81</ele>
        <time>2015-04-19T12:34:43Z</time>
      </trkpt>
      <trkpt lat="44.52627" lon="1.01062">
        <ele>169.81</ele>
        <time>2015-04-19T12:34:44Z</time>
      </trkpt>
      <trkpt lat="44.52611" lon="1.01061">
        <ele>169.81</ele>
        <time>2015-04-19T12:34:55Z</time>
      </trkpt>
      <trkpt lat="44.52612" lon="1.01062">
        <ele>169.81</ele>
        <time>2015-04-19T12:35:02Z</time>
      </trkpt>
      <trkpt lat="44.52613" lon="1.01064">
        <ele>169.81</ele>
        <time>2015-04-19T12:35:03Z</time>
      </trkpt>
      <trkpt lat="44.52613" lon="1.01066">
        <ele>169.33</ele>
        <time>2015-04-19T12:35:04Z</time>
      </trkpt>
      <trkpt lat="44.52613" lon="1.01068">
        <ele>169.33</ele>
        <time>2015-04-19T12:35:05Z</time>
      </trkpt>
      <trkpt lat="44.52612" lon="1.01074">
        <ele>169.33</ele>
        <time>2015-04-19T12:35:09Z</time>
      </trkpt>
      <trkpt lat="44.52588" lon="1.01095">
        <ele>167.89</ele>
        <time>2015-04-19T12:35:22Z</time>
      </trkpt>
      <trkpt lat="44.52583" lon="1.011">
        <ele>167.89</ele>
        <time>2015-04-19T12:35:26Z</time>
      </trkpt>
      <trkpt lat="44.52581" lon="1.01102">
        <ele>167.89</ele>
        <time>2015-04-19T12:35:27Z</time>
      </trkpt>
      <trkpt lat="44.52578" lon="1.01105">
        <ele>167.41</ele>
        <time>2015-04-19T12:35:28Z</time>
      </trkpt>
      <trkpt lat="44.52555" lon="1.01118">
        <ele>166.45</ele>
        <time>2015-04-19T12:35:40Z</time>
      </trkpt>
      <trkpt lat="44.52534" lon="1.01131">
        <ele>163.08</ele>
        <time>2015-04-19T12:35:52Z</time>
      </trkpt>
      <trkpt lat="44.52526" lon="1.01134">
        <ele>159.72</ele>
        <time>2015-04-19T12:35:57Z</time>
      </trkpt>
      <trkpt lat="44.52509" lon="1.01142">
        <ele>158.75</ele>
        <time>2015-04-19T12:36:08Z</time>
      </trkpt>
      <trkpt lat="44.52502" lon="1.01146">
        <ele>158.75</ele>
        <time>2015-04-19T12:36:20Z</time>
      </trkpt>
      <trkpt lat="44.52502" lon="1.01146">
        <ele>158.75</ele>
        <time>2015-04-19T12:36:22Z</time>
      </trkpt>
      <trkpt lat="44.525" lon="1.01151">
        <ele>159.24</ele>
        <time>2015-04-19T12:36:33Z</time>
      </trkpt>
      <trkpt lat="44.52502" lon="1.01158">
        <ele>159.24</ele>
        <time>2015-04-19T12:36:38Z</time>
      </trkpt>
      <trkpt lat="44.52501" lon="1.01163">
        <ele>159.24</ele>
        <time>2015-04-19T12:36:40Z</time>
      </trkpt>
      <trkpt lat="44.525" lon="1.01165">
        <ele>159.24</ele>
        <time>2015-04-19T12:36:41Z</time>
      </trkpt>
      <trkpt lat="44.525" lon="1.01167">
        <ele>159.24</ele>
        <time>2015-04-19T12:36:42Z</time>
      </trkpt>
      <trkpt lat="44.52499" lon="1.01175">
        <ele>159.24</ele>
        <time>2015-04-19T12:36:45Z</time>
      </trkpt>
      <trkpt lat="44.52495" lon="1.012">
        <ele>159.24</ele>
        <time>2015-04-19T12:36:58Z</time>
      </trkpt>
      <trkpt lat="44.52489" lon="1.01228">
        <ele>159.24</ele>
        <time>2015-04-19T12:37:12Z</time>
      </trkpt>
      <trkpt lat="44.52479" lon="1.01243">
        <ele>160.68</ele>
        <time>2015-04-19T12:37:22Z</time>
      </trkpt>
      <trkpt lat="44.52478" lon="1.01244">
        <ele>160.68</ele>
        <time>2015-04-19T12:37:23Z</time>
      </trkpt>
      <trkpt lat="44.52476" lon="1.01246">
        <ele>160.68</ele>
        <time>2015-04-19T12:37:24Z</time>
      </trkpt>
      <trkpt lat="44.52474" lon="1.01248">
        <ele>160.68</ele>
        <time>2015-04-19T12:37:25Z</time>
      </trkpt>
      <trkpt lat="44.52473" lon="1.0125">
        <ele>160.68</ele>
        <time>2015-04-19T12:37:26Z</time>
      </trkpt>
      <trkpt lat="44.52455" lon="1.01266">
        <ele>160.68</ele>
        <time>2015-04-19T12:37:35Z</time>
      </trkpt>
      <trkpt lat="44.52444" lon="1.01273">
        <ele>160.68</ele>
        <time>2015-04-19T12:37:42Z</time>
      </trkpt>
      <trkpt lat="44.52439" lon="1.01277">
        <ele>160.68</ele>
        <time>2015-04-19T12:37:45Z</time>
      </trkpt>
      <trkpt lat="44.52418" lon="1.01283">
        <ele>161.16</ele>
        <time>2015-04-19T12:37:57Z</time>
      </trkpt>
      <trkpt lat="44.52402" lon="1.01287">
        <ele>160.2</ele>
        <time>2015-04-19T12:38:10Z</time>
      </trkpt>
      <trkpt lat="44.52384" lon="1.01296">
        <ele>159.72</ele>
        <time>2015-04-19T12:38:22Z</time>
      </trkpt>
      <trkpt lat="44.52381" lon="1.01298">
        <ele>159.24</ele>
        <time>2015-04-19T12:38:24Z</time>
      </trkpt>
      <trkpt lat="44.52367" lon="1.01305">
        <ele>158.27</ele>
        <time>2015-04-19T12:38:36Z</time>
      </trkpt>
      <trkpt lat="44.5235" lon="1.01314">
        <ele>157.31</ele>
        <time>2015-04-19T12:38:47Z</time>
      </trkpt>
      <trkpt lat="44.52331" lon="1.01319">
        <ele>156.35</ele>
        <time>2015-04-19T12:38:59Z</time>
      </trkpt>
      <trkpt lat="44.52315" lon="1.01328">
        <ele>156.35</ele>
        <time>2015-04-19T12:39:10Z</time>
      </trkpt>
      <trkpt lat="44.52309" lon="1.01334">
        <ele>155.87</ele>
        <time>2015-04-19T12:39:16Z</time>
      </trkpt>
      <trkpt lat="44.52305" lon="1.01339">
        <ele>155.87</ele>
        <time>2015-04-19T12:39:23Z</time>
      </trkpt>
      <trkpt lat="44.52305" lon="1.01341">
        <ele>155.87</ele>
        <time>2015-04-19T12:39:25Z</time>
      </trkpt>
      <trkpt lat="44.52306" lon="1.01345">
        <ele>155.39</ele>
        <time>2015-04-19T12:39:28Z</time>
      </trkpt>
      <trkpt lat="44.52299" lon="1.01365">
        <ele>154.91</ele>
        <time>2015-04-19T12:39:43Z</time>
      </trkpt>
      <trkpt lat="44.52299" lon="1.01371">
        <ele>154.91</ele>
        <time>2015-04-19T12:39:46Z</time>
      </trkpt>
      <trkpt lat="44.52301" lon="1.01376">
        <ele>154.43</ele>
        <time>2015-04-19T12:39:48Z</time>
      </trkpt>
      <trkpt lat="44.52305" lon="1.01387">
        <ele>154.43</ele>
        <time>2015-04-19T12:39:52Z</time>
      </trkpt>
      <trkpt lat="44.52309" lon="1.01399">
        <ele>153.95</ele>
        <time>2015-04-19T12:39:57Z</time>
      </trkpt>
      <trkpt lat="44.52309" lon="1.01415">
        <ele>153.47</ele>
        <time>2015-04-19T12:40:03Z</time>
      </trkpt>
      <trkpt lat="44.5231" lon="1.01422">
        <ele>152.99</ele>
        <time>2015-04-19T12:40:07Z</time>
      </trkpt>
      <trkpt lat="44.52293" lon="1.01451">
        <ele>152.03</ele>
        <time>2015-04-19T12:40:19Z</time>
      </trkpt>
      <trkpt lat="44.52293" lon="1.01455">
        <ele>151.54</ele>
        <time>2015-04-19T12:40:21Z</time>
      </trkpt>
      <trkpt lat="44.52297" lon="1.01472">
        <ele>149.62</ele>
        <time>2015-04-19T12:40:28Z</time>
      </trkpt>
      <trkpt lat="44.52296" lon="1.01482">
        <ele>146.26</ele>
        <time>2015-04-19T12:40:33Z</time>
      </trkpt>
      <trkpt lat="44.52286" lon="1.01487">
        <ele>143.37</ele>
        <time>2015-04-19T12:40:37Z</time>
      </trkpt>
      <trkpt lat="44.52293" lon="1.01497">
        <ele>141.45</ele>
        <time>2015-04-19T12:40:44Z</time>
      </trkpt>
      <trkpt lat="44.52309" lon="1.0151">
        <ele>141.45</ele>
        <time>2015-04-19T12:40:55Z</time>
      </trkpt>
      <trkpt lat="44.52313" lon="1.01514">
        <ele>141.45</ele>
        <time>2015-04-19T12:40:58Z</time>
      </trkpt>
      <trkpt lat="44.52323" lon="1.01523">
        <ele>139.53</ele>
        <time>2015-04-19T12:41:08Z</time>
      </trkpt>
      <trkpt lat="44.52329" lon="1.01529">
        <ele>139.05</ele>
        <time>2015-04-19T12:41:14Z</time>
      </trkpt>
      <trkpt lat="44.5233" lon="1.01531">
        <ele>138.57</ele>
        <time>2015-04-19T12:41:15Z</time>
      </trkpt>
      <trkpt lat="44.52331" lon="1.01532">
        <ele>138.57</ele>
        <time>2015-04-19T12:41:16Z</time>
      </trkpt>
      <trkpt lat="44.52331" lon="1.01534">
        <ele>138.57</ele>
        <time>2015-04-19T12:41:17Z</time>
      </trkpt>
      <trkpt lat="44.52332" lon="1.01535">
        <ele>138.09</ele>
        <time>2015-04-19T12:41:18Z</time>
      </trkpt>
      <trkpt lat="44.52332" lon="1.01537">
        <ele>138.09</ele>
        <time>2015-04-19T12:41:19Z</time>
      </trkpt>
      <trkpt lat="44.52333" lon="1.01539">
        <ele>138.09</ele>
        <time>2015-04-19T12:41:20Z</time>
      </trkpt>
      <trkpt lat="44.52334" lon="1.01541">
        <ele>137.13</ele>
        <time>2015-04-19T12:41:21Z</time>
      </trkpt>
      <trkpt lat="44.52336" lon="1.01548">
        <ele>135.68</ele>
        <time>2015-04-19T12:41:24Z</time>
      </trkpt>
      <trkpt lat="44.52339" lon="1.01555">
        <ele>134.72</ele>
        <time>2015-04-19T12:41:27Z</time>
      </trkpt>
      <trkpt lat="44.5234" lon="1.01557">
        <ele>134.72</ele>
        <time>2015-04-19T12:41:28Z</time>
      </trkpt>
      <trkpt lat="44.5234" lon="1.01559">
        <ele>134.72</ele>
        <time>2015-04-19T12:41:29Z</time>
      </trkpt>
      <trkpt lat="44.52348" lon="1.0159">
        <ele>134.24</ele>
        <time>2015-04-19T12:41:40Z</time>
      </trkpt>
      <trkpt lat="44.52349" lon="1.01603">
        <ele>134.24</ele>
        <time>2015-04-19T12:41:46Z</time>
      </trkpt>
      <trkpt lat="44.52349" lon="1.01605">
        <ele>134.24</ele>
        <time>2015-04-19T12:41:47Z</time>
      </trkpt>
      <trkpt lat="44.52349" lon="1.01607">
        <ele>134.24</ele>
        <time>2015-04-19T12:41:48Z</time>
      </trkpt>
      <trkpt lat="44.52349" lon="1.01609">
        <ele>133.76</ele>
        <time>2015-04-19T12:41:49Z</time>
      </trkpt>
      <trkpt lat="44.52348" lon="1.01611">
        <ele>133.76</ele>
        <time>2015-04-19T12:41:50Z</time>
      </trkpt>
      <trkpt lat="44.52348" lon="1.01613">
        <ele>133.76</ele>
        <time>2015-04-19T12:41:51Z</time>
      </trkpt>
      <trkpt lat="44.52348" lon="1.01614">
        <ele>133.76</ele>
        <time>2015-04-19T12:41:52Z</time>
      </trkpt>
      <trkpt lat="44.52348" lon="1.01616">
        <ele>133.76</ele>
        <time>2015-04-19T12:41:53Z</time>
      </trkpt>
      <trkpt lat="44.52347" lon="1.01619">
        <ele>133.76</ele>
        <time>2015-04-19T12:41:54Z</time>
      </trkpt>
      <trkpt lat="44.52347" lon="1.01621">
        <ele>133.28</ele>
        <time>2015-04-19T12:41:55Z</time>
      </trkpt>
      <trkpt lat="44.52346" lon="1.01623">
        <ele>133.28</ele>
        <time>2015-04-19T12:41:56Z</time>
      </trkpt>
      <trkpt lat="44.52337" lon="1.01639">
        <ele>131.84</ele>
        <time>2015-04-19T12:42:05Z</time>
      </trkpt>
      <trkpt lat="44.52336" lon="1.0164">
        <ele>131.84</ele>
        <time>2015-04-19T12:42:06Z</time>
      </trkpt>
      <trkpt lat="44.52334" lon="1.01641">
        <ele>130.88</ele>
        <time>2015-04-19T12:42:07Z</time>
      </trkpt>
      <trkpt lat="44.52333" lon="1.01642">
        <ele>130.4</ele>
        <time>2015-04-19T12:42:08Z</time>
      </trkpt>
      <trkpt lat="44.52332" lon="1.01643">
        <ele>130.4</ele>
        <time>2015-04-19T12:42:09Z</time>
      </trkpt>
      <trkpt lat="44.52312" lon="1.01648">
        <ele>127.51</ele>
        <time>2015-04-19T12:42:22Z</time>
      </trkpt>
      <trkpt lat="44.52303" lon="1.0165">
        <ele>127.03</ele>
        <time>2015-04-19T12:42:29Z</time>
      </trkpt>
      <trkpt lat="44.52301" lon="1.01651">
        <ele>126.55</ele>
        <time>2015-04-19T12:42:30Z</time>
      </trkpt>
      <trkpt lat="44.52299" lon="1.01651">
        <ele>126.55</ele>
        <time>2015-04-19T12:42:31Z</time>
      </trkpt>
      <trkpt lat="44.52298" lon="1.01652">
        <ele>125.59</ele>
        <time>2015-04-19T12:42:32Z</time>
      </trkpt>
      <trkpt lat="44.52296" lon="1.01653">
        <ele>126.07</ele>
        <time>2015-04-19T12:42:33Z</time>
      </trkpt>
      <trkpt lat="44.52295" lon="1.01653">
        <ele>124.63</ele>
        <time>2015-04-19T12:42:34Z</time>
      </trkpt>
      <trkpt lat="44.52293" lon="1.01653">
        <ele>124.15</ele>
        <time>2015-04-19T12:42:35Z</time>
      </trkpt>
      <trkpt lat="44.52291" lon="1.01654">
        <ele>123.67</ele>
        <time>2015-04-19T12:42:36Z</time>
      </trkpt>
      <trkpt lat="44.52289" lon="1.01654">
        <ele>123.19</ele>
        <time>2015-04-19T12:42:37Z</time>
      </trkpt>
      <trkpt lat="44.52287" lon="1.01654">
        <ele>122.22</ele>
        <time>2015-04-19T12:42:38Z</time>
      </trkpt>
      <trkpt lat="44.52285" lon="1.01653">
        <ele>121.74</ele>
        <time>2015-04-19T12:42:39Z</time>
      </trkpt>
      <trkpt lat="44.52283" lon="1.01653">
        <ele>121.26</ele>
        <time>2015-04-19T12:42:40Z</time>
      </trkpt>
      <trkpt lat="44.52281" lon="1.01653">
        <ele>120.78</ele>
        <time>2015-04-19T12:42:41Z</time>
      </trkpt>
      <trkpt lat="44.52279" lon="1.01652">
        <ele>120.78</ele>
        <time>2015-04-19T12:42:42Z</time>
      </trkpt>
      <trkpt lat="44.52277" lon="1.01651">
        <ele>119.82</ele>
        <time>2015-04-19T12:42:43Z</time>
      </trkpt>
      <trkpt lat="44.52276" lon="1.01649">
        <ele>119.82</ele>
        <time>2015-04-19T12:42:44Z</time>
      </trkpt>
      <trkpt lat="44.52274" lon="1.01648">
        <ele>119.34</ele>
        <time>2015-04-19T12:42:45Z</time>
      </trkpt>
      <trkpt lat="44.52273" lon="1.01647">
        <ele>119.34</ele>
        <time>2015-04-19T12:42:46Z</time>
      </trkpt>
      <trkpt lat="44.52271" lon="1.01645">
        <ele>119.34</ele>
        <time>2015-04-19T12:42:47Z</time>
      </trkpt>
      <trkpt lat="44.5227" lon="1.01643">
        <ele>119.34</ele>
        <time>2015-04-19T12:42:48Z</time>
      </trkpt>
      <trkpt lat="44.52263" lon="1.01634">
        <ele>119.34</ele>
        <time>2015-04-19T12:42:53Z</time>
      </trkpt>
      <trkpt lat="44.52262" lon="1.01633">
        <ele>119.34</ele>
        <time>2015-04-19T12:42:54Z</time>
      </trkpt>
      <trkpt lat="44.52261" lon="1.01631">
        <ele>119.34</ele>
        <time>2015-04-19T12:42:55Z</time>
      </trkpt>
      <trkpt lat="44.5226" lon="1.01629">
        <ele>119.34</ele>
        <time>2015-04-19T12:42:56Z</time>
      </trkpt>
      <trkpt lat="44.52259" lon="1.01628">
        <ele>119.34</ele>
        <time>2015-04-19T12:42:57Z</time>
      </trkpt>
      <trkpt lat="44.52257" lon="1.01626">
        <ele>119.34</ele>
        <time>2015-04-19T12:42:58Z</time>
      </trkpt>
      <trkpt lat="44.52253" lon="1.01622">
        <ele>119.34</ele>
        <time>2015-04-19T12:43:01Z</time>
      </trkpt>
      <trkpt lat="44.52252" lon="1.01621">
        <ele>119.34</ele>
        <time>2015-04-19T12:43:02Z</time>
      </trkpt>
      <trkpt lat="44.52251" lon="1.01619">
        <ele>119.34</ele>
        <time>2015-04-19T12:43:03Z</time>
      </trkpt>
      <trkpt lat="44.52234" lon="1.01601">
        <ele>118.38</ele>
        <time>2015-04-19T12:43:17Z</time>
      </trkpt>
      <trkpt lat="44.52214" lon="1.01595">
        <ele>116.94</ele>
        <time>2015-04-19T12:43:31Z</time>
      </trkpt>
      <trkpt lat="44.52206" lon="1.01593">
        <ele>116.46</ele>
        <time>2015-04-19T12:43:37Z</time>
      </trkpt>
      <trkpt lat="44.52205" lon="1.01593">
        <ele>116.46</ele>
        <time>2015-04-19T12:43:38Z</time>
      </trkpt>
      <trkpt lat="44.52203" lon="1.01592">
        <ele>116.46</ele>
        <time>2015-04-19T12:43:39Z</time>
      </trkpt>
      <trkpt lat="44.52181" lon="1.0158">
        <ele>115.01</ele>
        <time>2015-04-19T12:43:54Z</time>
      </trkpt>
      <trkpt lat="44.52165" lon="1.01565">
        <ele>114.53</ele>
        <time>2015-04-19T12:44:07Z</time>
      </trkpt>
      <trkpt lat="44.52144" lon="1.01554">
        <ele>113.57</ele>
        <time>2015-04-19T12:44:21Z</time>
      </trkpt>
      <trkpt lat="44.52128" lon="1.01553">
        <ele>112.61</ele>
        <time>2015-04-19T12:44:33Z</time>
      </trkpt>
      <trkpt lat="44.52101" lon="1.01561">
        <ele>111.65</ele>
        <time>2015-04-19T12:44:52Z</time>
      </trkpt>
      <trkpt lat="44.52077" lon="1.01568">
        <ele>110.21</ele>
        <time>2015-04-19T12:45:08Z</time>
      </trkpt>
      <trkpt lat="44.52052" lon="1.0157">
        <ele>108.77</ele>
        <time>2015-04-19T12:45:23Z</time>
      </trkpt>
      <trkpt lat="44.52036" lon="1.01569">
        <ele>107.81</ele>
        <time>2015-04-19T12:45:35Z</time>
      </trkpt>
      <trkpt lat="44.52019" lon="1.01568">
        <ele>107.32</ele>
        <time>2015-04-19T12:45:46Z</time>
      </trkpt>
      <trkpt lat="44.52018" lon="1.01572">
        <ele>106.84</ele>
        <time>2015-04-19T12:45:49Z</time>
      </trkpt>
      <trkpt lat="44.52018" lon="1.01573">
        <ele>106.84</ele>
        <time>2015-04-19T12:45:50Z</time>
      </trkpt>
      <trkpt lat="44.52018" lon="1.01576">
        <ele>106.84</ele>
        <time>2015-04-19T12:45:51Z</time>
      </trkpt>
      <trkpt lat="44.52018" lon="1.01578">
        <ele>106.36</ele>
        <time>2015-04-19T12:45:52Z</time>
      </trkpt>
      <trkpt lat="44.52018" lon="1.0158">
        <ele>106.36</ele>
        <time>2015-04-19T12:45:53Z</time>
      </trkpt>
      <trkpt lat="44.52018" lon="1.01582">
        <ele>105.88</ele>
        <time>2015-04-19T12:45:54Z</time>
      </trkpt>
      <trkpt lat="44.52016" lon="1.01601">
        <ele>105.88</ele>
        <time>2015-04-19T12:46:03Z</time>
      </trkpt>
      <trkpt lat="44.52015" lon="1.01603">
        <ele>105.88</ele>
        <time>2015-04-19T12:46:04Z</time>
      </trkpt>
      <trkpt lat="44.52014" lon="1.01603">
        <ele>105.88</ele>
        <time>2015-04-19T12:46:05Z</time>
      </trkpt>
      <trkpt lat="44.52012" lon="1.01604">
        <ele>105.4</ele>
        <time>2015-04-19T12:46:06Z</time>
      </trkpt>
      <trkpt lat="44.52011" lon="1.01605">
        <ele>105.4</ele>
        <time>2015-04-19T12:46:07Z</time>
      </trkpt>
      <trkpt lat="44.51989" lon="1.01612">
        <ele>104.92</ele>
        <time>2015-04-19T12:46:23Z</time>
      </trkpt>
      <trkpt lat="44.51963" lon="1.01625">
        <ele>104.44</ele>
        <time>2015-04-19T12:46:40Z</time>
      </trkpt>
      <trkpt lat="44.51938" lon="1.01637">
        <ele>103.96</ele>
        <time>2015-04-19T12:46:57Z</time>
      </trkpt>
      <trkpt lat="44.51909" lon="1.0165">
        <ele>103.48</ele>
        <time>2015-04-19T12:47:16Z</time>
      </trkpt>
      <trkpt lat="44.51884" lon="1.01662">
        <ele>103.48</ele>
        <time>2015-04-19T12:47:35Z</time>
      </trkpt>
      <trkpt lat="44.51858" lon="1.01676">
        <ele>103</ele>
        <time>2015-04-19T12:47:54Z</time>
      </trkpt>
      <trkpt lat="44.51833" lon="1.01689">
        <ele>103</ele>
        <time>2015-04-19T12:48:14Z</time>
      </trkpt>
      <trkpt lat="44.51831" lon="1.01689">
        <ele>103</ele>
        <time>2015-04-19T12:48:16Z</time>
      </trkpt>
      <trkpt lat="44.51828" lon="1.01688">
        <ele>102.52</ele>
        <time>2015-04-19T12:48:18Z</time>
      </trkpt>
      <trkpt lat="44.51827" lon="1.01687">
        <ele>102.52</ele>
        <time>2015-04-19T12:48:19Z</time>
      </trkpt>
      <trkpt lat="44.51814" lon="1.01667">
        <ele>102.04</ele>
        <time>2015-04-19T12:48:32Z</time>
      </trkpt>
      <trkpt lat="44.51803" lon="1.01642">
        <ele>101.08</ele>
        <time>2015-04-19T12:48:45Z</time>
      </trkpt>
      <trkpt lat="44.51801" lon="1.01639">
        <ele>101.08</ele>
        <time>2015-04-19T12:48:47Z</time>
      </trkpt>
      <trkpt lat="44.518" lon="1.01635">
        <ele>101.08</ele>
        <time>2015-04-19T12:48:49Z</time>
      </trkpt>
      <trkpt lat="44.51799" lon="1.01634">
        <ele>101.08</ele>
        <time>2015-04-19T12:48:50Z</time>
      </trkpt>
      <trkpt lat="44.51798" lon="1.01632">
        <ele>101.08</ele>
        <time>2015-04-19T12:48:51Z</time>
      </trkpt>
      <trkpt lat="44.51797" lon="1.01629">
        <ele>101.08</ele>
        <time>2015-04-19T12:48:53Z</time>
      </trkpt>
      <trkpt lat="44.51796" lon="1.01627">
        <ele>101.08</ele>
        <time>2015-04-19T12:48:54Z</time>
      </trkpt>
      <trkpt lat="44.51796" lon="1.01625">
        <ele>101.08</ele>
        <time>2015-04-19T12:48:55Z</time>
      </trkpt>
      <trkpt lat="44.51795" lon="1.01623">
        <ele>101.08</ele>
        <time>2015-04-19T12:48:56Z</time>
      </trkpt>
      <trkpt lat="44.51794" lon="1.01622">
        <ele>101.08</ele>
        <time>2015-04-19T12:48:57Z</time>
      </trkpt>
      <trkpt lat="44.51794" lon="1.0162">
        <ele>101.08</ele>
        <time>2015-04-19T12:48:58Z</time>
      </trkpt>
      <trkpt lat="44.51789" lon="1.01605">
        <ele>101.08</ele>
        <time>2015-04-19T12:49:05Z</time>
      </trkpt>
      <trkpt lat="44.51789" lon="1.01603">
        <ele>101.08</ele>
        <time>2015-04-19T12:49:06Z</time>
      </trkpt>
      <trkpt lat="44.51788" lon="1.01602">
        <ele>101.08</ele>
        <time>2015-04-19T12:49:07Z</time>
      </trkpt>
      <trkpt lat="44.51788" lon="1.016">
        <ele>101.08</ele>
        <time>2015-04-19T12:49:08Z</time>
      </trkpt>
      <trkpt lat="44.51787" lon="1.01599">
        <ele>101.08</ele>
        <time>2015-04-19T12:49:09Z</time>
      </trkpt>
      <trkpt lat="44.51786" lon="1.01596">
        <ele>102.52</ele>
        <time>2015-04-19T12:49:10Z</time>
      </trkpt>
      <trkpt lat="44.51786" lon="1.01595">
        <ele>102.52</ele>
        <time>2015-04-19T12:49:11Z</time>
      </trkpt>
      <trkpt lat="44.51778" lon="1.01573">
        <ele>103.96</ele>
        <time>2015-04-19T12:49:24Z</time>
      </trkpt>
      <trkpt lat="44.51777" lon="1.01571">
        <ele>104.44</ele>
        <time>2015-04-19T12:49:25Z</time>
      </trkpt>
      <trkpt lat="44.51776" lon="1.01569">
        <ele>104.44</ele>
        <time>2015-04-19T12:49:26Z</time>
      </trkpt>
      <trkpt lat="44.51776" lon="1.01568">
        <ele>104.44</ele>
        <time>2015-04-19T12:49:27Z</time>
      </trkpt>
      <trkpt lat="44.51775" lon="1.01566">
        <ele>104.44</ele>
        <time>2015-04-19T12:49:28Z</time>
      </trkpt>
      <trkpt lat="44.51771" lon="1.01557">
        <ele>104.92</ele>
        <time>2015-04-19T12:49:33Z</time>
      </trkpt>
      <trkpt lat="44.51771" lon="1.01556">
        <ele>104.92</ele>
        <time>2015-04-19T12:49:34Z</time>
      </trkpt>
      <trkpt lat="44.5177" lon="1.01554">
        <ele>104.92</ele>
        <time>2015-04-19T12:49:35Z</time>
      </trkpt>
      <trkpt lat="44.51768" lon="1.0155">
        <ele>104.92</ele>
        <time>2015-04-19T12:49:37Z</time>
      </trkpt>
      <trkpt lat="44.51767" lon="1.01549">
        <ele>104.92</ele>
        <time>2015-04-19T12:49:38Z</time>
      </trkpt>
      <trkpt lat="44.51766" lon="1.01548">
        <ele>104.92</ele>
        <time>2015-04-19T12:49:39Z</time>
      </trkpt>
      <trkpt lat="44.51765" lon="1.01546">
        <ele>104.92</ele>
        <time>2015-04-19T12:49:40Z</time>
      </trkpt>
      <trkpt lat="44.51765" lon="1.01545">
        <ele>104.92</ele>
        <time>2015-04-19T12:49:41Z</time>
      </trkpt>
      <trkpt lat="44.51763" lon="1.01543">
        <ele>104.92</ele>
        <time>2015-04-19T12:49:42Z</time>
      </trkpt>
      <trkpt lat="44.5175" lon="1.01522">
        <ele>104.92</ele>
        <time>2015-04-19T12:49:56Z</time>
      </trkpt>
      <trkpt lat="44.51731" lon="1.015">
        <ele>103</ele>
        <time>2015-04-19T12:50:11Z</time>
      </trkpt>
      <trkpt lat="44.51715" lon="1.01486">
        <ele>102.52</ele>
        <time>2015-04-19T12:50:23Z</time>
      </trkpt>
      <trkpt lat="44.51697" lon="1.01477">
        <ele>101.08</ele>
        <time>2015-04-19T12:50:37Z</time>
      </trkpt>
      <trkpt lat="44.51683" lon="1.01497">
        <ele>101.08</ele>
        <time>2015-04-19T12:50:52Z</time>
      </trkpt>
      <trkpt lat="44.51667" lon="1.01523">
        <ele>102.04</ele>
        <time>2015-04-19T12:51:10Z</time>
      </trkpt>
      <trkpt lat="44.51655" lon="1.01546">
        <ele>103</ele>
        <time>2015-04-19T12:51:26Z</time>
      </trkpt>
      <trkpt lat="44.51641" lon="1.01565">
        <ele>105.88</ele>
        <time>2015-04-19T12:51:43Z</time>
      </trkpt>
      <trkpt lat="44.51627" lon="1.01569">
        <ele>107.32</ele>
        <time>2015-04-19T12:51:55Z</time>
      </trkpt>
      <trkpt lat="44.51625" lon="1.01569">
        <ele>107.32</ele>
        <time>2015-04-19T12:51:56Z</time>
      </trkpt>
      <trkpt lat="44.51624" lon="1.01568">
        <ele>107.81</ele>
        <time>2015-04-19T12:51:57Z</time>
      </trkpt>
      <trkpt lat="44.51623" lon="1.01568">
        <ele>107.81</ele>
        <time>2015-04-19T12:51:58Z</time>
      </trkpt>
      <trkpt lat="44.5161" lon="1.01561">
        <ele>109.25</ele>
        <time>2015-04-19T12:52:10Z</time>
      </trkpt>
      <trkpt lat="44.51596" lon="1.01557">
        <ele>111.17</ele>
        <time>2015-04-19T12:52:24Z</time>
      </trkpt>
      <trkpt lat="44.51579" lon="1.01555">
        <ele>112.61</ele>
        <time>2015-04-19T12:52:36Z</time>
      </trkpt>
      <trkpt lat="44.51576" lon="1.01556">
        <ele>113.09</ele>
        <time>2015-04-19T12:52:39Z</time>
      </trkpt>
      <trkpt lat="44.51573" lon="1.01556">
        <ele>113.57</ele>
        <time>2015-04-19T12:52:41Z</time>
      </trkpt>
      <trkpt lat="44.51572" lon="1.01556">
        <ele>113.57</ele>
        <time>2015-04-19T12:52:42Z</time>
      </trkpt>
      <trkpt lat="44.5157" lon="1.01557">
        <ele>113.57</ele>
        <time>2015-04-19T12:52:43Z</time>
      </trkpt>
      <trkpt lat="44.51569" lon="1.01557">
        <ele>113.57</ele>
        <time>2015-04-19T12:52:44Z</time>
      </trkpt>
      <trkpt lat="44.51567" lon="1.01556">
        <ele>113.57</ele>
        <time>2015-04-19T12:52:45Z</time>
      </trkpt>
      <trkpt lat="44.51566" lon="1.01556">
        <ele>114.05</ele>
        <time>2015-04-19T12:52:46Z</time>
      </trkpt>
      <trkpt lat="44.51548" lon="1.01554">
        <ele>114.05</ele>
        <time>2015-04-19T12:52:57Z</time>
      </trkpt>
      <trkpt lat="44.5152" lon="1.01546">
        <ele>113.09</ele>
        <time>2015-04-19T12:53:13Z</time>
      </trkpt>
      <trkpt lat="44.51501" lon="1.01543">
        <ele>112.61</ele>
        <time>2015-04-19T12:53:26Z</time>
      </trkpt>
      <trkpt lat="44.51479" lon="1.01539">
        <ele>111.17</ele>
        <time>2015-04-19T12:53:41Z</time>
      </trkpt>
      <trkpt lat="44.51459" lon="1.01535">
        <ele>109.73</ele>
        <time>2015-04-19T12:53:54Z</time>
      </trkpt>
      <trkpt lat="44.51437" lon="1.01527">
        <ele>108.29</ele>
        <time>2015-04-19T12:54:08Z</time>
      </trkpt>
      <trkpt lat="44.5142" lon="1.0152">
        <ele>107.32</ele>
        <time>2015-04-19T12:54:20Z</time>
      </trkpt>
      <trkpt lat="44.51396" lon="1.01511">
        <ele>105.88</ele>
        <time>2015-04-19T12:54:37Z</time>
      </trkpt>
      <trkpt lat="44.51372" lon="1.01498">
        <ele>105.4</ele>
        <time>2015-04-19T12:54:55Z</time>
      </trkpt>
      <trkpt lat="44.51354" lon="1.01485">
        <ele>104.44</ele>
        <time>2015-04-19T12:55:11Z</time>
      </trkpt>
      <trkpt lat="44.51338" lon="1.01467">
        <ele>104.44</ele>
        <time>2015-04-19T12:55:27Z</time>
      </trkpt>
      <trkpt lat="44.51337" lon="1.01466">
        <ele>104.44</ele>
        <time>2015-04-19T12:55:28Z</time>
      </trkpt>
      <trkpt lat="44.51335" lon="1.01466">
        <ele>104.44</ele>
        <time>2015-04-19T12:55:29Z</time>
      </trkpt>
      <trkpt lat="44.51334" lon="1.01465">
        <ele>104.44</ele>
        <time>2015-04-19T12:55:30Z</time>
      </trkpt>
      <trkpt lat="44.51333" lon="1.01464">
        <ele>104.44</ele>
        <time>2015-04-19T12:55:31Z</time>
      </trkpt>
      <trkpt lat="44.51331" lon="1.01463">
        <ele>104.44</ele>
        <time>2015-04-19T12:55:32Z</time>
      </trkpt>
      <trkpt lat="44.5133" lon="1.01462">
        <ele>104.44</ele>
        <time>2015-04-19T12:55:33Z</time>
      </trkpt>
      <trkpt lat="44.51329" lon="1.0146">
        <ele>104.44</ele>
        <time>2015-04-19T12:55:34Z</time>
      </trkpt>
      <trkpt lat="44.51328" lon="1.01459">
        <ele>104.44</ele>
        <time>2015-04-19T12:55:35Z</time>
      </trkpt>
      <trkpt lat="44.51327" lon="1.01458">
        <ele>104.44</ele>
        <time>2015-04-19T12:55:36Z</time>
      </trkpt>
      <trkpt lat="44.51326" lon="1.01457">
        <ele>104.44</ele>
        <time>2015-04-19T12:55:37Z</time>
      </trkpt>
      <trkpt lat="44.51324" lon="1.01456">
        <ele>104.44</ele>
        <time>2015-04-19T12:55:38Z</time>
      </trkpt>
      <trkpt lat="44.51309" lon="1.01435">
        <ele>104.44</ele>
        <time>2015-04-19T12:55:52Z</time>
      </trkpt>
      <trkpt lat="44.51306" lon="1.01429">
        <ele>103.96</ele>
        <time>2015-04-19T12:55:55Z</time>
      </trkpt>
      <trkpt lat="44.51305" lon="1.01425">
        <ele>103.96</ele>
        <time>2015-04-19T12:55:57Z</time>
      </trkpt>
      <trkpt lat="44.51299" lon="1.01415">
        <ele>103.96</ele>
        <time>2015-04-19T12:56:04Z</time>
      </trkpt>
      <trkpt lat="44.51298" lon="1.01413">
        <ele>103.96</ele>
        <time>2015-04-19T12:56:05Z</time>
      </trkpt>
      <trkpt lat="44.51298" lon="1.01412">
        <ele>103.96</ele>
        <time>2015-04-19T12:56:06Z</time>
      </trkpt>
      <trkpt lat="44.51297" lon="1.0141">
        <ele>103.96</ele>
        <time>2015-04-19T12:56:07Z</time>
      </trkpt>
      <trkpt lat="44.51296" lon="1.01408">
        <ele>103.96</ele>
        <time>2015-04-19T12:56:08Z</time>
      </trkpt>
      <trkpt lat="44.51295" lon="1.01407">
        <ele>103.96</ele>
        <time>2015-04-19T12:56:09Z</time>
      </trkpt>
      <trkpt lat="44.51295" lon="1.01405">
        <ele>103.96</ele>
        <time>2015-04-19T12:56:10Z</time>
      </trkpt>
      <trkpt lat="44.51293" lon="1.01399">
        <ele>103.96</ele>
        <time>2015-04-19T12:56:13Z</time>
      </trkpt>
      <trkpt lat="44.51287" lon="1.0138">
        <ele>103.96</ele>
        <time>2015-04-19T12:56:24Z</time>
      </trkpt>
      <trkpt lat="44.51286" lon="1.01377">
        <ele>103.96</ele>
        <time>2015-04-19T12:56:25Z</time>
      </trkpt>
      <trkpt lat="44.51285" lon="1.0137">
        <ele>103.96</ele>
        <time>2015-04-19T12:56:28Z</time>
      </trkpt>
      <trkpt lat="44.51284" lon="1.01368">
        <ele>103.96</ele>
        <time>2015-04-19T12:56:29Z</time>
      </trkpt>
      <trkpt lat="44.51284" lon="1.01366">
        <ele>103.96</ele>
        <time>2015-04-19T12:56:30Z</time>
      </trkpt>
      <trkpt lat="44.51275" lon="1.01335">
        <ele>103.96</ele>
        <time>2015-04-19T12:56:45Z</time>
      </trkpt>
      <trkpt lat="44.51274" lon="1.01334">
        <ele>103.96</ele>
        <time>2015-04-19T12:56:46Z</time>
      </trkpt>
      <trkpt lat="44.51274" lon="1.01332">
        <ele>103.96</ele>
        <time>2015-04-19T12:56:47Z</time>
      </trkpt>
      <trkpt lat="44.51274" lon="1.01331">
        <ele>103.96</ele>
        <time>2015-04-19T12:56:48Z</time>
      </trkpt>
      <trkpt lat="44.51274" lon="1.01329">
        <ele>103.96</ele>
        <time>2015-04-19T12:56:49Z</time>
      </trkpt>
      <trkpt lat="44.51274" lon="1.01326">
        <ele>103.96</ele>
        <time>2015-04-19T12:56:50Z</time>
      </trkpt>
      <trkpt lat="44.51274" lon="1.01324">
        <ele>103.96</ele>
        <time>2015-04-19T12:56:51Z</time>
      </trkpt>
      <trkpt lat="44.51275" lon="1.01322">
        <ele>103.96</ele>
        <time>2015-04-19T12:56:52Z</time>
      </trkpt>
      <trkpt lat="44.51275" lon="1.0132">
        <ele>103.96</ele>
        <time>2015-04-19T12:56:53Z</time>
      </trkpt>
      <trkpt lat="44.51275" lon="1.01317">
        <ele>103.96</ele>
        <time>2015-04-19T12:56:55Z</time>
      </trkpt>
      <trkpt lat="44.51276" lon="1.01315">
        <ele>103.96</ele>
        <time>2015-04-19T12:56:56Z</time>
      </trkpt>
      <trkpt lat="44.51276" lon="1.01313">
        <ele>103.96</ele>
        <time>2015-04-19T12:56:57Z</time>
      </trkpt>
      <trkpt lat="44.51277" lon="1.0131">
        <ele>103.96</ele>
        <time>2015-04-19T12:56:59Z</time>
      </trkpt>
      <trkpt lat="44.51278" lon="1.01308">
        <ele>103.96</ele>
        <time>2015-04-19T12:57:00Z</time>
      </trkpt>
      <trkpt lat="44.51278" lon="1.01306">
        <ele>103.96</ele>
        <time>2015-04-19T12:57:01Z</time>
      </trkpt>
      <trkpt lat="44.51277" lon="1.01301">
        <ele>103.96</ele>
        <time>2015-04-19T12:57:02Z</time>
      </trkpt>
      <trkpt lat="44.51277" lon="1.01298">
        <ele>103.96</ele>
        <time>2015-04-19T12:57:03Z</time>
      </trkpt>
      <trkpt lat="44.51278" lon="1.01295">
        <ele>103.96</ele>
        <time>2015-04-19T12:57:04Z</time>
      </trkpt>
      <trkpt lat="44.51282" lon="1.01268">
        <ele>103.96</ele>
        <time>2015-04-19T12:57:15Z</time>
      </trkpt>
      <trkpt lat="44.51283" lon="1.01259">
        <ele>103.96</ele>
        <time>2015-04-19T12:57:19Z</time>
      </trkpt>
      <trkpt lat="44.51298" lon="1.01233">
        <ele>102.52</ele>
        <time>2015-04-19T12:57:34Z</time>
      </trkpt>
      <trkpt lat="44.51303" lon="1.01225">
        <ele>101.08</ele>
        <time>2015-04-19T12:57:40Z</time>
      </trkpt>
      <trkpt lat="44.51308" lon="1.01213">
        <ele>100.11</ele>
        <time>2015-04-19T12:57:49Z</time>
      </trkpt>
      <trkpt lat="44.51309" lon="1.01211">
        <ele>99.63</ele>
        <time>2015-04-19T12:57:50Z</time>
      </trkpt>
      <trkpt lat="44.51309" lon="1.012">
        <ele>99.15</ele>
        <time>2015-04-19T12:57:57Z</time>
      </trkpt>
      <trkpt lat="44.51308" lon="1.01182">
        <ele>97.71</ele>
        <time>2015-04-19T12:58:07Z</time>
      </trkpt>
      <trkpt lat="44.51305" lon="1.0116">
        <ele>97.71</ele>
        <time>2015-04-19T12:58:20Z</time>
      </trkpt>
      <trkpt lat="44.51304" lon="1.01144">
        <ele>98.19</ele>
        <time>2015-04-19T12:58:32Z</time>
      </trkpt>
      <trkpt lat="44.51306" lon="1.01133">
        <ele>97.71</ele>
        <time>2015-04-19T12:58:39Z</time>
      </trkpt>
      <trkpt lat="44.51306" lon="1.01124">
        <ele>97.71</ele>
        <time>2015-04-19T12:58:43Z</time>
      </trkpt>
      <trkpt lat="44.51307" lon="1.01111">
        <ele>97.71</ele>
        <time>2015-04-19T12:58:50Z</time>
      </trkpt>
      <trkpt lat="44.51309" lon="1.01084">
        <ele>97.71</ele>
        <time>2015-04-19T12:59:02Z</time>
      </trkpt>
      <trkpt lat="44.51307" lon="1.01064">
        <ele>97.71</ele>
        <time>2015-04-19T12:59:10Z</time>
      </trkpt>
      <trkpt lat="44.513" lon="1.01043">
        <ele>99.15</ele>
        <time>2015-04-19T12:59:22Z</time>
      </trkpt>
      <trkpt lat="44.51296" lon="1.01033">
        <ele>99.15</ele>
        <time>2015-04-19T12:59:27Z</time>
      </trkpt>
      <trkpt lat="44.51292" lon="1.01027">
        <ele>99.15</ele>
        <time>2015-04-19T12:59:31Z</time>
      </trkpt>
      <trkpt lat="44.51276" lon="1.01012">
        <ele>101.08</ele>
        <time>2015-04-19T12:59:46Z</time>
      </trkpt>
      <trkpt lat="44.5127" lon="1.01005">
        <ele>101.56</ele>
        <time>2015-04-19T12:59:50Z</time>
      </trkpt>
      <trkpt lat="44.51268" lon="1.01004">
        <ele>101.56</ele>
        <time>2015-04-19T12:59:51Z</time>
      </trkpt>
      <trkpt lat="44.51267" lon="1.01002">
        <ele>101.56</ele>
        <time>2015-04-19T12:59:52Z</time>
      </trkpt>
      <trkpt lat="44.51266" lon="1.01001">
        <ele>101.56</ele>
        <time>2015-04-19T12:59:53Z</time>
      </trkpt>
      <trkpt lat="44.51249" lon="1.0099">
        <ele>102.52</ele>
        <time>2015-04-19T13:00:06Z</time>
      </trkpt>
      <trkpt lat="44.51228" lon="1.00975">
        <ele>103</ele>
        <time>2015-04-19T13:00:20Z</time>
      </trkpt>
      <trkpt lat="44.51213" lon="1.0096">
        <ele>103.96</ele>
        <time>2015-04-19T13:00:36Z</time>
      </trkpt>
      <trkpt lat="44.51202" lon="1.00948">
        <ele>103.96</ele>
        <time>2015-04-19T13:00:47Z</time>
      </trkpt>
      <trkpt lat="44.512" lon="1.00946">
        <ele>103.96</ele>
        <time>2015-04-19T13:00:48Z</time>
      </trkpt>
      <trkpt lat="44.51199" lon="1.00946">
        <ele>103.96</ele>
        <time>2015-04-19T13:00:49Z</time>
      </trkpt>
      <trkpt lat="44.51198" lon="1.00945">
        <ele>103.96</ele>
        <time>2015-04-19T13:00:50Z</time>
      </trkpt>
      <trkpt lat="44.51194" lon="1.00936">
        <ele>103.96</ele>
        <time>2015-04-19T13:00:55Z</time>
      </trkpt>
      <trkpt lat="44.51192" lon="1.00934">
        <ele>103.96</ele>
        <time>2015-04-19T13:00:56Z</time>
      </trkpt>
      <trkpt lat="44.5118" lon="1.00915">
        <ele>103.96</ele>
        <time>2015-04-19T13:01:07Z</time>
      </trkpt>
      <trkpt lat="44.51176" lon="1.00909">
        <ele>103.96</ele>
        <time>2015-04-19T13:01:11Z</time>
      </trkpt>
      <trkpt lat="44.51165" lon="1.00876">
        <ele>104.44</ele>
        <time>2015-04-19T13:01:21Z</time>
      </trkpt>
      <trkpt lat="44.5115" lon="1.00853">
        <ele>103.96</ele>
        <time>2015-04-19T13:01:38Z</time>
      </trkpt>
      <trkpt lat="44.51136" lon="1.00835">
        <ele>104.44</ele>
        <time>2015-04-19T13:01:53Z</time>
      </trkpt>
      <trkpt lat="44.51122" lon="1.00816">
        <ele>104.44</ele>
        <time>2015-04-19T13:02:09Z</time>
      </trkpt>
      <trkpt lat="44.51111" lon="1.008">
        <ele>101.08</ele>
        <time>2015-04-19T13:02:22Z</time>
      </trkpt>
      <trkpt lat="44.51093" lon="1.00781">
        <ele>100.6</ele>
        <time>2015-04-19T13:02:38Z</time>
      </trkpt>
      <trkpt lat="44.51081" lon="1.00768">
        <ele>99.63</ele>
        <time>2015-04-19T13:02:50Z</time>
      </trkpt>
      <trkpt lat="44.51064" lon="1.00754">
        <ele>98.67</ele>
        <time>2015-04-19T13:03:03Z</time>
      </trkpt>
      <trkpt lat="44.5105" lon="1.00737">
        <ele>97.23</ele>
        <time>2015-04-19T13:03:15Z</time>
      </trkpt>
      <trkpt lat="44.51037" lon="1.00722">
        <ele>95.79</ele>
        <time>2015-04-19T13:03:29Z</time>
      </trkpt>
      <trkpt lat="44.51019" lon="1.00702">
        <ele>95.31</ele>
        <time>2015-04-19T13:03:46Z</time>
      </trkpt>
      <trkpt lat="44.50998" lon="1.00678">
        <ele>94.83</ele>
        <time>2015-04-19T13:04:02Z</time>
      </trkpt>
      <trkpt lat="44.50989" lon="1.00665">
        <ele>94.83</ele>
        <time>2015-04-19T13:04:11Z</time>
      </trkpt>
      <trkpt lat="44.50977" lon="1.00651">
        <ele>94.83</ele>
        <time>2015-04-19T13:04:22Z</time>
      </trkpt>
      <trkpt lat="44.50954" lon="1.00631">
        <ele>94.35</ele>
        <time>2015-04-19T13:04:39Z</time>
      </trkpt>
      <trkpt lat="44.50932" lon="1.00609">
        <ele>95.79</ele>
        <time>2015-04-19T13:04:58Z</time>
      </trkpt>
      <trkpt lat="44.50921" lon="1.00586">
        <ele>96.75</ele>
        <time>2015-04-19T13:05:12Z</time>
      </trkpt>
      <trkpt lat="44.50908" lon="1.00559">
        <ele>97.23</ele>
        <time>2015-04-19T13:05:27Z</time>
      </trkpt>
      <trkpt lat="44.50896" lon="1.00533">
        <ele>97.23</ele>
        <time>2015-04-19T13:05:43Z</time>
      </trkpt>
      <trkpt lat="44.50889" lon="1.00518">
        <ele>96.75</ele>
        <time>2015-04-19T13:05:52Z</time>
      </trkpt>
      <trkpt lat="44.50886" lon="1.00512">
        <ele>96.75</ele>
        <time>2015-04-19T13:05:56Z</time>
      </trkpt>
      <trkpt lat="44.50881" lon="1.00492">
        <ele>94.83</ele>
        <time>2015-04-19T13:06:08Z</time>
      </trkpt>
      <trkpt lat="44.50869" lon="1.00475">
        <ele>93.39</ele>
        <time>2015-04-19T13:06:21Z</time>
      </trkpt>
      <trkpt lat="44.50865" lon="1.00471">
        <ele>93.39</ele>
        <time>2015-04-19T13:06:24Z</time>
      </trkpt>
      <trkpt lat="44.50852" lon="1.00449">
        <ele>93.39</ele>
        <time>2015-04-19T13:06:37Z</time>
      </trkpt>
      <trkpt lat="44.50839" lon="1.00432">
        <ele>92.42</ele>
        <time>2015-04-19T13:06:51Z</time>
      </trkpt>
      <trkpt lat="44.50829" lon="1.00411">
        <ele>90.5</ele>
        <time>2015-04-19T13:07:03Z</time>
      </trkpt>
      <trkpt lat="44.5081" lon="1.00385">
        <ele>89.54</ele>
        <time>2015-04-19T13:07:18Z</time>
      </trkpt>
      <trkpt lat="44.50795" lon="1.00367">
        <ele>89.06</ele>
        <time>2015-04-19T13:07:33Z</time>
      </trkpt>
      <trkpt lat="44.50783" lon="1.00348">
        <ele>89.06</ele>
        <time>2015-04-19T13:07:48Z</time>
      </trkpt>
      <trkpt lat="44.50772" lon="1.00331">
        <ele>88.58</ele>
        <time>2015-04-19T13:08:02Z</time>
      </trkpt>
      <trkpt lat="44.50768" lon="1.00322">
        <ele>88.58</ele>
        <time>2015-04-19T13:08:08Z</time>
      </trkpt>
      <trkpt lat="44.50737" lon="1.00298">
        <ele>89.06</ele>
        <time>2015-04-19T13:08:25Z</time>
      </trkpt>
      <trkpt lat="44.50725" lon="1.00268">
        <ele>90.98</ele>
        <time>2015-04-19T13:08:38Z</time>
      </trkpt>
      <trkpt lat="44.50715" lon="1.00246">
        <ele>91.94</ele>
        <time>2015-04-19T13:08:51Z</time>
      </trkpt>
      <trkpt lat="44.50713" lon="1.00244">
        <ele>91.94</ele>
        <time>2015-04-19T13:08:53Z</time>
      </trkpt>
      <trkpt lat="44.50703" lon="1.0021">
        <ele>91.94</ele>
        <time>2015-04-19T13:09:10Z</time>
      </trkpt>
      <trkpt lat="44.50697" lon="1.00182">
        <ele>91.94</ele>
        <time>2015-04-19T13:09:23Z</time>
      </trkpt>
      <trkpt lat="44.50695" lon="1.0016">
        <ele>91.94</ele>
        <time>2015-04-19T13:09:36Z</time>
      </trkpt>
      <trkpt lat="44.50696" lon="1.00156">
        <ele>91.94</ele>
        <time>2015-04-19T13:09:38Z</time>
      </trkpt>
      <trkpt lat="44.50694" lon="1.00124">
        <ele>93.39</ele>
        <time>2015-04-19T13:09:52Z</time>
      </trkpt>
      <trkpt lat="44.5069" lon="1.0011">
        <ele>93.87</ele>
        <time>2015-04-19T13:10:00Z</time>
      </trkpt>
      <trkpt lat="44.50678" lon="1.00087">
        <ele>95.79</ele>
        <time>2015-04-19T13:10:11Z</time>
      </trkpt>
      <trkpt lat="44.50677" lon="1.00073">
        <ele>96.27</ele>
        <time>2015-04-19T13:10:16Z</time>
      </trkpt>
      <trkpt lat="44.50668" lon="1.00061">
        <ele>100.11</ele>
        <time>2015-04-19T13:10:23Z</time>
      </trkpt>
      <trkpt lat="44.5065" lon="1.00042">
        <ele>101.56</ele>
        <time>2015-04-19T13:10:35Z</time>
      </trkpt>
      <trkpt lat="44.50645" lon="1.00034">
        <ele>101.56</ele>
        <time>2015-04-19T13:10:40Z</time>
      </trkpt>
      <trkpt lat="44.50627" lon="1.00022">
        <ele>101.56</ele>
        <time>2015-04-19T13:10:52Z</time>
      </trkpt>
      <trkpt lat="44.50608" lon="1.00002">
        <ele>102.04</ele>
        <time>2015-04-19T13:11:07Z</time>
      </trkpt>
      <trkpt lat="44.50581" lon="0.99987">
        <ele>101.56</ele>
        <time>2015-04-19T13:11:24Z</time>
      </trkpt>
      <trkpt lat="44.50557" lon="0.99972">
        <ele>102.04</ele>
        <time>2015-04-19T13:11:40Z</time>
      </trkpt>
      <trkpt lat="44.50543" lon="0.99957">
        <ele>102.04</ele>
        <time>2015-04-19T13:11:52Z</time>
      </trkpt>
      <trkpt lat="44.5053" lon="0.99937">
        <ele>101.08</ele>
        <time>2015-04-19T13:12:06Z</time>
      </trkpt>
      <trkpt lat="44.50528" lon="0.99935">
        <ele>100.11</ele>
        <time>2015-04-19T13:12:08Z</time>
      </trkpt>
      <trkpt lat="44.5051" lon="0.9991">
        <ele>98.19</ele>
        <time>2015-04-19T13:12:24Z</time>
      </trkpt>
      <trkpt lat="44.50506" lon="0.99906">
        <ele>98.19</ele>
        <time>2015-04-19T13:12:27Z</time>
      </trkpt>
      <trkpt lat="44.50495" lon="0.99885">
        <ele>95.31</ele>
        <time>2015-04-19T13:12:42Z</time>
      </trkpt>
      <trkpt lat="44.50488" lon="0.9988">
        <ele>91.46</ele>
        <time>2015-04-19T13:12:49Z</time>
      </trkpt>
      <trkpt lat="44.5048" lon="0.99875">
        <ele>88.58</ele>
        <time>2015-04-19T13:12:55Z</time>
      </trkpt>
      <trkpt lat="44.50476" lon="0.99873">
        <ele>88.58</ele>
        <time>2015-04-19T13:12:58Z</time>
      </trkpt>
      <trkpt lat="44.50454" lon="0.99863">
        <ele>88.58</ele>
        <time>2015-04-19T13:13:12Z</time>
      </trkpt>
      <trkpt lat="44.50437" lon="0.99866">
        <ele>88.58</ele>
        <time>2015-04-19T13:13:24Z</time>
      </trkpt>
      <trkpt lat="44.5042" lon="0.99868">
        <ele>88.1</ele>
        <time>2015-04-19T13:13:39Z</time>
      </trkpt>
      <trkpt lat="44.50401" lon="0.99865">
        <ele>87.62</ele>
        <time>2015-04-19T13:13:51Z</time>
      </trkpt>
      <trkpt lat="44.50394" lon="0.99865">
        <ele>87.62</ele>
        <time>2015-04-19T13:13:55Z</time>
      </trkpt>
      <trkpt lat="44.50362" lon="0.99853">
        <ele>88.1</ele>
        <time>2015-04-19T13:14:10Z</time>
      </trkpt>
      <trkpt lat="44.50339" lon="0.99849">
        <ele>88.1</ele>
        <time>2015-04-19T13:14:24Z</time>
      </trkpt>
      <trkpt lat="44.5032" lon="0.99842">
        <ele>88.1</ele>
        <time>2015-04-19T13:14:37Z</time>
      </trkpt>
      <trkpt lat="44.50297" lon="0.99829">
        <ele>89.06</ele>
        <time>2015-04-19T13:14:52Z</time>
      </trkpt>
      <trkpt lat="44.50277" lon="0.99815">
        <ele>89.06</ele>
        <time>2015-04-19T13:15:07Z</time>
      </trkpt>
      <trkpt lat="44.50253" lon="0.998">
        <ele>87.14</ele>
        <time>2015-04-19T13:15:22Z</time>
      </trkpt>
      <trkpt lat="44.50234" lon="0.99788">
        <ele>86.66</ele>
        <time>2015-04-19T13:15:36Z</time>
      </trkpt>
      <trkpt lat="44.50227" lon="0.99779">
        <ele>86.66</ele>
        <time>2015-04-19T13:15:42Z</time>
      </trkpt>
      <trkpt lat="44.50207" lon="0.99762">
        <ele>86.66</ele>
        <time>2015-04-19T13:15:56Z</time>
      </trkpt>
      <trkpt lat="44.5019" lon="0.99743">
        <ele>89.06</ele>
        <time>2015-04-19T13:16:11Z</time>
      </trkpt>
      <trkpt lat="44.50174" lon="0.99724">
        <ele>89.06</ele>
        <time>2015-04-19T13:16:23Z</time>
      </trkpt>
      <trkpt lat="44.50159" lon="0.99707">
        <ele>88.1</ele>
        <time>2015-04-19T13:16:35Z</time>
      </trkpt>
      <trkpt lat="44.50144" lon="0.99684">
        <ele>86.66</ele>
        <time>2015-04-19T13:16:51Z</time>
      </trkpt>
      <trkpt lat="44.50139" lon="0.99675">
        <ele>86.18</ele>
        <time>2015-04-19T13:17:01Z</time>
      </trkpt>
      <trkpt lat="44.50132" lon="0.99652">
        <ele>84.73</ele>
        <time>2015-04-19T13:17:14Z</time>
      </trkpt>
      <trkpt lat="44.50124" lon="0.99636">
        <ele>84.25</ele>
        <time>2015-04-19T13:17:26Z</time>
      </trkpt>
      <trkpt lat="44.50122" lon="0.99633">
        <ele>84.73</ele>
        <time>2015-04-19T13:17:29Z</time>
      </trkpt>
      <trkpt lat="44.50118" lon="0.99628">
        <ele>84.25</ele>
        <time>2015-04-19T13:17:33Z</time>
      </trkpt>
      <trkpt lat="44.50111" lon="0.99611">
        <ele>83.77</ele>
        <time>2015-04-19T13:17:46Z</time>
      </trkpt>
      <trkpt lat="44.50106" lon="0.99599">
        <ele>83.77</ele>
        <time>2015-04-19T13:17:57Z</time>
      </trkpt>
      <trkpt lat="44.50095" lon="0.99574">
        <ele>84.25</ele>
        <time>2015-04-19T13:18:11Z</time>
      </trkpt>
      <trkpt lat="44.50093" lon="0.9957">
        <ele>84.25</ele>
        <time>2015-04-19T13:18:13Z</time>
      </trkpt>
      <trkpt lat="44.50079" lon="0.9955">
        <ele>84.25</ele>
        <time>2015-04-19T13:18:26Z</time>
      </trkpt>
      <trkpt lat="44.50064" lon="0.99511">
        <ele>84.73</ele>
        <time>2015-04-19T13:18:41Z</time>
      </trkpt>
      <trkpt lat="44.50059" lon="0.99478">
        <ele>86.18</ele>
        <time>2015-04-19T13:18:55Z</time>
      </trkpt>
      <trkpt lat="44.50051" lon="0.99445">
        <ele>87.14</ele>
        <time>2015-04-19T13:19:09Z</time>
      </trkpt>
      <trkpt lat="44.50044" lon="0.99424">
        <ele>88.1</ele>
        <time>2015-04-19T13:19:21Z</time>
      </trkpt>
      <trkpt lat="44.50031" lon="0.99407">
        <ele>89.54</ele>
        <time>2015-04-19T13:19:34Z</time>
      </trkpt>
      <trkpt lat="44.50031" lon="0.99406">
        <ele>89.54</ele>
        <time>2015-04-19T13:19:35Z</time>
      </trkpt>
      <trkpt lat="44.50022" lon="0.99402">
        <ele>90.98</ele>
        <time>2015-04-19T13:19:44Z</time>
      </trkpt>
      <trkpt lat="44.50007" lon="0.9937">
        <ele>92.42</ele>
        <time>2015-04-19T13:20:01Z</time>
      </trkpt>
      <trkpt lat="44.49986" lon="0.99346">
        <ele>92.42</ele>
        <time>2015-04-19T13:20:17Z</time>
      </trkpt>
      <trkpt lat="44.49967" lon="0.99323">
        <ele>92.9</ele>
        <time>2015-04-19T13:20:34Z</time>
      </trkpt>
      <trkpt lat="44.4995" lon="0.99302">
        <ele>91.46</ele>
        <time>2015-04-19T13:20:49Z</time>
      </trkpt>
      <trkpt lat="44.49944" lon="0.99285">
        <ele>90.02</ele>
        <time>2015-04-19T13:21:00Z</time>
      </trkpt>
      <trkpt lat="44.49942" lon="0.99281">
        <ele>90.02</ele>
        <time>2015-04-19T13:21:02Z</time>
      </trkpt>
      <trkpt lat="44.49938" lon="0.99254">
        <ele>89.06</ele>
        <time>2015-04-19T13:21:17Z</time>
      </trkpt>
      <trkpt lat="44.49934" lon="0.99228">
        <ele>88.58</ele>
        <time>2015-04-19T13:21:30Z</time>
      </trkpt>
      <trkpt lat="44.49929" lon="0.99203">
        <ele>87.62</ele>
        <time>2015-04-19T13:21:44Z</time>
      </trkpt>
      <trkpt lat="44.49927" lon="0.99182">
        <ele>87.14</ele>
        <time>2015-04-19T13:21:54Z</time>
      </trkpt>
      <trkpt lat="44.49924" lon="0.99154">
        <ele>86.66</ele>
        <time>2015-04-19T13:22:08Z</time>
      </trkpt>
      <trkpt lat="44.49923" lon="0.99114">
        <ele>85.69</ele>
        <time>2015-04-19T13:22:24Z</time>
      </trkpt>
      <trkpt lat="44.49923" lon="0.99083">
        <ele>85.69</ele>
        <time>2015-04-19T13:22:38Z</time>
      </trkpt>
      <trkpt lat="44.49915" lon="0.99044">
        <ele>85.21</ele>
        <time>2015-04-19T13:22:54Z</time>
      </trkpt>
      <trkpt lat="44.49914" lon="0.99014">
        <ele>84.73</ele>
        <time>2015-04-19T13:23:09Z</time>
      </trkpt>
      <trkpt lat="44.49916" lon="0.98983">
        <ele>84.25</ele>
        <time>2015-04-19T13:23:24Z</time>
      </trkpt>
      <trkpt lat="44.49918" lon="0.98965">
        <ele>83.77</ele>
        <time>2015-04-19T13:23:36Z</time>
      </trkpt>
      <trkpt lat="44.4991" lon="0.98955">
        <ele>83.77</ele>
        <time>2015-04-19T13:23:48Z</time>
      </trkpt>
      <trkpt lat="44.49902" lon="0.98948">
        <ele>83.77</ele>
        <time>2015-04-19T13:23:55Z</time>
      </trkpt>
      <trkpt lat="44.49887" lon="0.98941">
        <ele>83.77</ele>
        <time>2015-04-19T13:24:08Z</time>
      </trkpt>
      <trkpt lat="44.49874" lon="0.98933">
        <ele>83.77</ele>
        <time>2015-04-19T13:24:16Z</time>
      </trkpt>
      <trkpt lat="44.49858" lon="0.98919">
        <ele>83.77</ele>
        <time>2015-04-19T13:24:30Z</time>
      </trkpt>
      <trkpt lat="44.49857" lon="0.98918">
        <ele>84.25</ele>
        <time>2015-04-19T13:24:31Z</time>
      </trkpt>
      <trkpt lat="44.49836" lon="0.98903">
        <ele>84.25</ele>
        <time>2015-04-19T13:24:47Z</time>
      </trkpt>
      <trkpt lat="44.49832" lon="0.98897">
        <ele>84.25</ele>
        <time>2015-04-19T13:24:52Z</time>
      </trkpt>
      <trkpt lat="44.49847" lon="0.98876">
        <ele>84.25</ele>
        <time>2015-04-19T13:25:08Z</time>
      </trkpt>
      <trkpt lat="44.49861" lon="0.98862">
        <ele>84.25</ele>
        <time>2015-04-19T13:25:20Z</time>
      </trkpt>
      <trkpt lat="44.49875" lon="0.98846">
        <ele>84.25</ele>
        <time>2015-04-19T13:25:32Z</time>
      </trkpt>
      <trkpt lat="44.4989" lon="0.9883">
        <ele>84.25</ele>
        <time>2015-04-19T13:25:45Z</time>
      </trkpt>
      <trkpt lat="44.49909" lon="0.98821">
        <ele>84.25</ele>
        <time>2015-04-19T13:25:57Z</time>
      </trkpt>
      <trkpt lat="44.49916" lon="0.98819">
        <ele>84.25</ele>
        <time>2015-04-19T13:26:01Z</time>
      </trkpt>
      <trkpt lat="44.49935" lon="0.98812">
        <ele>84.25</ele>
        <time>2015-04-19T13:26:14Z</time>
      </trkpt>
      <trkpt lat="44.49957" lon="0.9881">
        <ele>83.77</ele>
        <time>2015-04-19T13:26:29Z</time>
      </trkpt>
      <trkpt lat="44.49958" lon="0.9881">
        <ele>85.21</ele>
        <time>2015-04-19T13:26:30Z</time>
      </trkpt>
      <trkpt lat="44.49966" lon="0.98811">
        <ele>84.73</ele>
        <time>2015-04-19T13:26:37Z</time>
      </trkpt>
      <trkpt lat="44.4997" lon="0.98811">
        <ele>84.73</ele>
        <time>2015-04-19T13:26:40Z</time>
      </trkpt>
      <trkpt lat="44.49974" lon="0.98809">
        <ele>84.73</ele>
        <time>2015-04-19T13:26:43Z</time>
      </trkpt>
      <trkpt lat="44.49978" lon="0.98809">
        <ele>84.73</ele>
        <time>2015-04-19T13:26:46Z</time>
      </trkpt>
      <trkpt lat="44.49987" lon="0.98811">
        <ele>85.21</ele>
        <time>2015-04-19T13:26:54Z</time>
      </trkpt>
      <trkpt lat="44.49995" lon="0.98813">
        <ele>85.21</ele>
        <time>2015-04-19T13:26:59Z</time>
      </trkpt>
      <trkpt lat="44.50017" lon="0.98813">
        <ele>85.69</ele>
        <time>2015-04-19T13:27:13Z</time>
      </trkpt>
      <trkpt lat="44.50024" lon="0.98812">
        <ele>85.69</ele>
        <time>2015-04-19T13:27:17Z</time>
      </trkpt>
      <trkpt lat="44.50049" lon="0.98816">
        <ele>86.18</ele>
        <time>2015-04-19T13:27:34Z</time>
      </trkpt>
      <trkpt lat="44.50057" lon="0.98817">
        <ele>86.18</ele>
        <time>2015-04-19T13:27:40Z</time>
      </trkpt>
      <trkpt lat="44.50058" lon="0.98818">
        <ele>86.18</ele>
        <time>2015-04-19T13:27:42Z</time>
      </trkpt>
      <trkpt lat="44.50064" lon="0.98812">
        <ele>86.66</ele>
        <time>2015-04-19T13:27:49Z</time>
      </trkpt>
      <trkpt lat="44.50088" lon="0.98795">
        <ele>87.62</ele>
        <time>2015-04-19T13:28:06Z</time>
      </trkpt>
      <trkpt lat="44.50098" lon="0.98784">
        <ele>87.62</ele>
        <time>2015-04-19T13:28:16Z</time>
      </trkpt>
      <trkpt lat="44.50105" lon="0.98776">
        <ele>88.1</ele>
        <time>2015-04-19T13:28:23Z</time>
      </trkpt>
      <trkpt lat="44.50106" lon="0.98773">
        <ele>88.1</ele>
        <time>2015-04-19T13:28:25Z</time>
      </trkpt>
      <trkpt lat="44.50117" lon="0.9875">
        <ele>89.54</ele>
        <time>2015-04-19T13:28:40Z</time>
      </trkpt>
      <trkpt lat="44.50129" lon="0.98722">
        <ele>90.5</ele>
        <time>2015-04-19T13:28:55Z</time>
      </trkpt>
      <trkpt lat="44.50133" lon="0.98714">
        <ele>90.5</ele>
        <time>2015-04-19T13:29:00Z</time>
      </trkpt>
      <trkpt lat="44.50139" lon="0.98691">
        <ele>91.46</ele>
        <time>2015-04-19T13:29:13Z</time>
      </trkpt>
      <trkpt lat="44.50147" lon="0.98664">
        <ele>91.94</ele>
        <time>2015-04-19T13:29:29Z</time>
      </trkpt>
      <trkpt lat="44.50154" lon="0.98636">
        <ele>92.42</ele>
        <time>2015-04-19T13:29:44Z</time>
      </trkpt>
      <trkpt lat="44.50162" lon="0.98604">
        <ele>93.39</ele>
        <time>2015-04-19T13:30:01Z</time>
      </trkpt>
      <trkpt lat="44.5017" lon="0.98574">
        <ele>94.83</ele>
        <time>2015-04-19T13:30:17Z</time>
      </trkpt>
      <trkpt lat="44.50185" lon="0.98547">
        <ele>95.79</ele>
        <time>2015-04-19T13:30:32Z</time>
      </trkpt>
      <trkpt lat="44.50187" lon="0.98542">
        <ele>96.27</ele>
        <time>2015-04-19T13:30:34Z</time>
      </trkpt>
      <trkpt lat="44.50189" lon="0.98537">
        <ele>96.27</ele>
        <time>2015-04-19T13:30:37Z</time>
      </trkpt>
      <trkpt lat="44.50199" lon="0.98507">
        <ele>96.75</ele>
        <time>2015-04-19T13:30:54Z</time>
      </trkpt>
      <trkpt lat="44.50205" lon="0.98496">
        <ele>97.23</ele>
        <time>2015-04-19T13:31:01Z</time>
      </trkpt>
      <trkpt lat="44.50223" lon="0.98472">
        <ele>98.19</ele>
        <time>2015-04-19T13:31:17Z</time>
      </trkpt>
      <trkpt lat="44.50243" lon="0.98461">
        <ele>99.63</ele>
        <time>2015-04-19T13:31:32Z</time>
      </trkpt>
      <trkpt lat="44.5026" lon="0.98459">
        <ele>101.08</ele>
        <time>2015-04-19T13:31:45Z</time>
      </trkpt>
      <trkpt lat="44.50275" lon="0.98446">
        <ele>102.04</ele>
        <time>2015-04-19T13:31:58Z</time>
      </trkpt>
      <trkpt lat="44.50286" lon="0.98424">
        <ele>103</ele>
        <time>2015-04-19T13:32:14Z</time>
      </trkpt>
      <trkpt lat="44.50289" lon="0.98414">
        <ele>103.96</ele>
        <time>2015-04-19T13:32:28Z</time>
      </trkpt>
      <trkpt lat="44.5029" lon="0.98396">
        <ele>103.96</ele>
        <time>2015-04-19T13:32:43Z</time>
      </trkpt>
      <trkpt lat="44.50287" lon="0.98384">
        <ele>103.96</ele>
        <time>2015-04-19T13:32:48Z</time>
      </trkpt>
      <trkpt lat="44.50274" lon="0.98359">
        <ele>103</ele>
        <time>2015-04-19T13:33:02Z</time>
      </trkpt>
      <trkpt lat="44.50262" lon="0.98338">
        <ele>102.52</ele>
        <time>2015-04-19T13:33:14Z</time>
      </trkpt>
      <trkpt lat="44.5025" lon="0.98309">
        <ele>103</ele>
        <time>2015-04-19T13:33:30Z</time>
      </trkpt>
      <trkpt lat="44.50236" lon="0.98289">
        <ele>102.52</ele>
        <time>2015-04-19T13:33:43Z</time>
      </trkpt>
      <trkpt lat="44.50222" lon="0.98271">
        <ele>102.52</ele>
        <time>2015-04-19T13:33:57Z</time>
      </trkpt>
      <trkpt lat="44.5022" lon="0.98267">
        <ele>102.52</ele>
        <time>2015-04-19T13:34:01Z</time>
      </trkpt>
      <trkpt lat="44.50213" lon="0.9824">
        <ele>103.96</ele>
        <time>2015-04-19T13:34:17Z</time>
      </trkpt>
      <trkpt lat="44.50208" lon="0.98214">
        <ele>104.44</ele>
        <time>2015-04-19T13:34:31Z</time>
      </trkpt>
      <trkpt lat="44.50206" lon="0.98193">
        <ele>104.92</ele>
        <time>2015-04-19T13:34:44Z</time>
      </trkpt>
      <trkpt lat="44.50206" lon="0.98175">
        <ele>106.36</ele>
        <time>2015-04-19T13:34:55Z</time>
      </trkpt>
      <trkpt lat="44.5021" lon="0.98155">
        <ele>106.36</ele>
        <time>2015-04-19T13:35:08Z</time>
      </trkpt>
      <trkpt lat="44.50217" lon="0.98117">
        <ele>107.32</ele>
        <time>2015-04-19T13:35:24Z</time>
      </trkpt>
      <trkpt lat="44.5022" lon="0.98084">
        <ele>107.81</ele>
        <time>2015-04-19T13:35:37Z</time>
      </trkpt>
      <trkpt lat="44.50218" lon="0.98057">
        <ele>108.77</ele>
        <time>2015-04-19T13:35:49Z</time>
      </trkpt>
      <trkpt lat="44.50213" lon="0.98041">
        <ele>109.73</ele>
        <time>2015-04-19T13:35:59Z</time>
      </trkpt>
      <trkpt lat="44.50206" lon="0.98019">
        <ele>111.17</ele>
        <time>2015-04-19T13:36:13Z</time>
      </trkpt>
      <trkpt lat="44.50202" lon="0.97994">
        <ele>113.09</ele>
        <time>2015-04-19T13:36:29Z</time>
      </trkpt>
      <trkpt lat="44.50202" lon="0.97968">
        <ele>115.01</ele>
        <time>2015-04-19T13:36:42Z</time>
      </trkpt>
      <trkpt lat="44.50203" lon="0.97938">
        <ele>116.94</ele>
        <time>2015-04-19T13:36:58Z</time>
      </trkpt>
      <trkpt lat="44.50204" lon="0.9792">
        <ele>117.9</ele>
        <time>2015-04-19T13:37:06Z</time>
      </trkpt>
      <trkpt lat="44.50204" lon="0.97894">
        <ele>118.86</ele>
        <time>2015-04-19T13:37:20Z</time>
      </trkpt>
      <trkpt lat="44.50205" lon="0.97867">
        <ele>119.34</ele>
        <time>2015-04-19T13:37:31Z</time>
      </trkpt>
      <trkpt lat="44.50214" lon="0.97844">
        <ele>120.3</ele>
        <time>2015-04-19T13:37:44Z</time>
      </trkpt>
      <trkpt lat="44.50222" lon="0.9782">
        <ele>120.3</ele>
        <time>2015-04-19T13:37:58Z</time>
      </trkpt>
      <trkpt lat="44.50232" lon="0.97803">
        <ele>119.82</ele>
        <time>2015-04-19T13:38:09Z</time>
      </trkpt>
      <trkpt lat="44.50236" lon="0.97794">
        <ele>119.82</ele>
        <time>2015-04-19T13:38:13Z</time>
      </trkpt>
      <trkpt lat="44.50248" lon="0.97769">
        <ele>120.3</ele>
        <time>2015-04-19T13:38:26Z</time>
      </trkpt>
      <trkpt lat="44.50256" lon="0.97752">
        <ele>120.78</ele>
        <time>2015-04-19T13:38:36Z</time>
      </trkpt>
      <trkpt lat="44.50266" lon="0.97735">
        <ele>121.74</ele>
        <time>2015-04-19T13:38:51Z</time>
      </trkpt>
      <trkpt lat="44.50274" lon="0.97721">
        <ele>123.67</ele>
        <time>2015-04-19T13:39:03Z</time>
      </trkpt>
      <trkpt lat="44.50278" lon="0.97715">
        <ele>124.15</ele>
        <time>2015-04-19T13:39:09Z</time>
      </trkpt>
      <trkpt lat="44.50288" lon="0.97698">
        <ele>125.59</ele>
        <time>2015-04-19T13:39:21Z</time>
      </trkpt>
      <trkpt lat="44.50293" lon="0.97692">
        <ele>127.03</ele>
        <time>2015-04-19T13:39:31Z</time>
      </trkpt>
      <trkpt lat="44.50294" lon="0.97689">
        <ele>127.51</ele>
        <time>2015-04-19T13:39:33Z</time>
      </trkpt>
      <trkpt lat="44.50303" lon="0.97678">
        <ele>128.47</ele>
        <time>2015-04-19T13:39:45Z</time>
      </trkpt>
      <trkpt lat="44.5031" lon="0.97653">
        <ele>129.43</ele>
        <time>2015-04-19T13:39:58Z</time>
      </trkpt>
      <trkpt lat="44.5031" lon="0.97652">
        <ele>129.43</ele>
        <time>2015-04-19T13:39:59Z</time>
      </trkpt>
      <trkpt lat="44.50304" lon="0.97635">
        <ele>131.84</ele>
        <time>2015-04-19T13:40:14Z</time>
      </trkpt>
      <trkpt lat="44.50303" lon="0.97632">
        <ele>131.84</ele>
        <time>2015-04-19T13:40:16Z</time>
      </trkpt>
      <trkpt lat="44.50296" lon="0.9761">
        <ele>134.24</ele>
        <time>2015-04-19T13:40:29Z</time>
      </trkpt>
      <trkpt lat="44.50295" lon="0.97608">
        <ele>134.72</ele>
        <time>2015-04-19T13:40:30Z</time>
      </trkpt>
      <trkpt lat="44.50283" lon="0.97585">
        <ele>136.64</ele>
        <time>2015-04-19T13:40:44Z</time>
      </trkpt>
      <trkpt lat="44.5028" lon="0.97578">
        <ele>136.64</ele>
        <time>2015-04-19T13:40:48Z</time>
      </trkpt>
      <trkpt lat="44.50273" lon="0.97558">
        <ele>139.05</ele>
        <time>2015-04-19T13:41:01Z</time>
      </trkpt>
      <trkpt lat="44.50271" lon="0.97556">
        <ele>139.53</ele>
        <time>2015-04-19T13:41:03Z</time>
      </trkpt>
      <trkpt lat="44.50262" lon="0.97537">
        <ele>141.93</ele>
        <time>2015-04-19T13:41:18Z</time>
      </trkpt>
      <trkpt lat="44.50252" lon="0.97524">
        <ele>142.89</ele>
        <time>2015-04-19T13:41:31Z</time>
      </trkpt>
      <trkpt lat="44.50253" lon="0.97519">
        <ele>144.34</ele>
        <time>2015-04-19T13:41:45Z</time>
      </trkpt>
      <trkpt lat="44.50263" lon="0.97504">
        <ele>145.3</ele>
        <time>2015-04-19T13:41:58Z</time>
      </trkpt>
      <trkpt lat="44.50269" lon="0.97498">
        <ele>146.74</ele>
        <time>2015-04-19T13:42:05Z</time>
      </trkpt>
      <trkpt lat="44.50283" lon="0.97469">
        <ele>147.7</ele>
        <time>2015-04-19T13:42:18Z</time>
      </trkpt>
      <trkpt lat="44.50297" lon="0.9744">
        <ele>149.14</ele>
        <time>2015-04-19T13:42:32Z</time>
      </trkpt>
      <trkpt lat="44.50298" lon="0.9743">
        <ele>152.51</ele>
        <time>2015-04-19T13:42:44Z</time>
      </trkpt>
      <trkpt lat="44.50297" lon="0.97414">
        <ele>155.39</ele>
        <time>2015-04-19T13:42:56Z</time>
      </trkpt>
      <trkpt lat="44.50293" lon="0.97398">
        <ele>155.87</ele>
        <time>2015-04-19T13:43:09Z</time>
      </trkpt>
      <trkpt lat="44.5029" lon="0.97387">
        <ele>159.24</ele>
        <time>2015-04-19T13:43:20Z</time>
      </trkpt>
      <trkpt lat="44.50288" lon="0.97366">
        <ele>161.16</ele>
        <time>2015-04-19T13:43:31Z</time>
      </trkpt>
      <trkpt lat="44.50288" lon="0.97351">
        <ele>161.64</ele>
        <time>2015-04-19T13:43:42Z</time>
      </trkpt>
      <trkpt lat="44.5029" lon="0.97334">
        <ele>162.6</ele>
        <time>2015-04-19T13:43:56Z</time>
      </trkpt>
      <trkpt lat="44.50291" lon="0.97309">
        <ele>162.6</ele>
        <time>2015-04-19T13:44:09Z</time>
      </trkpt>
      <trkpt lat="44.5029" lon="0.97278">
        <ele>160.2</ele>
        <time>2015-04-19T13:44:20Z</time>
      </trkpt>
      <trkpt lat="44.50289" lon="0.97272">
        <ele>159.72</ele>
        <time>2015-04-19T13:44:23Z</time>
      </trkpt>
      <trkpt lat="44.50285" lon="0.97248">
        <ele>158.27</ele>
        <time>2015-04-19T13:44:35Z</time>
      </trkpt>
      <trkpt lat="44.50285" lon="0.97242">
        <ele>157.79</ele>
        <time>2015-04-19T13:44:38Z</time>
      </trkpt>
      <trkpt lat="44.50279" lon="0.9722">
        <ele>156.35</ele>
        <time>2015-04-19T13:44:52Z</time>
      </trkpt>
      <trkpt lat="44.50274" lon="0.97206">
        <ele>155.39</ele>
        <time>2015-04-19T13:45:04Z</time>
      </trkpt>
      <trkpt lat="44.50268" lon="0.97181">
        <ele>154.43</ele>
        <time>2015-04-19T13:45:15Z</time>
      </trkpt>
      <trkpt lat="44.50267" lon="0.97177">
        <ele>153.95</ele>
        <time>2015-04-19T13:45:17Z</time>
      </trkpt>
      <trkpt lat="44.50259" lon="0.97159">
        <ele>153.47</ele>
        <time>2015-04-19T13:45:27Z</time>
      </trkpt>
      <trkpt lat="44.50246" lon="0.97152">
        <ele>152.99</ele>
        <time>2015-04-19T13:45:38Z</time>
      </trkpt>
      <trkpt lat="44.50235" lon="0.97144">
        <ele>153.47</ele>
        <time>2015-04-19T13:45:50Z</time>
      </trkpt>
      <trkpt lat="44.50225" lon="0.97123">
        <ele>153.95</ele>
        <time>2015-04-19T13:46:03Z</time>
      </trkpt>
      <trkpt lat="44.50221" lon="0.97107">
        <ele>153.95</ele>
        <time>2015-04-19T13:46:15Z</time>
      </trkpt>
      <trkpt lat="44.50216" lon="0.97107">
        <ele>155.39</ele>
        <time>2015-04-19T13:46:19Z</time>
      </trkpt>
      <trkpt lat="44.50205" lon="0.97093">
        <ele>156.35</ele>
        <time>2015-04-19T13:46:33Z</time>
      </trkpt>
      <trkpt lat="44.502" lon="0.97068">
        <ele>157.31</ele>
        <time>2015-04-19T13:46:44Z</time>
      </trkpt>
      <trkpt lat="44.50194" lon="0.97049">
        <ele>157.79</ele>
        <time>2015-04-19T13:46:57Z</time>
      </trkpt>
      <trkpt lat="44.50203" lon="0.97019">
        <ele>158.27</ele>
        <time>2015-04-19T13:47:09Z</time>
      </trkpt>
      <trkpt lat="44.50205" lon="0.97011">
        <ele>158.27</ele>
        <time>2015-04-19T13:47:28Z</time>
      </trkpt>
      <trkpt lat="44.50201" lon="0.97007">
        <ele>158.27</ele>
        <time>2015-04-19T13:47:47Z</time>
      </trkpt>
      <trkpt lat="44.50199" lon="0.97007">
        <ele>158.27</ele>
        <time>2015-04-19T13:48:02Z</time>
      </trkpt>
      <trkpt lat="44.50198" lon="0.97007">
        <ele>157.79</ele>
        <time>2015-04-19T13:48:18Z</time>
      </trkpt>
      <trkpt lat="44.50198" lon="0.97007">
        <ele>157.79</ele>
        <time>2015-04-19T13:48:41Z</time>
      </trkpt>
      <trkpt lat="44.50197" lon="0.97006">
        <ele>157.79</ele>
        <time>2015-04-19T13:49:03Z</time>
      </trkpt>
      <trkpt lat="44.50195" lon="0.97006">
        <ele>157.31</ele>
        <time>2015-04-19T13:49:34Z</time>
      </trkpt>
    </trkseg>
  </trk>
</gpx>